<?xml version="1.0" encoding="UTF-8" standalone="no" ?>
<gpx xmlns="http://www.topografix.com/GPX/1/1" xmlns:xsi="http://www.w3.org/2001/XMLSchema-instance" xsi:schemaLocation="http://www.topografix.com/GPX/1/1 http://www.topografix.com/GPX/1/1/gpx.xsd" version="1.1" creator="VisuGPX - https://www.visugpx.com">
  <metadata>
    <name>Grand St Jean, ancien canal Verdon_3 juin 2020</name>
    <desc><![CDATA[Boucle de 13.5 km, dénivelé cumulé 100 m au départ du Ball Trap près du cimetière du Grand St Jean]]></desc>
  </metadata>
  <trk>
    <name><![CDATA[Grand St Jean, ancien canal Verdon_3 juin 2020]]></name>
    <trkseg>
      <trkpt lat="43.60582" lon="5.37352">
        <ele>313</ele>
        <time>2020-06-03T06:36:59Z</time>
      </trkpt>
      <trkpt lat="43.60582" lon="5.37349">
        <ele>313</ele>
        <time>2020-06-03T06:37:03Z</time>
      </trkpt>
      <trkpt lat="43.60579" lon="5.37347">
        <ele>313</ele>
        <time>2020-06-03T06:37:07Z</time>
      </trkpt>
      <trkpt lat="43.60578" lon="5.37348">
        <ele>313</ele>
        <time>2020-06-03T06:37:11Z</time>
      </trkpt>
      <trkpt lat="43.60579" lon="5.37349">
        <ele>313</ele>
        <time>2020-06-03T06:37:15Z</time>
      </trkpt>
      <trkpt lat="43.60579" lon="5.37349">
        <ele>313</ele>
        <time>2020-06-03T06:38:01Z</time>
      </trkpt>
      <trkpt lat="43.6058" lon="5.37351">
        <ele>313</ele>
        <time>2020-06-03T06:38:06Z</time>
      </trkpt>
      <trkpt lat="43.6058" lon="5.3735">
        <ele>313</ele>
        <time>2020-06-03T06:38:11Z</time>
      </trkpt>
      <trkpt lat="43.60577" lon="5.37348">
        <ele>313</ele>
        <time>2020-06-03T06:38:16Z</time>
      </trkpt>
      <trkpt lat="43.60575" lon="5.37348">
        <ele>313</ele>
        <time>2020-06-03T06:38:20Z</time>
      </trkpt>
      <trkpt lat="43.60574" lon="5.37349">
        <ele>313</ele>
        <time>2020-06-03T06:38:31Z</time>
      </trkpt>
      <trkpt lat="43.60573" lon="5.37349">
        <ele>313</ele>
        <time>2020-06-03T06:38:36Z</time>
      </trkpt>
      <trkpt lat="43.60572" lon="5.37349">
        <ele>313</ele>
        <time>2020-06-03T06:38:58Z</time>
      </trkpt>
      <trkpt lat="43.60572" lon="5.37349">
        <ele>313</ele>
        <time>2020-06-03T06:39:05Z</time>
      </trkpt>
      <trkpt lat="43.60571" lon="5.37346">
        <ele>313</ele>
        <time>2020-06-03T06:39:10Z</time>
      </trkpt>
      <trkpt lat="43.60571" lon="5.37345">
        <ele>313</ele>
        <time>2020-06-03T06:39:45Z</time>
      </trkpt>
      <trkpt lat="43.60571" lon="5.37346">
        <ele>313</ele>
        <time>2020-06-03T06:40:02Z</time>
      </trkpt>
      <trkpt lat="43.60572" lon="5.37347">
        <ele>313</ele>
        <time>2020-06-03T06:40:17Z</time>
      </trkpt>
      <trkpt lat="43.60571" lon="5.37348">
        <ele>313</ele>
        <time>2020-06-03T06:40:29Z</time>
      </trkpt>
      <trkpt lat="43.6057" lon="5.37351">
        <ele>313</ele>
        <time>2020-06-03T06:40:33Z</time>
      </trkpt>
      <trkpt lat="43.6057" lon="5.37352">
        <ele>313</ele>
        <time>2020-06-03T06:40:42Z</time>
      </trkpt>
      <trkpt lat="43.6057" lon="5.37353">
        <ele>313</ele>
        <time>2020-06-03T06:40:49Z</time>
      </trkpt>
      <trkpt lat="43.60568" lon="5.37353">
        <ele>313</ele>
        <time>2020-06-03T06:40:54Z</time>
      </trkpt>
      <trkpt lat="43.60566" lon="5.3735">
        <ele>313</ele>
        <time>2020-06-03T06:40:58Z</time>
      </trkpt>
      <trkpt lat="43.60564" lon="5.37345">
        <ele>313</ele>
        <time>2020-06-03T06:41:03Z</time>
      </trkpt>
      <trkpt lat="43.6056" lon="5.37339">
        <ele>313</ele>
        <time>2020-06-03T06:41:07Z</time>
      </trkpt>
      <trkpt lat="43.60557" lon="5.37334">
        <ele>313</ele>
        <time>2020-06-03T06:41:12Z</time>
      </trkpt>
      <trkpt lat="43.60555" lon="5.37331">
        <ele>312</ele>
        <time>2020-06-03T06:41:16Z</time>
      </trkpt>
      <trkpt lat="43.60555" lon="5.37331">
        <ele>312</ele>
        <time>2020-06-03T06:41:22Z</time>
      </trkpt>
      <trkpt lat="43.60554" lon="5.37331">
        <ele>312</ele>
        <time>2020-06-03T06:41:26Z</time>
      </trkpt>
      <trkpt lat="43.60554" lon="5.37332">
        <ele>312</ele>
        <time>2020-06-03T06:41:46Z</time>
      </trkpt>
      <trkpt lat="43.60555" lon="5.37333">
        <ele>313</ele>
        <time>2020-06-03T06:41:57Z</time>
      </trkpt>
      <trkpt lat="43.60554" lon="5.37334">
        <ele>313</ele>
        <time>2020-06-03T06:42:08Z</time>
      </trkpt>
      <trkpt lat="43.60554" lon="5.37336">
        <ele>313</ele>
        <time>2020-06-03T06:42:26Z</time>
      </trkpt>
      <trkpt lat="43.60554" lon="5.37335">
        <ele>313</ele>
        <time>2020-06-03T06:42:42Z</time>
      </trkpt>
      <trkpt lat="43.60555" lon="5.37336">
        <ele>313</ele>
        <time>2020-06-03T06:42:46Z</time>
      </trkpt>
      <trkpt lat="43.60553" lon="5.37343">
        <ele>313</ele>
        <time>2020-06-03T06:42:50Z</time>
      </trkpt>
      <trkpt lat="43.6055" lon="5.37348">
        <ele>313</ele>
        <time>2020-06-03T06:42:54Z</time>
      </trkpt>
      <trkpt lat="43.60547" lon="5.37355">
        <ele>312</ele>
        <time>2020-06-03T06:42:59Z</time>
      </trkpt>
      <trkpt lat="43.60546" lon="5.3736">
        <ele>312</ele>
        <time>2020-06-03T06:43:03Z</time>
      </trkpt>
      <trkpt lat="43.60544" lon="5.37364">
        <ele>312</ele>
        <time>2020-06-03T06:43:08Z</time>
      </trkpt>
      <trkpt lat="43.60543" lon="5.37367">
        <ele>312</ele>
        <time>2020-06-03T06:43:12Z</time>
      </trkpt>
      <trkpt lat="43.60542" lon="5.3737">
        <ele>312</ele>
        <time>2020-06-03T06:43:17Z</time>
      </trkpt>
      <trkpt lat="43.60541" lon="5.37374">
        <ele>312</ele>
        <time>2020-06-03T06:43:21Z</time>
      </trkpt>
      <trkpt lat="43.6054" lon="5.37379">
        <ele>312</ele>
        <time>2020-06-03T06:43:26Z</time>
      </trkpt>
      <trkpt lat="43.6054" lon="5.37378">
        <ele>312</ele>
        <time>2020-06-03T06:43:42Z</time>
      </trkpt>
      <trkpt lat="43.6054" lon="5.37377">
        <ele>312</ele>
        <time>2020-06-03T06:43:46Z</time>
      </trkpt>
      <trkpt lat="43.60541" lon="5.37375">
        <ele>312</ele>
        <time>2020-06-03T06:43:51Z</time>
      </trkpt>
      <trkpt lat="43.60541" lon="5.37373">
        <ele>312</ele>
        <time>2020-06-03T06:43:55Z</time>
      </trkpt>
      <trkpt lat="43.60542" lon="5.3737">
        <ele>312</ele>
        <time>2020-06-03T06:44:00Z</time>
      </trkpt>
      <trkpt lat="43.60542" lon="5.37369">
        <ele>312</ele>
        <time>2020-06-03T06:44:05Z</time>
      </trkpt>
      <trkpt lat="43.60543" lon="5.37367">
        <ele>312</ele>
        <time>2020-06-03T06:44:09Z</time>
      </trkpt>
      <trkpt lat="43.60544" lon="5.37364">
        <ele>312</ele>
        <time>2020-06-03T06:44:13Z</time>
      </trkpt>
      <trkpt lat="43.60546" lon="5.37359">
        <ele>312</ele>
        <time>2020-06-03T06:44:18Z</time>
      </trkpt>
      <trkpt lat="43.60548" lon="5.37359">
        <ele>312</ele>
        <time>2020-06-03T06:44:23Z</time>
      </trkpt>
      <trkpt lat="43.60548" lon="5.37359">
        <ele>312</ele>
        <time>2020-06-03T06:44:29Z</time>
      </trkpt>
      <trkpt lat="43.60547" lon="5.37356">
        <ele>312</ele>
        <time>2020-06-03T06:44:34Z</time>
      </trkpt>
      <trkpt lat="43.60548" lon="5.37355">
        <ele>312</ele>
        <time>2020-06-03T06:44:46Z</time>
      </trkpt>
      <trkpt lat="43.60548" lon="5.37354">
        <ele>312</ele>
        <time>2020-06-03T06:44:54Z</time>
      </trkpt>
      <trkpt lat="43.60548" lon="5.37352">
        <ele>312</ele>
        <time>2020-06-03T06:44:59Z</time>
      </trkpt>
      <trkpt lat="43.60548" lon="5.3735">
        <ele>312</ele>
        <time>2020-06-03T06:45:03Z</time>
      </trkpt>
      <trkpt lat="43.60547" lon="5.3735">
        <ele>312</ele>
        <time>2020-06-03T06:45:16Z</time>
      </trkpt>
      <trkpt lat="43.60546" lon="5.37351">
        <ele>312</ele>
        <time>2020-06-03T06:45:21Z</time>
      </trkpt>
      <trkpt lat="43.60544" lon="5.37352">
        <ele>312</ele>
        <time>2020-06-03T06:45:25Z</time>
      </trkpt>
      <trkpt lat="43.60543" lon="5.37353">
        <ele>312</ele>
        <time>2020-06-03T06:45:30Z</time>
      </trkpt>
      <trkpt lat="43.60542" lon="5.37353">
        <ele>312</ele>
        <time>2020-06-03T06:45:53Z</time>
      </trkpt>
      <trkpt lat="43.60541" lon="5.37354">
        <ele>312</ele>
        <time>2020-06-03T06:46:05Z</time>
      </trkpt>
      <trkpt lat="43.60541" lon="5.37354">
        <ele>312</ele>
        <time>2020-06-03T06:46:11Z</time>
      </trkpt>
      <trkpt lat="43.60539" lon="5.37352">
        <ele>312</ele>
        <time>2020-06-03T06:46:15Z</time>
      </trkpt>
      <trkpt lat="43.60539" lon="5.3735">
        <ele>312</ele>
        <time>2020-06-03T06:46:19Z</time>
      </trkpt>
      <trkpt lat="43.6054" lon="5.37346">
        <ele>312</ele>
        <time>2020-06-03T06:46:24Z</time>
      </trkpt>
      <trkpt lat="43.60546" lon="5.37349">
        <ele>312</ele>
        <time>2020-06-03T06:46:29Z</time>
      </trkpt>
      <trkpt lat="43.60554" lon="5.37347">
        <ele>313</ele>
        <time>2020-06-03T06:46:33Z</time>
      </trkpt>
      <trkpt lat="43.60561" lon="5.37346">
        <ele>313</ele>
        <time>2020-06-03T06:46:37Z</time>
      </trkpt>
      <trkpt lat="43.60565" lon="5.37347">
        <ele>313</ele>
        <time>2020-06-03T06:46:41Z</time>
      </trkpt>
      <trkpt lat="43.60568" lon="5.37349">
        <ele>313</ele>
        <time>2020-06-03T06:46:45Z</time>
      </trkpt>
      <trkpt lat="43.60569" lon="5.37349">
        <ele>313</ele>
        <time>2020-06-03T06:46:49Z</time>
      </trkpt>
      <trkpt lat="43.60571" lon="5.3735">
        <ele>313</ele>
        <time>2020-06-03T06:46:53Z</time>
      </trkpt>
      <trkpt lat="43.60572" lon="5.3735">
        <ele>313</ele>
        <time>2020-06-03T06:46:57Z</time>
      </trkpt>
      <trkpt lat="43.60574" lon="5.37352">
        <ele>313</ele>
        <time>2020-06-03T06:47:01Z</time>
      </trkpt>
      <trkpt lat="43.60574" lon="5.37353">
        <ele>313</ele>
        <time>2020-06-03T06:47:05Z</time>
      </trkpt>
      <trkpt lat="43.60575" lon="5.37354">
        <ele>313</ele>
        <time>2020-06-03T06:47:10Z</time>
      </trkpt>
      <trkpt lat="43.60576" lon="5.37355">
        <ele>313</ele>
        <time>2020-06-03T06:47:15Z</time>
      </trkpt>
      <trkpt lat="43.60576" lon="5.37356">
        <ele>313</ele>
        <time>2020-06-03T06:47:20Z</time>
      </trkpt>
      <trkpt lat="43.60578" lon="5.37359">
        <ele>313</ele>
        <time>2020-06-03T06:47:25Z</time>
      </trkpt>
      <trkpt lat="43.60579" lon="5.3736">
        <ele>313</ele>
        <time>2020-06-03T06:47:29Z</time>
      </trkpt>
      <trkpt lat="43.6058" lon="5.37361">
        <ele>313</ele>
        <time>2020-06-03T06:47:33Z</time>
      </trkpt>
      <trkpt lat="43.6058" lon="5.37361">
        <ele>313</ele>
        <time>2020-06-03T06:47:39Z</time>
      </trkpt>
      <trkpt lat="43.6058" lon="5.37364">
        <ele>313</ele>
        <time>2020-06-03T06:47:44Z</time>
      </trkpt>
      <trkpt lat="43.60579" lon="5.37365">
        <ele>313</ele>
        <time>2020-06-03T06:48:10Z</time>
      </trkpt>
      <trkpt lat="43.60579" lon="5.3737">
        <ele>313</ele>
        <time>2020-06-03T06:48:15Z</time>
      </trkpt>
      <trkpt lat="43.60579" lon="5.37373">
        <ele>313</ele>
        <time>2020-06-03T06:48:20Z</time>
      </trkpt>
      <trkpt lat="43.60579" lon="5.37374">
        <ele>313</ele>
        <time>2020-06-03T06:48:36Z</time>
      </trkpt>
      <trkpt lat="43.60579" lon="5.37375">
        <ele>313</ele>
        <time>2020-06-03T06:49:01Z</time>
      </trkpt>
      <trkpt lat="43.60579" lon="5.37379">
        <ele>313</ele>
        <time>2020-06-03T06:49:06Z</time>
      </trkpt>
      <trkpt lat="43.60579" lon="5.3738">
        <ele>313</ele>
        <time>2020-06-03T06:49:11Z</time>
      </trkpt>
      <trkpt lat="43.60578" lon="5.37384">
        <ele>313</ele>
        <time>2020-06-03T06:49:15Z</time>
      </trkpt>
      <trkpt lat="43.60577" lon="5.37389">
        <ele>313</ele>
        <time>2020-06-03T06:49:19Z</time>
      </trkpt>
      <trkpt lat="43.60575" lon="5.37394">
        <ele>313</ele>
        <time>2020-06-03T06:49:23Z</time>
      </trkpt>
      <trkpt lat="43.60574" lon="5.37399">
        <ele>313</ele>
        <time>2020-06-03T06:49:27Z</time>
      </trkpt>
      <trkpt lat="43.60572" lon="5.37406">
        <ele>314</ele>
        <time>2020-06-03T06:49:32Z</time>
      </trkpt>
      <trkpt lat="43.60572" lon="5.37414">
        <ele>314</ele>
        <time>2020-06-03T06:49:37Z</time>
      </trkpt>
      <trkpt lat="43.60573" lon="5.37421">
        <ele>314</ele>
        <time>2020-06-03T06:49:41Z</time>
      </trkpt>
      <trkpt lat="43.60573" lon="5.37426">
        <ele>314</ele>
        <time>2020-06-03T06:49:45Z</time>
      </trkpt>
      <trkpt lat="43.60573" lon="5.37433">
        <ele>314</ele>
        <time>2020-06-03T06:49:49Z</time>
      </trkpt>
      <trkpt lat="43.60574" lon="5.3744">
        <ele>313</ele>
        <time>2020-06-03T06:49:53Z</time>
      </trkpt>
      <trkpt lat="43.60574" lon="5.37446">
        <ele>313</ele>
        <time>2020-06-03T06:49:57Z</time>
      </trkpt>
      <trkpt lat="43.60573" lon="5.37453">
        <ele>313</ele>
        <time>2020-06-03T06:50:02Z</time>
      </trkpt>
      <trkpt lat="43.60571" lon="5.37459">
        <ele>313</ele>
        <time>2020-06-03T06:50:07Z</time>
      </trkpt>
      <trkpt lat="43.6057" lon="5.37462">
        <ele>313</ele>
        <time>2020-06-03T06:50:12Z</time>
      </trkpt>
      <trkpt lat="43.60568" lon="5.37461">
        <ele>313</ele>
        <time>2020-06-03T06:50:16Z</time>
      </trkpt>
      <trkpt lat="43.60562" lon="5.37463">
        <ele>313</ele>
        <time>2020-06-03T06:50:21Z</time>
      </trkpt>
      <trkpt lat="43.60558" lon="5.37467">
        <ele>313</ele>
        <time>2020-06-03T06:50:25Z</time>
      </trkpt>
      <trkpt lat="43.60557" lon="5.37472">
        <ele>313</ele>
        <time>2020-06-03T06:50:29Z</time>
      </trkpt>
      <trkpt lat="43.60555" lon="5.37478">
        <ele>313</ele>
        <time>2020-06-03T06:50:34Z</time>
      </trkpt>
      <trkpt lat="43.60554" lon="5.37483">
        <ele>313</ele>
        <time>2020-06-03T06:50:38Z</time>
      </trkpt>
      <trkpt lat="43.60554" lon="5.3749">
        <ele>313</ele>
        <time>2020-06-03T06:50:43Z</time>
      </trkpt>
      <trkpt lat="43.60553" lon="5.37498">
        <ele>313</ele>
        <time>2020-06-03T06:50:48Z</time>
      </trkpt>
      <trkpt lat="43.60553" lon="5.37503">
        <ele>314</ele>
        <time>2020-06-03T06:50:52Z</time>
      </trkpt>
      <trkpt lat="43.60552" lon="5.37507">
        <ele>314</ele>
        <time>2020-06-03T06:50:56Z</time>
      </trkpt>
      <trkpt lat="43.60551" lon="5.37511">
        <ele>314</ele>
        <time>2020-06-03T06:51:00Z</time>
      </trkpt>
      <trkpt lat="43.6055" lon="5.37515">
        <ele>313</ele>
        <time>2020-06-03T06:51:04Z</time>
      </trkpt>
      <trkpt lat="43.60549" lon="5.37521">
        <ele>313</ele>
        <time>2020-06-03T06:51:08Z</time>
      </trkpt>
      <trkpt lat="43.60547" lon="5.37527">
        <ele>313</ele>
        <time>2020-06-03T06:51:13Z</time>
      </trkpt>
      <trkpt lat="43.60545" lon="5.3753">
        <ele>313</ele>
        <time>2020-06-03T06:51:17Z</time>
      </trkpt>
      <trkpt lat="43.60544" lon="5.37533">
        <ele>313</ele>
        <time>2020-06-03T06:51:21Z</time>
      </trkpt>
      <trkpt lat="43.6054" lon="5.3754">
        <ele>313</ele>
        <time>2020-06-03T06:51:26Z</time>
      </trkpt>
      <trkpt lat="43.60537" lon="5.37547">
        <ele>313</ele>
        <time>2020-06-03T06:51:30Z</time>
      </trkpt>
      <trkpt lat="43.60537" lon="5.37553">
        <ele>314</ele>
        <time>2020-06-03T06:51:34Z</time>
      </trkpt>
      <trkpt lat="43.60536" lon="5.37559">
        <ele>314</ele>
        <time>2020-06-03T06:51:38Z</time>
      </trkpt>
      <trkpt lat="43.60535" lon="5.37564">
        <ele>314</ele>
        <time>2020-06-03T06:51:43Z</time>
      </trkpt>
      <trkpt lat="43.6053" lon="5.37568">
        <ele>314</ele>
        <time>2020-06-03T06:51:48Z</time>
      </trkpt>
      <trkpt lat="43.60523" lon="5.3757">
        <ele>313</ele>
        <time>2020-06-03T06:51:53Z</time>
      </trkpt>
      <trkpt lat="43.60519" lon="5.37572">
        <ele>313</ele>
        <time>2020-06-03T06:51:57Z</time>
      </trkpt>
      <trkpt lat="43.60516" lon="5.37573">
        <ele>313</ele>
        <time>2020-06-03T06:52:02Z</time>
      </trkpt>
      <trkpt lat="43.60512" lon="5.37574">
        <ele>313</ele>
        <time>2020-06-03T06:52:06Z</time>
      </trkpt>
      <trkpt lat="43.60508" lon="5.37576">
        <ele>313</ele>
        <time>2020-06-03T06:52:10Z</time>
      </trkpt>
      <trkpt lat="43.60505" lon="5.37578">
        <ele>313</ele>
        <time>2020-06-03T06:52:14Z</time>
      </trkpt>
      <trkpt lat="43.60501" lon="5.3758">
        <ele>313</ele>
        <time>2020-06-03T06:52:18Z</time>
      </trkpt>
      <trkpt lat="43.60499" lon="5.37581">
        <ele>313</ele>
        <time>2020-06-03T06:52:22Z</time>
      </trkpt>
      <trkpt lat="43.60494" lon="5.37583">
        <ele>312</ele>
        <time>2020-06-03T06:52:26Z</time>
      </trkpt>
      <trkpt lat="43.60489" lon="5.37583">
        <ele>312</ele>
        <time>2020-06-03T06:52:31Z</time>
      </trkpt>
      <trkpt lat="43.60484" lon="5.37585">
        <ele>312</ele>
        <time>2020-06-03T06:52:35Z</time>
      </trkpt>
      <trkpt lat="43.60478" lon="5.37591">
        <ele>312</ele>
        <time>2020-06-03T06:52:40Z</time>
      </trkpt>
      <trkpt lat="43.60474" lon="5.37596">
        <ele>312</ele>
        <time>2020-06-03T06:52:45Z</time>
      </trkpt>
      <trkpt lat="43.60471" lon="5.376">
        <ele>312</ele>
        <time>2020-06-03T06:52:49Z</time>
      </trkpt>
      <trkpt lat="43.60469" lon="5.37604">
        <ele>312</ele>
        <time>2020-06-03T06:52:54Z</time>
      </trkpt>
      <trkpt lat="43.60466" lon="5.37611">
        <ele>312</ele>
        <time>2020-06-03T06:52:59Z</time>
      </trkpt>
      <trkpt lat="43.60464" lon="5.37618">
        <ele>312</ele>
        <time>2020-06-03T06:53:03Z</time>
      </trkpt>
      <trkpt lat="43.60461" lon="5.37622">
        <ele>312</ele>
        <time>2020-06-03T06:53:08Z</time>
      </trkpt>
      <trkpt lat="43.60457" lon="5.37624">
        <ele>311</ele>
        <time>2020-06-03T06:53:12Z</time>
      </trkpt>
      <trkpt lat="43.60454" lon="5.37627">
        <ele>311</ele>
        <time>2020-06-03T06:53:16Z</time>
      </trkpt>
      <trkpt lat="43.60453" lon="5.37631">
        <ele>311</ele>
        <time>2020-06-03T06:53:20Z</time>
      </trkpt>
      <trkpt lat="43.6045" lon="5.37637">
        <ele>311</ele>
        <time>2020-06-03T06:53:24Z</time>
      </trkpt>
      <trkpt lat="43.60448" lon="5.37643">
        <ele>311</ele>
        <time>2020-06-03T06:53:28Z</time>
      </trkpt>
      <trkpt lat="43.60446" lon="5.37649">
        <ele>311</ele>
        <time>2020-06-03T06:53:32Z</time>
      </trkpt>
      <trkpt lat="43.60442" lon="5.37654">
        <ele>311</ele>
        <time>2020-06-03T06:53:37Z</time>
      </trkpt>
      <trkpt lat="43.6044" lon="5.37663">
        <ele>311</ele>
        <time>2020-06-03T06:53:42Z</time>
      </trkpt>
      <trkpt lat="43.60437" lon="5.37668">
        <ele>312</ele>
        <time>2020-06-03T06:53:47Z</time>
      </trkpt>
      <trkpt lat="43.60435" lon="5.37672">
        <ele>312</ele>
        <time>2020-06-03T06:53:51Z</time>
      </trkpt>
      <trkpt lat="43.60431" lon="5.37677">
        <ele>312</ele>
        <time>2020-06-03T06:53:56Z</time>
      </trkpt>
      <trkpt lat="43.60427" lon="5.37681">
        <ele>312</ele>
        <time>2020-06-03T06:54:01Z</time>
      </trkpt>
      <trkpt lat="43.60422" lon="5.37685">
        <ele>312</ele>
        <time>2020-06-03T06:54:06Z</time>
      </trkpt>
      <trkpt lat="43.6042" lon="5.3769">
        <ele>313</ele>
        <time>2020-06-03T06:54:11Z</time>
      </trkpt>
      <trkpt lat="43.60418" lon="5.37696">
        <ele>313</ele>
        <time>2020-06-03T06:54:15Z</time>
      </trkpt>
      <trkpt lat="43.60418" lon="5.37704">
        <ele>313</ele>
        <time>2020-06-03T06:54:20Z</time>
      </trkpt>
      <trkpt lat="43.6042" lon="5.37711">
        <ele>314</ele>
        <time>2020-06-03T06:54:25Z</time>
      </trkpt>
      <trkpt lat="43.60422" lon="5.37717">
        <ele>314</ele>
        <time>2020-06-03T06:54:29Z</time>
      </trkpt>
      <trkpt lat="43.60423" lon="5.3772">
        <ele>314</ele>
        <time>2020-06-03T06:54:33Z</time>
      </trkpt>
      <trkpt lat="43.60424" lon="5.37725">
        <ele>314</ele>
        <time>2020-06-03T06:54:38Z</time>
      </trkpt>
      <trkpt lat="43.60426" lon="5.37732">
        <ele>314</ele>
        <time>2020-06-03T06:54:43Z</time>
      </trkpt>
      <trkpt lat="43.60426" lon="5.37736">
        <ele>314</ele>
        <time>2020-06-03T06:54:48Z</time>
      </trkpt>
      <trkpt lat="43.60427" lon="5.37738">
        <ele>314</ele>
        <time>2020-06-03T06:54:52Z</time>
      </trkpt>
      <trkpt lat="43.60427" lon="5.37737">
        <ele>314</ele>
        <time>2020-06-03T06:54:57Z</time>
      </trkpt>
      <trkpt lat="43.60428" lon="5.37737">
        <ele>314</ele>
        <time>2020-06-03T06:55:12Z</time>
      </trkpt>
      <trkpt lat="43.60429" lon="5.37737">
        <ele>314</ele>
        <time>2020-06-03T06:55:27Z</time>
      </trkpt>
      <trkpt lat="43.60429" lon="5.3774">
        <ele>314</ele>
        <time>2020-06-03T06:55:31Z</time>
      </trkpt>
      <trkpt lat="43.60429" lon="5.37753">
        <ele>315</ele>
        <time>2020-06-03T06:55:35Z</time>
      </trkpt>
      <trkpt lat="43.60428" lon="5.37762">
        <ele>315</ele>
        <time>2020-06-03T06:55:40Z</time>
      </trkpt>
      <trkpt lat="43.60429" lon="5.37766">
        <ele>315</ele>
        <time>2020-06-03T06:55:44Z</time>
      </trkpt>
      <trkpt lat="43.6043" lon="5.37768">
        <ele>315</ele>
        <time>2020-06-03T06:55:48Z</time>
      </trkpt>
      <trkpt lat="43.6043" lon="5.37774">
        <ele>315</ele>
        <time>2020-06-03T06:55:52Z</time>
      </trkpt>
      <trkpt lat="43.6043" lon="5.37781">
        <ele>316</ele>
        <time>2020-06-03T06:55:57Z</time>
      </trkpt>
      <trkpt lat="43.6043" lon="5.37786">
        <ele>316</ele>
        <time>2020-06-03T06:56:02Z</time>
      </trkpt>
      <trkpt lat="43.60429" lon="5.37791">
        <ele>316</ele>
        <time>2020-06-03T06:56:06Z</time>
      </trkpt>
      <trkpt lat="43.60429" lon="5.37795">
        <ele>316</ele>
        <time>2020-06-03T06:56:10Z</time>
      </trkpt>
      <trkpt lat="43.60428" lon="5.378">
        <ele>316</ele>
        <time>2020-06-03T06:56:14Z</time>
      </trkpt>
      <trkpt lat="43.60429" lon="5.3781">
        <ele>316</ele>
        <time>2020-06-03T06:56:19Z</time>
      </trkpt>
      <trkpt lat="43.60431" lon="5.37818">
        <ele>316</ele>
        <time>2020-06-03T06:56:23Z</time>
      </trkpt>
      <trkpt lat="43.60432" lon="5.37824">
        <ele>316</ele>
        <time>2020-06-03T06:56:27Z</time>
      </trkpt>
      <trkpt lat="43.60432" lon="5.37829">
        <ele>316</ele>
        <time>2020-06-03T06:56:31Z</time>
      </trkpt>
      <trkpt lat="43.60432" lon="5.37834">
        <ele>317</ele>
        <time>2020-06-03T06:56:36Z</time>
      </trkpt>
      <trkpt lat="43.60433" lon="5.37838">
        <ele>317</ele>
        <time>2020-06-03T06:56:40Z</time>
      </trkpt>
      <trkpt lat="43.60434" lon="5.37842">
        <ele>317</ele>
        <time>2020-06-03T06:56:45Z</time>
      </trkpt>
      <trkpt lat="43.60433" lon="5.37847">
        <ele>317</ele>
        <time>2020-06-03T06:56:49Z</time>
      </trkpt>
      <trkpt lat="43.6043" lon="5.37857">
        <ele>317</ele>
        <time>2020-06-03T06:56:53Z</time>
      </trkpt>
      <trkpt lat="43.60428" lon="5.37866">
        <ele>317</ele>
        <time>2020-06-03T06:56:57Z</time>
      </trkpt>
      <trkpt lat="43.60427" lon="5.37871">
        <ele>317</ele>
        <time>2020-06-03T06:57:01Z</time>
      </trkpt>
      <trkpt lat="43.60425" lon="5.37877">
        <ele>317</ele>
        <time>2020-06-03T06:57:06Z</time>
      </trkpt>
      <trkpt lat="43.60425" lon="5.37882">
        <ele>317</ele>
        <time>2020-06-03T06:57:11Z</time>
      </trkpt>
      <trkpt lat="43.60423" lon="5.37885">
        <ele>317</ele>
        <time>2020-06-03T06:57:15Z</time>
      </trkpt>
      <trkpt lat="43.60422" lon="5.37892">
        <ele>317</ele>
        <time>2020-06-03T06:57:19Z</time>
      </trkpt>
      <trkpt lat="43.6042" lon="5.37896">
        <ele>317</ele>
        <time>2020-06-03T06:57:23Z</time>
      </trkpt>
      <trkpt lat="43.60419" lon="5.37899">
        <ele>317</ele>
        <time>2020-06-03T06:57:27Z</time>
      </trkpt>
      <trkpt lat="43.60416" lon="5.37905">
        <ele>316</ele>
        <time>2020-06-03T06:57:31Z</time>
      </trkpt>
      <trkpt lat="43.60411" lon="5.37912">
        <ele>316</ele>
        <time>2020-06-03T06:57:36Z</time>
      </trkpt>
      <trkpt lat="43.60408" lon="5.37916">
        <ele>316</ele>
        <time>2020-06-03T06:57:41Z</time>
      </trkpt>
      <trkpt lat="43.60406" lon="5.37919">
        <ele>317</ele>
        <time>2020-06-03T06:57:45Z</time>
      </trkpt>
      <trkpt lat="43.60403" lon="5.37928">
        <ele>317</ele>
        <time>2020-06-03T06:57:50Z</time>
      </trkpt>
      <trkpt lat="43.604" lon="5.37934">
        <ele>317</ele>
        <time>2020-06-03T06:57:54Z</time>
      </trkpt>
      <trkpt lat="43.60399" lon="5.37938">
        <ele>317</ele>
        <time>2020-06-03T06:57:58Z</time>
      </trkpt>
      <trkpt lat="43.60397" lon="5.37941">
        <ele>317</ele>
        <time>2020-06-03T06:58:03Z</time>
      </trkpt>
      <trkpt lat="43.60395" lon="5.37944">
        <ele>317</ele>
        <time>2020-06-03T06:58:07Z</time>
      </trkpt>
      <trkpt lat="43.60393" lon="5.37948">
        <ele>317</ele>
        <time>2020-06-03T06:58:11Z</time>
      </trkpt>
      <trkpt lat="43.60391" lon="5.37953">
        <ele>317</ele>
        <time>2020-06-03T06:58:15Z</time>
      </trkpt>
      <trkpt lat="43.60389" lon="5.37958">
        <ele>317</ele>
        <time>2020-06-03T06:58:20Z</time>
      </trkpt>
      <trkpt lat="43.60387" lon="5.37963">
        <ele>317</ele>
        <time>2020-06-03T06:58:24Z</time>
      </trkpt>
      <trkpt lat="43.60384" lon="5.37971">
        <ele>317</ele>
        <time>2020-06-03T06:58:29Z</time>
      </trkpt>
      <trkpt lat="43.60382" lon="5.37975">
        <ele>317</ele>
        <time>2020-06-03T06:58:33Z</time>
      </trkpt>
      <trkpt lat="43.6038" lon="5.3798">
        <ele>317</ele>
        <time>2020-06-03T06:58:37Z</time>
      </trkpt>
      <trkpt lat="43.60376" lon="5.37985">
        <ele>317</ele>
        <time>2020-06-03T06:58:42Z</time>
      </trkpt>
      <trkpt lat="43.60373" lon="5.37992">
        <ele>317</ele>
        <time>2020-06-03T06:58:46Z</time>
      </trkpt>
      <trkpt lat="43.60371" lon="5.37997">
        <ele>317</ele>
        <time>2020-06-03T06:58:50Z</time>
      </trkpt>
      <trkpt lat="43.60369" lon="5.38005">
        <ele>317</ele>
        <time>2020-06-03T06:58:55Z</time>
      </trkpt>
      <trkpt lat="43.60368" lon="5.38012">
        <ele>317</ele>
        <time>2020-06-03T06:58:59Z</time>
      </trkpt>
      <trkpt lat="43.60366" lon="5.38021">
        <ele>317</ele>
        <time>2020-06-03T06:59:04Z</time>
      </trkpt>
      <trkpt lat="43.60364" lon="5.38028">
        <ele>317</ele>
        <time>2020-06-03T06:59:09Z</time>
      </trkpt>
      <trkpt lat="43.60362" lon="5.38033">
        <ele>317</ele>
        <time>2020-06-03T06:59:13Z</time>
      </trkpt>
      <trkpt lat="43.60359" lon="5.3804">
        <ele>317</ele>
        <time>2020-06-03T06:59:18Z</time>
      </trkpt>
      <trkpt lat="43.60356" lon="5.38047">
        <ele>317</ele>
        <time>2020-06-03T06:59:22Z</time>
      </trkpt>
      <trkpt lat="43.60354" lon="5.38053">
        <ele>317</ele>
        <time>2020-06-03T06:59:26Z</time>
      </trkpt>
      <trkpt lat="43.60351" lon="5.38056">
        <ele>317</ele>
        <time>2020-06-03T06:59:30Z</time>
      </trkpt>
      <trkpt lat="43.60349" lon="5.3806">
        <ele>317</ele>
        <time>2020-06-03T06:59:34Z</time>
      </trkpt>
      <trkpt lat="43.60348" lon="5.38064">
        <ele>317</ele>
        <time>2020-06-03T06:59:38Z</time>
      </trkpt>
      <trkpt lat="43.60346" lon="5.38072">
        <ele>317</ele>
        <time>2020-06-03T06:59:43Z</time>
      </trkpt>
      <trkpt lat="43.60344" lon="5.38077">
        <ele>317</ele>
        <time>2020-06-03T06:59:48Z</time>
      </trkpt>
      <trkpt lat="43.60341" lon="5.38085">
        <ele>317</ele>
        <time>2020-06-03T06:59:52Z</time>
      </trkpt>
      <trkpt lat="43.60339" lon="5.38092">
        <ele>317</ele>
        <time>2020-06-03T06:59:57Z</time>
      </trkpt>
      <trkpt lat="43.60338" lon="5.38096">
        <ele>318</ele>
        <time>2020-06-03T07:00:02Z</time>
      </trkpt>
      <trkpt lat="43.60335" lon="5.38102">
        <ele>318</ele>
        <time>2020-06-03T07:00:07Z</time>
      </trkpt>
      <trkpt lat="43.60332" lon="5.38109">
        <ele>317</ele>
        <time>2020-06-03T07:00:11Z</time>
      </trkpt>
      <trkpt lat="43.60329" lon="5.38114">
        <ele>317</ele>
        <time>2020-06-03T07:00:16Z</time>
      </trkpt>
      <trkpt lat="43.60328" lon="5.38117">
        <ele>317</ele>
        <time>2020-06-03T07:00:20Z</time>
      </trkpt>
      <trkpt lat="43.60325" lon="5.38123">
        <ele>317</ele>
        <time>2020-06-03T07:00:25Z</time>
      </trkpt>
      <trkpt lat="43.60322" lon="5.38126">
        <ele>317</ele>
        <time>2020-06-03T07:00:29Z</time>
      </trkpt>
      <trkpt lat="43.60317" lon="5.38129">
        <ele>317</ele>
        <time>2020-06-03T07:00:34Z</time>
      </trkpt>
      <trkpt lat="43.60314" lon="5.38132">
        <ele>317</ele>
        <time>2020-06-03T07:00:39Z</time>
      </trkpt>
      <trkpt lat="43.60311" lon="5.38136">
        <ele>317</ele>
        <time>2020-06-03T07:00:43Z</time>
      </trkpt>
      <trkpt lat="43.60308" lon="5.38144">
        <ele>317</ele>
        <time>2020-06-03T07:00:47Z</time>
      </trkpt>
      <trkpt lat="43.60308" lon="5.38148">
        <ele>317</ele>
        <time>2020-06-03T07:00:52Z</time>
      </trkpt>
      <trkpt lat="43.60306" lon="5.38152">
        <ele>317</ele>
        <time>2020-06-03T07:00:57Z</time>
      </trkpt>
      <trkpt lat="43.60306" lon="5.38157">
        <ele>318</ele>
        <time>2020-06-03T07:01:01Z</time>
      </trkpt>
      <trkpt lat="43.60307" lon="5.38168">
        <ele>318</ele>
        <time>2020-06-03T07:01:05Z</time>
      </trkpt>
      <trkpt lat="43.6031" lon="5.38172">
        <ele>318</ele>
        <time>2020-06-03T07:01:10Z</time>
      </trkpt>
      <trkpt lat="43.6031" lon="5.38177">
        <ele>318</ele>
        <time>2020-06-03T07:01:14Z</time>
      </trkpt>
      <trkpt lat="43.60313" lon="5.38182">
        <ele>318</ele>
        <time>2020-06-03T07:01:19Z</time>
      </trkpt>
      <trkpt lat="43.60315" lon="5.3819">
        <ele>318</ele>
        <time>2020-06-03T07:01:23Z</time>
      </trkpt>
      <trkpt lat="43.60316" lon="5.38196">
        <ele>318</ele>
        <time>2020-06-03T07:01:27Z</time>
      </trkpt>
      <trkpt lat="43.60318" lon="5.38203">
        <ele>318</ele>
        <time>2020-06-03T07:01:32Z</time>
      </trkpt>
      <trkpt lat="43.60323" lon="5.3821">
        <ele>318</ele>
        <time>2020-06-03T07:01:37Z</time>
      </trkpt>
      <trkpt lat="43.60329" lon="5.38217">
        <ele>319</ele>
        <time>2020-06-03T07:01:41Z</time>
      </trkpt>
      <trkpt lat="43.60331" lon="5.38221">
        <ele>319</ele>
        <time>2020-06-03T07:01:45Z</time>
      </trkpt>
      <trkpt lat="43.60334" lon="5.38225">
        <ele>320</ele>
        <time>2020-06-03T07:01:49Z</time>
      </trkpt>
      <trkpt lat="43.60337" lon="5.38229">
        <ele>321</ele>
        <time>2020-06-03T07:01:53Z</time>
      </trkpt>
      <trkpt lat="43.60339" lon="5.38233">
        <ele>321</ele>
        <time>2020-06-03T07:01:57Z</time>
      </trkpt>
      <trkpt lat="43.60341" lon="5.38238">
        <ele>321</ele>
        <time>2020-06-03T07:02:01Z</time>
      </trkpt>
      <trkpt lat="43.60343" lon="5.38242">
        <ele>321</ele>
        <time>2020-06-03T07:02:05Z</time>
      </trkpt>
      <trkpt lat="43.60346" lon="5.38246">
        <ele>321</ele>
        <time>2020-06-03T07:02:09Z</time>
      </trkpt>
      <trkpt lat="43.60349" lon="5.38248">
        <ele>321</ele>
        <time>2020-06-03T07:02:13Z</time>
      </trkpt>
      <trkpt lat="43.60351" lon="5.38254">
        <ele>321</ele>
        <time>2020-06-03T07:02:17Z</time>
      </trkpt>
      <trkpt lat="43.60354" lon="5.38258">
        <ele>321</ele>
        <time>2020-06-03T07:02:21Z</time>
      </trkpt>
      <trkpt lat="43.60356" lon="5.38262">
        <ele>321</ele>
        <time>2020-06-03T07:02:25Z</time>
      </trkpt>
      <trkpt lat="43.60359" lon="5.38268">
        <ele>321</ele>
        <time>2020-06-03T07:02:29Z</time>
      </trkpt>
      <trkpt lat="43.60362" lon="5.38271">
        <ele>321</ele>
        <time>2020-06-03T07:02:33Z</time>
      </trkpt>
      <trkpt lat="43.60367" lon="5.38276">
        <ele>321</ele>
        <time>2020-06-03T07:02:37Z</time>
      </trkpt>
      <trkpt lat="43.6037" lon="5.38282">
        <ele>321</ele>
        <time>2020-06-03T07:02:41Z</time>
      </trkpt>
      <trkpt lat="43.60373" lon="5.38285">
        <ele>321</ele>
        <time>2020-06-03T07:02:45Z</time>
      </trkpt>
      <trkpt lat="43.60375" lon="5.38289">
        <ele>321</ele>
        <time>2020-06-03T07:02:50Z</time>
      </trkpt>
      <trkpt lat="43.60377" lon="5.38294">
        <ele>321</ele>
        <time>2020-06-03T07:02:54Z</time>
      </trkpt>
      <trkpt lat="43.60378" lon="5.38299">
        <ele>321</ele>
        <time>2020-06-03T07:02:58Z</time>
      </trkpt>
      <trkpt lat="43.60378" lon="5.383">
        <ele>321</ele>
        <time>2020-06-03T07:03:03Z</time>
      </trkpt>
      <trkpt lat="43.60379" lon="5.38303">
        <ele>321</ele>
        <time>2020-06-03T07:03:07Z</time>
      </trkpt>
      <trkpt lat="43.60381" lon="5.38305">
        <ele>321</ele>
        <time>2020-06-03T07:03:12Z</time>
      </trkpt>
      <trkpt lat="43.60383" lon="5.38308">
        <ele>321</ele>
        <time>2020-06-03T07:03:16Z</time>
      </trkpt>
      <trkpt lat="43.60387" lon="5.38318">
        <ele>322</ele>
        <time>2020-06-03T07:03:21Z</time>
      </trkpt>
      <trkpt lat="43.60393" lon="5.38324">
        <ele>322</ele>
        <time>2020-06-03T07:03:25Z</time>
      </trkpt>
      <trkpt lat="43.60396" lon="5.38328">
        <ele>322</ele>
        <time>2020-06-03T07:03:29Z</time>
      </trkpt>
      <trkpt lat="43.604" lon="5.38332">
        <ele>322</ele>
        <time>2020-06-03T07:03:33Z</time>
      </trkpt>
      <trkpt lat="43.60403" lon="5.38339">
        <ele>322</ele>
        <time>2020-06-03T07:03:37Z</time>
      </trkpt>
      <trkpt lat="43.60406" lon="5.38343">
        <ele>322</ele>
        <time>2020-06-03T07:03:41Z</time>
      </trkpt>
      <trkpt lat="43.6041" lon="5.38345">
        <ele>322</ele>
        <time>2020-06-03T07:03:46Z</time>
      </trkpt>
      <trkpt lat="43.60412" lon="5.38347">
        <ele>322</ele>
        <time>2020-06-03T07:03:50Z</time>
      </trkpt>
      <trkpt lat="43.60415" lon="5.38348">
        <ele>322</ele>
        <time>2020-06-03T07:03:54Z</time>
      </trkpt>
      <trkpt lat="43.60418" lon="5.38352">
        <ele>323</ele>
        <time>2020-06-03T07:03:59Z</time>
      </trkpt>
      <trkpt lat="43.60422" lon="5.38357">
        <ele>323</ele>
        <time>2020-06-03T07:04:04Z</time>
      </trkpt>
      <trkpt lat="43.60426" lon="5.38362">
        <ele>323</ele>
        <time>2020-06-03T07:04:08Z</time>
      </trkpt>
      <trkpt lat="43.60432" lon="5.38369">
        <ele>323</ele>
        <time>2020-06-03T07:04:13Z</time>
      </trkpt>
      <trkpt lat="43.60433" lon="5.38375">
        <ele>322</ele>
        <time>2020-06-03T07:04:17Z</time>
      </trkpt>
      <trkpt lat="43.60434" lon="5.38379">
        <ele>322</ele>
        <time>2020-06-03T07:04:22Z</time>
      </trkpt>
      <trkpt lat="43.60436" lon="5.38383">
        <ele>322</ele>
        <time>2020-06-03T07:04:27Z</time>
      </trkpt>
      <trkpt lat="43.60437" lon="5.38383">
        <ele>322</ele>
        <time>2020-06-03T07:04:31Z</time>
      </trkpt>
      <trkpt lat="43.60439" lon="5.3839">
        <ele>322</ele>
        <time>2020-06-03T07:04:35Z</time>
      </trkpt>
      <trkpt lat="43.60446" lon="5.38398">
        <ele>322</ele>
        <time>2020-06-03T07:04:40Z</time>
      </trkpt>
      <trkpt lat="43.60452" lon="5.38405">
        <ele>322</ele>
        <time>2020-06-03T07:04:44Z</time>
      </trkpt>
      <trkpt lat="43.60455" lon="5.38409">
        <ele>322</ele>
        <time>2020-06-03T07:04:48Z</time>
      </trkpt>
      <trkpt lat="43.60457" lon="5.38414">
        <ele>322</ele>
        <time>2020-06-03T07:04:52Z</time>
      </trkpt>
      <trkpt lat="43.6046" lon="5.3842">
        <ele>323</ele>
        <time>2020-06-03T07:04:57Z</time>
      </trkpt>
      <trkpt lat="43.60463" lon="5.38423">
        <ele>323</ele>
        <time>2020-06-03T07:05:01Z</time>
      </trkpt>
      <trkpt lat="43.60466" lon="5.38429">
        <ele>323</ele>
        <time>2020-06-03T07:05:06Z</time>
      </trkpt>
      <trkpt lat="43.60468" lon="5.38432">
        <ele>323</ele>
        <time>2020-06-03T07:05:10Z</time>
      </trkpt>
      <trkpt lat="43.60471" lon="5.38433">
        <ele>323</ele>
        <time>2020-06-03T07:05:14Z</time>
      </trkpt>
      <trkpt lat="43.60474" lon="5.38436">
        <ele>323</ele>
        <time>2020-06-03T07:05:18Z</time>
      </trkpt>
      <trkpt lat="43.60478" lon="5.38441">
        <ele>323</ele>
        <time>2020-06-03T07:05:23Z</time>
      </trkpt>
      <trkpt lat="43.60481" lon="5.38444">
        <ele>323</ele>
        <time>2020-06-03T07:05:28Z</time>
      </trkpt>
      <trkpt lat="43.60484" lon="5.38449">
        <ele>323</ele>
        <time>2020-06-03T07:05:33Z</time>
      </trkpt>
      <trkpt lat="43.60489" lon="5.38454">
        <ele>323</ele>
        <time>2020-06-03T07:05:38Z</time>
      </trkpt>
      <trkpt lat="43.60491" lon="5.3846">
        <ele>323</ele>
        <time>2020-06-03T07:05:43Z</time>
      </trkpt>
      <trkpt lat="43.60495" lon="5.38467">
        <ele>323</ele>
        <time>2020-06-03T07:05:47Z</time>
      </trkpt>
      <trkpt lat="43.60498" lon="5.38473">
        <ele>323</ele>
        <time>2020-06-03T07:05:51Z</time>
      </trkpt>
      <trkpt lat="43.60501" lon="5.38477">
        <ele>325</ele>
        <time>2020-06-03T07:05:55Z</time>
      </trkpt>
      <trkpt lat="43.60504" lon="5.38483">
        <ele>325</ele>
        <time>2020-06-03T07:06:00Z</time>
      </trkpt>
      <trkpt lat="43.60507" lon="5.38486">
        <ele>325</ele>
        <time>2020-06-03T07:06:04Z</time>
      </trkpt>
      <trkpt lat="43.60511" lon="5.3849">
        <ele>325</ele>
        <time>2020-06-03T07:06:09Z</time>
      </trkpt>
      <trkpt lat="43.60515" lon="5.38495">
        <ele>326</ele>
        <time>2020-06-03T07:06:14Z</time>
      </trkpt>
      <trkpt lat="43.60517" lon="5.38498">
        <ele>326</ele>
        <time>2020-06-03T07:06:18Z</time>
      </trkpt>
      <trkpt lat="43.60521" lon="5.38504">
        <ele>326</ele>
        <time>2020-06-03T07:06:22Z</time>
      </trkpt>
      <trkpt lat="43.60528" lon="5.3851">
        <ele>326</ele>
        <time>2020-06-03T07:06:27Z</time>
      </trkpt>
      <trkpt lat="43.6053" lon="5.38513">
        <ele>326</ele>
        <time>2020-06-03T07:06:31Z</time>
      </trkpt>
      <trkpt lat="43.60533" lon="5.38515">
        <ele>327</ele>
        <time>2020-06-03T07:06:35Z</time>
      </trkpt>
      <trkpt lat="43.60536" lon="5.38519">
        <ele>327</ele>
        <time>2020-06-03T07:06:40Z</time>
      </trkpt>
      <trkpt lat="43.60539" lon="5.38523">
        <ele>327</ele>
        <time>2020-06-03T07:06:44Z</time>
      </trkpt>
      <trkpt lat="43.60545" lon="5.38528">
        <ele>327</ele>
        <time>2020-06-03T07:06:49Z</time>
      </trkpt>
      <trkpt lat="43.6055" lon="5.38531">
        <ele>327</ele>
        <time>2020-06-03T07:06:54Z</time>
      </trkpt>
      <trkpt lat="43.60553" lon="5.38533">
        <ele>327</ele>
        <time>2020-06-03T07:06:58Z</time>
      </trkpt>
      <trkpt lat="43.60556" lon="5.38535">
        <ele>327</ele>
        <time>2020-06-03T07:07:03Z</time>
      </trkpt>
      <trkpt lat="43.60559" lon="5.38539">
        <ele>327</ele>
        <time>2020-06-03T07:07:07Z</time>
      </trkpt>
      <trkpt lat="43.60562" lon="5.38546">
        <ele>327</ele>
        <time>2020-06-03T07:07:12Z</time>
      </trkpt>
      <trkpt lat="43.60565" lon="5.3855">
        <ele>327</ele>
        <time>2020-06-03T07:07:16Z</time>
      </trkpt>
      <trkpt lat="43.60567" lon="5.38552">
        <ele>327</ele>
        <time>2020-06-03T07:07:20Z</time>
      </trkpt>
      <trkpt lat="43.60569" lon="5.38554">
        <ele>327</ele>
        <time>2020-06-03T07:07:24Z</time>
      </trkpt>
      <trkpt lat="43.60572" lon="5.38558">
        <ele>328</ele>
        <time>2020-06-03T07:07:28Z</time>
      </trkpt>
      <trkpt lat="43.60577" lon="5.38565">
        <ele>328</ele>
        <time>2020-06-03T07:07:33Z</time>
      </trkpt>
      <trkpt lat="43.60578" lon="5.38569">
        <ele>328</ele>
        <time>2020-06-03T07:07:37Z</time>
      </trkpt>
      <trkpt lat="43.60576" lon="5.38576">
        <ele>328</ele>
        <time>2020-06-03T07:07:42Z</time>
      </trkpt>
      <trkpt lat="43.60581" lon="5.3858">
        <ele>329</ele>
        <time>2020-06-03T07:07:47Z</time>
      </trkpt>
      <trkpt lat="43.60586" lon="5.38583">
        <ele>329</ele>
        <time>2020-06-03T07:07:52Z</time>
      </trkpt>
      <trkpt lat="43.60589" lon="5.38589">
        <ele>329</ele>
        <time>2020-06-03T07:07:56Z</time>
      </trkpt>
      <trkpt lat="43.60593" lon="5.38593">
        <ele>329</ele>
        <time>2020-06-03T07:08:00Z</time>
      </trkpt>
      <trkpt lat="43.60604" lon="5.386">
        <ele>330</ele>
        <time>2020-06-03T07:08:05Z</time>
      </trkpt>
      <trkpt lat="43.60608" lon="5.386">
        <ele>330</ele>
        <time>2020-06-03T07:08:10Z</time>
      </trkpt>
      <trkpt lat="43.60613" lon="5.38606">
        <ele>330</ele>
        <time>2020-06-03T07:08:15Z</time>
      </trkpt>
      <trkpt lat="43.60617" lon="5.38608">
        <ele>330</ele>
        <time>2020-06-03T07:08:19Z</time>
      </trkpt>
      <trkpt lat="43.6062" lon="5.3861">
        <ele>330</ele>
        <time>2020-06-03T07:08:23Z</time>
      </trkpt>
      <trkpt lat="43.60624" lon="5.38612">
        <ele>330</ele>
        <time>2020-06-03T07:08:28Z</time>
      </trkpt>
      <trkpt lat="43.60627" lon="5.38612">
        <ele>330</ele>
        <time>2020-06-03T07:08:33Z</time>
      </trkpt>
      <trkpt lat="43.60633" lon="5.38613">
        <ele>330</ele>
        <time>2020-06-03T07:08:37Z</time>
      </trkpt>
      <trkpt lat="43.60638" lon="5.38616">
        <ele>330</ele>
        <time>2020-06-03T07:08:42Z</time>
      </trkpt>
      <trkpt lat="43.60643" lon="5.38617">
        <ele>331</ele>
        <time>2020-06-03T07:08:46Z</time>
      </trkpt>
      <trkpt lat="43.6065" lon="5.38618">
        <ele>331</ele>
        <time>2020-06-03T07:08:51Z</time>
      </trkpt>
      <trkpt lat="43.60654" lon="5.38619">
        <ele>331</ele>
        <time>2020-06-03T07:08:55Z</time>
      </trkpt>
      <trkpt lat="43.6066" lon="5.3862">
        <ele>331</ele>
        <time>2020-06-03T07:09:00Z</time>
      </trkpt>
      <trkpt lat="43.60663" lon="5.38624">
        <ele>331</ele>
        <time>2020-06-03T07:09:04Z</time>
      </trkpt>
      <trkpt lat="43.60666" lon="5.38625">
        <ele>331</ele>
        <time>2020-06-03T07:09:09Z</time>
      </trkpt>
      <trkpt lat="43.60671" lon="5.38627">
        <ele>333</ele>
        <time>2020-06-03T07:09:13Z</time>
      </trkpt>
      <trkpt lat="43.60676" lon="5.38628">
        <ele>333</ele>
        <time>2020-06-03T07:09:18Z</time>
      </trkpt>
      <trkpt lat="43.6068" lon="5.3863">
        <ele>333</ele>
        <time>2020-06-03T07:09:22Z</time>
      </trkpt>
      <trkpt lat="43.60683" lon="5.38628">
        <ele>333</ele>
        <time>2020-06-03T07:09:27Z</time>
      </trkpt>
      <trkpt lat="43.60687" lon="5.38626">
        <ele>333</ele>
        <time>2020-06-03T07:09:31Z</time>
      </trkpt>
      <trkpt lat="43.60694" lon="5.38624">
        <ele>333</ele>
        <time>2020-06-03T07:09:35Z</time>
      </trkpt>
      <trkpt lat="43.60702" lon="5.38625">
        <ele>334</ele>
        <time>2020-06-03T07:09:40Z</time>
      </trkpt>
      <trkpt lat="43.60708" lon="5.38623">
        <ele>334</ele>
        <time>2020-06-03T07:09:44Z</time>
      </trkpt>
      <trkpt lat="43.60714" lon="5.38619">
        <ele>334</ele>
        <time>2020-06-03T07:09:48Z</time>
      </trkpt>
      <trkpt lat="43.60718" lon="5.38619">
        <ele>334</ele>
        <time>2020-06-03T07:09:53Z</time>
      </trkpt>
      <trkpt lat="43.60722" lon="5.38616">
        <ele>334</ele>
        <time>2020-06-03T07:09:57Z</time>
      </trkpt>
      <trkpt lat="43.60724" lon="5.38609">
        <ele>334</ele>
        <time>2020-06-03T07:10:02Z</time>
      </trkpt>
      <trkpt lat="43.60724" lon="5.38604">
        <ele>334</ele>
        <time>2020-06-03T07:10:06Z</time>
      </trkpt>
      <trkpt lat="43.60727" lon="5.38598">
        <ele>334</ele>
        <time>2020-06-03T07:10:10Z</time>
      </trkpt>
      <trkpt lat="43.60727" lon="5.38592">
        <ele>334</ele>
        <time>2020-06-03T07:10:14Z</time>
      </trkpt>
      <trkpt lat="43.60727" lon="5.38586">
        <ele>334</ele>
        <time>2020-06-03T07:10:18Z</time>
      </trkpt>
      <trkpt lat="43.6073" lon="5.38581">
        <ele>333</ele>
        <time>2020-06-03T07:10:23Z</time>
      </trkpt>
      <trkpt lat="43.6073" lon="5.38577">
        <ele>333</ele>
        <time>2020-06-03T07:10:28Z</time>
      </trkpt>
      <trkpt lat="43.60734" lon="5.38571">
        <ele>333</ele>
        <time>2020-06-03T07:10:33Z</time>
      </trkpt>
      <trkpt lat="43.60736" lon="5.3857">
        <ele>333</ele>
        <time>2020-06-03T07:10:37Z</time>
      </trkpt>
      <trkpt lat="43.60741" lon="5.38565">
        <ele>333</ele>
        <time>2020-06-03T07:10:42Z</time>
      </trkpt>
      <trkpt lat="43.60746" lon="5.3856">
        <ele>333</ele>
        <time>2020-06-03T07:10:46Z</time>
      </trkpt>
      <trkpt lat="43.60749" lon="5.38558">
        <ele>333</ele>
        <time>2020-06-03T07:10:50Z</time>
      </trkpt>
      <trkpt lat="43.60758" lon="5.38555">
        <ele>335</ele>
        <time>2020-06-03T07:10:55Z</time>
      </trkpt>
      <trkpt lat="43.6076" lon="5.38553">
        <ele>335</ele>
        <time>2020-06-03T07:11:00Z</time>
      </trkpt>
      <trkpt lat="43.60768" lon="5.38548">
        <ele>335</ele>
        <time>2020-06-03T07:11:05Z</time>
      </trkpt>
      <trkpt lat="43.60771" lon="5.38546">
        <ele>335</ele>
        <time>2020-06-03T07:11:09Z</time>
      </trkpt>
      <trkpt lat="43.60776" lon="5.38542">
        <ele>335</ele>
        <time>2020-06-03T07:11:14Z</time>
      </trkpt>
      <trkpt lat="43.60778" lon="5.38538">
        <ele>335</ele>
        <time>2020-06-03T07:11:18Z</time>
      </trkpt>
      <trkpt lat="43.60782" lon="5.38533">
        <ele>335</ele>
        <time>2020-06-03T07:11:23Z</time>
      </trkpt>
      <trkpt lat="43.60787" lon="5.3853">
        <ele>335</ele>
        <time>2020-06-03T07:11:27Z</time>
      </trkpt>
      <trkpt lat="43.6079" lon="5.38527">
        <ele>335</ele>
        <time>2020-06-03T07:11:31Z</time>
      </trkpt>
      <trkpt lat="43.60793" lon="5.38524">
        <ele>335</ele>
        <time>2020-06-03T07:11:35Z</time>
      </trkpt>
      <trkpt lat="43.60796" lon="5.38522">
        <ele>335</ele>
        <time>2020-06-03T07:11:39Z</time>
      </trkpt>
      <trkpt lat="43.60801" lon="5.38518">
        <ele>335</ele>
        <time>2020-06-03T07:11:44Z</time>
      </trkpt>
      <trkpt lat="43.60803" lon="5.38516">
        <ele>336</ele>
        <time>2020-06-03T07:11:48Z</time>
      </trkpt>
      <trkpt lat="43.60806" lon="5.38514">
        <ele>336</ele>
        <time>2020-06-03T07:11:53Z</time>
      </trkpt>
      <trkpt lat="43.60806" lon="5.38513">
        <ele>336</ele>
        <time>2020-06-03T07:11:58Z</time>
      </trkpt>
      <trkpt lat="43.6081" lon="5.3851">
        <ele>336</ele>
        <time>2020-06-03T07:12:02Z</time>
      </trkpt>
      <trkpt lat="43.60815" lon="5.38509">
        <ele>336</ele>
        <time>2020-06-03T07:12:07Z</time>
      </trkpt>
      <trkpt lat="43.60818" lon="5.38509">
        <ele>336</ele>
        <time>2020-06-03T07:12:12Z</time>
      </trkpt>
      <trkpt lat="43.6082" lon="5.38507">
        <ele>336</ele>
        <time>2020-06-03T07:12:16Z</time>
      </trkpt>
      <trkpt lat="43.60821" lon="5.38506">
        <ele>336</ele>
        <time>2020-06-03T07:12:20Z</time>
      </trkpt>
      <trkpt lat="43.60821" lon="5.38506">
        <ele>336</ele>
        <time>2020-06-03T07:12:31Z</time>
      </trkpt>
      <trkpt lat="43.60822" lon="5.38504">
        <ele>336</ele>
        <time>2020-06-03T07:12:36Z</time>
      </trkpt>
      <trkpt lat="43.60824" lon="5.38497">
        <ele>336</ele>
        <time>2020-06-03T07:12:40Z</time>
      </trkpt>
      <trkpt lat="43.60823" lon="5.38491">
        <ele>336</ele>
        <time>2020-06-03T07:12:44Z</time>
      </trkpt>
      <trkpt lat="43.60822" lon="5.38485">
        <ele>336</ele>
        <time>2020-06-03T07:12:48Z</time>
      </trkpt>
      <trkpt lat="43.60822" lon="5.38477">
        <ele>335</ele>
        <time>2020-06-03T07:12:53Z</time>
      </trkpt>
      <trkpt lat="43.60823" lon="5.38473">
        <ele>335</ele>
        <time>2020-06-03T07:12:57Z</time>
      </trkpt>
      <trkpt lat="43.60824" lon="5.38467">
        <ele>335</ele>
        <time>2020-06-03T07:13:01Z</time>
      </trkpt>
      <trkpt lat="43.60825" lon="5.3846">
        <ele>335</ele>
        <time>2020-06-03T07:13:05Z</time>
      </trkpt>
      <trkpt lat="43.60828" lon="5.38453">
        <ele>335</ele>
        <time>2020-06-03T07:13:10Z</time>
      </trkpt>
      <trkpt lat="43.60827" lon="5.38447">
        <ele>335</ele>
        <time>2020-06-03T07:13:15Z</time>
      </trkpt>
      <trkpt lat="43.60826" lon="5.38441">
        <ele>335</ele>
        <time>2020-06-03T07:13:20Z</time>
      </trkpt>
      <trkpt lat="43.60825" lon="5.38436">
        <ele>335</ele>
        <time>2020-06-03T07:13:24Z</time>
      </trkpt>
      <trkpt lat="43.60825" lon="5.38431">
        <ele>335</ele>
        <time>2020-06-03T07:13:28Z</time>
      </trkpt>
      <trkpt lat="43.60825" lon="5.38427">
        <ele>335</ele>
        <time>2020-06-03T07:13:32Z</time>
      </trkpt>
      <trkpt lat="43.60825" lon="5.38422">
        <ele>336</ele>
        <time>2020-06-03T07:13:36Z</time>
      </trkpt>
      <trkpt lat="43.60826" lon="5.38415">
        <ele>335</ele>
        <time>2020-06-03T07:13:41Z</time>
      </trkpt>
      <trkpt lat="43.60826" lon="5.3841">
        <ele>335</ele>
        <time>2020-06-03T07:13:45Z</time>
      </trkpt>
      <trkpt lat="43.60827" lon="5.38402">
        <ele>335</ele>
        <time>2020-06-03T07:13:50Z</time>
      </trkpt>
      <trkpt lat="43.60825" lon="5.38398">
        <ele>334</ele>
        <time>2020-06-03T07:13:55Z</time>
      </trkpt>
      <trkpt lat="43.60821" lon="5.38396">
        <ele>334</ele>
        <time>2020-06-03T07:14:00Z</time>
      </trkpt>
      <trkpt lat="43.60818" lon="5.38395">
        <ele>334</ele>
        <time>2020-06-03T07:14:04Z</time>
      </trkpt>
      <trkpt lat="43.60813" lon="5.38393">
        <ele>334</ele>
        <time>2020-06-03T07:14:09Z</time>
      </trkpt>
      <trkpt lat="43.6081" lon="5.3839">
        <ele>334</ele>
        <time>2020-06-03T07:14:13Z</time>
      </trkpt>
      <trkpt lat="43.60808" lon="5.38387">
        <ele>334</ele>
        <time>2020-06-03T07:14:17Z</time>
      </trkpt>
      <trkpt lat="43.60806" lon="5.38381">
        <ele>333</ele>
        <time>2020-06-03T07:14:21Z</time>
      </trkpt>
      <trkpt lat="43.60805" lon="5.38372">
        <ele>333</ele>
        <time>2020-06-03T07:14:26Z</time>
      </trkpt>
      <trkpt lat="43.60803" lon="5.38365">
        <ele>333</ele>
        <time>2020-06-03T07:14:30Z</time>
      </trkpt>
      <trkpt lat="43.60803" lon="5.3836">
        <ele>333</ele>
        <time>2020-06-03T07:14:34Z</time>
      </trkpt>
      <trkpt lat="43.60802" lon="5.38354">
        <ele>333</ele>
        <time>2020-06-03T07:14:39Z</time>
      </trkpt>
      <trkpt lat="43.60803" lon="5.38351">
        <ele>333</ele>
        <time>2020-06-03T07:14:43Z</time>
      </trkpt>
      <trkpt lat="43.60802" lon="5.38345">
        <ele>333</ele>
        <time>2020-06-03T07:14:47Z</time>
      </trkpt>
      <trkpt lat="43.60803" lon="5.38338">
        <ele>333</ele>
        <time>2020-06-03T07:14:52Z</time>
      </trkpt>
      <trkpt lat="43.60804" lon="5.38333">
        <ele>333</ele>
        <time>2020-06-03T07:14:56Z</time>
      </trkpt>
      <trkpt lat="43.60805" lon="5.38327">
        <ele>332</ele>
        <time>2020-06-03T07:15:00Z</time>
      </trkpt>
      <trkpt lat="43.60805" lon="5.38324">
        <ele>332</ele>
        <time>2020-06-03T07:15:05Z</time>
      </trkpt>
      <trkpt lat="43.60805" lon="5.3832">
        <ele>332</ele>
        <time>2020-06-03T07:15:09Z</time>
      </trkpt>
      <trkpt lat="43.60806" lon="5.38315">
        <ele>332</ele>
        <time>2020-06-03T07:15:13Z</time>
      </trkpt>
      <trkpt lat="43.60808" lon="5.38307">
        <ele>332</ele>
        <time>2020-06-03T07:15:18Z</time>
      </trkpt>
      <trkpt lat="43.60809" lon="5.38301">
        <ele>332</ele>
        <time>2020-06-03T07:15:22Z</time>
      </trkpt>
      <trkpt lat="43.60809" lon="5.38296">
        <ele>332</ele>
        <time>2020-06-03T07:15:26Z</time>
      </trkpt>
      <trkpt lat="43.60809" lon="5.38291">
        <ele>332</ele>
        <time>2020-06-03T07:15:30Z</time>
      </trkpt>
      <trkpt lat="43.6081" lon="5.38283">
        <ele>332</ele>
        <time>2020-06-03T07:15:35Z</time>
      </trkpt>
      <trkpt lat="43.6081" lon="5.38276">
        <ele>332</ele>
        <time>2020-06-03T07:15:39Z</time>
      </trkpt>
      <trkpt lat="43.60809" lon="5.38271">
        <ele>332</ele>
        <time>2020-06-03T07:15:44Z</time>
      </trkpt>
      <trkpt lat="43.6081" lon="5.38264">
        <ele>332</ele>
        <time>2020-06-03T07:15:48Z</time>
      </trkpt>
      <trkpt lat="43.6081" lon="5.38257">
        <ele>332</ele>
        <time>2020-06-03T07:15:53Z</time>
      </trkpt>
      <trkpt lat="43.60811" lon="5.38253">
        <ele>332</ele>
        <time>2020-06-03T07:15:57Z</time>
      </trkpt>
      <trkpt lat="43.6081" lon="5.38247">
        <ele>332</ele>
        <time>2020-06-03T07:16:02Z</time>
      </trkpt>
      <trkpt lat="43.60811" lon="5.38241">
        <ele>332</ele>
        <time>2020-06-03T07:16:06Z</time>
      </trkpt>
      <trkpt lat="43.60811" lon="5.38237">
        <ele>332</ele>
        <time>2020-06-03T07:16:11Z</time>
      </trkpt>
      <trkpt lat="43.60811" lon="5.38233">
        <ele>332</ele>
        <time>2020-06-03T07:16:15Z</time>
      </trkpt>
      <trkpt lat="43.60813" lon="5.38223">
        <ele>332</ele>
        <time>2020-06-03T07:16:20Z</time>
      </trkpt>
      <trkpt lat="43.60814" lon="5.38214">
        <ele>332</ele>
        <time>2020-06-03T07:16:25Z</time>
      </trkpt>
      <trkpt lat="43.60814" lon="5.38208">
        <ele>332</ele>
        <time>2020-06-03T07:16:29Z</time>
      </trkpt>
      <trkpt lat="43.60816" lon="5.38204">
        <ele>332</ele>
        <time>2020-06-03T07:16:33Z</time>
      </trkpt>
      <trkpt lat="43.60817" lon="5.38199">
        <ele>332</ele>
        <time>2020-06-03T07:16:37Z</time>
      </trkpt>
      <trkpt lat="43.60818" lon="5.38193">
        <ele>332</ele>
        <time>2020-06-03T07:16:41Z</time>
      </trkpt>
      <trkpt lat="43.60819" lon="5.38188">
        <ele>333</ele>
        <time>2020-06-03T07:16:45Z</time>
      </trkpt>
      <trkpt lat="43.6082" lon="5.38183">
        <ele>333</ele>
        <time>2020-06-03T07:16:49Z</time>
      </trkpt>
      <trkpt lat="43.6082" lon="5.38178">
        <ele>333</ele>
        <time>2020-06-03T07:16:54Z</time>
      </trkpt>
      <trkpt lat="43.6082" lon="5.38173">
        <ele>333</ele>
        <time>2020-06-03T07:16:58Z</time>
      </trkpt>
      <trkpt lat="43.60821" lon="5.38161">
        <ele>334</ele>
        <time>2020-06-03T07:17:03Z</time>
      </trkpt>
      <trkpt lat="43.60822" lon="5.38154">
        <ele>334</ele>
        <time>2020-06-03T07:17:07Z</time>
      </trkpt>
      <trkpt lat="43.60822" lon="5.38147">
        <ele>334</ele>
        <time>2020-06-03T07:17:12Z</time>
      </trkpt>
      <trkpt lat="43.60823" lon="5.38142">
        <ele>334</ele>
        <time>2020-06-03T07:17:16Z</time>
      </trkpt>
      <trkpt lat="43.60826" lon="5.38137">
        <ele>334</ele>
        <time>2020-06-03T07:17:21Z</time>
      </trkpt>
      <trkpt lat="43.60827" lon="5.3813">
        <ele>334</ele>
        <time>2020-06-03T07:17:25Z</time>
      </trkpt>
      <trkpt lat="43.60828" lon="5.38123">
        <ele>334</ele>
        <time>2020-06-03T07:17:30Z</time>
      </trkpt>
      <trkpt lat="43.60829" lon="5.38119">
        <ele>334</ele>
        <time>2020-06-03T07:17:34Z</time>
      </trkpt>
      <trkpt lat="43.60829" lon="5.38112">
        <ele>334</ele>
        <time>2020-06-03T07:17:39Z</time>
      </trkpt>
      <trkpt lat="43.60831" lon="5.38106">
        <ele>334</ele>
        <time>2020-06-03T07:17:43Z</time>
      </trkpt>
      <trkpt lat="43.60832" lon="5.38098">
        <ele>334</ele>
        <time>2020-06-03T07:17:48Z</time>
      </trkpt>
      <trkpt lat="43.60834" lon="5.38093">
        <ele>335</ele>
        <time>2020-06-03T07:17:52Z</time>
      </trkpt>
      <trkpt lat="43.60837" lon="5.38089">
        <ele>335</ele>
        <time>2020-06-03T07:17:56Z</time>
      </trkpt>
      <trkpt lat="43.60838" lon="5.38086">
        <ele>335</ele>
        <time>2020-06-03T07:18:00Z</time>
      </trkpt>
      <trkpt lat="43.60841" lon="5.38079">
        <ele>335</ele>
        <time>2020-06-03T07:18:05Z</time>
      </trkpt>
      <trkpt lat="43.60843" lon="5.38072">
        <ele>335</ele>
        <time>2020-06-03T07:18:09Z</time>
      </trkpt>
      <trkpt lat="43.60842" lon="5.38066">
        <ele>335</ele>
        <time>2020-06-03T07:18:13Z</time>
      </trkpt>
      <trkpt lat="43.60841" lon="5.3806">
        <ele>335</ele>
        <time>2020-06-03T07:18:18Z</time>
      </trkpt>
      <trkpt lat="43.60842" lon="5.38056">
        <ele>335</ele>
        <time>2020-06-03T07:18:22Z</time>
      </trkpt>
      <trkpt lat="43.60846" lon="5.38054">
        <ele>335</ele>
        <time>2020-06-03T07:18:26Z</time>
      </trkpt>
      <trkpt lat="43.6085" lon="5.38053">
        <ele>335</ele>
        <time>2020-06-03T07:18:31Z</time>
      </trkpt>
      <trkpt lat="43.60855" lon="5.38055">
        <ele>335</ele>
        <time>2020-06-03T07:18:35Z</time>
      </trkpt>
      <trkpt lat="43.6086" lon="5.38056">
        <ele>336</ele>
        <time>2020-06-03T07:18:39Z</time>
      </trkpt>
      <trkpt lat="43.60864" lon="5.38054">
        <ele>336</ele>
        <time>2020-06-03T07:18:43Z</time>
      </trkpt>
      <trkpt lat="43.60866" lon="5.3805">
        <ele>336</ele>
        <time>2020-06-03T07:18:47Z</time>
      </trkpt>
      <trkpt lat="43.60869" lon="5.38043">
        <ele>336</ele>
        <time>2020-06-03T07:18:52Z</time>
      </trkpt>
      <trkpt lat="43.6087" lon="5.38038">
        <ele>336</ele>
        <time>2020-06-03T07:18:56Z</time>
      </trkpt>
      <trkpt lat="43.60872" lon="5.38031">
        <ele>336</ele>
        <time>2020-06-03T07:19:01Z</time>
      </trkpt>
      <trkpt lat="43.60873" lon="5.38028">
        <ele>336</ele>
        <time>2020-06-03T07:19:05Z</time>
      </trkpt>
      <trkpt lat="43.60877" lon="5.38019">
        <ele>336</ele>
        <time>2020-06-03T07:19:10Z</time>
      </trkpt>
      <trkpt lat="43.60878" lon="5.38014">
        <ele>336</ele>
        <time>2020-06-03T07:19:14Z</time>
      </trkpt>
      <trkpt lat="43.60878" lon="5.38007">
        <ele>336</ele>
        <time>2020-06-03T07:19:18Z</time>
      </trkpt>
      <trkpt lat="43.6088" lon="5.38003">
        <ele>336</ele>
        <time>2020-06-03T07:19:22Z</time>
      </trkpt>
      <trkpt lat="43.60883" lon="5.37998">
        <ele>335</ele>
        <time>2020-06-03T07:19:26Z</time>
      </trkpt>
      <trkpt lat="43.60884" lon="5.37992">
        <ele>335</ele>
        <time>2020-06-03T07:19:31Z</time>
      </trkpt>
      <trkpt lat="43.60887" lon="5.37986">
        <ele>335</ele>
        <time>2020-06-03T07:19:35Z</time>
      </trkpt>
      <trkpt lat="43.60889" lon="5.37979">
        <ele>335</ele>
        <time>2020-06-03T07:19:40Z</time>
      </trkpt>
      <trkpt lat="43.6089" lon="5.37975">
        <ele>335</ele>
        <time>2020-06-03T07:19:44Z</time>
      </trkpt>
      <trkpt lat="43.60891" lon="5.37968">
        <ele>335</ele>
        <time>2020-06-03T07:19:48Z</time>
      </trkpt>
      <trkpt lat="43.60893" lon="5.37963">
        <ele>335</ele>
        <time>2020-06-03T07:19:53Z</time>
      </trkpt>
      <trkpt lat="43.60894" lon="5.37959">
        <ele>335</ele>
        <time>2020-06-03T07:19:57Z</time>
      </trkpt>
      <trkpt lat="43.60894" lon="5.37954">
        <ele>335</ele>
        <time>2020-06-03T07:20:02Z</time>
      </trkpt>
      <trkpt lat="43.60893" lon="5.37949">
        <ele>335</ele>
        <time>2020-06-03T07:20:06Z</time>
      </trkpt>
      <trkpt lat="43.60894" lon="5.37942">
        <ele>335</ele>
        <time>2020-06-03T07:20:10Z</time>
      </trkpt>
      <trkpt lat="43.60896" lon="5.37936">
        <ele>335</ele>
        <time>2020-06-03T07:20:14Z</time>
      </trkpt>
      <trkpt lat="43.60898" lon="5.37932">
        <ele>335</ele>
        <time>2020-06-03T07:20:19Z</time>
      </trkpt>
      <trkpt lat="43.60901" lon="5.37929">
        <ele>335</ele>
        <time>2020-06-03T07:20:23Z</time>
      </trkpt>
      <trkpt lat="43.60902" lon="5.37925">
        <ele>335</ele>
        <time>2020-06-03T07:20:27Z</time>
      </trkpt>
      <trkpt lat="43.60904" lon="5.37918">
        <ele>335</ele>
        <time>2020-06-03T07:20:31Z</time>
      </trkpt>
      <trkpt lat="43.60904" lon="5.37913">
        <ele>335</ele>
        <time>2020-06-03T07:20:35Z</time>
      </trkpt>
      <trkpt lat="43.60905" lon="5.37908">
        <ele>335</ele>
        <time>2020-06-03T07:20:39Z</time>
      </trkpt>
      <trkpt lat="43.60907" lon="5.37901">
        <ele>334</ele>
        <time>2020-06-03T07:20:44Z</time>
      </trkpt>
      <trkpt lat="43.60908" lon="5.37896">
        <ele>334</ele>
        <time>2020-06-03T07:20:48Z</time>
      </trkpt>
      <trkpt lat="43.60909" lon="5.37889">
        <ele>334</ele>
        <time>2020-06-03T07:20:53Z</time>
      </trkpt>
      <trkpt lat="43.60912" lon="5.37883">
        <ele>334</ele>
        <time>2020-06-03T07:20:57Z</time>
      </trkpt>
      <trkpt lat="43.60915" lon="5.37877">
        <ele>334</ele>
        <time>2020-06-03T07:21:02Z</time>
      </trkpt>
      <trkpt lat="43.60917" lon="5.37871">
        <ele>336</ele>
        <time>2020-06-03T07:21:07Z</time>
      </trkpt>
      <trkpt lat="43.60919" lon="5.37867">
        <ele>336</ele>
        <time>2020-06-03T07:21:11Z</time>
      </trkpt>
      <trkpt lat="43.6092" lon="5.37862">
        <ele>336</ele>
        <time>2020-06-03T07:21:15Z</time>
      </trkpt>
      <trkpt lat="43.60922" lon="5.37856">
        <ele>336</ele>
        <time>2020-06-03T07:21:20Z</time>
      </trkpt>
      <trkpt lat="43.60923" lon="5.37853">
        <ele>336</ele>
        <time>2020-06-03T07:21:24Z</time>
      </trkpt>
      <trkpt lat="43.60923" lon="5.37852">
        <ele>336</ele>
        <time>2020-06-03T07:21:55Z</time>
      </trkpt>
      <trkpt lat="43.60923" lon="5.37851">
        <ele>336</ele>
        <time>2020-06-03T07:22:00Z</time>
      </trkpt>
      <trkpt lat="43.60924" lon="5.37846">
        <ele>336</ele>
        <time>2020-06-03T07:22:04Z</time>
      </trkpt>
      <trkpt lat="43.60927" lon="5.37841">
        <ele>335</ele>
        <time>2020-06-03T07:22:08Z</time>
      </trkpt>
      <trkpt lat="43.60928" lon="5.37835">
        <ele>335</ele>
        <time>2020-06-03T07:22:13Z</time>
      </trkpt>
      <trkpt lat="43.60928" lon="5.37831">
        <ele>335</ele>
        <time>2020-06-03T07:22:17Z</time>
      </trkpt>
      <trkpt lat="43.60928" lon="5.37826">
        <ele>335</ele>
        <time>2020-06-03T07:22:22Z</time>
      </trkpt>
      <trkpt lat="43.60928" lon="5.3782">
        <ele>335</ele>
        <time>2020-06-03T07:22:26Z</time>
      </trkpt>
      <trkpt lat="43.60929" lon="5.37814">
        <ele>335</ele>
        <time>2020-06-03T07:22:31Z</time>
      </trkpt>
      <trkpt lat="43.6093" lon="5.3781">
        <ele>335</ele>
        <time>2020-06-03T07:22:35Z</time>
      </trkpt>
      <trkpt lat="43.6093" lon="5.37803">
        <ele>335</ele>
        <time>2020-06-03T07:22:39Z</time>
      </trkpt>
      <trkpt lat="43.6093" lon="5.37795">
        <ele>335</ele>
        <time>2020-06-03T07:22:44Z</time>
      </trkpt>
      <trkpt lat="43.60931" lon="5.37788">
        <ele>335</ele>
        <time>2020-06-03T07:22:49Z</time>
      </trkpt>
      <trkpt lat="43.60933" lon="5.37783">
        <ele>335</ele>
        <time>2020-06-03T07:22:54Z</time>
      </trkpt>
      <trkpt lat="43.60936" lon="5.37777">
        <ele>335</ele>
        <time>2020-06-03T07:22:59Z</time>
      </trkpt>
      <trkpt lat="43.60938" lon="5.37772">
        <ele>335</ele>
        <time>2020-06-03T07:23:03Z</time>
      </trkpt>
      <trkpt lat="43.6094" lon="5.37768">
        <ele>335</ele>
        <time>2020-06-03T07:23:07Z</time>
      </trkpt>
      <trkpt lat="43.60943" lon="5.37762">
        <ele>335</ele>
        <time>2020-06-03T07:23:11Z</time>
      </trkpt>
      <trkpt lat="43.60946" lon="5.37757">
        <ele>335</ele>
        <time>2020-06-03T07:23:16Z</time>
      </trkpt>
      <trkpt lat="43.6095" lon="5.37754">
        <ele>335</ele>
        <time>2020-06-03T07:23:21Z</time>
      </trkpt>
      <trkpt lat="43.60954" lon="5.37747">
        <ele>334</ele>
        <time>2020-06-03T07:23:26Z</time>
      </trkpt>
      <trkpt lat="43.60958" lon="5.37743">
        <ele>334</ele>
        <time>2020-06-03T07:23:30Z</time>
      </trkpt>
      <trkpt lat="43.60962" lon="5.3774">
        <ele>334</ele>
        <time>2020-06-03T07:23:34Z</time>
      </trkpt>
      <trkpt lat="43.60965" lon="5.37738">
        <ele>335</ele>
        <time>2020-06-03T07:23:38Z</time>
      </trkpt>
      <trkpt lat="43.60969" lon="5.37736">
        <ele>335</ele>
        <time>2020-06-03T07:23:42Z</time>
      </trkpt>
      <trkpt lat="43.60971" lon="5.37731">
        <ele>335</ele>
        <time>2020-06-03T07:23:46Z</time>
      </trkpt>
      <trkpt lat="43.60974" lon="5.37728">
        <ele>335</ele>
        <time>2020-06-03T07:23:50Z</time>
      </trkpt>
      <trkpt lat="43.60977" lon="5.37723">
        <ele>335</ele>
        <time>2020-06-03T07:23:54Z</time>
      </trkpt>
      <trkpt lat="43.6098" lon="5.37718">
        <ele>335</ele>
        <time>2020-06-03T07:23:59Z</time>
      </trkpt>
      <trkpt lat="43.60983" lon="5.37715">
        <ele>335</ele>
        <time>2020-06-03T07:24:03Z</time>
      </trkpt>
      <trkpt lat="43.60986" lon="5.37712">
        <ele>335</ele>
        <time>2020-06-03T07:24:07Z</time>
      </trkpt>
      <trkpt lat="43.60988" lon="5.37708">
        <ele>334</ele>
        <time>2020-06-03T07:24:12Z</time>
      </trkpt>
      <trkpt lat="43.60991" lon="5.37704">
        <ele>334</ele>
        <time>2020-06-03T07:24:16Z</time>
      </trkpt>
      <trkpt lat="43.60994" lon="5.37698">
        <ele>334</ele>
        <time>2020-06-03T07:24:21Z</time>
      </trkpt>
      <trkpt lat="43.60997" lon="5.37694">
        <ele>334</ele>
        <time>2020-06-03T07:24:25Z</time>
      </trkpt>
      <trkpt lat="43.61" lon="5.37689">
        <ele>335</ele>
        <time>2020-06-03T07:24:30Z</time>
      </trkpt>
      <trkpt lat="43.61004" lon="5.37685">
        <ele>335</ele>
        <time>2020-06-03T07:24:34Z</time>
      </trkpt>
      <trkpt lat="43.61007" lon="5.37681">
        <ele>335</ele>
        <time>2020-06-03T07:24:38Z</time>
      </trkpt>
      <trkpt lat="43.61012" lon="5.37675">
        <ele>335</ele>
        <time>2020-06-03T07:24:43Z</time>
      </trkpt>
      <trkpt lat="43.61015" lon="5.37671">
        <ele>335</ele>
        <time>2020-06-03T07:24:47Z</time>
      </trkpt>
      <trkpt lat="43.61019" lon="5.37668">
        <ele>335</ele>
        <time>2020-06-03T07:24:52Z</time>
      </trkpt>
      <trkpt lat="43.61025" lon="5.37667">
        <ele>335</ele>
        <time>2020-06-03T07:24:57Z</time>
      </trkpt>
      <trkpt lat="43.6103" lon="5.37665">
        <ele>334</ele>
        <time>2020-06-03T07:25:02Z</time>
      </trkpt>
      <trkpt lat="43.61034" lon="5.37665">
        <ele>334</ele>
        <time>2020-06-03T07:25:06Z</time>
      </trkpt>
      <trkpt lat="43.6104" lon="5.37665">
        <ele>334</ele>
        <time>2020-06-03T07:25:11Z</time>
      </trkpt>
      <trkpt lat="43.61044" lon="5.37666">
        <ele>334</ele>
        <time>2020-06-03T07:25:15Z</time>
      </trkpt>
      <trkpt lat="43.61048" lon="5.37666">
        <ele>334</ele>
        <time>2020-06-03T07:25:19Z</time>
      </trkpt>
      <trkpt lat="43.61053" lon="5.37667">
        <ele>336</ele>
        <time>2020-06-03T07:25:23Z</time>
      </trkpt>
      <trkpt lat="43.61058" lon="5.37665">
        <ele>335</ele>
        <time>2020-06-03T07:25:27Z</time>
      </trkpt>
      <trkpt lat="43.61065" lon="5.37662">
        <ele>335</ele>
        <time>2020-06-03T07:25:32Z</time>
      </trkpt>
      <trkpt lat="43.61069" lon="5.37657">
        <ele>335</ele>
        <time>2020-06-03T07:25:36Z</time>
      </trkpt>
      <trkpt lat="43.61071" lon="5.37652">
        <ele>335</ele>
        <time>2020-06-03T07:25:41Z</time>
      </trkpt>
      <trkpt lat="43.61073" lon="5.37647">
        <ele>335</ele>
        <time>2020-06-03T07:25:46Z</time>
      </trkpt>
      <trkpt lat="43.61075" lon="5.3764">
        <ele>334</ele>
        <time>2020-06-03T07:25:51Z</time>
      </trkpt>
      <trkpt lat="43.61076" lon="5.37636">
        <ele>334</ele>
        <time>2020-06-03T07:25:55Z</time>
      </trkpt>
      <trkpt lat="43.61078" lon="5.37629">
        <ele>334</ele>
        <time>2020-06-03T07:25:59Z</time>
      </trkpt>
      <trkpt lat="43.61081" lon="5.37623">
        <ele>334</ele>
        <time>2020-06-03T07:26:04Z</time>
      </trkpt>
      <trkpt lat="43.61084" lon="5.37619">
        <ele>335</ele>
        <time>2020-06-03T07:26:08Z</time>
      </trkpt>
      <trkpt lat="43.61086" lon="5.37616">
        <ele>335</ele>
        <time>2020-06-03T07:26:12Z</time>
      </trkpt>
      <trkpt lat="43.61087" lon="5.37614">
        <ele>335</ele>
        <time>2020-06-03T07:26:16Z</time>
      </trkpt>
      <trkpt lat="43.6109" lon="5.3761">
        <ele>334</ele>
        <time>2020-06-03T07:26:21Z</time>
      </trkpt>
      <trkpt lat="43.61093" lon="5.37604">
        <ele>334</ele>
        <time>2020-06-03T07:26:26Z</time>
      </trkpt>
      <trkpt lat="43.61096" lon="5.37598">
        <ele>334</ele>
        <time>2020-06-03T07:26:30Z</time>
      </trkpt>
      <trkpt lat="43.61098" lon="5.37592">
        <ele>334</ele>
        <time>2020-06-03T07:26:35Z</time>
      </trkpt>
      <trkpt lat="43.61099" lon="5.37588">
        <ele>334</ele>
        <time>2020-06-03T07:26:39Z</time>
      </trkpt>
      <trkpt lat="43.61101" lon="5.37582">
        <ele>333</ele>
        <time>2020-06-03T07:26:44Z</time>
      </trkpt>
      <trkpt lat="43.61104" lon="5.37578">
        <ele>333</ele>
        <time>2020-06-03T07:26:48Z</time>
      </trkpt>
      <trkpt lat="43.61106" lon="5.37573">
        <ele>333</ele>
        <time>2020-06-03T07:26:52Z</time>
      </trkpt>
      <trkpt lat="43.61108" lon="5.37568">
        <ele>333</ele>
        <time>2020-06-03T07:26:56Z</time>
      </trkpt>
      <trkpt lat="43.61111" lon="5.37562">
        <ele>333</ele>
        <time>2020-06-03T07:27:01Z</time>
      </trkpt>
      <trkpt lat="43.61115" lon="5.37558">
        <ele>333</ele>
        <time>2020-06-03T07:27:06Z</time>
      </trkpt>
      <trkpt lat="43.6112" lon="5.37554">
        <ele>333</ele>
        <time>2020-06-03T07:27:11Z</time>
      </trkpt>
      <trkpt lat="43.61124" lon="5.37552">
        <ele>333</ele>
        <time>2020-06-03T07:27:15Z</time>
      </trkpt>
      <trkpt lat="43.61129" lon="5.37548">
        <ele>333</ele>
        <time>2020-06-03T07:27:20Z</time>
      </trkpt>
      <trkpt lat="43.61133" lon="5.37545">
        <ele>333</ele>
        <time>2020-06-03T07:27:24Z</time>
      </trkpt>
      <trkpt lat="43.61136" lon="5.37541">
        <ele>333</ele>
        <time>2020-06-03T07:27:28Z</time>
      </trkpt>
      <trkpt lat="43.61142" lon="5.37536">
        <ele>333</ele>
        <time>2020-06-03T07:27:33Z</time>
      </trkpt>
      <trkpt lat="43.61146" lon="5.37533">
        <ele>333</ele>
        <time>2020-06-03T07:27:38Z</time>
      </trkpt>
      <trkpt lat="43.6115" lon="5.37531">
        <ele>333</ele>
        <time>2020-06-03T07:27:42Z</time>
      </trkpt>
      <trkpt lat="43.61154" lon="5.37527">
        <ele>333</ele>
        <time>2020-06-03T07:27:46Z</time>
      </trkpt>
      <trkpt lat="43.61158" lon="5.37524">
        <ele>333</ele>
        <time>2020-06-03T07:27:50Z</time>
      </trkpt>
      <trkpt lat="43.61162" lon="5.37519">
        <ele>333</ele>
        <time>2020-06-03T07:27:55Z</time>
      </trkpt>
      <trkpt lat="43.61165" lon="5.37513">
        <ele>333</ele>
        <time>2020-06-03T07:28:00Z</time>
      </trkpt>
      <trkpt lat="43.61168" lon="5.37505">
        <ele>333</ele>
        <time>2020-06-03T07:28:05Z</time>
      </trkpt>
      <trkpt lat="43.6117" lon="5.375">
        <ele>333</ele>
        <time>2020-06-03T07:28:09Z</time>
      </trkpt>
      <trkpt lat="43.61174" lon="5.37496">
        <ele>333</ele>
        <time>2020-06-03T07:28:14Z</time>
      </trkpt>
      <trkpt lat="43.61177" lon="5.37492">
        <ele>333</ele>
        <time>2020-06-03T07:28:18Z</time>
      </trkpt>
      <trkpt lat="43.61181" lon="5.37487">
        <ele>333</ele>
        <time>2020-06-03T07:28:23Z</time>
      </trkpt>
      <trkpt lat="43.61184" lon="5.37483">
        <ele>333</ele>
        <time>2020-06-03T07:28:27Z</time>
      </trkpt>
      <trkpt lat="43.61187" lon="5.37479">
        <ele>332</ele>
        <time>2020-06-03T07:28:31Z</time>
      </trkpt>
      <trkpt lat="43.6119" lon="5.37476">
        <ele>332</ele>
        <time>2020-06-03T07:28:35Z</time>
      </trkpt>
      <trkpt lat="43.61193" lon="5.37473">
        <ele>332</ele>
        <time>2020-06-03T07:28:39Z</time>
      </trkpt>
      <trkpt lat="43.61196" lon="5.3747">
        <ele>332</ele>
        <time>2020-06-03T07:28:43Z</time>
      </trkpt>
      <trkpt lat="43.612" lon="5.37468">
        <ele>332</ele>
        <time>2020-06-03T07:28:47Z</time>
      </trkpt>
      <trkpt lat="43.61204" lon="5.37466">
        <ele>332</ele>
        <time>2020-06-03T07:28:51Z</time>
      </trkpt>
      <trkpt lat="43.61209" lon="5.37463">
        <ele>332</ele>
        <time>2020-06-03T07:28:56Z</time>
      </trkpt>
      <trkpt lat="43.61214" lon="5.37461">
        <ele>332</ele>
        <time>2020-06-03T07:29:00Z</time>
      </trkpt>
      <trkpt lat="43.61219" lon="5.37459">
        <ele>332</ele>
        <time>2020-06-03T07:29:05Z</time>
      </trkpt>
      <trkpt lat="43.61222" lon="5.37456">
        <ele>332</ele>
        <time>2020-06-03T07:29:09Z</time>
      </trkpt>
      <trkpt lat="43.61226" lon="5.37455">
        <ele>332</ele>
        <time>2020-06-03T07:29:13Z</time>
      </trkpt>
      <trkpt lat="43.61231" lon="5.37451">
        <ele>332</ele>
        <time>2020-06-03T07:29:18Z</time>
      </trkpt>
      <trkpt lat="43.61235" lon="5.3745">
        <ele>332</ele>
        <time>2020-06-03T07:29:23Z</time>
      </trkpt>
      <trkpt lat="43.6124" lon="5.37448">
        <ele>332</ele>
        <time>2020-06-03T07:29:27Z</time>
      </trkpt>
      <trkpt lat="43.61245" lon="5.37446">
        <ele>332</ele>
        <time>2020-06-03T07:29:32Z</time>
      </trkpt>
      <trkpt lat="43.61249" lon="5.37445">
        <ele>332</ele>
        <time>2020-06-03T07:29:36Z</time>
      </trkpt>
      <trkpt lat="43.61253" lon="5.37446">
        <ele>332</ele>
        <time>2020-06-03T07:29:41Z</time>
      </trkpt>
      <trkpt lat="43.61259" lon="5.37447">
        <ele>332</ele>
        <time>2020-06-03T07:29:45Z</time>
      </trkpt>
      <trkpt lat="43.61266" lon="5.37447">
        <ele>332</ele>
        <time>2020-06-03T07:29:50Z</time>
      </trkpt>
      <trkpt lat="43.61271" lon="5.37448">
        <ele>332</ele>
        <time>2020-06-03T07:29:54Z</time>
      </trkpt>
      <trkpt lat="43.61276" lon="5.37451">
        <ele>332</ele>
        <time>2020-06-03T07:29:58Z</time>
      </trkpt>
      <trkpt lat="43.61279" lon="5.37454">
        <ele>332</ele>
        <time>2020-06-03T07:30:03Z</time>
      </trkpt>
      <trkpt lat="43.61283" lon="5.37457">
        <ele>332</ele>
        <time>2020-06-03T07:30:07Z</time>
      </trkpt>
      <trkpt lat="43.61287" lon="5.37459">
        <ele>333</ele>
        <time>2020-06-03T07:30:12Z</time>
      </trkpt>
      <trkpt lat="43.61291" lon="5.37463">
        <ele>333</ele>
        <time>2020-06-03T07:30:17Z</time>
      </trkpt>
      <trkpt lat="43.61294" lon="5.37468">
        <ele>333</ele>
        <time>2020-06-03T07:30:21Z</time>
      </trkpt>
      <trkpt lat="43.61297" lon="5.37472">
        <ele>333</ele>
        <time>2020-06-03T07:30:25Z</time>
      </trkpt>
      <trkpt lat="43.613" lon="5.37476">
        <ele>333</ele>
        <time>2020-06-03T07:30:29Z</time>
      </trkpt>
      <trkpt lat="43.61301" lon="5.37479">
        <ele>333</ele>
        <time>2020-06-03T07:30:33Z</time>
      </trkpt>
      <trkpt lat="43.61304" lon="5.37482">
        <ele>333</ele>
        <time>2020-06-03T07:30:38Z</time>
      </trkpt>
      <trkpt lat="43.61307" lon="5.37487">
        <ele>334</ele>
        <time>2020-06-03T07:30:43Z</time>
      </trkpt>
      <trkpt lat="43.61311" lon="5.37491">
        <ele>334</ele>
        <time>2020-06-03T07:30:47Z</time>
      </trkpt>
      <trkpt lat="43.61316" lon="5.37496">
        <ele>335</ele>
        <time>2020-06-03T07:30:52Z</time>
      </trkpt>
      <trkpt lat="43.61318" lon="5.37498">
        <ele>335</ele>
        <time>2020-06-03T07:30:56Z</time>
      </trkpt>
      <trkpt lat="43.61321" lon="5.375">
        <ele>335</ele>
        <time>2020-06-03T07:31:00Z</time>
      </trkpt>
      <trkpt lat="43.61327" lon="5.37499">
        <ele>336</ele>
        <time>2020-06-03T07:31:04Z</time>
      </trkpt>
      <trkpt lat="43.61333" lon="5.37497">
        <ele>336</ele>
        <time>2020-06-03T07:31:08Z</time>
      </trkpt>
      <trkpt lat="43.61338" lon="5.37493">
        <ele>335</ele>
        <time>2020-06-03T07:31:12Z</time>
      </trkpt>
      <trkpt lat="43.6134" lon="5.37487">
        <ele>334</ele>
        <time>2020-06-03T07:31:17Z</time>
      </trkpt>
      <trkpt lat="43.61342" lon="5.37483">
        <ele>334</ele>
        <time>2020-06-03T07:31:21Z</time>
      </trkpt>
      <trkpt lat="43.61347" lon="5.37477">
        <ele>333</ele>
        <time>2020-06-03T07:31:26Z</time>
      </trkpt>
      <trkpt lat="43.6135" lon="5.37472">
        <ele>333</ele>
        <time>2020-06-03T07:31:30Z</time>
      </trkpt>
      <trkpt lat="43.61352" lon="5.37467">
        <ele>332</ele>
        <time>2020-06-03T07:31:34Z</time>
      </trkpt>
      <trkpt lat="43.61356" lon="5.37461">
        <ele>332</ele>
        <time>2020-06-03T07:31:39Z</time>
      </trkpt>
      <trkpt lat="43.61358" lon="5.37458">
        <ele>332</ele>
        <time>2020-06-03T07:31:43Z</time>
      </trkpt>
      <trkpt lat="43.61362" lon="5.37454">
        <ele>331</ele>
        <time>2020-06-03T07:31:47Z</time>
      </trkpt>
      <trkpt lat="43.61365" lon="5.37451">
        <ele>331</ele>
        <time>2020-06-03T07:31:51Z</time>
      </trkpt>
      <trkpt lat="43.61368" lon="5.37448">
        <ele>331</ele>
        <time>2020-06-03T07:31:56Z</time>
      </trkpt>
      <trkpt lat="43.61372" lon="5.37443">
        <ele>331</ele>
        <time>2020-06-03T07:32:01Z</time>
      </trkpt>
      <trkpt lat="43.61376" lon="5.37439">
        <ele>331</ele>
        <time>2020-06-03T07:32:05Z</time>
      </trkpt>
      <trkpt lat="43.6138" lon="5.37433">
        <ele>331</ele>
        <time>2020-06-03T07:32:09Z</time>
      </trkpt>
      <trkpt lat="43.61384" lon="5.37427">
        <ele>331</ele>
        <time>2020-06-03T07:32:14Z</time>
      </trkpt>
      <trkpt lat="43.61389" lon="5.37422">
        <ele>330</ele>
        <time>2020-06-03T07:32:18Z</time>
      </trkpt>
      <trkpt lat="43.61394" lon="5.37417">
        <ele>328</ele>
        <time>2020-06-03T07:32:23Z</time>
      </trkpt>
      <trkpt lat="43.61397" lon="5.37412">
        <ele>328</ele>
        <time>2020-06-03T07:32:27Z</time>
      </trkpt>
      <trkpt lat="43.61401" lon="5.37408">
        <ele>329</ele>
        <time>2020-06-03T07:32:31Z</time>
      </trkpt>
      <trkpt lat="43.61406" lon="5.37404">
        <ele>329</ele>
        <time>2020-06-03T07:32:36Z</time>
      </trkpt>
      <trkpt lat="43.6141" lon="5.37399">
        <ele>329</ele>
        <time>2020-06-03T07:32:41Z</time>
      </trkpt>
      <trkpt lat="43.61413" lon="5.37395">
        <ele>328</ele>
        <time>2020-06-03T07:32:46Z</time>
      </trkpt>
      <trkpt lat="43.61415" lon="5.37392">
        <ele>328</ele>
        <time>2020-06-03T07:32:50Z</time>
      </trkpt>
      <trkpt lat="43.61418" lon="5.37389">
        <ele>331</ele>
        <time>2020-06-03T07:32:54Z</time>
      </trkpt>
      <trkpt lat="43.61422" lon="5.37383">
        <ele>331</ele>
        <time>2020-06-03T07:32:58Z</time>
      </trkpt>
      <trkpt lat="43.61426" lon="5.37377">
        <ele>331</ele>
        <time>2020-06-03T07:33:03Z</time>
      </trkpt>
      <trkpt lat="43.61429" lon="5.37372">
        <ele>331</ele>
        <time>2020-06-03T07:33:07Z</time>
      </trkpt>
      <trkpt lat="43.6143" lon="5.37366">
        <ele>331</ele>
        <time>2020-06-03T07:33:11Z</time>
      </trkpt>
      <trkpt lat="43.61431" lon="5.37358">
        <ele>331</ele>
        <time>2020-06-03T07:33:16Z</time>
      </trkpt>
      <trkpt lat="43.61429" lon="5.37351">
        <ele>331</ele>
        <time>2020-06-03T07:33:20Z</time>
      </trkpt>
      <trkpt lat="43.61427" lon="5.37345">
        <ele>330</ele>
        <time>2020-06-03T07:33:24Z</time>
      </trkpt>
      <trkpt lat="43.61424" lon="5.37338">
        <ele>330</ele>
        <time>2020-06-03T07:33:29Z</time>
      </trkpt>
      <trkpt lat="43.61422" lon="5.3733">
        <ele>330</ele>
        <time>2020-06-03T07:33:34Z</time>
      </trkpt>
      <trkpt lat="43.61421" lon="5.37323">
        <ele>330</ele>
        <time>2020-06-03T07:33:39Z</time>
      </trkpt>
      <trkpt lat="43.61419" lon="5.37318">
        <ele>330</ele>
        <time>2020-06-03T07:33:43Z</time>
      </trkpt>
      <trkpt lat="43.61417" lon="5.37313">
        <ele>330</ele>
        <time>2020-06-03T07:33:47Z</time>
      </trkpt>
      <trkpt lat="43.61417" lon="5.37306">
        <ele>330</ele>
        <time>2020-06-03T07:33:52Z</time>
      </trkpt>
      <trkpt lat="43.61417" lon="5.373">
        <ele>331</ele>
        <time>2020-06-03T07:33:56Z</time>
      </trkpt>
      <trkpt lat="43.61416" lon="5.37293">
        <ele>329</ele>
        <time>2020-06-03T07:34:01Z</time>
      </trkpt>
      <trkpt lat="43.61415" lon="5.37289">
        <ele>329</ele>
        <time>2020-06-03T07:34:05Z</time>
      </trkpt>
      <trkpt lat="43.61415" lon="5.37283">
        <ele>329</ele>
        <time>2020-06-03T07:34:09Z</time>
      </trkpt>
      <trkpt lat="43.61416" lon="5.37278">
        <ele>329</ele>
        <time>2020-06-03T07:34:14Z</time>
      </trkpt>
      <trkpt lat="43.61418" lon="5.37271">
        <ele>331</ele>
        <time>2020-06-03T07:34:19Z</time>
      </trkpt>
      <trkpt lat="43.6142" lon="5.37265">
        <ele>331</ele>
        <time>2020-06-03T07:34:23Z</time>
      </trkpt>
      <trkpt lat="43.61422" lon="5.37261">
        <ele>331</ele>
        <time>2020-06-03T07:34:28Z</time>
      </trkpt>
      <trkpt lat="43.61422" lon="5.3726">
        <ele>331</ele>
        <time>2020-06-03T07:34:32Z</time>
      </trkpt>
      <trkpt lat="43.61422" lon="5.37259">
        <ele>331</ele>
        <time>2020-06-03T07:34:37Z</time>
      </trkpt>
      <trkpt lat="43.6142" lon="5.37255">
        <ele>331</ele>
        <time>2020-06-03T07:34:41Z</time>
      </trkpt>
      <trkpt lat="43.61419" lon="5.37251">
        <ele>331</ele>
        <time>2020-06-03T07:34:46Z</time>
      </trkpt>
      <trkpt lat="43.61418" lon="5.37245">
        <ele>331</ele>
        <time>2020-06-03T07:34:50Z</time>
      </trkpt>
      <trkpt lat="43.61417" lon="5.3724">
        <ele>330</ele>
        <time>2020-06-03T07:34:54Z</time>
      </trkpt>
      <trkpt lat="43.61417" lon="5.37236">
        <ele>330</ele>
        <time>2020-06-03T07:34:59Z</time>
      </trkpt>
      <trkpt lat="43.61419" lon="5.37232">
        <ele>330</ele>
        <time>2020-06-03T07:35:04Z</time>
      </trkpt>
      <trkpt lat="43.61421" lon="5.37226">
        <ele>330</ele>
        <time>2020-06-03T07:35:08Z</time>
      </trkpt>
      <trkpt lat="43.61421" lon="5.37221">
        <ele>330</ele>
        <time>2020-06-03T07:35:12Z</time>
      </trkpt>
      <trkpt lat="43.61425" lon="5.37211">
        <ele>330</ele>
        <time>2020-06-03T07:35:17Z</time>
      </trkpt>
      <trkpt lat="43.61428" lon="5.37207">
        <ele>330</ele>
        <time>2020-06-03T07:35:21Z</time>
      </trkpt>
      <trkpt lat="43.61432" lon="5.37202">
        <ele>330</ele>
        <time>2020-06-03T07:35:26Z</time>
      </trkpt>
      <trkpt lat="43.61433" lon="5.37201">
        <ele>330</ele>
        <time>2020-06-03T07:35:30Z</time>
      </trkpt>
      <trkpt lat="43.61433" lon="5.372">
        <ele>329</ele>
        <time>2020-06-03T07:35:37Z</time>
      </trkpt>
      <trkpt lat="43.61434" lon="5.37199">
        <ele>329</ele>
        <time>2020-06-03T07:35:41Z</time>
      </trkpt>
      <trkpt lat="43.61438" lon="5.372">
        <ele>330</ele>
        <time>2020-06-03T07:35:46Z</time>
      </trkpt>
      <trkpt lat="43.61442" lon="5.37202">
        <ele>330</ele>
        <time>2020-06-03T07:35:51Z</time>
      </trkpt>
      <trkpt lat="43.61445" lon="5.37201">
        <ele>330</ele>
        <time>2020-06-03T07:35:55Z</time>
      </trkpt>
      <trkpt lat="43.6145" lon="5.372">
        <ele>330</ele>
        <time>2020-06-03T07:35:59Z</time>
      </trkpt>
      <trkpt lat="43.61452" lon="5.37202">
        <ele>330</ele>
        <time>2020-06-03T07:36:04Z</time>
      </trkpt>
      <trkpt lat="43.61452" lon="5.37203">
        <ele>330</ele>
        <time>2020-06-03T07:36:23Z</time>
      </trkpt>
      <trkpt lat="43.6145" lon="5.37203">
        <ele>330</ele>
        <time>2020-06-03T07:36:27Z</time>
      </trkpt>
      <trkpt lat="43.61448" lon="5.37203">
        <ele>330</ele>
        <time>2020-06-03T07:36:31Z</time>
      </trkpt>
      <trkpt lat="43.61444" lon="5.37202">
        <ele>330</ele>
        <time>2020-06-03T07:36:36Z</time>
      </trkpt>
      <trkpt lat="43.61441" lon="5.37201">
        <ele>330</ele>
        <time>2020-06-03T07:36:40Z</time>
      </trkpt>
      <trkpt lat="43.61442" lon="5.37202">
        <ele>330</ele>
        <time>2020-06-03T07:37:11Z</time>
      </trkpt>
      <trkpt lat="43.61442" lon="5.37203">
        <ele>330</ele>
        <time>2020-06-03T07:37:16Z</time>
      </trkpt>
      <trkpt lat="43.61443" lon="5.37204">
        <ele>330</ele>
        <time>2020-06-03T07:37:20Z</time>
      </trkpt>
      <trkpt lat="43.61445" lon="5.37203">
        <ele>330</ele>
        <time>2020-06-03T07:37:24Z</time>
      </trkpt>
      <trkpt lat="43.61446" lon="5.37203">
        <ele>330</ele>
        <time>2020-06-03T07:37:28Z</time>
      </trkpt>
      <trkpt lat="43.61446" lon="5.37204">
        <ele>330</ele>
        <time>2020-06-03T07:37:59Z</time>
      </trkpt>
      <trkpt lat="43.61448" lon="5.37206">
        <ele>330</ele>
        <time>2020-06-03T07:38:03Z</time>
      </trkpt>
      <trkpt lat="43.61447" lon="5.37205">
        <ele>330</ele>
        <time>2020-06-03T07:38:07Z</time>
      </trkpt>
      <trkpt lat="43.61448" lon="5.37205">
        <ele>330</ele>
        <time>2020-06-03T07:38:24Z</time>
      </trkpt>
      <trkpt lat="43.61446" lon="5.37202">
        <ele>330</ele>
        <time>2020-06-03T07:38:28Z</time>
      </trkpt>
      <trkpt lat="43.61448" lon="5.37203">
        <ele>330</ele>
        <time>2020-06-03T07:38:32Z</time>
      </trkpt>
      <trkpt lat="43.61456" lon="5.37198">
        <ele>330</ele>
        <time>2020-06-03T07:38:37Z</time>
      </trkpt>
      <trkpt lat="43.61464" lon="5.37195">
        <ele>330</ele>
        <time>2020-06-03T07:38:42Z</time>
      </trkpt>
      <trkpt lat="43.6147" lon="5.37195">
        <ele>330</ele>
        <time>2020-06-03T07:38:46Z</time>
      </trkpt>
      <trkpt lat="43.61475" lon="5.37195">
        <ele>330</ele>
        <time>2020-06-03T07:38:50Z</time>
      </trkpt>
      <trkpt lat="43.61482" lon="5.37192">
        <ele>330</ele>
        <time>2020-06-03T07:38:55Z</time>
      </trkpt>
      <trkpt lat="43.61487" lon="5.37191">
        <ele>330</ele>
        <time>2020-06-03T07:39:00Z</time>
      </trkpt>
      <trkpt lat="43.61491" lon="5.3719">
        <ele>330</ele>
        <time>2020-06-03T07:39:04Z</time>
      </trkpt>
      <trkpt lat="43.61496" lon="5.37189">
        <ele>329</ele>
        <time>2020-06-03T07:39:08Z</time>
      </trkpt>
      <trkpt lat="43.61499" lon="5.37188">
        <ele>329</ele>
        <time>2020-06-03T07:39:13Z</time>
      </trkpt>
      <trkpt lat="43.61503" lon="5.37187">
        <ele>332</ele>
        <time>2020-06-03T07:39:17Z</time>
      </trkpt>
      <trkpt lat="43.61506" lon="5.37186">
        <ele>332</ele>
        <time>2020-06-03T07:39:21Z</time>
      </trkpt>
      <trkpt lat="43.6151" lon="5.37184">
        <ele>332</ele>
        <time>2020-06-03T07:39:26Z</time>
      </trkpt>
      <trkpt lat="43.61514" lon="5.37182">
        <ele>332</ele>
        <time>2020-06-03T07:39:30Z</time>
      </trkpt>
      <trkpt lat="43.61519" lon="5.3718">
        <ele>332</ele>
        <time>2020-06-03T07:39:35Z</time>
      </trkpt>
      <trkpt lat="43.61522" lon="5.37178">
        <ele>332</ele>
        <time>2020-06-03T07:39:39Z</time>
      </trkpt>
      <trkpt lat="43.61529" lon="5.37176">
        <ele>333</ele>
        <time>2020-06-03T07:39:44Z</time>
      </trkpt>
      <trkpt lat="43.61533" lon="5.37175">
        <ele>333</ele>
        <time>2020-06-03T07:39:48Z</time>
      </trkpt>
      <trkpt lat="43.61537" lon="5.37174">
        <ele>333</ele>
        <time>2020-06-03T07:39:52Z</time>
      </trkpt>
      <trkpt lat="43.61539" lon="5.37173">
        <ele>334</ele>
        <time>2020-06-03T07:39:57Z</time>
      </trkpt>
      <trkpt lat="43.61543" lon="5.37173">
        <ele>334</ele>
        <time>2020-06-03T07:40:02Z</time>
      </trkpt>
      <trkpt lat="43.61548" lon="5.37172">
        <ele>334</ele>
        <time>2020-06-03T07:40:06Z</time>
      </trkpt>
      <trkpt lat="43.61553" lon="5.37172">
        <ele>335</ele>
        <time>2020-06-03T07:40:10Z</time>
      </trkpt>
      <trkpt lat="43.61559" lon="5.3717">
        <ele>335</ele>
        <time>2020-06-03T07:40:15Z</time>
      </trkpt>
      <trkpt lat="43.61564" lon="5.37168">
        <ele>335</ele>
        <time>2020-06-03T07:40:19Z</time>
      </trkpt>
      <trkpt lat="43.61569" lon="5.37166">
        <ele>335</ele>
        <time>2020-06-03T07:40:23Z</time>
      </trkpt>
      <trkpt lat="43.61573" lon="5.37163">
        <ele>335</ele>
        <time>2020-06-03T07:40:28Z</time>
      </trkpt>
      <trkpt lat="43.61576" lon="5.37161">
        <ele>336</ele>
        <time>2020-06-03T07:40:33Z</time>
      </trkpt>
      <trkpt lat="43.6158" lon="5.3716">
        <ele>336</ele>
        <time>2020-06-03T07:40:37Z</time>
      </trkpt>
      <trkpt lat="43.61584" lon="5.37159">
        <ele>338</ele>
        <time>2020-06-03T07:40:42Z</time>
      </trkpt>
      <trkpt lat="43.61591" lon="5.37158">
        <ele>339</ele>
        <time>2020-06-03T07:40:47Z</time>
      </trkpt>
      <trkpt lat="43.61594" lon="5.37155">
        <ele>339</ele>
        <time>2020-06-03T07:40:51Z</time>
      </trkpt>
      <trkpt lat="43.61596" lon="5.37152">
        <ele>339</ele>
        <time>2020-06-03T07:40:56Z</time>
      </trkpt>
      <trkpt lat="43.61596" lon="5.3715">
        <ele>339</ele>
        <time>2020-06-03T07:41:00Z</time>
      </trkpt>
      <trkpt lat="43.61596" lon="5.37149">
        <ele>339</ele>
        <time>2020-06-03T07:41:22Z</time>
      </trkpt>
      <trkpt lat="43.61596" lon="5.37146">
        <ele>340</ele>
        <time>2020-06-03T07:41:26Z</time>
      </trkpt>
      <trkpt lat="43.61597" lon="5.37145">
        <ele>340</ele>
        <time>2020-06-03T07:41:33Z</time>
      </trkpt>
      <trkpt lat="43.61599" lon="5.37144">
        <ele>340</ele>
        <time>2020-06-03T07:41:37Z</time>
      </trkpt>
      <trkpt lat="43.616" lon="5.37141">
        <ele>340</ele>
        <time>2020-06-03T07:41:41Z</time>
      </trkpt>
      <trkpt lat="43.61601" lon="5.3714">
        <ele>340</ele>
        <time>2020-06-03T07:41:50Z</time>
      </trkpt>
      <trkpt lat="43.61602" lon="5.37136">
        <ele>340</ele>
        <time>2020-06-03T07:41:55Z</time>
      </trkpt>
      <trkpt lat="43.61604" lon="5.37132">
        <ele>340</ele>
        <time>2020-06-03T07:42:00Z</time>
      </trkpt>
      <trkpt lat="43.61606" lon="5.37129">
        <ele>340</ele>
        <time>2020-06-03T07:42:04Z</time>
      </trkpt>
      <trkpt lat="43.61608" lon="5.37125">
        <ele>340</ele>
        <time>2020-06-03T07:42:08Z</time>
      </trkpt>
      <trkpt lat="43.61611" lon="5.37118">
        <ele>340</ele>
        <time>2020-06-03T07:42:12Z</time>
      </trkpt>
      <trkpt lat="43.61613" lon="5.37113">
        <ele>340</ele>
        <time>2020-06-03T07:42:17Z</time>
      </trkpt>
      <trkpt lat="43.61615" lon="5.37109">
        <ele>341</ele>
        <time>2020-06-03T07:42:21Z</time>
      </trkpt>
      <trkpt lat="43.61618" lon="5.37102">
        <ele>341</ele>
        <time>2020-06-03T07:42:26Z</time>
      </trkpt>
      <trkpt lat="43.61619" lon="5.37097">
        <ele>341</ele>
        <time>2020-06-03T07:42:31Z</time>
      </trkpt>
      <trkpt lat="43.61621" lon="5.37092">
        <ele>341</ele>
        <time>2020-06-03T07:42:36Z</time>
      </trkpt>
      <trkpt lat="43.61621" lon="5.37091">
        <ele>341</ele>
        <time>2020-06-03T07:42:43Z</time>
      </trkpt>
      <trkpt lat="43.61622" lon="5.3709">
        <ele>341</ele>
        <time>2020-06-03T07:42:57Z</time>
      </trkpt>
      <trkpt lat="43.61622" lon="5.37089">
        <ele>341</ele>
        <time>2020-06-03T07:43:02Z</time>
      </trkpt>
      <trkpt lat="43.61622" lon="5.37088">
        <ele>341</ele>
        <time>2020-06-03T07:43:13Z</time>
      </trkpt>
      <trkpt lat="43.61621" lon="5.37086">
        <ele>341</ele>
        <time>2020-06-03T07:43:17Z</time>
      </trkpt>
      <trkpt lat="43.61618" lon="5.37087">
        <ele>340</ele>
        <time>2020-06-03T07:43:22Z</time>
      </trkpt>
      <trkpt lat="43.61617" lon="5.3709">
        <ele>340</ele>
        <time>2020-06-03T07:43:27Z</time>
      </trkpt>
      <trkpt lat="43.61616" lon="5.37094">
        <ele>340</ele>
        <time>2020-06-03T07:43:31Z</time>
      </trkpt>
      <trkpt lat="43.61616" lon="5.37097">
        <ele>340</ele>
        <time>2020-06-03T07:43:35Z</time>
      </trkpt>
      <trkpt lat="43.61614" lon="5.37103">
        <ele>340</ele>
        <time>2020-06-03T07:43:40Z</time>
      </trkpt>
      <trkpt lat="43.61612" lon="5.37109">
        <ele>340</ele>
        <time>2020-06-03T07:43:44Z</time>
      </trkpt>
      <trkpt lat="43.61608" lon="5.37117">
        <ele>340</ele>
        <time>2020-06-03T07:43:49Z</time>
      </trkpt>
      <trkpt lat="43.61607" lon="5.37121">
        <ele>340</ele>
        <time>2020-06-03T07:43:53Z</time>
      </trkpt>
      <trkpt lat="43.61604" lon="5.37128">
        <ele>340</ele>
        <time>2020-06-03T07:43:58Z</time>
      </trkpt>
      <trkpt lat="43.61601" lon="5.37137">
        <ele>340</ele>
        <time>2020-06-03T07:44:03Z</time>
      </trkpt>
      <trkpt lat="43.61601" lon="5.3714">
        <ele>340</ele>
        <time>2020-06-03T07:44:07Z</time>
      </trkpt>
      <trkpt lat="43.616" lon="5.37142">
        <ele>340</ele>
        <time>2020-06-03T07:44:11Z</time>
      </trkpt>
      <trkpt lat="43.616" lon="5.37145">
        <ele>340</ele>
        <time>2020-06-03T07:44:15Z</time>
      </trkpt>
      <trkpt lat="43.61599" lon="5.37151">
        <ele>339</ele>
        <time>2020-06-03T07:44:19Z</time>
      </trkpt>
      <trkpt lat="43.61599" lon="5.37158">
        <ele>339</ele>
        <time>2020-06-03T07:44:24Z</time>
      </trkpt>
      <trkpt lat="43.61598" lon="5.37163">
        <ele>339</ele>
        <time>2020-06-03T07:44:28Z</time>
      </trkpt>
      <trkpt lat="43.61599" lon="5.37169">
        <ele>340</ele>
        <time>2020-06-03T07:44:32Z</time>
      </trkpt>
      <trkpt lat="43.61599" lon="5.37179">
        <ele>340</ele>
        <time>2020-06-03T07:44:37Z</time>
      </trkpt>
      <trkpt lat="43.61599" lon="5.37183">
        <ele>341</ele>
        <time>2020-06-03T07:44:41Z</time>
      </trkpt>
      <trkpt lat="43.61598" lon="5.37187">
        <ele>341</ele>
        <time>2020-06-03T07:44:46Z</time>
      </trkpt>
      <trkpt lat="43.61598" lon="5.37192">
        <ele>341</ele>
        <time>2020-06-03T07:44:50Z</time>
      </trkpt>
      <trkpt lat="43.61596" lon="5.372">
        <ele>341</ele>
        <time>2020-06-03T07:44:55Z</time>
      </trkpt>
      <trkpt lat="43.61595" lon="5.37205">
        <ele>341</ele>
        <time>2020-06-03T07:44:59Z</time>
      </trkpt>
      <trkpt lat="43.61594" lon="5.37213">
        <ele>342</ele>
        <time>2020-06-03T07:45:04Z</time>
      </trkpt>
      <trkpt lat="43.61594" lon="5.37219">
        <ele>342</ele>
        <time>2020-06-03T07:45:08Z</time>
      </trkpt>
      <trkpt lat="43.61593" lon="5.37226">
        <ele>342</ele>
        <time>2020-06-03T07:45:13Z</time>
      </trkpt>
      <trkpt lat="43.61593" lon="5.37227">
        <ele>342</ele>
        <time>2020-06-03T07:45:17Z</time>
      </trkpt>
      <trkpt lat="43.61591" lon="5.37232">
        <ele>341</ele>
        <time>2020-06-03T07:45:22Z</time>
      </trkpt>
      <trkpt lat="43.61592" lon="5.37233">
        <ele>341</ele>
        <time>2020-06-03T07:45:27Z</time>
      </trkpt>
      <trkpt lat="43.61591" lon="5.37235">
        <ele>341</ele>
        <time>2020-06-03T07:45:31Z</time>
      </trkpt>
      <trkpt lat="43.61589" lon="5.37238">
        <ele>341</ele>
        <time>2020-06-03T07:45:36Z</time>
      </trkpt>
      <trkpt lat="43.61588" lon="5.37241">
        <ele>341</ele>
        <time>2020-06-03T07:45:40Z</time>
      </trkpt>
      <trkpt lat="43.61588" lon="5.37247">
        <ele>341</ele>
        <time>2020-06-03T07:45:45Z</time>
      </trkpt>
      <trkpt lat="43.61588" lon="5.37256">
        <ele>342</ele>
        <time>2020-06-03T07:45:50Z</time>
      </trkpt>
      <trkpt lat="43.61588" lon="5.37262">
        <ele>343</ele>
        <time>2020-06-03T07:45:54Z</time>
      </trkpt>
      <trkpt lat="43.61589" lon="5.37271">
        <ele>344</ele>
        <time>2020-06-03T07:45:59Z</time>
      </trkpt>
      <trkpt lat="43.6159" lon="5.37277">
        <ele>344</ele>
        <time>2020-06-03T07:46:03Z</time>
      </trkpt>
      <trkpt lat="43.61592" lon="5.37283">
        <ele>345</ele>
        <time>2020-06-03T07:46:07Z</time>
      </trkpt>
      <trkpt lat="43.61597" lon="5.37288">
        <ele>345</ele>
        <time>2020-06-03T07:46:12Z</time>
      </trkpt>
      <trkpt lat="43.616" lon="5.37292">
        <ele>345</ele>
        <time>2020-06-03T07:46:17Z</time>
      </trkpt>
      <trkpt lat="43.61601" lon="5.37294">
        <ele>345</ele>
        <time>2020-06-03T07:46:21Z</time>
      </trkpt>
      <trkpt lat="43.61603" lon="5.37296">
        <ele>346</ele>
        <time>2020-06-03T07:46:25Z</time>
      </trkpt>
      <trkpt lat="43.61608" lon="5.373">
        <ele>346</ele>
        <time>2020-06-03T07:46:30Z</time>
      </trkpt>
      <trkpt lat="43.61611" lon="5.37303">
        <ele>346</ele>
        <time>2020-06-03T07:46:34Z</time>
      </trkpt>
      <trkpt lat="43.61614" lon="5.37307">
        <ele>346</ele>
        <time>2020-06-03T07:46:38Z</time>
      </trkpt>
      <trkpt lat="43.61618" lon="5.3731">
        <ele>346</ele>
        <time>2020-06-03T07:46:42Z</time>
      </trkpt>
      <trkpt lat="43.61621" lon="5.37315">
        <ele>347</ele>
        <time>2020-06-03T07:46:47Z</time>
      </trkpt>
      <trkpt lat="43.61624" lon="5.37318">
        <ele>347</ele>
        <time>2020-06-03T07:46:52Z</time>
      </trkpt>
      <trkpt lat="43.61628" lon="5.37323">
        <ele>347</ele>
        <time>2020-06-03T07:46:57Z</time>
      </trkpt>
      <trkpt lat="43.61634" lon="5.37332">
        <ele>347</ele>
        <time>2020-06-03T07:47:01Z</time>
      </trkpt>
      <trkpt lat="43.61637" lon="5.37337">
        <ele>349</ele>
        <time>2020-06-03T07:47:05Z</time>
      </trkpt>
      <trkpt lat="43.61643" lon="5.37343">
        <ele>349</ele>
        <time>2020-06-03T07:47:10Z</time>
      </trkpt>
      <trkpt lat="43.61647" lon="5.37347">
        <ele>349</ele>
        <time>2020-06-03T07:47:14Z</time>
      </trkpt>
      <trkpt lat="43.6165" lon="5.37353">
        <ele>350</ele>
        <time>2020-06-03T07:47:18Z</time>
      </trkpt>
      <trkpt lat="43.61653" lon="5.37359">
        <ele>350</ele>
        <time>2020-06-03T07:47:23Z</time>
      </trkpt>
      <trkpt lat="43.61657" lon="5.37367">
        <ele>350</ele>
        <time>2020-06-03T07:47:28Z</time>
      </trkpt>
      <trkpt lat="43.6166" lon="5.37372">
        <ele>350</ele>
        <time>2020-06-03T07:47:32Z</time>
      </trkpt>
      <trkpt lat="43.61663" lon="5.37377">
        <ele>350</ele>
        <time>2020-06-03T07:47:37Z</time>
      </trkpt>
      <trkpt lat="43.61663" lon="5.3738">
        <ele>350</ele>
        <time>2020-06-03T07:47:41Z</time>
      </trkpt>
      <trkpt lat="43.61665" lon="5.37387">
        <ele>350</ele>
        <time>2020-06-03T07:47:46Z</time>
      </trkpt>
      <trkpt lat="43.61667" lon="5.37394">
        <ele>351</ele>
        <time>2020-06-03T07:47:50Z</time>
      </trkpt>
      <trkpt lat="43.61669" lon="5.37398">
        <ele>351</ele>
        <time>2020-06-03T07:47:55Z</time>
      </trkpt>
      <trkpt lat="43.61671" lon="5.37404">
        <ele>351</ele>
        <time>2020-06-03T07:47:59Z</time>
      </trkpt>
      <trkpt lat="43.61673" lon="5.37406">
        <ele>352</ele>
        <time>2020-06-03T07:48:04Z</time>
      </trkpt>
      <trkpt lat="43.61674" lon="5.37407">
        <ele>351</ele>
        <time>2020-06-03T07:48:08Z</time>
      </trkpt>
      <trkpt lat="43.61679" lon="5.37411">
        <ele>351</ele>
        <time>2020-06-03T07:48:13Z</time>
      </trkpt>
      <trkpt lat="43.61682" lon="5.37416">
        <ele>351</ele>
        <time>2020-06-03T07:48:18Z</time>
      </trkpt>
      <trkpt lat="43.61686" lon="5.37423">
        <ele>352</ele>
        <time>2020-06-03T07:48:22Z</time>
      </trkpt>
      <trkpt lat="43.61689" lon="5.37426">
        <ele>352</ele>
        <time>2020-06-03T07:48:26Z</time>
      </trkpt>
      <trkpt lat="43.61693" lon="5.37432">
        <ele>352</ele>
        <time>2020-06-03T07:48:31Z</time>
      </trkpt>
      <trkpt lat="43.61696" lon="5.37439">
        <ele>352</ele>
        <time>2020-06-03T07:48:35Z</time>
      </trkpt>
      <trkpt lat="43.61698" lon="5.37446">
        <ele>352</ele>
        <time>2020-06-03T07:48:40Z</time>
      </trkpt>
      <trkpt lat="43.61702" lon="5.37451">
        <ele>352</ele>
        <time>2020-06-03T07:48:45Z</time>
      </trkpt>
      <trkpt lat="43.61706" lon="5.37453">
        <ele>352</ele>
        <time>2020-06-03T07:48:49Z</time>
      </trkpt>
      <trkpt lat="43.6171" lon="5.37458">
        <ele>352</ele>
        <time>2020-06-03T07:48:53Z</time>
      </trkpt>
      <trkpt lat="43.61715" lon="5.37463">
        <ele>352</ele>
        <time>2020-06-03T07:48:58Z</time>
      </trkpt>
      <trkpt lat="43.61719" lon="5.37466">
        <ele>352</ele>
        <time>2020-06-03T07:49:03Z</time>
      </trkpt>
      <trkpt lat="43.61724" lon="5.37471">
        <ele>352</ele>
        <time>2020-06-03T07:49:08Z</time>
      </trkpt>
      <trkpt lat="43.61727" lon="5.37473">
        <ele>352</ele>
        <time>2020-06-03T07:49:12Z</time>
      </trkpt>
      <trkpt lat="43.6173" lon="5.37475">
        <ele>352</ele>
        <time>2020-06-03T07:49:16Z</time>
      </trkpt>
      <trkpt lat="43.61732" lon="5.37477">
        <ele>353</ele>
        <time>2020-06-03T07:49:20Z</time>
      </trkpt>
      <trkpt lat="43.61736" lon="5.37481">
        <ele>353</ele>
        <time>2020-06-03T07:49:25Z</time>
      </trkpt>
      <trkpt lat="43.6174" lon="5.37488">
        <ele>353</ele>
        <time>2020-06-03T07:49:30Z</time>
      </trkpt>
      <trkpt lat="43.61744" lon="5.37493">
        <ele>353</ele>
        <time>2020-06-03T07:49:34Z</time>
      </trkpt>
      <trkpt lat="43.61747" lon="5.37497">
        <ele>354</ele>
        <time>2020-06-03T07:49:38Z</time>
      </trkpt>
      <trkpt lat="43.61752" lon="5.37503">
        <ele>355</ele>
        <time>2020-06-03T07:49:43Z</time>
      </trkpt>
      <trkpt lat="43.61757" lon="5.37503">
        <ele>356</ele>
        <time>2020-06-03T07:49:47Z</time>
      </trkpt>
      <trkpt lat="43.61763" lon="5.37507">
        <ele>357</ele>
        <time>2020-06-03T07:49:52Z</time>
      </trkpt>
      <trkpt lat="43.61767" lon="5.37511">
        <ele>358</ele>
        <time>2020-06-03T07:49:56Z</time>
      </trkpt>
      <trkpt lat="43.6177" lon="5.37515">
        <ele>358</ele>
        <time>2020-06-03T07:50:01Z</time>
      </trkpt>
      <trkpt lat="43.61774" lon="5.37516">
        <ele>359</ele>
        <time>2020-06-03T07:50:05Z</time>
      </trkpt>
      <trkpt lat="43.61777" lon="5.3751">
        <ele>358</ele>
        <time>2020-06-03T07:50:09Z</time>
      </trkpt>
      <trkpt lat="43.61776" lon="5.37508">
        <ele>358</ele>
        <time>2020-06-03T07:50:13Z</time>
      </trkpt>
      <trkpt lat="43.61779" lon="5.37507">
        <ele>359</ele>
        <time>2020-06-03T07:50:17Z</time>
      </trkpt>
      <trkpt lat="43.61783" lon="5.37506">
        <ele>359</ele>
        <time>2020-06-03T07:50:21Z</time>
      </trkpt>
      <trkpt lat="43.61786" lon="5.37506">
        <ele>359</ele>
        <time>2020-06-03T07:50:25Z</time>
      </trkpt>
      <trkpt lat="43.61788" lon="5.37506">
        <ele>359</ele>
        <time>2020-06-03T07:50:30Z</time>
      </trkpt>
      <trkpt lat="43.61791" lon="5.37506">
        <ele>359</ele>
        <time>2020-06-03T07:50:34Z</time>
      </trkpt>
      <trkpt lat="43.61794" lon="5.37508">
        <ele>359</ele>
        <time>2020-06-03T07:50:38Z</time>
      </trkpt>
      <trkpt lat="43.61793" lon="5.37507">
        <ele>359</ele>
        <time>2020-06-03T07:50:43Z</time>
      </trkpt>
      <trkpt lat="43.61794" lon="5.37508">
        <ele>359</ele>
        <time>2020-06-03T07:51:01Z</time>
      </trkpt>
      <trkpt lat="43.61794" lon="5.37509">
        <ele>359</ele>
        <time>2020-06-03T07:51:08Z</time>
      </trkpt>
      <trkpt lat="43.61798" lon="5.37509">
        <ele>360</ele>
        <time>2020-06-03T07:51:13Z</time>
      </trkpt>
      <trkpt lat="43.61805" lon="5.37513">
        <ele>360</ele>
        <time>2020-06-03T07:51:18Z</time>
      </trkpt>
      <trkpt lat="43.61809" lon="5.37516">
        <ele>360</ele>
        <time>2020-06-03T07:51:23Z</time>
      </trkpt>
      <trkpt lat="43.61812" lon="5.37518">
        <ele>360</ele>
        <time>2020-06-03T07:51:27Z</time>
      </trkpt>
      <trkpt lat="43.61813" lon="5.37521">
        <ele>360</ele>
        <time>2020-06-03T07:51:32Z</time>
      </trkpt>
      <trkpt lat="43.61815" lon="5.37529">
        <ele>361</ele>
        <time>2020-06-03T07:51:37Z</time>
      </trkpt>
      <trkpt lat="43.61818" lon="5.37534">
        <ele>361</ele>
        <time>2020-06-03T07:51:41Z</time>
      </trkpt>
      <trkpt lat="43.61822" lon="5.37537">
        <ele>361</ele>
        <time>2020-06-03T07:51:45Z</time>
      </trkpt>
      <trkpt lat="43.61827" lon="5.37541">
        <ele>361</ele>
        <time>2020-06-03T07:51:49Z</time>
      </trkpt>
      <trkpt lat="43.61832" lon="5.37548">
        <ele>362</ele>
        <time>2020-06-03T07:51:53Z</time>
      </trkpt>
      <trkpt lat="43.61836" lon="5.37554">
        <ele>364</ele>
        <time>2020-06-03T07:51:58Z</time>
      </trkpt>
      <trkpt lat="43.61839" lon="5.37557">
        <ele>364</ele>
        <time>2020-06-03T07:52:02Z</time>
      </trkpt>
      <trkpt lat="43.61842" lon="5.37563">
        <ele>364</ele>
        <time>2020-06-03T07:52:07Z</time>
      </trkpt>
      <trkpt lat="43.61844" lon="5.37565">
        <ele>364</ele>
        <time>2020-06-03T07:52:11Z</time>
      </trkpt>
      <trkpt lat="43.61847" lon="5.37568">
        <ele>365</ele>
        <time>2020-06-03T07:52:15Z</time>
      </trkpt>
      <trkpt lat="43.61851" lon="5.37572">
        <ele>365</ele>
        <time>2020-06-03T07:52:19Z</time>
      </trkpt>
      <trkpt lat="43.61854" lon="5.37576">
        <ele>365</ele>
        <time>2020-06-03T07:52:23Z</time>
      </trkpt>
      <trkpt lat="43.61859" lon="5.3758">
        <ele>365</ele>
        <time>2020-06-03T07:52:28Z</time>
      </trkpt>
      <trkpt lat="43.61864" lon="5.37582">
        <ele>365</ele>
        <time>2020-06-03T07:52:33Z</time>
      </trkpt>
      <trkpt lat="43.61867" lon="5.37585">
        <ele>366</ele>
        <time>2020-06-03T07:52:37Z</time>
      </trkpt>
      <trkpt lat="43.6187" lon="5.37589">
        <ele>366</ele>
        <time>2020-06-03T07:52:41Z</time>
      </trkpt>
      <trkpt lat="43.61873" lon="5.37592">
        <ele>366</ele>
        <time>2020-06-03T07:52:45Z</time>
      </trkpt>
      <trkpt lat="43.61876" lon="5.37595">
        <ele>366</ele>
        <time>2020-06-03T07:52:49Z</time>
      </trkpt>
      <trkpt lat="43.6188" lon="5.37598">
        <ele>366</ele>
        <time>2020-06-03T07:52:54Z</time>
      </trkpt>
      <trkpt lat="43.61885" lon="5.37602">
        <ele>366</ele>
        <time>2020-06-03T07:52:59Z</time>
      </trkpt>
      <trkpt lat="43.61888" lon="5.37605">
        <ele>366</ele>
        <time>2020-06-03T07:53:04Z</time>
      </trkpt>
      <trkpt lat="43.61892" lon="5.37609">
        <ele>366</ele>
        <time>2020-06-03T07:53:08Z</time>
      </trkpt>
      <trkpt lat="43.61899" lon="5.37614">
        <ele>367</ele>
        <time>2020-06-03T07:53:13Z</time>
      </trkpt>
      <trkpt lat="43.61901" lon="5.37614">
        <ele>367</ele>
        <time>2020-06-03T07:53:17Z</time>
      </trkpt>
      <trkpt lat="43.61902" lon="5.37615">
        <ele>367</ele>
        <time>2020-06-03T07:53:21Z</time>
      </trkpt>
      <trkpt lat="43.61905" lon="5.37615">
        <ele>367</ele>
        <time>2020-06-03T07:53:25Z</time>
      </trkpt>
      <trkpt lat="43.61908" lon="5.37612">
        <ele>366</ele>
        <time>2020-06-03T07:53:29Z</time>
      </trkpt>
      <trkpt lat="43.61919" lon="5.37606">
        <ele>367</ele>
        <time>2020-06-03T07:53:34Z</time>
      </trkpt>
      <trkpt lat="43.6192" lon="5.376">
        <ele>367</ele>
        <time>2020-06-03T07:53:38Z</time>
      </trkpt>
      <trkpt lat="43.61923" lon="5.37595">
        <ele>367</ele>
        <time>2020-06-03T07:53:42Z</time>
      </trkpt>
      <trkpt lat="43.61926" lon="5.37589">
        <ele>367</ele>
        <time>2020-06-03T07:53:47Z</time>
      </trkpt>
      <trkpt lat="43.61928" lon="5.37585">
        <ele>367</ele>
        <time>2020-06-03T07:53:51Z</time>
      </trkpt>
      <trkpt lat="43.61931" lon="5.37578">
        <ele>366</ele>
        <time>2020-06-03T07:53:55Z</time>
      </trkpt>
      <trkpt lat="43.61933" lon="5.37573">
        <ele>366</ele>
        <time>2020-06-03T07:54:00Z</time>
      </trkpt>
      <trkpt lat="43.61936" lon="5.37566">
        <ele>365</ele>
        <time>2020-06-03T07:54:04Z</time>
      </trkpt>
      <trkpt lat="43.61938" lon="5.37562">
        <ele>365</ele>
        <time>2020-06-03T07:54:08Z</time>
      </trkpt>
      <trkpt lat="43.6194" lon="5.37559">
        <ele>365</ele>
        <time>2020-06-03T07:54:13Z</time>
      </trkpt>
      <trkpt lat="43.61943" lon="5.37553">
        <ele>365</ele>
        <time>2020-06-03T07:54:18Z</time>
      </trkpt>
      <trkpt lat="43.61947" lon="5.37546">
        <ele>365</ele>
        <time>2020-06-03T07:54:22Z</time>
      </trkpt>
      <trkpt lat="43.61949" lon="5.3754">
        <ele>365</ele>
        <time>2020-06-03T07:54:26Z</time>
      </trkpt>
      <trkpt lat="43.61951" lon="5.37531">
        <ele>365</ele>
        <time>2020-06-03T07:54:31Z</time>
      </trkpt>
      <trkpt lat="43.61953" lon="5.37528">
        <ele>365</ele>
        <time>2020-06-03T07:54:35Z</time>
      </trkpt>
      <trkpt lat="43.61955" lon="5.37522">
        <ele>364</ele>
        <time>2020-06-03T07:54:40Z</time>
      </trkpt>
      <trkpt lat="43.61956" lon="5.37517">
        <ele>364</ele>
        <time>2020-06-03T07:54:44Z</time>
      </trkpt>
      <trkpt lat="43.61958" lon="5.37514">
        <ele>364</ele>
        <time>2020-06-03T07:54:48Z</time>
      </trkpt>
      <trkpt lat="43.61962" lon="5.37516">
        <ele>364</ele>
        <time>2020-06-03T07:54:53Z</time>
      </trkpt>
      <trkpt lat="43.61964" lon="5.37519">
        <ele>365</ele>
        <time>2020-06-03T07:54:57Z</time>
      </trkpt>
      <trkpt lat="43.61966" lon="5.37527">
        <ele>365</ele>
        <time>2020-06-03T07:55:02Z</time>
      </trkpt>
      <trkpt lat="43.61968" lon="5.37533">
        <ele>365</ele>
        <time>2020-06-03T07:55:06Z</time>
      </trkpt>
      <trkpt lat="43.61968" lon="5.37539">
        <ele>365</ele>
        <time>2020-06-03T07:55:11Z</time>
      </trkpt>
      <trkpt lat="43.6197" lon="5.37542">
        <ele>365</ele>
        <time>2020-06-03T07:55:15Z</time>
      </trkpt>
      <trkpt lat="43.61971" lon="5.37548">
        <ele>365</ele>
        <time>2020-06-03T07:55:20Z</time>
      </trkpt>
      <trkpt lat="43.61974" lon="5.37554">
        <ele>366</ele>
        <time>2020-06-03T07:55:24Z</time>
      </trkpt>
      <trkpt lat="43.61977" lon="5.37559">
        <ele>366</ele>
        <time>2020-06-03T07:55:28Z</time>
      </trkpt>
      <trkpt lat="43.61979" lon="5.37563">
        <ele>366</ele>
        <time>2020-06-03T07:55:33Z</time>
      </trkpt>
      <trkpt lat="43.61982" lon="5.37568">
        <ele>366</ele>
        <time>2020-06-03T07:55:37Z</time>
      </trkpt>
      <trkpt lat="43.61987" lon="5.37571">
        <ele>366</ele>
        <time>2020-06-03T07:55:41Z</time>
      </trkpt>
      <trkpt lat="43.61991" lon="5.37575">
        <ele>367</ele>
        <time>2020-06-03T07:55:46Z</time>
      </trkpt>
      <trkpt lat="43.61996" lon="5.37577">
        <ele>367</ele>
        <time>2020-06-03T07:55:50Z</time>
      </trkpt>
      <trkpt lat="43.62001" lon="5.37582">
        <ele>368</ele>
        <time>2020-06-03T07:55:55Z</time>
      </trkpt>
      <trkpt lat="43.62004" lon="5.37585">
        <ele>369</ele>
        <time>2020-06-03T07:55:59Z</time>
      </trkpt>
      <trkpt lat="43.62006" lon="5.37588">
        <ele>370</ele>
        <time>2020-06-03T07:56:03Z</time>
      </trkpt>
      <trkpt lat="43.6201" lon="5.37592">
        <ele>370</ele>
        <time>2020-06-03T07:56:07Z</time>
      </trkpt>
      <trkpt lat="43.62014" lon="5.37595">
        <ele>371</ele>
        <time>2020-06-03T07:56:11Z</time>
      </trkpt>
      <trkpt lat="43.62016" lon="5.37597">
        <ele>371</ele>
        <time>2020-06-03T07:56:15Z</time>
      </trkpt>
      <trkpt lat="43.62019" lon="5.37599">
        <ele>372</ele>
        <time>2020-06-03T07:56:19Z</time>
      </trkpt>
      <trkpt lat="43.62024" lon="5.37601">
        <ele>372</ele>
        <time>2020-06-03T07:56:24Z</time>
      </trkpt>
      <trkpt lat="43.62028" lon="5.37603">
        <ele>373</ele>
        <time>2020-06-03T07:56:28Z</time>
      </trkpt>
      <trkpt lat="43.62033" lon="5.37605">
        <ele>373</ele>
        <time>2020-06-03T07:56:33Z</time>
      </trkpt>
      <trkpt lat="43.6204" lon="5.37605">
        <ele>374</ele>
        <time>2020-06-03T07:56:38Z</time>
      </trkpt>
      <trkpt lat="43.62043" lon="5.37604">
        <ele>374</ele>
        <time>2020-06-03T07:56:42Z</time>
      </trkpt>
      <trkpt lat="43.62047" lon="5.37603">
        <ele>374</ele>
        <time>2020-06-03T07:56:46Z</time>
      </trkpt>
      <trkpt lat="43.62054" lon="5.37604">
        <ele>374</ele>
        <time>2020-06-03T07:56:51Z</time>
      </trkpt>
      <trkpt lat="43.62058" lon="5.37606">
        <ele>375</ele>
        <time>2020-06-03T07:56:55Z</time>
      </trkpt>
      <trkpt lat="43.62062" lon="5.37604">
        <ele>375</ele>
        <time>2020-06-03T07:57:00Z</time>
      </trkpt>
      <trkpt lat="43.62067" lon="5.37598">
        <ele>375</ele>
        <time>2020-06-03T07:57:05Z</time>
      </trkpt>
      <trkpt lat="43.62069" lon="5.37594">
        <ele>375</ele>
        <time>2020-06-03T07:57:09Z</time>
      </trkpt>
      <trkpt lat="43.62074" lon="5.37588">
        <ele>376</ele>
        <time>2020-06-03T07:57:14Z</time>
      </trkpt>
      <trkpt lat="43.62078" lon="5.37584">
        <ele>376</ele>
        <time>2020-06-03T07:57:19Z</time>
      </trkpt>
      <trkpt lat="43.62079" lon="5.3758">
        <ele>376</ele>
        <time>2020-06-03T07:57:23Z</time>
      </trkpt>
      <trkpt lat="43.62081" lon="5.37574">
        <ele>375</ele>
        <time>2020-06-03T07:57:28Z</time>
      </trkpt>
      <trkpt lat="43.6208" lon="5.37574">
        <ele>375</ele>
        <time>2020-06-03T07:57:41Z</time>
      </trkpt>
      <trkpt lat="43.6208" lon="5.3757">
        <ele>374</ele>
        <time>2020-06-03T07:57:46Z</time>
      </trkpt>
      <trkpt lat="43.62081" lon="5.37566">
        <ele>374</ele>
        <time>2020-06-03T07:57:50Z</time>
      </trkpt>
      <trkpt lat="43.62083" lon="5.3756">
        <ele>373</ele>
        <time>2020-06-03T07:57:54Z</time>
      </trkpt>
      <trkpt lat="43.62087" lon="5.37551">
        <ele>380</ele>
        <time>2020-06-03T07:57:58Z</time>
      </trkpt>
      <trkpt lat="43.62089" lon="5.37545">
        <ele>380</ele>
        <time>2020-06-03T07:58:03Z</time>
      </trkpt>
      <trkpt lat="43.62089" lon="5.37547">
        <ele>380</ele>
        <time>2020-06-03T07:58:07Z</time>
      </trkpt>
      <trkpt lat="43.6209" lon="5.37547">
        <ele>380</ele>
        <time>2020-06-03T07:58:15Z</time>
      </trkpt>
      <trkpt lat="43.62091" lon="5.37548">
        <ele>380</ele>
        <time>2020-06-03T07:58:20Z</time>
      </trkpt>
      <trkpt lat="43.62094" lon="5.37551">
        <ele>380</ele>
        <time>2020-06-03T07:58:25Z</time>
      </trkpt>
      <trkpt lat="43.621" lon="5.37555">
        <ele>381</ele>
        <time>2020-06-03T07:58:29Z</time>
      </trkpt>
      <trkpt lat="43.62107" lon="5.37558">
        <ele>381</ele>
        <time>2020-06-03T07:58:34Z</time>
      </trkpt>
      <trkpt lat="43.62107" lon="5.37559">
        <ele>381</ele>
        <time>2020-06-03T07:58:38Z</time>
      </trkpt>
      <trkpt lat="43.6211" lon="5.3756">
        <ele>382</ele>
        <time>2020-06-03T07:58:42Z</time>
      </trkpt>
      <trkpt lat="43.62111" lon="5.3756">
        <ele>382</ele>
        <time>2020-06-03T07:58:47Z</time>
      </trkpt>
      <trkpt lat="43.62112" lon="5.37558">
        <ele>382</ele>
        <time>2020-06-03T07:58:52Z</time>
      </trkpt>
      <trkpt lat="43.62119" lon="5.3755">
        <ele>382</ele>
        <time>2020-06-03T07:58:57Z</time>
      </trkpt>
      <trkpt lat="43.62122" lon="5.37545">
        <ele>383</ele>
        <time>2020-06-03T07:59:01Z</time>
      </trkpt>
      <trkpt lat="43.62121" lon="5.37545">
        <ele>382</ele>
        <time>2020-06-03T07:59:13Z</time>
      </trkpt>
      <trkpt lat="43.6212" lon="5.37545">
        <ele>382</ele>
        <time>2020-06-03T07:59:17Z</time>
      </trkpt>
      <trkpt lat="43.6212" lon="5.37544">
        <ele>382</ele>
        <time>2020-06-03T07:59:21Z</time>
      </trkpt>
      <trkpt lat="43.6212" lon="5.37543">
        <ele>382</ele>
        <time>2020-06-03T07:59:25Z</time>
      </trkpt>
      <trkpt lat="43.62121" lon="5.37542">
        <ele>382</ele>
        <time>2020-06-03T07:59:33Z</time>
      </trkpt>
      <trkpt lat="43.62122" lon="5.37537">
        <ele>382</ele>
        <time>2020-06-03T07:59:37Z</time>
      </trkpt>
      <trkpt lat="43.62123" lon="5.37534">
        <ele>382</ele>
        <time>2020-06-03T07:59:41Z</time>
      </trkpt>
      <trkpt lat="43.62122" lon="5.37533">
        <ele>382</ele>
        <time>2020-06-03T07:59:50Z</time>
      </trkpt>
      <trkpt lat="43.62121" lon="5.37533">
        <ele>382</ele>
        <time>2020-06-03T08:00:10Z</time>
      </trkpt>
      <trkpt lat="43.6212" lon="5.37534">
        <ele>382</ele>
        <time>2020-06-03T08:00:24Z</time>
      </trkpt>
      <trkpt lat="43.6212" lon="5.37535">
        <ele>382</ele>
        <time>2020-06-03T08:00:34Z</time>
      </trkpt>
      <trkpt lat="43.6212" lon="5.37536">
        <ele>382</ele>
        <time>2020-06-03T08:00:51Z</time>
      </trkpt>
      <trkpt lat="43.62119" lon="5.37537">
        <ele>382</ele>
        <time>2020-06-03T08:01:10Z</time>
      </trkpt>
      <trkpt lat="43.62119" lon="5.37536">
        <ele>382</ele>
        <time>2020-06-03T08:01:25Z</time>
      </trkpt>
      <trkpt lat="43.6212" lon="5.37535">
        <ele>382</ele>
        <time>2020-06-03T08:01:44Z</time>
      </trkpt>
      <trkpt lat="43.6212" lon="5.37534">
        <ele>382</ele>
        <time>2020-06-03T08:02:08Z</time>
      </trkpt>
      <trkpt lat="43.6212" lon="5.37532">
        <ele>382</ele>
        <time>2020-06-03T08:02:15Z</time>
      </trkpt>
      <trkpt lat="43.62121" lon="5.37531">
        <ele>382</ele>
        <time>2020-06-03T08:02:35Z</time>
      </trkpt>
      <trkpt lat="43.6212" lon="5.37532">
        <ele>382</ele>
        <time>2020-06-03T08:02:40Z</time>
      </trkpt>
      <trkpt lat="43.62119" lon="5.37533">
        <ele>382</ele>
        <time>2020-06-03T08:02:49Z</time>
      </trkpt>
      <trkpt lat="43.62118" lon="5.37533">
        <ele>382</ele>
        <time>2020-06-03T08:03:09Z</time>
      </trkpt>
      <trkpt lat="43.62118" lon="5.37534">
        <ele>382</ele>
        <time>2020-06-03T08:03:16Z</time>
      </trkpt>
      <trkpt lat="43.62117" lon="5.37533">
        <ele>382</ele>
        <time>2020-06-03T08:03:21Z</time>
      </trkpt>
      <trkpt lat="43.62116" lon="5.37533">
        <ele>382</ele>
        <time>2020-06-03T08:03:45Z</time>
      </trkpt>
      <trkpt lat="43.62115" lon="5.37534">
        <ele>381</ele>
        <time>2020-06-03T08:03:55Z</time>
      </trkpt>
      <trkpt lat="43.62115" lon="5.37535">
        <ele>381</ele>
        <time>2020-06-03T08:04:03Z</time>
      </trkpt>
      <trkpt lat="43.62115" lon="5.37535">
        <ele>382</ele>
        <time>2020-06-03T08:04:08Z</time>
      </trkpt>
      <trkpt lat="43.62118" lon="5.37535">
        <ele>382</ele>
        <time>2020-06-03T08:04:13Z</time>
      </trkpt>
      <trkpt lat="43.62119" lon="5.37534">
        <ele>382</ele>
        <time>2020-06-03T08:04:17Z</time>
      </trkpt>
      <trkpt lat="43.6212" lon="5.37534">
        <ele>382</ele>
        <time>2020-06-03T08:04:32Z</time>
      </trkpt>
      <trkpt lat="43.6212" lon="5.37534">
        <ele>382</ele>
        <time>2020-06-03T08:04:38Z</time>
      </trkpt>
      <trkpt lat="43.62121" lon="5.37534">
        <ele>382</ele>
        <time>2020-06-03T08:04:49Z</time>
      </trkpt>
      <trkpt lat="43.62121" lon="5.37536">
        <ele>382</ele>
        <time>2020-06-03T08:05:16Z</time>
      </trkpt>
      <trkpt lat="43.6212" lon="5.37536">
        <ele>382</ele>
        <time>2020-06-03T08:05:24Z</time>
      </trkpt>
      <trkpt lat="43.6212" lon="5.37535">
        <ele>382</ele>
        <time>2020-06-03T08:05:38Z</time>
      </trkpt>
      <trkpt lat="43.6212" lon="5.37532">
        <ele>382</ele>
        <time>2020-06-03T08:05:43Z</time>
      </trkpt>
      <trkpt lat="43.6212" lon="5.3753">
        <ele>382</ele>
        <time>2020-06-03T08:05:47Z</time>
      </trkpt>
      <trkpt lat="43.62121" lon="5.37527">
        <ele>382</ele>
        <time>2020-06-03T08:05:52Z</time>
      </trkpt>
      <trkpt lat="43.62124" lon="5.37523">
        <ele>382</ele>
        <time>2020-06-03T08:05:57Z</time>
      </trkpt>
      <trkpt lat="43.62126" lon="5.37519">
        <ele>382</ele>
        <time>2020-06-03T08:06:01Z</time>
      </trkpt>
      <trkpt lat="43.62128" lon="5.37514">
        <ele>382</ele>
        <time>2020-06-03T08:06:06Z</time>
      </trkpt>
      <trkpt lat="43.6213" lon="5.37508">
        <ele>382</ele>
        <time>2020-06-03T08:06:10Z</time>
      </trkpt>
      <trkpt lat="43.62132" lon="5.37501">
        <ele>383</ele>
        <time>2020-06-03T08:06:15Z</time>
      </trkpt>
      <trkpt lat="43.62133" lon="5.37495">
        <ele>380</ele>
        <time>2020-06-03T08:06:19Z</time>
      </trkpt>
      <trkpt lat="43.62135" lon="5.37486">
        <ele>380</ele>
        <time>2020-06-03T08:06:23Z</time>
      </trkpt>
      <trkpt lat="43.62137" lon="5.37478">
        <ele>379</ele>
        <time>2020-06-03T08:06:27Z</time>
      </trkpt>
      <trkpt lat="43.62138" lon="5.37473">
        <ele>379</ele>
        <time>2020-06-03T08:06:31Z</time>
      </trkpt>
      <trkpt lat="43.6214" lon="5.37471">
        <ele>379</ele>
        <time>2020-06-03T08:06:36Z</time>
      </trkpt>
      <trkpt lat="43.62141" lon="5.37468">
        <ele>379</ele>
        <time>2020-06-03T08:06:40Z</time>
      </trkpt>
      <trkpt lat="43.62145" lon="5.37462">
        <ele>379</ele>
        <time>2020-06-03T08:06:45Z</time>
      </trkpt>
      <trkpt lat="43.62149" lon="5.37451">
        <ele>379</ele>
        <time>2020-06-03T08:06:49Z</time>
      </trkpt>
      <trkpt lat="43.6215" lon="5.37443">
        <ele>379</ele>
        <time>2020-06-03T08:06:53Z</time>
      </trkpt>
      <trkpt lat="43.62154" lon="5.37437">
        <ele>379</ele>
        <time>2020-06-03T08:06:57Z</time>
      </trkpt>
      <trkpt lat="43.62156" lon="5.37433">
        <ele>380</ele>
        <time>2020-06-03T08:07:01Z</time>
      </trkpt>
      <trkpt lat="43.62156" lon="5.3743">
        <ele>380</ele>
        <time>2020-06-03T08:07:06Z</time>
      </trkpt>
      <trkpt lat="43.62157" lon="5.37428">
        <ele>380</ele>
        <time>2020-06-03T08:07:10Z</time>
      </trkpt>
      <trkpt lat="43.62159" lon="5.37422">
        <ele>381</ele>
        <time>2020-06-03T08:07:15Z</time>
      </trkpt>
      <trkpt lat="43.6216" lon="5.37414">
        <ele>380</ele>
        <time>2020-06-03T08:07:19Z</time>
      </trkpt>
      <trkpt lat="43.6216" lon="5.37407">
        <ele>379</ele>
        <time>2020-06-03T08:07:24Z</time>
      </trkpt>
      <trkpt lat="43.62162" lon="5.37403">
        <ele>378</ele>
        <time>2020-06-03T08:07:28Z</time>
      </trkpt>
      <trkpt lat="43.62164" lon="5.37397">
        <ele>378</ele>
        <time>2020-06-03T08:07:32Z</time>
      </trkpt>
      <trkpt lat="43.62164" lon="5.37393">
        <ele>377</ele>
        <time>2020-06-03T08:07:37Z</time>
      </trkpt>
      <trkpt lat="43.62163" lon="5.37386">
        <ele>376</ele>
        <time>2020-06-03T08:07:41Z</time>
      </trkpt>
      <trkpt lat="43.62165" lon="5.37383">
        <ele>376</ele>
        <time>2020-06-03T08:07:45Z</time>
      </trkpt>
      <trkpt lat="43.62169" lon="5.37377">
        <ele>386</ele>
        <time>2020-06-03T08:07:50Z</time>
      </trkpt>
      <trkpt lat="43.62171" lon="5.37373">
        <ele>386</ele>
        <time>2020-06-03T08:07:54Z</time>
      </trkpt>
      <trkpt lat="43.62172" lon="5.37367">
        <ele>386</ele>
        <time>2020-06-03T08:07:59Z</time>
      </trkpt>
      <trkpt lat="43.62172" lon="5.37361">
        <ele>385</ele>
        <time>2020-06-03T08:08:04Z</time>
      </trkpt>
      <trkpt lat="43.62173" lon="5.37354">
        <ele>384</ele>
        <time>2020-06-03T08:08:08Z</time>
      </trkpt>
      <trkpt lat="43.62175" lon="5.37343">
        <ele>383</ele>
        <time>2020-06-03T08:08:12Z</time>
      </trkpt>
      <trkpt lat="43.62177" lon="5.37338">
        <ele>382</ele>
        <time>2020-06-03T08:08:16Z</time>
      </trkpt>
      <trkpt lat="43.62178" lon="5.37333">
        <ele>382</ele>
        <time>2020-06-03T08:08:20Z</time>
      </trkpt>
      <trkpt lat="43.6218" lon="5.37326">
        <ele>382</ele>
        <time>2020-06-03T08:08:25Z</time>
      </trkpt>
      <trkpt lat="43.62181" lon="5.37319">
        <ele>382</ele>
        <time>2020-06-03T08:08:30Z</time>
      </trkpt>
      <trkpt lat="43.62183" lon="5.37313">
        <ele>383</ele>
        <time>2020-06-03T08:08:34Z</time>
      </trkpt>
      <trkpt lat="43.62185" lon="5.37304">
        <ele>383</ele>
        <time>2020-06-03T08:08:39Z</time>
      </trkpt>
      <trkpt lat="43.62186" lon="5.37298">
        <ele>384</ele>
        <time>2020-06-03T08:08:43Z</time>
      </trkpt>
      <trkpt lat="43.62187" lon="5.37292">
        <ele>384</ele>
        <time>2020-06-03T08:08:47Z</time>
      </trkpt>
      <trkpt lat="43.62188" lon="5.37287">
        <ele>384</ele>
        <time>2020-06-03T08:08:52Z</time>
      </trkpt>
      <trkpt lat="43.62191" lon="5.37283">
        <ele>384</ele>
        <time>2020-06-03T08:08:56Z</time>
      </trkpt>
      <trkpt lat="43.62192" lon="5.37278">
        <ele>384</ele>
        <time>2020-06-03T08:09:00Z</time>
      </trkpt>
      <trkpt lat="43.62194" lon="5.37273">
        <ele>384</ele>
        <time>2020-06-03T08:09:05Z</time>
      </trkpt>
      <trkpt lat="43.62198" lon="5.37267">
        <ele>384</ele>
        <time>2020-06-03T08:09:10Z</time>
      </trkpt>
      <trkpt lat="43.622" lon="5.37264">
        <ele>384</ele>
        <time>2020-06-03T08:09:14Z</time>
      </trkpt>
      <trkpt lat="43.62202" lon="5.37258">
        <ele>384</ele>
        <time>2020-06-03T08:09:18Z</time>
      </trkpt>
      <trkpt lat="43.62204" lon="5.37253">
        <ele>384</ele>
        <time>2020-06-03T08:09:22Z</time>
      </trkpt>
      <trkpt lat="43.62207" lon="5.37249">
        <ele>382</ele>
        <time>2020-06-03T08:09:27Z</time>
      </trkpt>
      <trkpt lat="43.6221" lon="5.37245">
        <ele>382</ele>
        <time>2020-06-03T08:09:32Z</time>
      </trkpt>
      <trkpt lat="43.62212" lon="5.37241">
        <ele>382</ele>
        <time>2020-06-03T08:09:36Z</time>
      </trkpt>
      <trkpt lat="43.62214" lon="5.37235">
        <ele>382</ele>
        <time>2020-06-03T08:09:41Z</time>
      </trkpt>
      <trkpt lat="43.62215" lon="5.37233">
        <ele>382</ele>
        <time>2020-06-03T08:09:45Z</time>
      </trkpt>
      <trkpt lat="43.62215" lon="5.37232">
        <ele>382</ele>
        <time>2020-06-03T08:10:03Z</time>
      </trkpt>
      <trkpt lat="43.62215" lon="5.3723">
        <ele>382</ele>
        <time>2020-06-03T08:10:09Z</time>
      </trkpt>
      <trkpt lat="43.62214" lon="5.37231">
        <ele>382</ele>
        <time>2020-06-03T08:10:26Z</time>
      </trkpt>
      <trkpt lat="43.62213" lon="5.37232">
        <ele>382</ele>
        <time>2020-06-03T08:10:30Z</time>
      </trkpt>
      <trkpt lat="43.62213" lon="5.37231">
        <ele>382</ele>
        <time>2020-06-03T08:10:34Z</time>
      </trkpt>
      <trkpt lat="43.62213" lon="5.37229">
        <ele>382</ele>
        <time>2020-06-03T08:10:38Z</time>
      </trkpt>
      <trkpt lat="43.62212" lon="5.37227">
        <ele>382</ele>
        <time>2020-06-03T08:10:43Z</time>
      </trkpt>
      <trkpt lat="43.62213" lon="5.37226">
        <ele>382</ele>
        <time>2020-06-03T08:10:48Z</time>
      </trkpt>
      <trkpt lat="43.62212" lon="5.37224">
        <ele>382</ele>
        <time>2020-06-03T08:10:52Z</time>
      </trkpt>
      <trkpt lat="43.62211" lon="5.37224">
        <ele>382</ele>
        <time>2020-06-03T08:10:59Z</time>
      </trkpt>
      <trkpt lat="43.62211" lon="5.37223">
        <ele>382</ele>
        <time>2020-06-03T08:11:05Z</time>
      </trkpt>
      <trkpt lat="43.62212" lon="5.3722">
        <ele>381</ele>
        <time>2020-06-03T08:11:10Z</time>
      </trkpt>
      <trkpt lat="43.62214" lon="5.37216">
        <ele>381</ele>
        <time>2020-06-03T08:11:14Z</time>
      </trkpt>
      <trkpt lat="43.62215" lon="5.37212">
        <ele>381</ele>
        <time>2020-06-03T08:11:19Z</time>
      </trkpt>
      <trkpt lat="43.62217" lon="5.37207">
        <ele>381</ele>
        <time>2020-06-03T08:11:23Z</time>
      </trkpt>
      <trkpt lat="43.62219" lon="5.37201">
        <ele>381</ele>
        <time>2020-06-03T08:11:27Z</time>
      </trkpt>
      <trkpt lat="43.6222" lon="5.37194">
        <ele>381</ele>
        <time>2020-06-03T08:11:32Z</time>
      </trkpt>
      <trkpt lat="43.62221" lon="5.37191">
        <ele>381</ele>
        <time>2020-06-03T08:11:36Z</time>
      </trkpt>
      <trkpt lat="43.62222" lon="5.37183">
        <ele>381</ele>
        <time>2020-06-03T08:11:41Z</time>
      </trkpt>
      <trkpt lat="43.62223" lon="5.37178">
        <ele>381</ele>
        <time>2020-06-03T08:11:45Z</time>
      </trkpt>
      <trkpt lat="43.62224" lon="5.37175">
        <ele>381</ele>
        <time>2020-06-03T08:11:49Z</time>
      </trkpt>
      <trkpt lat="43.62226" lon="5.37168">
        <ele>381</ele>
        <time>2020-06-03T08:11:53Z</time>
      </trkpt>
      <trkpt lat="43.62227" lon="5.37163">
        <ele>378</ele>
        <time>2020-06-03T08:11:57Z</time>
      </trkpt>
      <trkpt lat="43.62227" lon="5.37157">
        <ele>378</ele>
        <time>2020-06-03T08:12:01Z</time>
      </trkpt>
      <trkpt lat="43.62228" lon="5.37151">
        <ele>378</ele>
        <time>2020-06-03T08:12:05Z</time>
      </trkpt>
      <trkpt lat="43.62229" lon="5.37146">
        <ele>377</ele>
        <time>2020-06-03T08:12:09Z</time>
      </trkpt>
      <trkpt lat="43.6223" lon="5.37141">
        <ele>377</ele>
        <time>2020-06-03T08:12:14Z</time>
      </trkpt>
      <trkpt lat="43.62232" lon="5.37137">
        <ele>377</ele>
        <time>2020-06-03T08:12:18Z</time>
      </trkpt>
      <trkpt lat="43.62235" lon="5.37131">
        <ele>377</ele>
        <time>2020-06-03T08:12:23Z</time>
      </trkpt>
      <trkpt lat="43.62235" lon="5.37126">
        <ele>377</ele>
        <time>2020-06-03T08:12:27Z</time>
      </trkpt>
      <trkpt lat="43.62235" lon="5.37119">
        <ele>376</ele>
        <time>2020-06-03T08:12:31Z</time>
      </trkpt>
      <trkpt lat="43.62235" lon="5.37111">
        <ele>376</ele>
        <time>2020-06-03T08:12:35Z</time>
      </trkpt>
      <trkpt lat="43.62235" lon="5.37104">
        <ele>376</ele>
        <time>2020-06-03T08:12:40Z</time>
      </trkpt>
      <trkpt lat="43.62235" lon="5.37099">
        <ele>376</ele>
        <time>2020-06-03T08:12:44Z</time>
      </trkpt>
      <trkpt lat="43.62235" lon="5.37095">
        <ele>376</ele>
        <time>2020-06-03T08:12:49Z</time>
      </trkpt>
      <trkpt lat="43.62235" lon="5.37093">
        <ele>376</ele>
        <time>2020-06-03T08:12:53Z</time>
      </trkpt>
      <trkpt lat="43.62235" lon="5.37091">
        <ele>376</ele>
        <time>2020-06-03T08:12:58Z</time>
      </trkpt>
      <trkpt lat="43.62237" lon="5.37088">
        <ele>376</ele>
        <time>2020-06-03T08:13:03Z</time>
      </trkpt>
      <trkpt lat="43.62241" lon="5.37088">
        <ele>376</ele>
        <time>2020-06-03T08:13:07Z</time>
      </trkpt>
      <trkpt lat="43.62246" lon="5.37087">
        <ele>377</ele>
        <time>2020-06-03T08:13:12Z</time>
      </trkpt>
      <trkpt lat="43.6225" lon="5.37084">
        <ele>377</ele>
        <time>2020-06-03T08:13:16Z</time>
      </trkpt>
      <trkpt lat="43.62253" lon="5.37081">
        <ele>378</ele>
        <time>2020-06-03T08:13:21Z</time>
      </trkpt>
      <trkpt lat="43.62257" lon="5.37077">
        <ele>379</ele>
        <time>2020-06-03T08:13:26Z</time>
      </trkpt>
      <trkpt lat="43.62261" lon="5.37075">
        <ele>380</ele>
        <time>2020-06-03T08:13:31Z</time>
      </trkpt>
      <trkpt lat="43.62266" lon="5.37074">
        <ele>381</ele>
        <time>2020-06-03T08:13:35Z</time>
      </trkpt>
      <trkpt lat="43.6227" lon="5.37071">
        <ele>381</ele>
        <time>2020-06-03T08:13:40Z</time>
      </trkpt>
      <trkpt lat="43.62274" lon="5.37069">
        <ele>382</ele>
        <time>2020-06-03T08:13:44Z</time>
      </trkpt>
      <trkpt lat="43.62278" lon="5.37067">
        <ele>382</ele>
        <time>2020-06-03T08:13:49Z</time>
      </trkpt>
      <trkpt lat="43.62281" lon="5.37066">
        <ele>383</ele>
        <time>2020-06-03T08:13:53Z</time>
      </trkpt>
      <trkpt lat="43.62284" lon="5.37064">
        <ele>383</ele>
        <time>2020-06-03T08:13:57Z</time>
      </trkpt>
      <trkpt lat="43.62287" lon="5.37064">
        <ele>383</ele>
        <time>2020-06-03T08:14:01Z</time>
      </trkpt>
      <trkpt lat="43.6229" lon="5.37063">
        <ele>384</ele>
        <time>2020-06-03T08:14:06Z</time>
      </trkpt>
      <trkpt lat="43.62294" lon="5.3706">
        <ele>384</ele>
        <time>2020-06-03T08:14:10Z</time>
      </trkpt>
      <trkpt lat="43.62297" lon="5.37057">
        <ele>384</ele>
        <time>2020-06-03T08:14:14Z</time>
      </trkpt>
      <trkpt lat="43.62297" lon="5.37051">
        <ele>384</ele>
        <time>2020-06-03T08:14:18Z</time>
      </trkpt>
      <trkpt lat="43.62299" lon="5.37046">
        <ele>384</ele>
        <time>2020-06-03T08:14:22Z</time>
      </trkpt>
      <trkpt lat="43.62301" lon="5.3704">
        <ele>385</ele>
        <time>2020-06-03T08:14:26Z</time>
      </trkpt>
      <trkpt lat="43.62303" lon="5.37034">
        <ele>385</ele>
        <time>2020-06-03T08:14:30Z</time>
      </trkpt>
      <trkpt lat="43.62305" lon="5.37025">
        <ele>385</ele>
        <time>2020-06-03T08:14:35Z</time>
      </trkpt>
      <trkpt lat="43.62306" lon="5.37018">
        <ele>386</ele>
        <time>2020-06-03T08:14:40Z</time>
      </trkpt>
      <trkpt lat="43.62306" lon="5.37013">
        <ele>386</ele>
        <time>2020-06-03T08:14:44Z</time>
      </trkpt>
      <trkpt lat="43.62307" lon="5.37005">
        <ele>386</ele>
        <time>2020-06-03T08:14:48Z</time>
      </trkpt>
      <trkpt lat="43.62307" lon="5.37">
        <ele>386</ele>
        <time>2020-06-03T08:14:52Z</time>
      </trkpt>
      <trkpt lat="43.62309" lon="5.36993">
        <ele>387</ele>
        <time>2020-06-03T08:14:57Z</time>
      </trkpt>
      <trkpt lat="43.62309" lon="5.36989">
        <ele>387</ele>
        <time>2020-06-03T08:15:01Z</time>
      </trkpt>
      <trkpt lat="43.6231" lon="5.36982">
        <ele>387</ele>
        <time>2020-06-03T08:15:06Z</time>
      </trkpt>
      <trkpt lat="43.62311" lon="5.36976">
        <ele>387</ele>
        <time>2020-06-03T08:15:10Z</time>
      </trkpt>
      <trkpt lat="43.62312" lon="5.3697">
        <ele>387</ele>
        <time>2020-06-03T08:15:15Z</time>
      </trkpt>
      <trkpt lat="43.62313" lon="5.36965">
        <ele>387</ele>
        <time>2020-06-03T08:15:19Z</time>
      </trkpt>
      <trkpt lat="43.62314" lon="5.3696">
        <ele>387</ele>
        <time>2020-06-03T08:15:23Z</time>
      </trkpt>
      <trkpt lat="43.62315" lon="5.36953">
        <ele>387</ele>
        <time>2020-06-03T08:15:27Z</time>
      </trkpt>
      <trkpt lat="43.62315" lon="5.36948">
        <ele>387</ele>
        <time>2020-06-03T08:15:31Z</time>
      </trkpt>
      <trkpt lat="43.62316" lon="5.36943">
        <ele>387</ele>
        <time>2020-06-03T08:15:35Z</time>
      </trkpt>
      <trkpt lat="43.62318" lon="5.36938">
        <ele>388</ele>
        <time>2020-06-03T08:15:40Z</time>
      </trkpt>
      <trkpt lat="43.62319" lon="5.36934">
        <ele>388</ele>
        <time>2020-06-03T08:15:44Z</time>
      </trkpt>
      <trkpt lat="43.62321" lon="5.36928">
        <ele>389</ele>
        <time>2020-06-03T08:15:48Z</time>
      </trkpt>
      <trkpt lat="43.62323" lon="5.36921">
        <ele>390</ele>
        <time>2020-06-03T08:15:53Z</time>
      </trkpt>
      <trkpt lat="43.62325" lon="5.36917">
        <ele>390</ele>
        <time>2020-06-03T08:15:57Z</time>
      </trkpt>
      <trkpt lat="43.62328" lon="5.36912">
        <ele>390</ele>
        <time>2020-06-03T08:16:02Z</time>
      </trkpt>
      <trkpt lat="43.62329" lon="5.36906">
        <ele>389</ele>
        <time>2020-06-03T08:16:07Z</time>
      </trkpt>
      <trkpt lat="43.62329" lon="5.36901">
        <ele>388</ele>
        <time>2020-06-03T08:16:11Z</time>
      </trkpt>
      <trkpt lat="43.6233" lon="5.36893">
        <ele>387</ele>
        <time>2020-06-03T08:16:16Z</time>
      </trkpt>
      <trkpt lat="43.6233" lon="5.36889">
        <ele>387</ele>
        <time>2020-06-03T08:16:20Z</time>
      </trkpt>
      <trkpt lat="43.62332" lon="5.36881">
        <ele>386</ele>
        <time>2020-06-03T08:16:25Z</time>
      </trkpt>
      <trkpt lat="43.62332" lon="5.36874">
        <ele>386</ele>
        <time>2020-06-03T08:16:29Z</time>
      </trkpt>
      <trkpt lat="43.62334" lon="5.36867">
        <ele>393</ele>
        <time>2020-06-03T08:16:33Z</time>
      </trkpt>
      <trkpt lat="43.62335" lon="5.36863">
        <ele>393</ele>
        <time>2020-06-03T08:16:38Z</time>
      </trkpt>
      <trkpt lat="43.62336" lon="5.3686">
        <ele>392</ele>
        <time>2020-06-03T08:16:42Z</time>
      </trkpt>
      <trkpt lat="43.62338" lon="5.36856">
        <ele>392</ele>
        <time>2020-06-03T08:16:46Z</time>
      </trkpt>
      <trkpt lat="43.62341" lon="5.36853">
        <ele>392</ele>
        <time>2020-06-03T08:16:51Z</time>
      </trkpt>
      <trkpt lat="43.62344" lon="5.3685">
        <ele>392</ele>
        <time>2020-06-03T08:16:55Z</time>
      </trkpt>
      <trkpt lat="43.62349" lon="5.36846">
        <ele>392</ele>
        <time>2020-06-03T08:16:59Z</time>
      </trkpt>
      <trkpt lat="43.62353" lon="5.36843">
        <ele>392</ele>
        <time>2020-06-03T08:17:04Z</time>
      </trkpt>
      <trkpt lat="43.62355" lon="5.3684">
        <ele>392</ele>
        <time>2020-06-03T08:17:08Z</time>
      </trkpt>
      <trkpt lat="43.62358" lon="5.36836">
        <ele>393</ele>
        <time>2020-06-03T08:17:12Z</time>
      </trkpt>
      <trkpt lat="43.62359" lon="5.36831">
        <ele>390</ele>
        <time>2020-06-03T08:17:16Z</time>
      </trkpt>
      <trkpt lat="43.62361" lon="5.36827">
        <ele>390</ele>
        <time>2020-06-03T08:17:20Z</time>
      </trkpt>
      <trkpt lat="43.62363" lon="5.36823">
        <ele>390</ele>
        <time>2020-06-03T08:17:25Z</time>
      </trkpt>
      <trkpt lat="43.62366" lon="5.3682">
        <ele>391</ele>
        <time>2020-06-03T08:17:30Z</time>
      </trkpt>
      <trkpt lat="43.62366" lon="5.3682">
        <ele>391</ele>
        <time>2020-06-03T08:17:37Z</time>
      </trkpt>
      <trkpt lat="43.62368" lon="5.3682">
        <ele>391</ele>
        <time>2020-06-03T08:17:42Z</time>
      </trkpt>
      <trkpt lat="43.62371" lon="5.36819">
        <ele>391</ele>
        <time>2020-06-03T08:17:46Z</time>
      </trkpt>
      <trkpt lat="43.62374" lon="5.36818">
        <ele>391</ele>
        <time>2020-06-03T08:17:50Z</time>
      </trkpt>
      <trkpt lat="43.62379" lon="5.36815">
        <ele>392</ele>
        <time>2020-06-03T08:17:54Z</time>
      </trkpt>
      <trkpt lat="43.62384" lon="5.36812">
        <ele>392</ele>
        <time>2020-06-03T08:17:59Z</time>
      </trkpt>
      <trkpt lat="43.62387" lon="5.3681">
        <ele>392</ele>
        <time>2020-06-03T08:18:03Z</time>
      </trkpt>
      <trkpt lat="43.62388" lon="5.3681">
        <ele>392</ele>
        <time>2020-06-03T08:18:08Z</time>
      </trkpt>
      <trkpt lat="43.62389" lon="5.36807">
        <ele>392</ele>
        <time>2020-06-03T08:18:12Z</time>
      </trkpt>
      <trkpt lat="43.62389" lon="5.36802">
        <ele>392</ele>
        <time>2020-06-03T08:18:16Z</time>
      </trkpt>
      <trkpt lat="43.62388" lon="5.36802">
        <ele>392</ele>
        <time>2020-06-03T08:18:22Z</time>
      </trkpt>
      <trkpt lat="43.62387" lon="5.36799">
        <ele>392</ele>
        <time>2020-06-03T08:18:26Z</time>
      </trkpt>
      <trkpt lat="43.62386" lon="5.36798">
        <ele>392</ele>
        <time>2020-06-03T08:18:30Z</time>
      </trkpt>
      <trkpt lat="43.62384" lon="5.36796">
        <ele>391</ele>
        <time>2020-06-03T08:18:34Z</time>
      </trkpt>
      <trkpt lat="43.62382" lon="5.36796">
        <ele>391</ele>
        <time>2020-06-03T08:18:38Z</time>
      </trkpt>
      <trkpt lat="43.62378" lon="5.36795">
        <ele>391</ele>
        <time>2020-06-03T08:18:43Z</time>
      </trkpt>
      <trkpt lat="43.62376" lon="5.36792">
        <ele>391</ele>
        <time>2020-06-03T08:18:47Z</time>
      </trkpt>
      <trkpt lat="43.62376" lon="5.36787">
        <ele>391</ele>
        <time>2020-06-03T08:18:51Z</time>
      </trkpt>
      <trkpt lat="43.62375" lon="5.36783">
        <ele>391</ele>
        <time>2020-06-03T08:18:56Z</time>
      </trkpt>
      <trkpt lat="43.62375" lon="5.36783">
        <ele>390</ele>
        <time>2020-06-03T08:19:02Z</time>
      </trkpt>
      <trkpt lat="43.62374" lon="5.36777">
        <ele>390</ele>
        <time>2020-06-03T08:19:06Z</time>
      </trkpt>
      <trkpt lat="43.62375" lon="5.36772">
        <ele>390</ele>
        <time>2020-06-03T08:19:11Z</time>
      </trkpt>
      <trkpt lat="43.62376" lon="5.3677">
        <ele>390</ele>
        <time>2020-06-03T08:19:15Z</time>
      </trkpt>
      <trkpt lat="43.62376" lon="5.36769">
        <ele>390</ele>
        <time>2020-06-03T08:19:20Z</time>
      </trkpt>
      <trkpt lat="43.62376" lon="5.36767">
        <ele>390</ele>
        <time>2020-06-03T08:19:24Z</time>
      </trkpt>
      <trkpt lat="43.62376" lon="5.36761">
        <ele>390</ele>
        <time>2020-06-03T08:19:29Z</time>
      </trkpt>
      <trkpt lat="43.62376" lon="5.36754">
        <ele>390</ele>
        <time>2020-06-03T08:19:33Z</time>
      </trkpt>
      <trkpt lat="43.62376" lon="5.36748">
        <ele>387</ele>
        <time>2020-06-03T08:19:38Z</time>
      </trkpt>
      <trkpt lat="43.62377" lon="5.36742">
        <ele>387</ele>
        <time>2020-06-03T08:19:42Z</time>
      </trkpt>
      <trkpt lat="43.62376" lon="5.36736">
        <ele>387</ele>
        <time>2020-06-03T08:19:47Z</time>
      </trkpt>
      <trkpt lat="43.62375" lon="5.36732">
        <ele>387</ele>
        <time>2020-06-03T08:19:51Z</time>
      </trkpt>
      <trkpt lat="43.62374" lon="5.36725">
        <ele>387</ele>
        <time>2020-06-03T08:19:55Z</time>
      </trkpt>
      <trkpt lat="43.62374" lon="5.36721">
        <ele>387</ele>
        <time>2020-06-03T08:19:59Z</time>
      </trkpt>
      <trkpt lat="43.62374" lon="5.36716">
        <ele>386</ele>
        <time>2020-06-03T08:20:03Z</time>
      </trkpt>
      <trkpt lat="43.62374" lon="5.36711">
        <ele>386</ele>
        <time>2020-06-03T08:20:08Z</time>
      </trkpt>
      <trkpt lat="43.62372" lon="5.36705">
        <ele>386</ele>
        <time>2020-06-03T08:20:12Z</time>
      </trkpt>
      <trkpt lat="43.62371" lon="5.367">
        <ele>386</ele>
        <time>2020-06-03T08:20:16Z</time>
      </trkpt>
      <trkpt lat="43.62371" lon="5.36696">
        <ele>386</ele>
        <time>2020-06-03T08:20:21Z</time>
      </trkpt>
      <trkpt lat="43.62372" lon="5.3669">
        <ele>386</ele>
        <time>2020-06-03T08:20:26Z</time>
      </trkpt>
      <trkpt lat="43.62374" lon="5.36686">
        <ele>386</ele>
        <time>2020-06-03T08:20:30Z</time>
      </trkpt>
      <trkpt lat="43.62377" lon="5.36682">
        <ele>386</ele>
        <time>2020-06-03T08:20:35Z</time>
      </trkpt>
      <trkpt lat="43.6238" lon="5.36679">
        <ele>386</ele>
        <time>2020-06-03T08:20:39Z</time>
      </trkpt>
      <trkpt lat="43.62384" lon="5.36673">
        <ele>386</ele>
        <time>2020-06-03T08:20:44Z</time>
      </trkpt>
      <trkpt lat="43.62386" lon="5.3667">
        <ele>386</ele>
        <time>2020-06-03T08:20:48Z</time>
      </trkpt>
      <trkpt lat="43.62386" lon="5.36664">
        <ele>385</ele>
        <time>2020-06-03T08:20:53Z</time>
      </trkpt>
      <trkpt lat="43.62385" lon="5.36662">
        <ele>385</ele>
        <time>2020-06-03T08:20:57Z</time>
      </trkpt>
      <trkpt lat="43.62385" lon="5.3666">
        <ele>385</ele>
        <time>2020-06-03T08:21:02Z</time>
      </trkpt>
      <trkpt lat="43.62383" lon="5.36653">
        <ele>385</ele>
        <time>2020-06-03T08:21:07Z</time>
      </trkpt>
      <trkpt lat="43.62381" lon="5.36647">
        <ele>385</ele>
        <time>2020-06-03T08:21:11Z</time>
      </trkpt>
      <trkpt lat="43.62379" lon="5.36641">
        <ele>384</ele>
        <time>2020-06-03T08:21:16Z</time>
      </trkpt>
      <trkpt lat="43.62379" lon="5.36636">
        <ele>384</ele>
        <time>2020-06-03T08:21:20Z</time>
      </trkpt>
      <trkpt lat="43.62376" lon="5.36632">
        <ele>384</ele>
        <time>2020-06-03T08:21:25Z</time>
      </trkpt>
      <trkpt lat="43.62375" lon="5.36626">
        <ele>384</ele>
        <time>2020-06-03T08:21:29Z</time>
      </trkpt>
      <trkpt lat="43.62374" lon="5.36621">
        <ele>384</ele>
        <time>2020-06-03T08:21:33Z</time>
      </trkpt>
      <trkpt lat="43.62373" lon="5.3662">
        <ele>384</ele>
        <time>2020-06-03T08:21:38Z</time>
      </trkpt>
      <trkpt lat="43.62374" lon="5.3662">
        <ele>384</ele>
        <time>2020-06-03T08:21:56Z</time>
      </trkpt>
      <trkpt lat="43.62375" lon="5.36619">
        <ele>384</ele>
        <time>2020-06-03T08:22:04Z</time>
      </trkpt>
      <trkpt lat="43.62377" lon="5.36615">
        <ele>384</ele>
        <time>2020-06-03T08:22:08Z</time>
      </trkpt>
      <trkpt lat="43.6238" lon="5.36608">
        <ele>385</ele>
        <time>2020-06-03T08:22:13Z</time>
      </trkpt>
      <trkpt lat="43.62381" lon="5.36602">
        <ele>385</ele>
        <time>2020-06-03T08:22:17Z</time>
      </trkpt>
      <trkpt lat="43.62383" lon="5.36597">
        <ele>385</ele>
        <time>2020-06-03T08:22:21Z</time>
      </trkpt>
      <trkpt lat="43.62384" lon="5.3659">
        <ele>385</ele>
        <time>2020-06-03T08:22:25Z</time>
      </trkpt>
      <trkpt lat="43.62387" lon="5.36584">
        <ele>385</ele>
        <time>2020-06-03T08:22:30Z</time>
      </trkpt>
      <trkpt lat="43.6239" lon="5.36581">
        <ele>386</ele>
        <time>2020-06-03T08:22:34Z</time>
      </trkpt>
      <trkpt lat="43.62396" lon="5.36578">
        <ele>386</ele>
        <time>2020-06-03T08:22:39Z</time>
      </trkpt>
      <trkpt lat="43.62397" lon="5.36577">
        <ele>386</ele>
        <time>2020-06-03T08:22:43Z</time>
      </trkpt>
      <trkpt lat="43.62399" lon="5.36576">
        <ele>386</ele>
        <time>2020-06-03T08:22:47Z</time>
      </trkpt>
      <trkpt lat="43.62404" lon="5.36573">
        <ele>386</ele>
        <time>2020-06-03T08:22:52Z</time>
      </trkpt>
      <trkpt lat="43.62407" lon="5.3657">
        <ele>386</ele>
        <time>2020-06-03T08:22:56Z</time>
      </trkpt>
      <trkpt lat="43.62413" lon="5.36566">
        <ele>386</ele>
        <time>2020-06-03T08:23:00Z</time>
      </trkpt>
      <trkpt lat="43.62419" lon="5.36562">
        <ele>390</ele>
        <time>2020-06-03T08:23:05Z</time>
      </trkpt>
      <trkpt lat="43.62423" lon="5.36558">
        <ele>390</ele>
        <time>2020-06-03T08:23:09Z</time>
      </trkpt>
      <trkpt lat="43.62427" lon="5.36555">
        <ele>390</ele>
        <time>2020-06-03T08:23:14Z</time>
      </trkpt>
      <trkpt lat="43.62431" lon="5.36552">
        <ele>390</ele>
        <time>2020-06-03T08:23:18Z</time>
      </trkpt>
      <trkpt lat="43.62436" lon="5.36551">
        <ele>390</ele>
        <time>2020-06-03T08:23:23Z</time>
      </trkpt>
      <trkpt lat="43.6244" lon="5.3655">
        <ele>391</ele>
        <time>2020-06-03T08:23:27Z</time>
      </trkpt>
      <trkpt lat="43.62446" lon="5.36547">
        <ele>391</ele>
        <time>2020-06-03T08:23:32Z</time>
      </trkpt>
      <trkpt lat="43.62449" lon="5.36544">
        <ele>391</ele>
        <time>2020-06-03T08:23:36Z</time>
      </trkpt>
      <trkpt lat="43.62454" lon="5.36542">
        <ele>391</ele>
        <time>2020-06-03T08:23:40Z</time>
      </trkpt>
      <trkpt lat="43.62459" lon="5.36539">
        <ele>391</ele>
        <time>2020-06-03T08:23:45Z</time>
      </trkpt>
      <trkpt lat="43.62463" lon="5.36537">
        <ele>391</ele>
        <time>2020-06-03T08:23:49Z</time>
      </trkpt>
      <trkpt lat="43.62466" lon="5.36534">
        <ele>391</ele>
        <time>2020-06-03T08:23:53Z</time>
      </trkpt>
      <trkpt lat="43.62471" lon="5.36531">
        <ele>392</ele>
        <time>2020-06-03T08:23:58Z</time>
      </trkpt>
      <trkpt lat="43.62475" lon="5.36527">
        <ele>392</ele>
        <time>2020-06-03T08:24:03Z</time>
      </trkpt>
      <trkpt lat="43.62476" lon="5.36526">
        <ele>392</ele>
        <time>2020-06-03T08:24:07Z</time>
      </trkpt>
      <trkpt lat="43.62477" lon="5.36526">
        <ele>392</ele>
        <time>2020-06-03T08:24:15Z</time>
      </trkpt>
      <trkpt lat="43.62479" lon="5.36524">
        <ele>392</ele>
        <time>2020-06-03T08:24:19Z</time>
      </trkpt>
      <trkpt lat="43.62479" lon="5.36524">
        <ele>392</ele>
        <time>2020-06-03T08:24:33Z</time>
      </trkpt>
      <trkpt lat="43.62479" lon="5.3652">
        <ele>392</ele>
        <time>2020-06-03T08:24:37Z</time>
      </trkpt>
      <trkpt lat="43.62479" lon="5.36517">
        <ele>392</ele>
        <time>2020-06-03T08:24:42Z</time>
      </trkpt>
      <trkpt lat="43.62479" lon="5.36516">
        <ele>392</ele>
        <time>2020-06-03T08:24:48Z</time>
      </trkpt>
      <trkpt lat="43.62477" lon="5.36516">
        <ele>392</ele>
        <time>2020-06-03T08:24:52Z</time>
      </trkpt>
      <trkpt lat="43.62476" lon="5.36515">
        <ele>392</ele>
        <time>2020-06-03T08:24:58Z</time>
      </trkpt>
      <trkpt lat="43.62474" lon="5.36515">
        <ele>392</ele>
        <time>2020-06-03T08:25:03Z</time>
      </trkpt>
      <trkpt lat="43.62473" lon="5.36515">
        <ele>392</ele>
        <time>2020-06-03T08:25:07Z</time>
      </trkpt>
      <trkpt lat="43.62473" lon="5.36512">
        <ele>392</ele>
        <time>2020-06-03T08:25:11Z</time>
      </trkpt>
      <trkpt lat="43.62473" lon="5.36512">
        <ele>392</ele>
        <time>2020-06-03T08:25:28Z</time>
      </trkpt>
      <trkpt lat="43.62475" lon="5.36518">
        <ele>392</ele>
        <time>2020-06-03T08:25:32Z</time>
      </trkpt>
      <trkpt lat="43.62478" lon="5.36522">
        <ele>392</ele>
        <time>2020-06-03T08:25:36Z</time>
      </trkpt>
      <trkpt lat="43.62478" lon="5.36523">
        <ele>392</ele>
        <time>2020-06-03T08:25:40Z</time>
      </trkpt>
      <trkpt lat="43.62478" lon="5.36523">
        <ele>392</ele>
        <time>2020-06-03T08:26:00Z</time>
      </trkpt>
      <trkpt lat="43.62477" lon="5.36524">
        <ele>392</ele>
        <time>2020-06-03T08:26:13Z</time>
      </trkpt>
      <trkpt lat="43.62477" lon="5.36526">
        <ele>392</ele>
        <time>2020-06-03T08:26:27Z</time>
      </trkpt>
      <trkpt lat="43.62477" lon="5.36527">
        <ele>392</ele>
        <time>2020-06-03T08:26:35Z</time>
      </trkpt>
      <trkpt lat="43.62476" lon="5.36528">
        <ele>392</ele>
        <time>2020-06-03T08:26:55Z</time>
      </trkpt>
      <trkpt lat="43.62476" lon="5.36529">
        <ele>392</ele>
        <time>2020-06-03T08:26:59Z</time>
      </trkpt>
      <trkpt lat="43.62477" lon="5.36528">
        <ele>392</ele>
        <time>2020-06-03T08:27:04Z</time>
      </trkpt>
      <trkpt lat="43.62478" lon="5.36528">
        <ele>392</ele>
        <time>2020-06-03T08:27:28Z</time>
      </trkpt>
      <trkpt lat="43.62476" lon="5.3652">
        <ele>392</ele>
        <time>2020-06-03T08:27:33Z</time>
      </trkpt>
      <trkpt lat="43.62475" lon="5.36513">
        <ele>392</ele>
        <time>2020-06-03T08:27:38Z</time>
      </trkpt>
      <trkpt lat="43.62473" lon="5.3651">
        <ele>392</ele>
        <time>2020-06-03T08:27:42Z</time>
      </trkpt>
      <trkpt lat="43.62473" lon="5.36507">
        <ele>392</ele>
        <time>2020-06-03T08:27:46Z</time>
      </trkpt>
      <trkpt lat="43.62472" lon="5.365">
        <ele>392</ele>
        <time>2020-06-03T08:27:50Z</time>
      </trkpt>
      <trkpt lat="43.62471" lon="5.36495">
        <ele>390</ele>
        <time>2020-06-03T08:27:54Z</time>
      </trkpt>
      <trkpt lat="43.62472" lon="5.3649">
        <ele>390</ele>
        <time>2020-06-03T08:27:59Z</time>
      </trkpt>
      <trkpt lat="43.62472" lon="5.36486">
        <ele>390</ele>
        <time>2020-06-03T08:28:03Z</time>
      </trkpt>
      <trkpt lat="43.62471" lon="5.36479">
        <ele>390</ele>
        <time>2020-06-03T08:28:07Z</time>
      </trkpt>
      <trkpt lat="43.6247" lon="5.36473">
        <ele>390</ele>
        <time>2020-06-03T08:28:12Z</time>
      </trkpt>
      <trkpt lat="43.6247" lon="5.36467">
        <ele>390</ele>
        <time>2020-06-03T08:28:16Z</time>
      </trkpt>
      <trkpt lat="43.6247" lon="5.36462">
        <ele>390</ele>
        <time>2020-06-03T08:28:20Z</time>
      </trkpt>
      <trkpt lat="43.62471" lon="5.36456">
        <ele>390</ele>
        <time>2020-06-03T08:28:25Z</time>
      </trkpt>
      <trkpt lat="43.6247" lon="5.36452">
        <ele>390</ele>
        <time>2020-06-03T08:28:29Z</time>
      </trkpt>
      <trkpt lat="43.62469" lon="5.36447">
        <ele>390</ele>
        <time>2020-06-03T08:28:33Z</time>
      </trkpt>
      <trkpt lat="43.62467" lon="5.36441">
        <ele>390</ele>
        <time>2020-06-03T08:28:37Z</time>
      </trkpt>
      <trkpt lat="43.62467" lon="5.36437">
        <ele>389</ele>
        <time>2020-06-03T08:28:41Z</time>
      </trkpt>
      <trkpt lat="43.62464" lon="5.36432">
        <ele>389</ele>
        <time>2020-06-03T08:28:46Z</time>
      </trkpt>
      <trkpt lat="43.62463" lon="5.36427">
        <ele>389</ele>
        <time>2020-06-03T08:28:50Z</time>
      </trkpt>
      <trkpt lat="43.62463" lon="5.36421">
        <ele>389</ele>
        <time>2020-06-03T08:28:54Z</time>
      </trkpt>
      <trkpt lat="43.62463" lon="5.36413">
        <ele>388</ele>
        <time>2020-06-03T08:28:59Z</time>
      </trkpt>
      <trkpt lat="43.62463" lon="5.36406">
        <ele>388</ele>
        <time>2020-06-03T08:29:04Z</time>
      </trkpt>
      <trkpt lat="43.62463" lon="5.364">
        <ele>388</ele>
        <time>2020-06-03T08:29:08Z</time>
      </trkpt>
      <trkpt lat="43.62464" lon="5.36396">
        <ele>388</ele>
        <time>2020-06-03T08:29:12Z</time>
      </trkpt>
      <trkpt lat="43.62465" lon="5.3639">
        <ele>388</ele>
        <time>2020-06-03T08:29:16Z</time>
      </trkpt>
      <trkpt lat="43.62464" lon="5.36385">
        <ele>388</ele>
        <time>2020-06-03T08:29:20Z</time>
      </trkpt>
      <trkpt lat="43.62463" lon="5.36377">
        <ele>388</ele>
        <time>2020-06-03T08:29:25Z</time>
      </trkpt>
      <trkpt lat="43.62463" lon="5.3637">
        <ele>388</ele>
        <time>2020-06-03T08:29:30Z</time>
      </trkpt>
      <trkpt lat="43.62462" lon="5.36364">
        <ele>388</ele>
        <time>2020-06-03T08:29:35Z</time>
      </trkpt>
      <trkpt lat="43.62461" lon="5.36359">
        <ele>388</ele>
        <time>2020-06-03T08:29:39Z</time>
      </trkpt>
      <trkpt lat="43.62461" lon="5.36353">
        <ele>388</ele>
        <time>2020-06-03T08:29:44Z</time>
      </trkpt>
      <trkpt lat="43.62461" lon="5.36346">
        <ele>388</ele>
        <time>2020-06-03T08:29:49Z</time>
      </trkpt>
      <trkpt lat="43.62461" lon="5.3634">
        <ele>388</ele>
        <time>2020-06-03T08:29:53Z</time>
      </trkpt>
      <trkpt lat="43.62461" lon="5.36335">
        <ele>388</ele>
        <time>2020-06-03T08:29:57Z</time>
      </trkpt>
      <trkpt lat="43.6246" lon="5.36327">
        <ele>387</ele>
        <time>2020-06-03T08:30:02Z</time>
      </trkpt>
      <trkpt lat="43.62461" lon="5.36321">
        <ele>387</ele>
        <time>2020-06-03T08:30:06Z</time>
      </trkpt>
      <trkpt lat="43.6246" lon="5.36314">
        <ele>387</ele>
        <time>2020-06-03T08:30:11Z</time>
      </trkpt>
      <trkpt lat="43.6246" lon="5.36308">
        <ele>387</ele>
        <time>2020-06-03T08:30:15Z</time>
      </trkpt>
      <trkpt lat="43.62459" lon="5.36301">
        <ele>387</ele>
        <time>2020-06-03T08:30:20Z</time>
      </trkpt>
      <trkpt lat="43.6246" lon="5.36295">
        <ele>387</ele>
        <time>2020-06-03T08:30:25Z</time>
      </trkpt>
      <trkpt lat="43.6246" lon="5.36289">
        <ele>387</ele>
        <time>2020-06-03T08:30:29Z</time>
      </trkpt>
      <trkpt lat="43.62458" lon="5.36284">
        <ele>387</ele>
        <time>2020-06-03T08:30:33Z</time>
      </trkpt>
      <trkpt lat="43.62456" lon="5.36281">
        <ele>387</ele>
        <time>2020-06-03T08:30:37Z</time>
      </trkpt>
      <trkpt lat="43.62454" lon="5.36279">
        <ele>387</ele>
        <time>2020-06-03T08:30:42Z</time>
      </trkpt>
      <trkpt lat="43.62454" lon="5.36275">
        <ele>387</ele>
        <time>2020-06-03T08:30:46Z</time>
      </trkpt>
      <trkpt lat="43.62453" lon="5.36267">
        <ele>387</ele>
        <time>2020-06-03T08:30:50Z</time>
      </trkpt>
      <trkpt lat="43.62451" lon="5.3626">
        <ele>386</ele>
        <time>2020-06-03T08:30:55Z</time>
      </trkpt>
      <trkpt lat="43.62449" lon="5.36254">
        <ele>386</ele>
        <time>2020-06-03T08:30:59Z</time>
      </trkpt>
      <trkpt lat="43.62446" lon="5.36248">
        <ele>387</ele>
        <time>2020-06-03T08:31:04Z</time>
      </trkpt>
      <trkpt lat="43.62445" lon="5.36243">
        <ele>387</ele>
        <time>2020-06-03T08:31:08Z</time>
      </trkpt>
      <trkpt lat="43.62446" lon="5.36238">
        <ele>387</ele>
        <time>2020-06-03T08:31:12Z</time>
      </trkpt>
      <trkpt lat="43.62446" lon="5.36233">
        <ele>387</ele>
        <time>2020-06-03T08:31:16Z</time>
      </trkpt>
      <trkpt lat="43.62445" lon="5.36226">
        <ele>387</ele>
        <time>2020-06-03T08:31:20Z</time>
      </trkpt>
      <trkpt lat="43.62444" lon="5.36219">
        <ele>387</ele>
        <time>2020-06-03T08:31:25Z</time>
      </trkpt>
      <trkpt lat="43.62444" lon="5.36213">
        <ele>387</ele>
        <time>2020-06-03T08:31:29Z</time>
      </trkpt>
      <trkpt lat="43.62443" lon="5.36206">
        <ele>387</ele>
        <time>2020-06-03T08:31:34Z</time>
      </trkpt>
      <trkpt lat="43.62443" lon="5.362">
        <ele>387</ele>
        <time>2020-06-03T08:31:39Z</time>
      </trkpt>
      <trkpt lat="43.62442" lon="5.36195">
        <ele>387</ele>
        <time>2020-06-03T08:31:43Z</time>
      </trkpt>
      <trkpt lat="43.62442" lon="5.3619">
        <ele>387</ele>
        <time>2020-06-03T08:31:47Z</time>
      </trkpt>
      <trkpt lat="43.62443" lon="5.36185">
        <ele>387</ele>
        <time>2020-06-03T08:31:51Z</time>
      </trkpt>
      <trkpt lat="43.62443" lon="5.36179">
        <ele>387</ele>
        <time>2020-06-03T08:31:55Z</time>
      </trkpt>
      <trkpt lat="43.62442" lon="5.36173">
        <ele>387</ele>
        <time>2020-06-03T08:32:00Z</time>
      </trkpt>
      <trkpt lat="43.62442" lon="5.36167">
        <ele>387</ele>
        <time>2020-06-03T08:32:04Z</time>
      </trkpt>
      <trkpt lat="43.62441" lon="5.36162">
        <ele>387</ele>
        <time>2020-06-03T08:32:08Z</time>
      </trkpt>
      <trkpt lat="43.6244" lon="5.36157">
        <ele>387</ele>
        <time>2020-06-03T08:32:12Z</time>
      </trkpt>
      <trkpt lat="43.6244" lon="5.36151">
        <ele>387</ele>
        <time>2020-06-03T08:32:16Z</time>
      </trkpt>
      <trkpt lat="43.6244" lon="5.36145">
        <ele>387</ele>
        <time>2020-06-03T08:32:20Z</time>
      </trkpt>
      <trkpt lat="43.6244" lon="5.36135">
        <ele>388</ele>
        <time>2020-06-03T08:32:25Z</time>
      </trkpt>
      <trkpt lat="43.62439" lon="5.36129">
        <ele>388</ele>
        <time>2020-06-03T08:32:30Z</time>
      </trkpt>
      <trkpt lat="43.62439" lon="5.36122">
        <ele>388</ele>
        <time>2020-06-03T08:32:35Z</time>
      </trkpt>
      <trkpt lat="43.62438" lon="5.36117">
        <ele>388</ele>
        <time>2020-06-03T08:32:39Z</time>
      </trkpt>
      <trkpt lat="43.62439" lon="5.36113">
        <ele>388</ele>
        <time>2020-06-03T08:32:43Z</time>
      </trkpt>
      <trkpt lat="43.62439" lon="5.36105">
        <ele>387</ele>
        <time>2020-06-03T08:32:48Z</time>
      </trkpt>
      <trkpt lat="43.62439" lon="5.361">
        <ele>387</ele>
        <time>2020-06-03T08:32:52Z</time>
      </trkpt>
      <trkpt lat="43.6244" lon="5.36094">
        <ele>387</ele>
        <time>2020-06-03T08:32:56Z</time>
      </trkpt>
      <trkpt lat="43.62439" lon="5.36088">
        <ele>387</ele>
        <time>2020-06-03T08:33:01Z</time>
      </trkpt>
      <trkpt lat="43.62439" lon="5.36081">
        <ele>387</ele>
        <time>2020-06-03T08:33:05Z</time>
      </trkpt>
      <trkpt lat="43.62439" lon="5.36075">
        <ele>387</ele>
        <time>2020-06-03T08:33:09Z</time>
      </trkpt>
      <trkpt lat="43.62441" lon="5.36068">
        <ele>387</ele>
        <time>2020-06-03T08:33:14Z</time>
      </trkpt>
      <trkpt lat="43.62442" lon="5.36061">
        <ele>387</ele>
        <time>2020-06-03T08:33:18Z</time>
      </trkpt>
      <trkpt lat="43.62442" lon="5.36055">
        <ele>387</ele>
        <time>2020-06-03T08:33:22Z</time>
      </trkpt>
      <trkpt lat="43.62443" lon="5.36049">
        <ele>387</ele>
        <time>2020-06-03T08:33:27Z</time>
      </trkpt>
      <trkpt lat="43.62444" lon="5.36044">
        <ele>387</ele>
        <time>2020-06-03T08:33:31Z</time>
      </trkpt>
      <trkpt lat="43.62445" lon="5.36039">
        <ele>387</ele>
        <time>2020-06-03T08:33:35Z</time>
      </trkpt>
      <trkpt lat="43.62445" lon="5.36034">
        <ele>387</ele>
        <time>2020-06-03T08:33:39Z</time>
      </trkpt>
      <trkpt lat="43.62446" lon="5.36028">
        <ele>387</ele>
        <time>2020-06-03T08:33:44Z</time>
      </trkpt>
      <trkpt lat="43.62448" lon="5.36023">
        <ele>387</ele>
        <time>2020-06-03T08:33:48Z</time>
      </trkpt>
      <trkpt lat="43.62449" lon="5.36017">
        <ele>387</ele>
        <time>2020-06-03T08:33:52Z</time>
      </trkpt>
      <trkpt lat="43.6245" lon="5.3601">
        <ele>387</ele>
        <time>2020-06-03T08:33:56Z</time>
      </trkpt>
      <trkpt lat="43.62451" lon="5.36004">
        <ele>387</ele>
        <time>2020-06-03T08:34:00Z</time>
      </trkpt>
      <trkpt lat="43.62452" lon="5.35999">
        <ele>386</ele>
        <time>2020-06-03T08:34:04Z</time>
      </trkpt>
      <trkpt lat="43.62453" lon="5.35992">
        <ele>386</ele>
        <time>2020-06-03T08:34:09Z</time>
      </trkpt>
      <trkpt lat="43.62454" lon="5.35985">
        <ele>386</ele>
        <time>2020-06-03T08:34:13Z</time>
      </trkpt>
      <trkpt lat="43.62455" lon="5.35978">
        <ele>386</ele>
        <time>2020-06-03T08:34:18Z</time>
      </trkpt>
      <trkpt lat="43.62456" lon="5.35973">
        <ele>386</ele>
        <time>2020-06-03T08:34:22Z</time>
      </trkpt>
      <trkpt lat="43.62457" lon="5.35967">
        <ele>386</ele>
        <time>2020-06-03T08:34:26Z</time>
      </trkpt>
      <trkpt lat="43.62458" lon="5.35962">
        <ele>386</ele>
        <time>2020-06-03T08:34:30Z</time>
      </trkpt>
      <trkpt lat="43.6246" lon="5.35956">
        <ele>385</ele>
        <time>2020-06-03T08:34:35Z</time>
      </trkpt>
      <trkpt lat="43.6246" lon="5.35947">
        <ele>385</ele>
        <time>2020-06-03T08:34:40Z</time>
      </trkpt>
      <trkpt lat="43.62462" lon="5.35941">
        <ele>385</ele>
        <time>2020-06-03T08:34:44Z</time>
      </trkpt>
      <trkpt lat="43.62464" lon="5.35933">
        <ele>385</ele>
        <time>2020-06-03T08:34:49Z</time>
      </trkpt>
      <trkpt lat="43.62466" lon="5.35927">
        <ele>385</ele>
        <time>2020-06-03T08:34:54Z</time>
      </trkpt>
      <trkpt lat="43.62468" lon="5.35921">
        <ele>385</ele>
        <time>2020-06-03T08:34:58Z</time>
      </trkpt>
      <trkpt lat="43.62469" lon="5.35914">
        <ele>384</ele>
        <time>2020-06-03T08:35:03Z</time>
      </trkpt>
      <trkpt lat="43.6247" lon="5.35907">
        <ele>384</ele>
        <time>2020-06-03T08:35:07Z</time>
      </trkpt>
      <trkpt lat="43.62471" lon="5.359">
        <ele>384</ele>
        <time>2020-06-03T08:35:12Z</time>
      </trkpt>
      <trkpt lat="43.62472" lon="5.35894">
        <ele>384</ele>
        <time>2020-06-03T08:35:16Z</time>
      </trkpt>
      <trkpt lat="43.62472" lon="5.35886">
        <ele>384</ele>
        <time>2020-06-03T08:35:21Z</time>
      </trkpt>
      <trkpt lat="43.62472" lon="5.35881">
        <ele>384</ele>
        <time>2020-06-03T08:35:25Z</time>
      </trkpt>
      <trkpt lat="43.62474" lon="5.35875">
        <ele>383</ele>
        <time>2020-06-03T08:35:30Z</time>
      </trkpt>
      <trkpt lat="43.62476" lon="5.35869">
        <ele>383</ele>
        <time>2020-06-03T08:35:35Z</time>
      </trkpt>
      <trkpt lat="43.62477" lon="5.3586">
        <ele>383</ele>
        <time>2020-06-03T08:35:40Z</time>
      </trkpt>
      <trkpt lat="43.62478" lon="5.35855">
        <ele>383</ele>
        <time>2020-06-03T08:35:44Z</time>
      </trkpt>
      <trkpt lat="43.62479" lon="5.35846">
        <ele>383</ele>
        <time>2020-06-03T08:35:49Z</time>
      </trkpt>
      <trkpt lat="43.6248" lon="5.3584">
        <ele>383</ele>
        <time>2020-06-03T08:35:53Z</time>
      </trkpt>
      <trkpt lat="43.62481" lon="5.35835">
        <ele>383</ele>
        <time>2020-06-03T08:35:58Z</time>
      </trkpt>
      <trkpt lat="43.62483" lon="5.35829">
        <ele>382</ele>
        <time>2020-06-03T08:36:02Z</time>
      </trkpt>
      <trkpt lat="43.62483" lon="5.35823">
        <ele>382</ele>
        <time>2020-06-03T08:36:06Z</time>
      </trkpt>
      <trkpt lat="43.62483" lon="5.35818">
        <ele>382</ele>
        <time>2020-06-03T08:36:10Z</time>
      </trkpt>
      <trkpt lat="43.62484" lon="5.35809">
        <ele>382</ele>
        <time>2020-06-03T08:36:15Z</time>
      </trkpt>
      <trkpt lat="43.62484" lon="5.35802">
        <ele>381</ele>
        <time>2020-06-03T08:36:20Z</time>
      </trkpt>
      <trkpt lat="43.62484" lon="5.35796">
        <ele>381</ele>
        <time>2020-06-03T08:36:24Z</time>
      </trkpt>
      <trkpt lat="43.62485" lon="5.3579">
        <ele>381</ele>
        <time>2020-06-03T08:36:29Z</time>
      </trkpt>
      <trkpt lat="43.62487" lon="5.35785">
        <ele>381</ele>
        <time>2020-06-03T08:36:33Z</time>
      </trkpt>
      <trkpt lat="43.62489" lon="5.35778">
        <ele>381</ele>
        <time>2020-06-03T08:36:38Z</time>
      </trkpt>
      <trkpt lat="43.62489" lon="5.3577">
        <ele>381</ele>
        <time>2020-06-03T08:36:43Z</time>
      </trkpt>
      <trkpt lat="43.62489" lon="5.35765">
        <ele>381</ele>
        <time>2020-06-03T08:36:47Z</time>
      </trkpt>
      <trkpt lat="43.62489" lon="5.35758">
        <ele>381</ele>
        <time>2020-06-03T08:36:51Z</time>
      </trkpt>
      <trkpt lat="43.62489" lon="5.35752">
        <ele>381</ele>
        <time>2020-06-03T08:36:55Z</time>
      </trkpt>
      <trkpt lat="43.6249" lon="5.35745">
        <ele>380</ele>
        <time>2020-06-03T08:37:00Z</time>
      </trkpt>
      <trkpt lat="43.62492" lon="5.3574">
        <ele>380</ele>
        <time>2020-06-03T08:37:04Z</time>
      </trkpt>
      <trkpt lat="43.62494" lon="5.35734">
        <ele>380</ele>
        <time>2020-06-03T08:37:09Z</time>
      </trkpt>
      <trkpt lat="43.62496" lon="5.35729">
        <ele>380</ele>
        <time>2020-06-03T08:37:13Z</time>
      </trkpt>
      <trkpt lat="43.62497" lon="5.35723">
        <ele>380</ele>
        <time>2020-06-03T08:37:17Z</time>
      </trkpt>
      <trkpt lat="43.625" lon="5.35717">
        <ele>380</ele>
        <time>2020-06-03T08:37:22Z</time>
      </trkpt>
      <trkpt lat="43.62501" lon="5.35712">
        <ele>381</ele>
        <time>2020-06-03T08:37:26Z</time>
      </trkpt>
      <trkpt lat="43.62503" lon="5.35704">
        <ele>381</ele>
        <time>2020-06-03T08:37:31Z</time>
      </trkpt>
      <trkpt lat="43.62504" lon="5.35699">
        <ele>381</ele>
        <time>2020-06-03T08:37:35Z</time>
      </trkpt>
      <trkpt lat="43.62506" lon="5.35692">
        <ele>381</ele>
        <time>2020-06-03T08:37:40Z</time>
      </trkpt>
      <trkpt lat="43.62507" lon="5.35686">
        <ele>381</ele>
        <time>2020-06-03T08:37:44Z</time>
      </trkpt>
      <trkpt lat="43.62507" lon="5.3568">
        <ele>380</ele>
        <time>2020-06-03T08:37:49Z</time>
      </trkpt>
      <trkpt lat="43.62508" lon="5.35674">
        <ele>380</ele>
        <time>2020-06-03T08:37:53Z</time>
      </trkpt>
      <trkpt lat="43.6251" lon="5.35669">
        <ele>380</ele>
        <time>2020-06-03T08:37:57Z</time>
      </trkpt>
      <trkpt lat="43.6251" lon="5.35664">
        <ele>380</ele>
        <time>2020-06-03T08:38:01Z</time>
      </trkpt>
      <trkpt lat="43.62511" lon="5.35658">
        <ele>380</ele>
        <time>2020-06-03T08:38:05Z</time>
      </trkpt>
      <trkpt lat="43.62512" lon="5.35651">
        <ele>380</ele>
        <time>2020-06-03T08:38:09Z</time>
      </trkpt>
      <trkpt lat="43.62512" lon="5.35646">
        <ele>380</ele>
        <time>2020-06-03T08:38:14Z</time>
      </trkpt>
      <trkpt lat="43.62513" lon="5.35642">
        <ele>380</ele>
        <time>2020-06-03T08:38:18Z</time>
      </trkpt>
      <trkpt lat="43.62515" lon="5.35635">
        <ele>380</ele>
        <time>2020-06-03T08:38:22Z</time>
      </trkpt>
      <trkpt lat="43.62517" lon="5.3563">
        <ele>380</ele>
        <time>2020-06-03T08:38:26Z</time>
      </trkpt>
      <trkpt lat="43.62518" lon="5.35624">
        <ele>380</ele>
        <time>2020-06-03T08:38:30Z</time>
      </trkpt>
      <trkpt lat="43.62519" lon="5.35619">
        <ele>380</ele>
        <time>2020-06-03T08:38:34Z</time>
      </trkpt>
      <trkpt lat="43.62521" lon="5.35612">
        <ele>380</ele>
        <time>2020-06-03T08:38:38Z</time>
      </trkpt>
      <trkpt lat="43.62522" lon="5.35606">
        <ele>380</ele>
        <time>2020-06-03T08:38:43Z</time>
      </trkpt>
      <trkpt lat="43.62522" lon="5.35601">
        <ele>380</ele>
        <time>2020-06-03T08:38:47Z</time>
      </trkpt>
      <trkpt lat="43.62523" lon="5.35594">
        <ele>380</ele>
        <time>2020-06-03T08:38:52Z</time>
      </trkpt>
      <trkpt lat="43.62524" lon="5.35588">
        <ele>379</ele>
        <time>2020-06-03T08:38:56Z</time>
      </trkpt>
      <trkpt lat="43.62525" lon="5.35582">
        <ele>379</ele>
        <time>2020-06-03T08:39:00Z</time>
      </trkpt>
      <trkpt lat="43.62527" lon="5.35576">
        <ele>379</ele>
        <time>2020-06-03T08:39:05Z</time>
      </trkpt>
      <trkpt lat="43.62529" lon="5.3557">
        <ele>378</ele>
        <time>2020-06-03T08:39:09Z</time>
      </trkpt>
      <trkpt lat="43.62531" lon="5.35564">
        <ele>378</ele>
        <time>2020-06-03T08:39:13Z</time>
      </trkpt>
      <trkpt lat="43.62534" lon="5.35557">
        <ele>378</ele>
        <time>2020-06-03T08:39:18Z</time>
      </trkpt>
      <trkpt lat="43.62538" lon="5.3555">
        <ele>378</ele>
        <time>2020-06-03T08:39:23Z</time>
      </trkpt>
      <trkpt lat="43.62539" lon="5.35544">
        <ele>378</ele>
        <time>2020-06-03T08:39:27Z</time>
      </trkpt>
      <trkpt lat="43.62541" lon="5.35539">
        <ele>378</ele>
        <time>2020-06-03T08:39:31Z</time>
      </trkpt>
      <trkpt lat="43.62542" lon="5.35533">
        <ele>378</ele>
        <time>2020-06-03T08:39:35Z</time>
      </trkpt>
      <trkpt lat="43.62544" lon="5.35526">
        <ele>378</ele>
        <time>2020-06-03T08:39:40Z</time>
      </trkpt>
      <trkpt lat="43.62543" lon="5.3552">
        <ele>378</ele>
        <time>2020-06-03T08:39:45Z</time>
      </trkpt>
      <trkpt lat="43.62544" lon="5.35515">
        <ele>378</ele>
        <time>2020-06-03T08:39:49Z</time>
      </trkpt>
      <trkpt lat="43.62544" lon="5.35507">
        <ele>378</ele>
        <time>2020-06-03T08:39:54Z</time>
      </trkpt>
      <trkpt lat="43.62545" lon="5.35501">
        <ele>378</ele>
        <time>2020-06-03T08:39:58Z</time>
      </trkpt>
      <trkpt lat="43.62547" lon="5.35494">
        <ele>377</ele>
        <time>2020-06-03T08:40:03Z</time>
      </trkpt>
      <trkpt lat="43.6255" lon="5.35488">
        <ele>377</ele>
        <time>2020-06-03T08:40:07Z</time>
      </trkpt>
      <trkpt lat="43.62552" lon="5.3548">
        <ele>377</ele>
        <time>2020-06-03T08:40:12Z</time>
      </trkpt>
      <trkpt lat="43.62553" lon="5.35474">
        <ele>377</ele>
        <time>2020-06-03T08:40:16Z</time>
      </trkpt>
      <trkpt lat="43.62554" lon="5.35469">
        <ele>377</ele>
        <time>2020-06-03T08:40:20Z</time>
      </trkpt>
      <trkpt lat="43.62555" lon="5.3546">
        <ele>377</ele>
        <time>2020-06-03T08:40:25Z</time>
      </trkpt>
      <trkpt lat="43.62555" lon="5.35454">
        <ele>378</ele>
        <time>2020-06-03T08:40:30Z</time>
      </trkpt>
      <trkpt lat="43.62555" lon="5.35448">
        <ele>378</ele>
        <time>2020-06-03T08:40:34Z</time>
      </trkpt>
      <trkpt lat="43.62555" lon="5.35443">
        <ele>378</ele>
        <time>2020-06-03T08:40:38Z</time>
      </trkpt>
      <trkpt lat="43.62556" lon="5.35437">
        <ele>378</ele>
        <time>2020-06-03T08:40:43Z</time>
      </trkpt>
      <trkpt lat="43.62557" lon="5.35431">
        <ele>378</ele>
        <time>2020-06-03T08:40:47Z</time>
      </trkpt>
      <trkpt lat="43.62559" lon="5.35425">
        <ele>378</ele>
        <time>2020-06-03T08:40:51Z</time>
      </trkpt>
      <trkpt lat="43.62559" lon="5.35419">
        <ele>378</ele>
        <time>2020-06-03T08:40:56Z</time>
      </trkpt>
      <trkpt lat="43.6256" lon="5.35413">
        <ele>377</ele>
        <time>2020-06-03T08:41:00Z</time>
      </trkpt>
      <trkpt lat="43.62561" lon="5.35405">
        <ele>377</ele>
        <time>2020-06-03T08:41:05Z</time>
      </trkpt>
      <trkpt lat="43.62562" lon="5.35398">
        <ele>377</ele>
        <time>2020-06-03T08:41:10Z</time>
      </trkpt>
      <trkpt lat="43.62564" lon="5.35392">
        <ele>377</ele>
        <time>2020-06-03T08:41:14Z</time>
      </trkpt>
      <trkpt lat="43.62566" lon="5.35386">
        <ele>377</ele>
        <time>2020-06-03T08:41:18Z</time>
      </trkpt>
      <trkpt lat="43.62568" lon="5.35379">
        <ele>377</ele>
        <time>2020-06-03T08:41:23Z</time>
      </trkpt>
      <trkpt lat="43.6257" lon="5.35374">
        <ele>377</ele>
        <time>2020-06-03T08:41:27Z</time>
      </trkpt>
      <trkpt lat="43.62571" lon="5.35367">
        <ele>377</ele>
        <time>2020-06-03T08:41:31Z</time>
      </trkpt>
      <trkpt lat="43.62572" lon="5.35361">
        <ele>377</ele>
        <time>2020-06-03T08:41:36Z</time>
      </trkpt>
      <trkpt lat="43.62573" lon="5.35355">
        <ele>377</ele>
        <time>2020-06-03T08:41:40Z</time>
      </trkpt>
      <trkpt lat="43.62574" lon="5.35348">
        <ele>377</ele>
        <time>2020-06-03T08:41:44Z</time>
      </trkpt>
      <trkpt lat="43.62575" lon="5.35343">
        <ele>377</ele>
        <time>2020-06-03T08:41:49Z</time>
      </trkpt>
      <trkpt lat="43.62577" lon="5.35337">
        <ele>377</ele>
        <time>2020-06-03T08:41:53Z</time>
      </trkpt>
      <trkpt lat="43.62579" lon="5.35331">
        <ele>377</ele>
        <time>2020-06-03T08:41:57Z</time>
      </trkpt>
      <trkpt lat="43.62581" lon="5.35326">
        <ele>376</ele>
        <time>2020-06-03T08:42:01Z</time>
      </trkpt>
      <trkpt lat="43.62582" lon="5.35319">
        <ele>376</ele>
        <time>2020-06-03T08:42:05Z</time>
      </trkpt>
      <trkpt lat="43.62582" lon="5.35313">
        <ele>376</ele>
        <time>2020-06-03T08:42:09Z</time>
      </trkpt>
      <trkpt lat="43.62583" lon="5.35308">
        <ele>376</ele>
        <time>2020-06-03T08:42:14Z</time>
      </trkpt>
      <trkpt lat="43.62586" lon="5.35301">
        <ele>376</ele>
        <time>2020-06-03T08:42:19Z</time>
      </trkpt>
      <trkpt lat="43.62589" lon="5.35293">
        <ele>376</ele>
        <time>2020-06-03T08:42:24Z</time>
      </trkpt>
      <trkpt lat="43.62591" lon="5.35287">
        <ele>376</ele>
        <time>2020-06-03T08:42:29Z</time>
      </trkpt>
      <trkpt lat="43.62593" lon="5.35282">
        <ele>376</ele>
        <time>2020-06-03T08:42:33Z</time>
      </trkpt>
      <trkpt lat="43.62595" lon="5.35274">
        <ele>376</ele>
        <time>2020-06-03T08:42:37Z</time>
      </trkpt>
      <trkpt lat="43.62595" lon="5.35269">
        <ele>376</ele>
        <time>2020-06-03T08:42:41Z</time>
      </trkpt>
      <trkpt lat="43.62597" lon="5.35261">
        <ele>376</ele>
        <time>2020-06-03T08:42:45Z</time>
      </trkpt>
      <trkpt lat="43.62597" lon="5.35255">
        <ele>376</ele>
        <time>2020-06-03T08:42:49Z</time>
      </trkpt>
      <trkpt lat="43.62597" lon="5.3525">
        <ele>376</ele>
        <time>2020-06-03T08:42:54Z</time>
      </trkpt>
      <trkpt lat="43.62598" lon="5.35244">
        <ele>375</ele>
        <time>2020-06-03T08:42:58Z</time>
      </trkpt>
      <trkpt lat="43.62599" lon="5.35242">
        <ele>375</ele>
        <time>2020-06-03T08:43:02Z</time>
      </trkpt>
      <trkpt lat="43.62601" lon="5.35233">
        <ele>375</ele>
        <time>2020-06-03T08:43:07Z</time>
      </trkpt>
      <trkpt lat="43.62602" lon="5.35227">
        <ele>375</ele>
        <time>2020-06-03T08:43:11Z</time>
      </trkpt>
      <trkpt lat="43.62603" lon="5.35222">
        <ele>375</ele>
        <time>2020-06-03T08:43:15Z</time>
      </trkpt>
      <trkpt lat="43.62603" lon="5.35218">
        <ele>375</ele>
        <time>2020-06-03T08:43:19Z</time>
      </trkpt>
      <trkpt lat="43.62603" lon="5.3521">
        <ele>375</ele>
        <time>2020-06-03T08:43:24Z</time>
      </trkpt>
      <trkpt lat="43.62603" lon="5.35204">
        <ele>375</ele>
        <time>2020-06-03T08:43:28Z</time>
      </trkpt>
      <trkpt lat="43.62603" lon="5.35201">
        <ele>374</ele>
        <time>2020-06-03T08:43:32Z</time>
      </trkpt>
      <trkpt lat="43.62604" lon="5.35192">
        <ele>374</ele>
        <time>2020-06-03T08:43:36Z</time>
      </trkpt>
      <trkpt lat="43.62605" lon="5.35189">
        <ele>374</ele>
        <time>2020-06-03T08:43:40Z</time>
      </trkpt>
      <trkpt lat="43.62607" lon="5.35183">
        <ele>374</ele>
        <time>2020-06-03T08:43:44Z</time>
      </trkpt>
      <trkpt lat="43.62609" lon="5.35176">
        <ele>374</ele>
        <time>2020-06-03T08:43:48Z</time>
      </trkpt>
      <trkpt lat="43.62611" lon="5.35168">
        <ele>374</ele>
        <time>2020-06-03T08:43:53Z</time>
      </trkpt>
      <trkpt lat="43.62613" lon="5.35162">
        <ele>373</ele>
        <time>2020-06-03T08:43:58Z</time>
      </trkpt>
      <trkpt lat="43.62616" lon="5.35152">
        <ele>373</ele>
        <time>2020-06-03T08:44:03Z</time>
      </trkpt>
      <trkpt lat="43.62617" lon="5.35147">
        <ele>373</ele>
        <time>2020-06-03T08:44:07Z</time>
      </trkpt>
      <trkpt lat="43.62619" lon="5.3514">
        <ele>373</ele>
        <time>2020-06-03T08:44:12Z</time>
      </trkpt>
      <trkpt lat="43.62621" lon="5.35135">
        <ele>373</ele>
        <time>2020-06-03T08:44:16Z</time>
      </trkpt>
      <trkpt lat="43.62622" lon="5.35128">
        <ele>373</ele>
        <time>2020-06-03T08:44:21Z</time>
      </trkpt>
      <trkpt lat="43.62623" lon="5.35123">
        <ele>373</ele>
        <time>2020-06-03T08:44:25Z</time>
      </trkpt>
      <trkpt lat="43.62624" lon="5.35116">
        <ele>373</ele>
        <time>2020-06-03T08:44:30Z</time>
      </trkpt>
      <trkpt lat="43.62626" lon="5.35111">
        <ele>373</ele>
        <time>2020-06-03T08:44:34Z</time>
      </trkpt>
      <trkpt lat="43.62626" lon="5.35102">
        <ele>372</ele>
        <time>2020-06-03T08:44:39Z</time>
      </trkpt>
      <trkpt lat="43.62627" lon="5.35099">
        <ele>372</ele>
        <time>2020-06-03T08:44:43Z</time>
      </trkpt>
      <trkpt lat="43.62628" lon="5.35091">
        <ele>372</ele>
        <time>2020-06-03T08:44:47Z</time>
      </trkpt>
      <trkpt lat="43.62629" lon="5.35085">
        <ele>372</ele>
        <time>2020-06-03T08:44:52Z</time>
      </trkpt>
      <trkpt lat="43.62629" lon="5.3508">
        <ele>371</ele>
        <time>2020-06-03T08:44:56Z</time>
      </trkpt>
      <trkpt lat="43.6263" lon="5.35071">
        <ele>371</ele>
        <time>2020-06-03T08:45:01Z</time>
      </trkpt>
      <trkpt lat="43.62632" lon="5.35064">
        <ele>371</ele>
        <time>2020-06-03T08:45:06Z</time>
      </trkpt>
      <trkpt lat="43.62634" lon="5.35057">
        <ele>370</ele>
        <time>2020-06-03T08:45:10Z</time>
      </trkpt>
      <trkpt lat="43.62635" lon="5.35052">
        <ele>370</ele>
        <time>2020-06-03T08:45:14Z</time>
      </trkpt>
      <trkpt lat="43.62638" lon="5.35048">
        <ele>370</ele>
        <time>2020-06-03T08:45:18Z</time>
      </trkpt>
      <trkpt lat="43.62639" lon="5.35045">
        <ele>370</ele>
        <time>2020-06-03T08:45:22Z</time>
      </trkpt>
      <trkpt lat="43.62639" lon="5.3504">
        <ele>370</ele>
        <time>2020-06-03T08:45:27Z</time>
      </trkpt>
      <trkpt lat="43.6264" lon="5.35033">
        <ele>370</ele>
        <time>2020-06-03T08:45:31Z</time>
      </trkpt>
      <trkpt lat="43.62641" lon="5.35024">
        <ele>370</ele>
        <time>2020-06-03T08:45:36Z</time>
      </trkpt>
      <trkpt lat="43.6264" lon="5.35019">
        <ele>370</ele>
        <time>2020-06-03T08:45:40Z</time>
      </trkpt>
      <trkpt lat="43.62642" lon="5.35011">
        <ele>370</ele>
        <time>2020-06-03T08:45:45Z</time>
      </trkpt>
      <trkpt lat="43.62643" lon="5.35011">
        <ele>370</ele>
        <time>2020-06-03T08:45:49Z</time>
      </trkpt>
      <trkpt lat="43.62644" lon="5.35005">
        <ele>370</ele>
        <time>2020-06-03T08:45:54Z</time>
      </trkpt>
      <trkpt lat="43.62644" lon="5.35002">
        <ele>370</ele>
        <time>2020-06-03T08:45:58Z</time>
      </trkpt>
      <trkpt lat="43.62645" lon="5.34997">
        <ele>368</ele>
        <time>2020-06-03T08:46:03Z</time>
      </trkpt>
      <trkpt lat="43.62646" lon="5.34989">
        <ele>368</ele>
        <time>2020-06-03T08:46:08Z</time>
      </trkpt>
      <trkpt lat="43.62647" lon="5.34984">
        <ele>368</ele>
        <time>2020-06-03T08:46:12Z</time>
      </trkpt>
      <trkpt lat="43.62649" lon="5.34978">
        <ele>368</ele>
        <time>2020-06-03T08:46:16Z</time>
      </trkpt>
      <trkpt lat="43.6265" lon="5.34977">
        <ele>368</ele>
        <time>2020-06-03T08:46:20Z</time>
      </trkpt>
      <trkpt lat="43.62652" lon="5.34971">
        <ele>368</ele>
        <time>2020-06-03T08:46:25Z</time>
      </trkpt>
      <trkpt lat="43.62655" lon="5.34966">
        <ele>368</ele>
        <time>2020-06-03T08:46:29Z</time>
      </trkpt>
      <trkpt lat="43.62657" lon="5.34963">
        <ele>367</ele>
        <time>2020-06-03T08:46:33Z</time>
      </trkpt>
      <trkpt lat="43.62659" lon="5.34962">
        <ele>367</ele>
        <time>2020-06-03T08:46:37Z</time>
      </trkpt>
      <trkpt lat="43.62662" lon="5.34959">
        <ele>367</ele>
        <time>2020-06-03T08:46:42Z</time>
      </trkpt>
      <trkpt lat="43.62663" lon="5.34957">
        <ele>367</ele>
        <time>2020-06-03T08:46:46Z</time>
      </trkpt>
      <trkpt lat="43.62662" lon="5.34952">
        <ele>367</ele>
        <time>2020-06-03T08:46:51Z</time>
      </trkpt>
      <trkpt lat="43.6266" lon="5.34945">
        <ele>367</ele>
        <time>2020-06-03T08:46:55Z</time>
      </trkpt>
      <trkpt lat="43.62658" lon="5.34941">
        <ele>367</ele>
        <time>2020-06-03T08:46:59Z</time>
      </trkpt>
      <trkpt lat="43.62658" lon="5.34941">
        <ele>367</ele>
        <time>2020-06-03T08:47:03Z</time>
      </trkpt>
      <trkpt lat="43.62658" lon="5.34943">
        <ele>367</ele>
        <time>2020-06-03T08:47:07Z</time>
      </trkpt>
      <trkpt lat="43.62658" lon="5.34943">
        <ele>367</ele>
        <time>2020-06-03T08:47:28Z</time>
      </trkpt>
      <trkpt lat="43.62657" lon="5.34941">
        <ele>367</ele>
        <time>2020-06-03T08:47:33Z</time>
      </trkpt>
      <trkpt lat="43.62658" lon="5.34942">
        <ele>367</ele>
        <time>2020-06-03T08:47:48Z</time>
      </trkpt>
      <trkpt lat="43.62659" lon="5.34943">
        <ele>367</ele>
        <time>2020-06-03T08:47:53Z</time>
      </trkpt>
      <trkpt lat="43.6266" lon="5.34943">
        <ele>367</ele>
        <time>2020-06-03T08:48:12Z</time>
      </trkpt>
      <trkpt lat="43.62662" lon="5.34936">
        <ele>367</ele>
        <time>2020-06-03T08:48:17Z</time>
      </trkpt>
      <trkpt lat="43.62663" lon="5.3493">
        <ele>367</ele>
        <time>2020-06-03T08:48:21Z</time>
      </trkpt>
      <trkpt lat="43.62664" lon="5.34922">
        <ele>367</ele>
        <time>2020-06-03T08:48:26Z</time>
      </trkpt>
      <trkpt lat="43.62666" lon="5.34917">
        <ele>367</ele>
        <time>2020-06-03T08:48:30Z</time>
      </trkpt>
      <trkpt lat="43.62667" lon="5.34911">
        <ele>366</ele>
        <time>2020-06-03T08:48:34Z</time>
      </trkpt>
      <trkpt lat="43.6267" lon="5.34904">
        <ele>366</ele>
        <time>2020-06-03T08:48:39Z</time>
      </trkpt>
      <trkpt lat="43.62671" lon="5.34901">
        <ele>365</ele>
        <time>2020-06-03T08:48:43Z</time>
      </trkpt>
      <trkpt lat="43.62672" lon="5.34895">
        <ele>365</ele>
        <time>2020-06-03T08:48:48Z</time>
      </trkpt>
      <trkpt lat="43.62674" lon="5.3489">
        <ele>365</ele>
        <time>2020-06-03T08:48:52Z</time>
      </trkpt>
      <trkpt lat="43.62674" lon="5.34884">
        <ele>365</ele>
        <time>2020-06-03T08:48:56Z</time>
      </trkpt>
      <trkpt lat="43.62675" lon="5.34881">
        <ele>364</ele>
        <time>2020-06-03T08:49:01Z</time>
      </trkpt>
      <trkpt lat="43.62674" lon="5.34879">
        <ele>364</ele>
        <time>2020-06-03T08:49:05Z</time>
      </trkpt>
      <trkpt lat="43.62673" lon="5.34877">
        <ele>364</ele>
        <time>2020-06-03T08:49:09Z</time>
      </trkpt>
      <trkpt lat="43.62673" lon="5.34877">
        <ele>364</ele>
        <time>2020-06-03T08:49:13Z</time>
      </trkpt>
      <trkpt lat="43.62672" lon="5.34876">
        <ele>364</ele>
        <time>2020-06-03T08:49:21Z</time>
      </trkpt>
      <trkpt lat="43.62671" lon="5.34875">
        <ele>364</ele>
        <time>2020-06-03T08:49:27Z</time>
      </trkpt>
      <trkpt lat="43.62671" lon="5.34874">
        <ele>364</ele>
        <time>2020-06-03T08:49:32Z</time>
      </trkpt>
      <trkpt lat="43.62671" lon="5.34875">
        <ele>364</ele>
        <time>2020-06-03T08:49:39Z</time>
      </trkpt>
      <trkpt lat="43.6267" lon="5.34876">
        <ele>364</ele>
        <time>2020-06-03T08:49:43Z</time>
      </trkpt>
      <trkpt lat="43.6267" lon="5.34875">
        <ele>364</ele>
        <time>2020-06-03T08:49:48Z</time>
      </trkpt>
      <trkpt lat="43.6267" lon="5.34874">
        <ele>364</ele>
        <time>2020-06-03T08:49:52Z</time>
      </trkpt>
      <trkpt lat="43.62669" lon="5.34874">
        <ele>364</ele>
        <time>2020-06-03T08:49:57Z</time>
      </trkpt>
      <trkpt lat="43.62668" lon="5.34873">
        <ele>364</ele>
        <time>2020-06-03T08:50:07Z</time>
      </trkpt>
      <trkpt lat="43.62668" lon="5.34872">
        <ele>364</ele>
        <time>2020-06-03T08:50:16Z</time>
      </trkpt>
      <trkpt lat="43.62667" lon="5.34872">
        <ele>364</ele>
        <time>2020-06-03T08:50:23Z</time>
      </trkpt>
      <trkpt lat="43.62666" lon="5.3487">
        <ele>365</ele>
        <time>2020-06-03T08:50:27Z</time>
      </trkpt>
      <trkpt lat="43.62667" lon="5.34871">
        <ele>365</ele>
        <time>2020-06-03T08:50:33Z</time>
      </trkpt>
      <trkpt lat="43.62666" lon="5.34872">
        <ele>365</ele>
        <time>2020-06-03T08:50:43Z</time>
      </trkpt>
      <trkpt lat="43.62665" lon="5.34873">
        <ele>365</ele>
        <time>2020-06-03T08:50:51Z</time>
      </trkpt>
      <trkpt lat="43.62665" lon="5.34874">
        <ele>365</ele>
        <time>2020-06-03T08:50:57Z</time>
      </trkpt>
      <trkpt lat="43.62665" lon="5.34875">
        <ele>365</ele>
        <time>2020-06-03T08:51:03Z</time>
      </trkpt>
      <trkpt lat="43.62665" lon="5.3488">
        <ele>365</ele>
        <time>2020-06-03T08:51:07Z</time>
      </trkpt>
      <trkpt lat="43.62666" lon="5.34881">
        <ele>365</ele>
        <time>2020-06-03T08:51:11Z</time>
      </trkpt>
      <trkpt lat="43.62667" lon="5.3488">
        <ele>365</ele>
        <time>2020-06-03T08:51:43Z</time>
      </trkpt>
      <trkpt lat="43.62667" lon="5.3488">
        <ele>365</ele>
        <time>2020-06-03T08:51:50Z</time>
      </trkpt>
      <trkpt lat="43.62667" lon="5.3488">
        <ele>365</ele>
        <time>2020-06-03T08:52:05Z</time>
      </trkpt>
      <trkpt lat="43.62666" lon="5.3488">
        <ele>365</ele>
        <time>2020-06-03T08:52:10Z</time>
      </trkpt>
      <trkpt lat="43.62662" lon="5.34881">
        <ele>365</ele>
        <time>2020-06-03T08:52:14Z</time>
      </trkpt>
      <trkpt lat="43.62663" lon="5.34882">
        <ele>365</ele>
        <time>2020-06-03T08:52:52Z</time>
      </trkpt>
      <trkpt lat="43.62665" lon="5.3488">
        <ele>365</ele>
        <time>2020-06-03T08:52:57Z</time>
      </trkpt>
      <trkpt lat="43.62666" lon="5.3488">
        <ele>365</ele>
        <time>2020-06-03T08:53:04Z</time>
      </trkpt>
      <trkpt lat="43.62666" lon="5.34881">
        <ele>365</ele>
        <time>2020-06-03T08:53:12Z</time>
      </trkpt>
      <trkpt lat="43.62665" lon="5.34882">
        <ele>365</ele>
        <time>2020-06-03T08:53:17Z</time>
      </trkpt>
      <trkpt lat="43.62665" lon="5.34883">
        <ele>365</ele>
        <time>2020-06-03T08:53:33Z</time>
      </trkpt>
      <trkpt lat="43.62664" lon="5.34882">
        <ele>365</ele>
        <time>2020-06-03T08:53:44Z</time>
      </trkpt>
      <trkpt lat="43.62662" lon="5.3488">
        <ele>365</ele>
        <time>2020-06-03T08:53:48Z</time>
      </trkpt>
      <trkpt lat="43.62662" lon="5.34879">
        <ele>365</ele>
        <time>2020-06-03T08:53:58Z</time>
      </trkpt>
      <trkpt lat="43.62661" lon="5.34877">
        <ele>365</ele>
        <time>2020-06-03T08:54:02Z</time>
      </trkpt>
      <trkpt lat="43.62659" lon="5.34873">
        <ele>365</ele>
        <time>2020-06-03T08:54:06Z</time>
      </trkpt>
      <trkpt lat="43.62659" lon="5.34867">
        <ele>365</ele>
        <time>2020-06-03T08:54:11Z</time>
      </trkpt>
      <trkpt lat="43.6266" lon="5.34862">
        <ele>365</ele>
        <time>2020-06-03T08:54:15Z</time>
      </trkpt>
      <trkpt lat="43.62661" lon="5.34862">
        <ele>365</ele>
        <time>2020-06-03T08:54:19Z</time>
      </trkpt>
      <trkpt lat="43.62667" lon="5.34857">
        <ele>365</ele>
        <time>2020-06-03T08:54:24Z</time>
      </trkpt>
      <trkpt lat="43.62673" lon="5.34851">
        <ele>364</ele>
        <time>2020-06-03T08:54:28Z</time>
      </trkpt>
      <trkpt lat="43.62676" lon="5.34845">
        <ele>364</ele>
        <time>2020-06-03T08:54:33Z</time>
      </trkpt>
      <trkpt lat="43.62677" lon="5.34837">
        <ele>364</ele>
        <time>2020-06-03T08:54:38Z</time>
      </trkpt>
      <trkpt lat="43.62679" lon="5.34833">
        <ele>364</ele>
        <time>2020-06-03T08:54:42Z</time>
      </trkpt>
      <trkpt lat="43.6268" lon="5.3483">
        <ele>364</ele>
        <time>2020-06-03T08:54:46Z</time>
      </trkpt>
      <trkpt lat="43.62683" lon="5.34825">
        <ele>364</ele>
        <time>2020-06-03T08:54:50Z</time>
      </trkpt>
      <trkpt lat="43.62684" lon="5.34822">
        <ele>364</ele>
        <time>2020-06-03T08:54:54Z</time>
      </trkpt>
      <trkpt lat="43.62685" lon="5.34817">
        <ele>364</ele>
        <time>2020-06-03T08:54:58Z</time>
      </trkpt>
      <trkpt lat="43.62686" lon="5.34811">
        <ele>364</ele>
        <time>2020-06-03T08:55:03Z</time>
      </trkpt>
      <trkpt lat="43.62686" lon="5.34805">
        <ele>364</ele>
        <time>2020-06-03T08:55:07Z</time>
      </trkpt>
      <trkpt lat="43.62686" lon="5.34801">
        <ele>363</ele>
        <time>2020-06-03T08:55:11Z</time>
      </trkpt>
      <trkpt lat="43.62688" lon="5.34795">
        <ele>363</ele>
        <time>2020-06-03T08:55:16Z</time>
      </trkpt>
      <trkpt lat="43.6269" lon="5.3479">
        <ele>363</ele>
        <time>2020-06-03T08:55:20Z</time>
      </trkpt>
      <trkpt lat="43.62692" lon="5.34783">
        <ele>363</ele>
        <time>2020-06-03T08:55:25Z</time>
      </trkpt>
      <trkpt lat="43.62694" lon="5.34779">
        <ele>363</ele>
        <time>2020-06-03T08:55:29Z</time>
      </trkpt>
      <trkpt lat="43.62698" lon="5.34773">
        <ele>363</ele>
        <time>2020-06-03T08:55:34Z</time>
      </trkpt>
      <trkpt lat="43.62701" lon="5.34767">
        <ele>363</ele>
        <time>2020-06-03T08:55:38Z</time>
      </trkpt>
      <trkpt lat="43.62702" lon="5.34763">
        <ele>363</ele>
        <time>2020-06-03T08:55:43Z</time>
      </trkpt>
      <trkpt lat="43.62704" lon="5.34757">
        <ele>363</ele>
        <time>2020-06-03T08:55:47Z</time>
      </trkpt>
      <trkpt lat="43.62707" lon="5.34751">
        <ele>363</ele>
        <time>2020-06-03T08:55:52Z</time>
      </trkpt>
      <trkpt lat="43.62709" lon="5.34748">
        <ele>363</ele>
        <time>2020-06-03T08:55:56Z</time>
      </trkpt>
      <trkpt lat="43.62711" lon="5.34743">
        <ele>363</ele>
        <time>2020-06-03T08:56:00Z</time>
      </trkpt>
      <trkpt lat="43.62714" lon="5.34737">
        <ele>363</ele>
        <time>2020-06-03T08:56:05Z</time>
      </trkpt>
      <trkpt lat="43.62716" lon="5.34733">
        <ele>363</ele>
        <time>2020-06-03T08:56:09Z</time>
      </trkpt>
      <trkpt lat="43.62719" lon="5.34728">
        <ele>363</ele>
        <time>2020-06-03T08:56:14Z</time>
      </trkpt>
      <trkpt lat="43.62723" lon="5.34721">
        <ele>362</ele>
        <time>2020-06-03T08:56:19Z</time>
      </trkpt>
      <trkpt lat="43.62726" lon="5.34715">
        <ele>362</ele>
        <time>2020-06-03T08:56:23Z</time>
      </trkpt>
      <trkpt lat="43.62728" lon="5.3471">
        <ele>362</ele>
        <time>2020-06-03T08:56:28Z</time>
      </trkpt>
      <trkpt lat="43.62729" lon="5.34706">
        <ele>362</ele>
        <time>2020-06-03T08:56:33Z</time>
      </trkpt>
      <trkpt lat="43.62731" lon="5.34702">
        <ele>362</ele>
        <time>2020-06-03T08:56:37Z</time>
      </trkpt>
      <trkpt lat="43.62735" lon="5.34698">
        <ele>362</ele>
        <time>2020-06-03T08:56:41Z</time>
      </trkpt>
      <trkpt lat="43.62737" lon="5.34695">
        <ele>362</ele>
        <time>2020-06-03T08:56:45Z</time>
      </trkpt>
      <trkpt lat="43.62737" lon="5.34694">
        <ele>362</ele>
        <time>2020-06-03T08:56:55Z</time>
      </trkpt>
      <trkpt lat="43.62738" lon="5.3469">
        <ele>362</ele>
        <time>2020-06-03T08:56:59Z</time>
      </trkpt>
      <trkpt lat="43.62741" lon="5.34684">
        <ele>362</ele>
        <time>2020-06-03T08:57:04Z</time>
      </trkpt>
      <trkpt lat="43.62743" lon="5.3468">
        <ele>362</ele>
        <time>2020-06-03T08:57:08Z</time>
      </trkpt>
      <trkpt lat="43.62745" lon="5.34675">
        <ele>362</ele>
        <time>2020-06-03T08:57:12Z</time>
      </trkpt>
      <trkpt lat="43.62746" lon="5.34669">
        <ele>362</ele>
        <time>2020-06-03T08:57:16Z</time>
      </trkpt>
      <trkpt lat="43.62747" lon="5.34663">
        <ele>362</ele>
        <time>2020-06-03T08:57:20Z</time>
      </trkpt>
      <trkpt lat="43.62748" lon="5.34659">
        <ele>361</ele>
        <time>2020-06-03T08:57:24Z</time>
      </trkpt>
      <trkpt lat="43.6275" lon="5.34654">
        <ele>361</ele>
        <time>2020-06-03T08:57:28Z</time>
      </trkpt>
      <trkpt lat="43.62752" lon="5.34648">
        <ele>360</ele>
        <time>2020-06-03T08:57:32Z</time>
      </trkpt>
      <trkpt lat="43.62754" lon="5.34643">
        <ele>360</ele>
        <time>2020-06-03T08:57:37Z</time>
      </trkpt>
      <trkpt lat="43.62755" lon="5.34638">
        <ele>360</ele>
        <time>2020-06-03T08:57:41Z</time>
      </trkpt>
      <trkpt lat="43.62758" lon="5.34631">
        <ele>359</ele>
        <time>2020-06-03T08:57:46Z</time>
      </trkpt>
      <trkpt lat="43.62761" lon="5.34627">
        <ele>359</ele>
        <time>2020-06-03T08:57:50Z</time>
      </trkpt>
      <trkpt lat="43.62764" lon="5.34622">
        <ele>359</ele>
        <time>2020-06-03T08:57:54Z</time>
      </trkpt>
      <trkpt lat="43.62766" lon="5.34617">
        <ele>359</ele>
        <time>2020-06-03T08:57:59Z</time>
      </trkpt>
      <trkpt lat="43.62769" lon="5.34611">
        <ele>359</ele>
        <time>2020-06-03T08:58:04Z</time>
      </trkpt>
      <trkpt lat="43.62772" lon="5.34606">
        <ele>359</ele>
        <time>2020-06-03T08:58:08Z</time>
      </trkpt>
      <trkpt lat="43.62774" lon="5.34603">
        <ele>359</ele>
        <time>2020-06-03T08:58:13Z</time>
      </trkpt>
      <trkpt lat="43.62776" lon="5.34598">
        <ele>359</ele>
        <time>2020-06-03T08:58:17Z</time>
      </trkpt>
      <trkpt lat="43.62779" lon="5.34592">
        <ele>358</ele>
        <time>2020-06-03T08:58:21Z</time>
      </trkpt>
      <trkpt lat="43.62782" lon="5.34588">
        <ele>358</ele>
        <time>2020-06-03T08:58:26Z</time>
      </trkpt>
      <trkpt lat="43.62783" lon="5.34583">
        <ele>357</ele>
        <time>2020-06-03T08:58:30Z</time>
      </trkpt>
      <trkpt lat="43.62785" lon="5.34579">
        <ele>357</ele>
        <time>2020-06-03T08:58:34Z</time>
      </trkpt>
      <trkpt lat="43.6279" lon="5.34574">
        <ele>357</ele>
        <time>2020-06-03T08:58:38Z</time>
      </trkpt>
      <trkpt lat="43.6279" lon="5.34568">
        <ele>357</ele>
        <time>2020-06-03T08:58:43Z</time>
      </trkpt>
      <trkpt lat="43.6279" lon="5.34563">
        <ele>357</ele>
        <time>2020-06-03T08:58:47Z</time>
      </trkpt>
      <trkpt lat="43.62791" lon="5.34557">
        <ele>356</ele>
        <time>2020-06-03T08:58:51Z</time>
      </trkpt>
      <trkpt lat="43.62791" lon="5.34552">
        <ele>356</ele>
        <time>2020-06-03T08:58:55Z</time>
      </trkpt>
      <trkpt lat="43.62791" lon="5.34546">
        <ele>356</ele>
        <time>2020-06-03T08:59:00Z</time>
      </trkpt>
      <trkpt lat="43.62791" lon="5.34541">
        <ele>356</ele>
        <time>2020-06-03T08:59:04Z</time>
      </trkpt>
      <trkpt lat="43.62793" lon="5.34534">
        <ele>356</ele>
        <time>2020-06-03T08:59:09Z</time>
      </trkpt>
      <trkpt lat="43.62793" lon="5.34531">
        <ele>356</ele>
        <time>2020-06-03T08:59:13Z</time>
      </trkpt>
      <trkpt lat="43.62796" lon="5.34527">
        <ele>356</ele>
        <time>2020-06-03T08:59:18Z</time>
      </trkpt>
      <trkpt lat="43.62798" lon="5.34519">
        <ele>356</ele>
        <time>2020-06-03T08:59:23Z</time>
      </trkpt>
      <trkpt lat="43.628" lon="5.34513">
        <ele>356</ele>
        <time>2020-06-03T08:59:27Z</time>
      </trkpt>
      <trkpt lat="43.62801" lon="5.34508">
        <ele>356</ele>
        <time>2020-06-03T08:59:32Z</time>
      </trkpt>
      <trkpt lat="43.62802" lon="5.34505">
        <ele>356</ele>
        <time>2020-06-03T08:59:36Z</time>
      </trkpt>
      <trkpt lat="43.62805" lon="5.34499">
        <ele>354</ele>
        <time>2020-06-03T08:59:41Z</time>
      </trkpt>
      <trkpt lat="43.62806" lon="5.34493">
        <ele>354</ele>
        <time>2020-06-03T08:59:45Z</time>
      </trkpt>
      <trkpt lat="43.62807" lon="5.34487">
        <ele>353</ele>
        <time>2020-06-03T08:59:49Z</time>
      </trkpt>
      <trkpt lat="43.62807" lon="5.34482">
        <ele>353</ele>
        <time>2020-06-03T08:59:53Z</time>
      </trkpt>
      <trkpt lat="43.62808" lon="5.34478">
        <ele>353</ele>
        <time>2020-06-03T08:59:58Z</time>
      </trkpt>
      <trkpt lat="43.62808" lon="5.34473">
        <ele>353</ele>
        <time>2020-06-03T09:00:02Z</time>
      </trkpt>
      <trkpt lat="43.62811" lon="5.34468">
        <ele>353</ele>
        <time>2020-06-03T09:00:06Z</time>
      </trkpt>
      <trkpt lat="43.62812" lon="5.34461">
        <ele>353</ele>
        <time>2020-06-03T09:00:10Z</time>
      </trkpt>
      <trkpt lat="43.62813" lon="5.34456">
        <ele>353</ele>
        <time>2020-06-03T09:00:14Z</time>
      </trkpt>
      <trkpt lat="43.62815" lon="5.34454">
        <ele>352</ele>
        <time>2020-06-03T09:00:19Z</time>
      </trkpt>
      <trkpt lat="43.62816" lon="5.34451">
        <ele>352</ele>
        <time>2020-06-03T09:00:23Z</time>
      </trkpt>
      <trkpt lat="43.6282" lon="5.34443">
        <ele>352</ele>
        <time>2020-06-03T09:00:28Z</time>
      </trkpt>
      <trkpt lat="43.62822" lon="5.34437">
        <ele>351</ele>
        <time>2020-06-03T09:00:32Z</time>
      </trkpt>
      <trkpt lat="43.62823" lon="5.34432">
        <ele>351</ele>
        <time>2020-06-03T09:00:36Z</time>
      </trkpt>
      <trkpt lat="43.62825" lon="5.34428">
        <ele>351</ele>
        <time>2020-06-03T09:00:40Z</time>
      </trkpt>
      <trkpt lat="43.62827" lon="5.34423">
        <ele>350</ele>
        <time>2020-06-03T09:00:45Z</time>
      </trkpt>
      <trkpt lat="43.62829" lon="5.34419">
        <ele>350</ele>
        <time>2020-06-03T09:00:49Z</time>
      </trkpt>
      <trkpt lat="43.62833" lon="5.34413">
        <ele>349</ele>
        <time>2020-06-03T09:00:54Z</time>
      </trkpt>
      <trkpt lat="43.62835" lon="5.34409">
        <ele>349</ele>
        <time>2020-06-03T09:00:58Z</time>
      </trkpt>
      <trkpt lat="43.62836" lon="5.34408">
        <ele>349</ele>
        <time>2020-06-03T09:01:02Z</time>
      </trkpt>
      <trkpt lat="43.6284" lon="5.34402">
        <ele>349</ele>
        <time>2020-06-03T09:01:07Z</time>
      </trkpt>
      <trkpt lat="43.62842" lon="5.34399">
        <ele>348</ele>
        <time>2020-06-03T09:01:11Z</time>
      </trkpt>
      <trkpt lat="43.62843" lon="5.34396">
        <ele>348</ele>
        <time>2020-06-03T09:01:16Z</time>
      </trkpt>
      <trkpt lat="43.62845" lon="5.34392">
        <ele>348</ele>
        <time>2020-06-03T09:01:20Z</time>
      </trkpt>
      <trkpt lat="43.62847" lon="5.34386">
        <ele>348</ele>
        <time>2020-06-03T09:01:24Z</time>
      </trkpt>
      <trkpt lat="43.6285" lon="5.34381">
        <ele>348</ele>
        <time>2020-06-03T09:01:28Z</time>
      </trkpt>
      <trkpt lat="43.62851" lon="5.34378">
        <ele>348</ele>
        <time>2020-06-03T09:01:33Z</time>
      </trkpt>
      <trkpt lat="43.62855" lon="5.34372">
        <ele>348</ele>
        <time>2020-06-03T09:01:37Z</time>
      </trkpt>
      <trkpt lat="43.62858" lon="5.34366">
        <ele>348</ele>
        <time>2020-06-03T09:01:42Z</time>
      </trkpt>
      <trkpt lat="43.6286" lon="5.34361">
        <ele>348</ele>
        <time>2020-06-03T09:01:46Z</time>
      </trkpt>
      <trkpt lat="43.62861" lon="5.34355">
        <ele>348</ele>
        <time>2020-06-03T09:01:50Z</time>
      </trkpt>
      <trkpt lat="43.62862" lon="5.34348">
        <ele>348</ele>
        <time>2020-06-03T09:01:54Z</time>
      </trkpt>
      <trkpt lat="43.62863" lon="5.34343">
        <ele>348</ele>
        <time>2020-06-03T09:01:58Z</time>
      </trkpt>
      <trkpt lat="43.62864" lon="5.34338">
        <ele>348</ele>
        <time>2020-06-03T09:02:03Z</time>
      </trkpt>
      <trkpt lat="43.62865" lon="5.34335">
        <ele>348</ele>
        <time>2020-06-03T09:02:08Z</time>
      </trkpt>
      <trkpt lat="43.62867" lon="5.34328">
        <ele>347</ele>
        <time>2020-06-03T09:02:12Z</time>
      </trkpt>
      <trkpt lat="43.62868" lon="5.34317">
        <ele>346</ele>
        <time>2020-06-03T09:02:17Z</time>
      </trkpt>
      <trkpt lat="43.62869" lon="5.34309">
        <ele>346</ele>
        <time>2020-06-03T09:02:22Z</time>
      </trkpt>
      <trkpt lat="43.62867" lon="5.34303">
        <ele>346</ele>
        <time>2020-06-03T09:02:27Z</time>
      </trkpt>
      <trkpt lat="43.62866" lon="5.343">
        <ele>346</ele>
        <time>2020-06-03T09:02:31Z</time>
      </trkpt>
      <trkpt lat="43.62865" lon="5.34296">
        <ele>346</ele>
        <time>2020-06-03T09:02:35Z</time>
      </trkpt>
      <trkpt lat="43.62865" lon="5.34288">
        <ele>346</ele>
        <time>2020-06-03T09:02:39Z</time>
      </trkpt>
      <trkpt lat="43.62867" lon="5.34282">
        <ele>345</ele>
        <time>2020-06-03T09:02:43Z</time>
      </trkpt>
      <trkpt lat="43.62867" lon="5.34277">
        <ele>345</ele>
        <time>2020-06-03T09:02:47Z</time>
      </trkpt>
      <trkpt lat="43.62868" lon="5.34272">
        <ele>345</ele>
        <time>2020-06-03T09:02:51Z</time>
      </trkpt>
      <trkpt lat="43.62868" lon="5.34266">
        <ele>345</ele>
        <time>2020-06-03T09:02:55Z</time>
      </trkpt>
      <trkpt lat="43.6287" lon="5.34259">
        <ele>345</ele>
        <time>2020-06-03T09:03:00Z</time>
      </trkpt>
      <trkpt lat="43.62871" lon="5.34256">
        <ele>345</ele>
        <time>2020-06-03T09:03:04Z</time>
      </trkpt>
      <trkpt lat="43.62872" lon="5.34253">
        <ele>345</ele>
        <time>2020-06-03T09:03:09Z</time>
      </trkpt>
      <trkpt lat="43.62875" lon="5.34246">
        <ele>343</ele>
        <time>2020-06-03T09:03:13Z</time>
      </trkpt>
      <trkpt lat="43.62878" lon="5.34241">
        <ele>344</ele>
        <time>2020-06-03T09:03:17Z</time>
      </trkpt>
      <trkpt lat="43.62879" lon="5.34238">
        <ele>344</ele>
        <time>2020-06-03T09:03:21Z</time>
      </trkpt>
      <trkpt lat="43.6288" lon="5.34234">
        <ele>344</ele>
        <time>2020-06-03T09:03:25Z</time>
      </trkpt>
      <trkpt lat="43.62883" lon="5.34231">
        <ele>344</ele>
        <time>2020-06-03T09:03:30Z</time>
      </trkpt>
      <trkpt lat="43.62885" lon="5.34229">
        <ele>344</ele>
        <time>2020-06-03T09:03:34Z</time>
      </trkpt>
      <trkpt lat="43.62887" lon="5.34223">
        <ele>344</ele>
        <time>2020-06-03T09:03:38Z</time>
      </trkpt>
      <trkpt lat="43.62888" lon="5.34218">
        <ele>344</ele>
        <time>2020-06-03T09:03:42Z</time>
      </trkpt>
      <trkpt lat="43.6289" lon="5.34213">
        <ele>344</ele>
        <time>2020-06-03T09:03:46Z</time>
      </trkpt>
      <trkpt lat="43.62891" lon="5.34208">
        <ele>344</ele>
        <time>2020-06-03T09:03:51Z</time>
      </trkpt>
      <trkpt lat="43.62892" lon="5.34202">
        <ele>344</ele>
        <time>2020-06-03T09:03:56Z</time>
      </trkpt>
      <trkpt lat="43.62894" lon="5.342">
        <ele>344</ele>
        <time>2020-06-03T09:04:00Z</time>
      </trkpt>
      <trkpt lat="43.62894" lon="5.34197">
        <ele>344</ele>
        <time>2020-06-03T09:04:05Z</time>
      </trkpt>
      <trkpt lat="43.62894" lon="5.34192">
        <ele>344</ele>
        <time>2020-06-03T09:04:10Z</time>
      </trkpt>
      <trkpt lat="43.62893" lon="5.34185">
        <ele>344</ele>
        <time>2020-06-03T09:04:14Z</time>
      </trkpt>
      <trkpt lat="43.6289" lon="5.3418">
        <ele>344</ele>
        <time>2020-06-03T09:04:18Z</time>
      </trkpt>
      <trkpt lat="43.6289" lon="5.34179">
        <ele>344</ele>
        <time>2020-06-03T09:04:27Z</time>
      </trkpt>
      <trkpt lat="43.62888" lon="5.34177">
        <ele>344</ele>
        <time>2020-06-03T09:04:31Z</time>
      </trkpt>
      <trkpt lat="43.62886" lon="5.34176">
        <ele>344</ele>
        <time>2020-06-03T09:04:36Z</time>
      </trkpt>
      <trkpt lat="43.62887" lon="5.34175">
        <ele>344</ele>
        <time>2020-06-03T09:04:43Z</time>
      </trkpt>
      <trkpt lat="43.62887" lon="5.34174">
        <ele>344</ele>
        <time>2020-06-03T09:04:50Z</time>
      </trkpt>
      <trkpt lat="43.62887" lon="5.34173">
        <ele>344</ele>
        <time>2020-06-03T09:04:57Z</time>
      </trkpt>
      <trkpt lat="43.62888" lon="5.34171">
        <ele>344</ele>
        <time>2020-06-03T09:05:02Z</time>
      </trkpt>
      <trkpt lat="43.6289" lon="5.34173">
        <ele>344</ele>
        <time>2020-06-03T09:05:06Z</time>
      </trkpt>
      <trkpt lat="43.6289" lon="5.34174">
        <ele>344</ele>
        <time>2020-06-03T09:05:23Z</time>
      </trkpt>
      <trkpt lat="43.62889" lon="5.34173">
        <ele>344</ele>
        <time>2020-06-03T09:05:33Z</time>
      </trkpt>
      <trkpt lat="43.62889" lon="5.34172">
        <ele>344</ele>
        <time>2020-06-03T09:05:48Z</time>
      </trkpt>
      <trkpt lat="43.62888" lon="5.34171">
        <ele>344</ele>
        <time>2020-06-03T09:05:53Z</time>
      </trkpt>
      <trkpt lat="43.62888" lon="5.3417">
        <ele>344</ele>
        <time>2020-06-03T09:05:59Z</time>
      </trkpt>
      <trkpt lat="43.62888" lon="5.34169">
        <ele>344</ele>
        <time>2020-06-03T09:06:05Z</time>
      </trkpt>
      <trkpt lat="43.6289" lon="5.34168">
        <ele>344</ele>
        <time>2020-06-03T09:06:10Z</time>
      </trkpt>
      <trkpt lat="43.62892" lon="5.34166">
        <ele>344</ele>
        <time>2020-06-03T09:06:15Z</time>
      </trkpt>
      <trkpt lat="43.62893" lon="5.34166">
        <ele>344</ele>
        <time>2020-06-03T09:06:19Z</time>
      </trkpt>
      <trkpt lat="43.62898" lon="5.3416">
        <ele>344</ele>
        <time>2020-06-03T09:06:24Z</time>
      </trkpt>
      <trkpt lat="43.62902" lon="5.34156">
        <ele>344</ele>
        <time>2020-06-03T09:06:28Z</time>
      </trkpt>
      <trkpt lat="43.62906" lon="5.34151">
        <ele>344</ele>
        <time>2020-06-03T09:06:32Z</time>
      </trkpt>
      <trkpt lat="43.62907" lon="5.34148">
        <ele>344</ele>
        <time>2020-06-03T09:06:36Z</time>
      </trkpt>
      <trkpt lat="43.6291" lon="5.3414">
        <ele>344</ele>
        <time>2020-06-03T09:06:41Z</time>
      </trkpt>
      <trkpt lat="43.62913" lon="5.34133">
        <ele>344</ele>
        <time>2020-06-03T09:06:46Z</time>
      </trkpt>
      <trkpt lat="43.62914" lon="5.34128">
        <ele>344</ele>
        <time>2020-06-03T09:06:51Z</time>
      </trkpt>
      <trkpt lat="43.62913" lon="5.34125">
        <ele>344</ele>
        <time>2020-06-03T09:06:55Z</time>
      </trkpt>
      <trkpt lat="43.6291" lon="5.34119">
        <ele>344</ele>
        <time>2020-06-03T09:07:00Z</time>
      </trkpt>
      <trkpt lat="43.6291" lon="5.34117">
        <ele>344</ele>
        <time>2020-06-03T09:07:04Z</time>
      </trkpt>
      <trkpt lat="43.62909" lon="5.34113">
        <ele>344</ele>
        <time>2020-06-03T09:07:09Z</time>
      </trkpt>
      <trkpt lat="43.62905" lon="5.34104">
        <ele>344</ele>
        <time>2020-06-03T09:07:14Z</time>
      </trkpt>
      <trkpt lat="43.62904" lon="5.34103">
        <ele>344</ele>
        <time>2020-06-03T09:07:19Z</time>
      </trkpt>
      <trkpt lat="43.62903" lon="5.34101">
        <ele>344</ele>
        <time>2020-06-03T09:07:23Z</time>
      </trkpt>
      <trkpt lat="43.62903" lon="5.34096">
        <ele>344</ele>
        <time>2020-06-03T09:07:28Z</time>
      </trkpt>
      <trkpt lat="43.62902" lon="5.34096">
        <ele>344</ele>
        <time>2020-06-03T09:07:33Z</time>
      </trkpt>
      <trkpt lat="43.62899" lon="5.34095">
        <ele>344</ele>
        <time>2020-06-03T09:07:37Z</time>
      </trkpt>
      <trkpt lat="43.62894" lon="5.34092">
        <ele>344</ele>
        <time>2020-06-03T09:07:42Z</time>
      </trkpt>
      <trkpt lat="43.62886" lon="5.34089">
        <ele>344</ele>
        <time>2020-06-03T09:07:47Z</time>
      </trkpt>
      <trkpt lat="43.62882" lon="5.3409">
        <ele>344</ele>
        <time>2020-06-03T09:07:51Z</time>
      </trkpt>
      <trkpt lat="43.6288" lon="5.34091">
        <ele>344</ele>
        <time>2020-06-03T09:07:56Z</time>
      </trkpt>
      <trkpt lat="43.62876" lon="5.34092">
        <ele>344</ele>
        <time>2020-06-03T09:08:01Z</time>
      </trkpt>
      <trkpt lat="43.62868" lon="5.34096">
        <ele>343</ele>
        <time>2020-06-03T09:08:06Z</time>
      </trkpt>
      <trkpt lat="43.62865" lon="5.34099">
        <ele>343</ele>
        <time>2020-06-03T09:08:10Z</time>
      </trkpt>
      <trkpt lat="43.62863" lon="5.34102">
        <ele>343</ele>
        <time>2020-06-03T09:08:14Z</time>
      </trkpt>
      <trkpt lat="43.6286" lon="5.34104">
        <ele>343</ele>
        <time>2020-06-03T09:08:19Z</time>
      </trkpt>
      <trkpt lat="43.62855" lon="5.34109">
        <ele>343</ele>
        <time>2020-06-03T09:08:24Z</time>
      </trkpt>
      <trkpt lat="43.62852" lon="5.34112">
        <ele>343</ele>
        <time>2020-06-03T09:08:28Z</time>
      </trkpt>
      <trkpt lat="43.62849" lon="5.34114">
        <ele>343</ele>
        <time>2020-06-03T09:08:32Z</time>
      </trkpt>
      <trkpt lat="43.62846" lon="5.34114">
        <ele>343</ele>
        <time>2020-06-03T09:08:37Z</time>
      </trkpt>
      <trkpt lat="43.6284" lon="5.34114">
        <ele>343</ele>
        <time>2020-06-03T09:08:41Z</time>
      </trkpt>
      <trkpt lat="43.62837" lon="5.34113">
        <ele>343</ele>
        <time>2020-06-03T09:08:45Z</time>
      </trkpt>
      <trkpt lat="43.62833" lon="5.34117">
        <ele>341</ele>
        <time>2020-06-03T09:08:49Z</time>
      </trkpt>
      <trkpt lat="43.62831" lon="5.3412">
        <ele>341</ele>
        <time>2020-06-03T09:08:53Z</time>
      </trkpt>
      <trkpt lat="43.62826" lon="5.3412">
        <ele>341</ele>
        <time>2020-06-03T09:08:58Z</time>
      </trkpt>
      <trkpt lat="43.62821" lon="5.3412">
        <ele>341</ele>
        <time>2020-06-03T09:09:02Z</time>
      </trkpt>
      <trkpt lat="43.62815" lon="5.34119">
        <ele>341</ele>
        <time>2020-06-03T09:09:07Z</time>
      </trkpt>
      <trkpt lat="43.6281" lon="5.34118">
        <ele>340</ele>
        <time>2020-06-03T09:09:11Z</time>
      </trkpt>
      <trkpt lat="43.62805" lon="5.34117">
        <ele>340</ele>
        <time>2020-06-03T09:09:16Z</time>
      </trkpt>
      <trkpt lat="43.62799" lon="5.34114">
        <ele>340</ele>
        <time>2020-06-03T09:09:21Z</time>
      </trkpt>
      <trkpt lat="43.62793" lon="5.34111">
        <ele>340</ele>
        <time>2020-06-03T09:09:25Z</time>
      </trkpt>
      <trkpt lat="43.62792" lon="5.34109">
        <ele>340</ele>
        <time>2020-06-03T09:09:30Z</time>
      </trkpt>
      <trkpt lat="43.6279" lon="5.34107">
        <ele>340</ele>
        <time>2020-06-03T09:09:35Z</time>
      </trkpt>
      <trkpt lat="43.62785" lon="5.34101">
        <ele>339</ele>
        <time>2020-06-03T09:09:39Z</time>
      </trkpt>
      <trkpt lat="43.62781" lon="5.34097">
        <ele>339</ele>
        <time>2020-06-03T09:09:43Z</time>
      </trkpt>
      <trkpt lat="43.62779" lon="5.34093">
        <ele>339</ele>
        <time>2020-06-03T09:09:47Z</time>
      </trkpt>
      <trkpt lat="43.62777" lon="5.34088">
        <ele>339</ele>
        <time>2020-06-03T09:09:52Z</time>
      </trkpt>
      <trkpt lat="43.62776" lon="5.34084">
        <ele>339</ele>
        <time>2020-06-03T09:09:56Z</time>
      </trkpt>
      <trkpt lat="43.62775" lon="5.34078">
        <ele>339</ele>
        <time>2020-06-03T09:10:01Z</time>
      </trkpt>
      <trkpt lat="43.62773" lon="5.34073">
        <ele>339</ele>
        <time>2020-06-03T09:10:06Z</time>
      </trkpt>
      <trkpt lat="43.6277" lon="5.3407">
        <ele>339</ele>
        <time>2020-06-03T09:10:10Z</time>
      </trkpt>
      <trkpt lat="43.62766" lon="5.34069">
        <ele>339</ele>
        <time>2020-06-03T09:10:14Z</time>
      </trkpt>
      <trkpt lat="43.6276" lon="5.34067">
        <ele>339</ele>
        <time>2020-06-03T09:10:19Z</time>
      </trkpt>
      <trkpt lat="43.62756" lon="5.34066">
        <ele>338</ele>
        <time>2020-06-03T09:10:23Z</time>
      </trkpt>
      <trkpt lat="43.62751" lon="5.34064">
        <ele>338</ele>
        <time>2020-06-03T09:10:27Z</time>
      </trkpt>
      <trkpt lat="43.62746" lon="5.34057">
        <ele>336</ele>
        <time>2020-06-03T09:10:32Z</time>
      </trkpt>
      <trkpt lat="43.62746" lon="5.34051">
        <ele>336</ele>
        <time>2020-06-03T09:10:36Z</time>
      </trkpt>
      <trkpt lat="43.62747" lon="5.34049">
        <ele>336</ele>
        <time>2020-06-03T09:10:41Z</time>
      </trkpt>
      <trkpt lat="43.62747" lon="5.34045">
        <ele>336</ele>
        <time>2020-06-03T09:10:45Z</time>
      </trkpt>
      <trkpt lat="43.62744" lon="5.34042">
        <ele>336</ele>
        <time>2020-06-03T09:10:50Z</time>
      </trkpt>
      <trkpt lat="43.62739" lon="5.3404">
        <ele>336</ele>
        <time>2020-06-03T09:10:54Z</time>
      </trkpt>
      <trkpt lat="43.62737" lon="5.34038">
        <ele>336</ele>
        <time>2020-06-03T09:10:59Z</time>
      </trkpt>
      <trkpt lat="43.62735" lon="5.34037">
        <ele>336</ele>
        <time>2020-06-03T09:11:03Z</time>
      </trkpt>
      <trkpt lat="43.62732" lon="5.34035">
        <ele>336</ele>
        <time>2020-06-03T09:11:08Z</time>
      </trkpt>
      <trkpt lat="43.62728" lon="5.34032">
        <ele>336</ele>
        <time>2020-06-03T09:11:13Z</time>
      </trkpt>
      <trkpt lat="43.62724" lon="5.34029">
        <ele>336</ele>
        <time>2020-06-03T09:11:18Z</time>
      </trkpt>
      <trkpt lat="43.6272" lon="5.34027">
        <ele>335</ele>
        <time>2020-06-03T09:11:22Z</time>
      </trkpt>
      <trkpt lat="43.62715" lon="5.34024">
        <ele>335</ele>
        <time>2020-06-03T09:11:26Z</time>
      </trkpt>
      <trkpt lat="43.62713" lon="5.34021">
        <ele>335</ele>
        <time>2020-06-03T09:11:30Z</time>
      </trkpt>
      <trkpt lat="43.62711" lon="5.34018">
        <ele>335</ele>
        <time>2020-06-03T09:11:34Z</time>
      </trkpt>
      <trkpt lat="43.62708" lon="5.34018">
        <ele>335</ele>
        <time>2020-06-03T09:11:38Z</time>
      </trkpt>
      <trkpt lat="43.62703" lon="5.34016">
        <ele>335</ele>
        <time>2020-06-03T09:11:42Z</time>
      </trkpt>
      <trkpt lat="43.62698" lon="5.34016">
        <ele>335</ele>
        <time>2020-06-03T09:11:46Z</time>
      </trkpt>
      <trkpt lat="43.62692" lon="5.34015">
        <ele>334</ele>
        <time>2020-06-03T09:11:51Z</time>
      </trkpt>
      <trkpt lat="43.62689" lon="5.34014">
        <ele>334</ele>
        <time>2020-06-03T09:11:55Z</time>
      </trkpt>
      <trkpt lat="43.62684" lon="5.34014">
        <ele>334</ele>
        <time>2020-06-03T09:12:00Z</time>
      </trkpt>
      <trkpt lat="43.62681" lon="5.34011">
        <ele>334</ele>
        <time>2020-06-03T09:12:04Z</time>
      </trkpt>
      <trkpt lat="43.62679" lon="5.34008">
        <ele>334</ele>
        <time>2020-06-03T09:12:08Z</time>
      </trkpt>
      <trkpt lat="43.62675" lon="5.34006">
        <ele>334</ele>
        <time>2020-06-03T09:12:12Z</time>
      </trkpt>
      <trkpt lat="43.6267" lon="5.34004">
        <ele>333</ele>
        <time>2020-06-03T09:12:17Z</time>
      </trkpt>
      <trkpt lat="43.62667" lon="5.34005">
        <ele>333</ele>
        <time>2020-06-03T09:12:22Z</time>
      </trkpt>
      <trkpt lat="43.62663" lon="5.34005">
        <ele>332</ele>
        <time>2020-06-03T09:12:26Z</time>
      </trkpt>
      <trkpt lat="43.62659" lon="5.34004">
        <ele>331</ele>
        <time>2020-06-03T09:12:30Z</time>
      </trkpt>
      <trkpt lat="43.62656" lon="5.34">
        <ele>331</ele>
        <time>2020-06-03T09:12:35Z</time>
      </trkpt>
      <trkpt lat="43.62652" lon="5.33992">
        <ele>330</ele>
        <time>2020-06-03T09:12:39Z</time>
      </trkpt>
      <trkpt lat="43.62651" lon="5.33988">
        <ele>329</ele>
        <time>2020-06-03T09:12:43Z</time>
      </trkpt>
      <trkpt lat="43.62646" lon="5.33984">
        <ele>329</ele>
        <time>2020-06-03T09:12:48Z</time>
      </trkpt>
      <trkpt lat="43.62642" lon="5.33979">
        <ele>328</ele>
        <time>2020-06-03T09:12:52Z</time>
      </trkpt>
      <trkpt lat="43.62638" lon="5.33975">
        <ele>328</ele>
        <time>2020-06-03T09:12:57Z</time>
      </trkpt>
      <trkpt lat="43.62635" lon="5.33972">
        <ele>328</ele>
        <time>2020-06-03T09:13:01Z</time>
      </trkpt>
      <trkpt lat="43.62633" lon="5.3397">
        <ele>327</ele>
        <time>2020-06-03T09:13:05Z</time>
      </trkpt>
      <trkpt lat="43.6263" lon="5.33969">
        <ele>327</ele>
        <time>2020-06-03T09:13:09Z</time>
      </trkpt>
      <trkpt lat="43.62626" lon="5.33968">
        <ele>327</ele>
        <time>2020-06-03T09:13:13Z</time>
      </trkpt>
      <trkpt lat="43.62622" lon="5.33968">
        <ele>327</ele>
        <time>2020-06-03T09:13:18Z</time>
      </trkpt>
      <trkpt lat="43.62618" lon="5.33969">
        <ele>327</ele>
        <time>2020-06-03T09:13:23Z</time>
      </trkpt>
      <trkpt lat="43.62614" lon="5.33968">
        <ele>326</ele>
        <time>2020-06-03T09:13:27Z</time>
      </trkpt>
      <trkpt lat="43.62609" lon="5.3397">
        <ele>326</ele>
        <time>2020-06-03T09:13:32Z</time>
      </trkpt>
      <trkpt lat="43.62604" lon="5.3397">
        <ele>326</ele>
        <time>2020-06-03T09:13:36Z</time>
      </trkpt>
      <trkpt lat="43.626" lon="5.33969">
        <ele>326</ele>
        <time>2020-06-03T09:13:40Z</time>
      </trkpt>
      <trkpt lat="43.62594" lon="5.33967">
        <ele>326</ele>
        <time>2020-06-03T09:13:45Z</time>
      </trkpt>
      <trkpt lat="43.62589" lon="5.33965">
        <ele>326</ele>
        <time>2020-06-03T09:13:50Z</time>
      </trkpt>
      <trkpt lat="43.62588" lon="5.33965">
        <ele>325</ele>
        <time>2020-06-03T09:13:54Z</time>
      </trkpt>
      <trkpt lat="43.62581" lon="5.33964">
        <ele>321</ele>
        <time>2020-06-03T09:13:59Z</time>
      </trkpt>
      <trkpt lat="43.62577" lon="5.33963">
        <ele>321</ele>
        <time>2020-06-03T09:14:03Z</time>
      </trkpt>
      <trkpt lat="43.62576" lon="5.33962">
        <ele>321</ele>
        <time>2020-06-03T09:14:07Z</time>
      </trkpt>
      <trkpt lat="43.62571" lon="5.33963">
        <ele>321</ele>
        <time>2020-06-03T09:14:12Z</time>
      </trkpt>
      <trkpt lat="43.62569" lon="5.33963">
        <ele>321</ele>
        <time>2020-06-03T09:14:16Z</time>
      </trkpt>
      <trkpt lat="43.62569" lon="5.33962">
        <ele>321</ele>
        <time>2020-06-03T09:14:26Z</time>
      </trkpt>
      <trkpt lat="43.62566" lon="5.33965">
        <ele>321</ele>
        <time>2020-06-03T09:14:30Z</time>
      </trkpt>
      <trkpt lat="43.6256" lon="5.33965">
        <ele>321</ele>
        <time>2020-06-03T09:14:35Z</time>
      </trkpt>
      <trkpt lat="43.62553" lon="5.33967">
        <ele>320</ele>
        <time>2020-06-03T09:14:39Z</time>
      </trkpt>
      <trkpt lat="43.6255" lon="5.33965">
        <ele>320</ele>
        <time>2020-06-03T09:14:43Z</time>
      </trkpt>
      <trkpt lat="43.62547" lon="5.33963">
        <ele>320</ele>
        <time>2020-06-03T09:14:47Z</time>
      </trkpt>
      <trkpt lat="43.62545" lon="5.3396">
        <ele>320</ele>
        <time>2020-06-03T09:14:52Z</time>
      </trkpt>
      <trkpt lat="43.62542" lon="5.33959">
        <ele>320</ele>
        <time>2020-06-03T09:14:56Z</time>
      </trkpt>
      <trkpt lat="43.62542" lon="5.33961">
        <ele>320</ele>
        <time>2020-06-03T09:15:01Z</time>
      </trkpt>
      <trkpt lat="43.62543" lon="5.33961">
        <ele>320</ele>
        <time>2020-06-03T09:15:14Z</time>
      </trkpt>
      <trkpt lat="43.62544" lon="5.33961">
        <ele>320</ele>
        <time>2020-06-03T09:15:19Z</time>
      </trkpt>
      <trkpt lat="43.62545" lon="5.33961">
        <ele>320</ele>
        <time>2020-06-03T09:15:33Z</time>
      </trkpt>
      <trkpt lat="43.62546" lon="5.33961">
        <ele>320</ele>
        <time>2020-06-03T09:15:38Z</time>
      </trkpt>
      <trkpt lat="43.62547" lon="5.33962">
        <ele>320</ele>
        <time>2020-06-03T09:15:47Z</time>
      </trkpt>
      <trkpt lat="43.62546" lon="5.33962">
        <ele>320</ele>
        <time>2020-06-03T09:15:54Z</time>
      </trkpt>
      <trkpt lat="43.6254" lon="5.33968">
        <ele>320</ele>
        <time>2020-06-03T09:15:58Z</time>
      </trkpt>
      <trkpt lat="43.62536" lon="5.33974">
        <ele>320</ele>
        <time>2020-06-03T09:16:02Z</time>
      </trkpt>
      <trkpt lat="43.62535" lon="5.33969">
        <ele>320</ele>
        <time>2020-06-03T09:16:06Z</time>
      </trkpt>
      <trkpt lat="43.62535" lon="5.33964">
        <ele>320</ele>
        <time>2020-06-03T09:16:11Z</time>
      </trkpt>
      <trkpt lat="43.62536" lon="5.33963">
        <ele>320</ele>
        <time>2020-06-03T09:16:19Z</time>
      </trkpt>
      <trkpt lat="43.62534" lon="5.33967">
        <ele>320</ele>
        <time>2020-06-03T09:16:23Z</time>
      </trkpt>
      <trkpt lat="43.62532" lon="5.33972">
        <ele>320</ele>
        <time>2020-06-03T09:16:28Z</time>
      </trkpt>
      <trkpt lat="43.62532" lon="5.33977">
        <ele>320</ele>
        <time>2020-06-03T09:16:32Z</time>
      </trkpt>
      <trkpt lat="43.62532" lon="5.33986">
        <ele>320</ele>
        <time>2020-06-03T09:16:37Z</time>
      </trkpt>
      <trkpt lat="43.62533" lon="5.33996">
        <ele>320</ele>
        <time>2020-06-03T09:16:42Z</time>
      </trkpt>
      <trkpt lat="43.62534" lon="5.34002">
        <ele>321</ele>
        <time>2020-06-03T09:16:46Z</time>
      </trkpt>
      <trkpt lat="43.62535" lon="5.34009">
        <ele>321</ele>
        <time>2020-06-03T09:16:50Z</time>
      </trkpt>
      <trkpt lat="43.6254" lon="5.34014">
        <ele>322</ele>
        <time>2020-06-03T09:16:54Z</time>
      </trkpt>
      <trkpt lat="43.6254" lon="5.34022">
        <ele>322</ele>
        <time>2020-06-03T09:16:59Z</time>
      </trkpt>
      <trkpt lat="43.62542" lon="5.34028">
        <ele>322</ele>
        <time>2020-06-03T09:17:03Z</time>
      </trkpt>
      <trkpt lat="43.62544" lon="5.34031">
        <ele>322</ele>
        <time>2020-06-03T09:17:07Z</time>
      </trkpt>
      <trkpt lat="43.62548" lon="5.34036">
        <ele>322</ele>
        <time>2020-06-03T09:17:12Z</time>
      </trkpt>
      <trkpt lat="43.62553" lon="5.34042">
        <ele>322</ele>
        <time>2020-06-03T09:17:17Z</time>
      </trkpt>
      <trkpt lat="43.62556" lon="5.34044">
        <ele>322</ele>
        <time>2020-06-03T09:17:22Z</time>
      </trkpt>
      <trkpt lat="43.62559" lon="5.34045">
        <ele>322</ele>
        <time>2020-06-03T09:17:26Z</time>
      </trkpt>
      <trkpt lat="43.62561" lon="5.34047">
        <ele>322</ele>
        <time>2020-06-03T09:17:31Z</time>
      </trkpt>
      <trkpt lat="43.62569" lon="5.34053">
        <ele>323</ele>
        <time>2020-06-03T09:17:36Z</time>
      </trkpt>
      <trkpt lat="43.62576" lon="5.34059">
        <ele>323</ele>
        <time>2020-06-03T09:17:40Z</time>
      </trkpt>
      <trkpt lat="43.62582" lon="5.34063">
        <ele>323</ele>
        <time>2020-06-03T09:17:44Z</time>
      </trkpt>
      <trkpt lat="43.62587" lon="5.34064">
        <ele>326</ele>
        <time>2020-06-03T09:17:48Z</time>
      </trkpt>
      <trkpt lat="43.62594" lon="5.34067">
        <ele>326</ele>
        <time>2020-06-03T09:17:52Z</time>
      </trkpt>
      <trkpt lat="43.62601" lon="5.3407">
        <ele>327</ele>
        <time>2020-06-03T09:17:57Z</time>
      </trkpt>
      <trkpt lat="43.62605" lon="5.34074">
        <ele>327</ele>
        <time>2020-06-03T09:18:01Z</time>
      </trkpt>
      <trkpt lat="43.62609" lon="5.34078">
        <ele>327</ele>
        <time>2020-06-03T09:18:05Z</time>
      </trkpt>
      <trkpt lat="43.62613" lon="5.34081">
        <ele>327</ele>
        <time>2020-06-03T09:18:09Z</time>
      </trkpt>
      <trkpt lat="43.62617" lon="5.34083">
        <ele>327</ele>
        <time>2020-06-03T09:18:13Z</time>
      </trkpt>
      <trkpt lat="43.62624" lon="5.34085">
        <ele>329</ele>
        <time>2020-06-03T09:18:18Z</time>
      </trkpt>
      <trkpt lat="43.62629" lon="5.34088">
        <ele>329</ele>
        <time>2020-06-03T09:18:22Z</time>
      </trkpt>
      <trkpt lat="43.62633" lon="5.3409">
        <ele>329</ele>
        <time>2020-06-03T09:18:26Z</time>
      </trkpt>
      <trkpt lat="43.62637" lon="5.34092">
        <ele>329</ele>
        <time>2020-06-03T09:18:30Z</time>
      </trkpt>
      <trkpt lat="43.62636" lon="5.34094">
        <ele>329</ele>
        <time>2020-06-03T09:18:34Z</time>
      </trkpt>
      <trkpt lat="43.62636" lon="5.34099">
        <ele>329</ele>
        <time>2020-06-03T09:18:38Z</time>
      </trkpt>
      <trkpt lat="43.62635" lon="5.34102">
        <ele>329</ele>
        <time>2020-06-03T09:18:42Z</time>
      </trkpt>
      <trkpt lat="43.62632" lon="5.34109">
        <ele>329</ele>
        <time>2020-06-03T09:18:47Z</time>
      </trkpt>
      <trkpt lat="43.6263" lon="5.34114">
        <ele>329</ele>
        <time>2020-06-03T09:18:51Z</time>
      </trkpt>
      <trkpt lat="43.62628" lon="5.3412">
        <ele>329</ele>
        <time>2020-06-03T09:18:55Z</time>
      </trkpt>
      <trkpt lat="43.62625" lon="5.34127">
        <ele>329</ele>
        <time>2020-06-03T09:19:00Z</time>
      </trkpt>
      <trkpt lat="43.62623" lon="5.3413">
        <ele>329</ele>
        <time>2020-06-03T09:19:04Z</time>
      </trkpt>
      <trkpt lat="43.62619" lon="5.34132">
        <ele>329</ele>
        <time>2020-06-03T09:19:08Z</time>
      </trkpt>
      <trkpt lat="43.62614" lon="5.34133">
        <ele>329</ele>
        <time>2020-06-03T09:19:12Z</time>
      </trkpt>
      <trkpt lat="43.62606" lon="5.34134">
        <ele>329</ele>
        <time>2020-06-03T09:19:17Z</time>
      </trkpt>
      <trkpt lat="43.62605" lon="5.34134">
        <ele>329</ele>
        <time>2020-06-03T09:19:21Z</time>
      </trkpt>
      <trkpt lat="43.62602" lon="5.34136">
        <ele>329</ele>
        <time>2020-06-03T09:19:26Z</time>
      </trkpt>
      <trkpt lat="43.62599" lon="5.34137">
        <ele>329</ele>
        <time>2020-06-03T09:19:30Z</time>
      </trkpt>
      <trkpt lat="43.62593" lon="5.34139">
        <ele>329</ele>
        <time>2020-06-03T09:19:35Z</time>
      </trkpt>
      <trkpt lat="43.62588" lon="5.3414">
        <ele>329</ele>
        <time>2020-06-03T09:19:40Z</time>
      </trkpt>
      <trkpt lat="43.62581" lon="5.34141">
        <ele>327</ele>
        <time>2020-06-03T09:19:45Z</time>
      </trkpt>
      <trkpt lat="43.62579" lon="5.34139">
        <ele>327</ele>
        <time>2020-06-03T09:19:49Z</time>
      </trkpt>
      <trkpt lat="43.62576" lon="5.34139">
        <ele>327</ele>
        <time>2020-06-03T09:19:54Z</time>
      </trkpt>
      <trkpt lat="43.62571" lon="5.34139">
        <ele>327</ele>
        <time>2020-06-03T09:19:58Z</time>
      </trkpt>
      <trkpt lat="43.62568" lon="5.3414">
        <ele>327</ele>
        <time>2020-06-03T09:20:02Z</time>
      </trkpt>
      <trkpt lat="43.62563" lon="5.34139">
        <ele>327</ele>
        <time>2020-06-03T09:20:07Z</time>
      </trkpt>
      <trkpt lat="43.62557" lon="5.34138">
        <ele>326</ele>
        <time>2020-06-03T09:20:11Z</time>
      </trkpt>
      <trkpt lat="43.62552" lon="5.34139">
        <ele>326</ele>
        <time>2020-06-03T09:20:16Z</time>
      </trkpt>
      <trkpt lat="43.62548" lon="5.34141">
        <ele>326</ele>
        <time>2020-06-03T09:20:20Z</time>
      </trkpt>
      <trkpt lat="43.62544" lon="5.34143">
        <ele>326</ele>
        <time>2020-06-03T09:20:24Z</time>
      </trkpt>
      <trkpt lat="43.62538" lon="5.34147">
        <ele>326</ele>
        <time>2020-06-03T09:20:29Z</time>
      </trkpt>
      <trkpt lat="43.62534" lon="5.34149">
        <ele>326</ele>
        <time>2020-06-03T09:20:33Z</time>
      </trkpt>
      <trkpt lat="43.62528" lon="5.34152">
        <ele>326</ele>
        <time>2020-06-03T09:20:37Z</time>
      </trkpt>
      <trkpt lat="43.62522" lon="5.34155">
        <ele>326</ele>
        <time>2020-06-03T09:20:41Z</time>
      </trkpt>
      <trkpt lat="43.62516" lon="5.34156">
        <ele>326</ele>
        <time>2020-06-03T09:20:46Z</time>
      </trkpt>
      <trkpt lat="43.62508" lon="5.34156">
        <ele>326</ele>
        <time>2020-06-03T09:20:51Z</time>
      </trkpt>
      <trkpt lat="43.62503" lon="5.34157">
        <ele>326</ele>
        <time>2020-06-03T09:20:56Z</time>
      </trkpt>
      <trkpt lat="43.62498" lon="5.34159">
        <ele>324</ele>
        <time>2020-06-03T09:21:00Z</time>
      </trkpt>
      <trkpt lat="43.62495" lon="5.3416">
        <ele>324</ele>
        <time>2020-06-03T09:21:04Z</time>
      </trkpt>
      <trkpt lat="43.62489" lon="5.34162">
        <ele>324</ele>
        <time>2020-06-03T09:21:09Z</time>
      </trkpt>
      <trkpt lat="43.62483" lon="5.34163">
        <ele>323</ele>
        <time>2020-06-03T09:21:13Z</time>
      </trkpt>
      <trkpt lat="43.62478" lon="5.34163">
        <ele>322</ele>
        <time>2020-06-03T09:21:18Z</time>
      </trkpt>
      <trkpt lat="43.62472" lon="5.34164">
        <ele>322</ele>
        <time>2020-06-03T09:21:22Z</time>
      </trkpt>
      <trkpt lat="43.62467" lon="5.34165">
        <ele>321</ele>
        <time>2020-06-03T09:21:26Z</time>
      </trkpt>
      <trkpt lat="43.62463" lon="5.34166">
        <ele>321</ele>
        <time>2020-06-03T09:21:30Z</time>
      </trkpt>
      <trkpt lat="43.62459" lon="5.34167">
        <ele>325</ele>
        <time>2020-06-03T09:21:35Z</time>
      </trkpt>
      <trkpt lat="43.62454" lon="5.34168">
        <ele>325</ele>
        <time>2020-06-03T09:21:40Z</time>
      </trkpt>
      <trkpt lat="43.6245" lon="5.34169">
        <ele>324</ele>
        <time>2020-06-03T09:21:44Z</time>
      </trkpt>
      <trkpt lat="43.62446" lon="5.3417">
        <ele>324</ele>
        <time>2020-06-03T09:21:48Z</time>
      </trkpt>
      <trkpt lat="43.62442" lon="5.3417">
        <ele>324</ele>
        <time>2020-06-03T09:21:52Z</time>
      </trkpt>
      <trkpt lat="43.62437" lon="5.34173">
        <ele>323</ele>
        <time>2020-06-03T09:21:57Z</time>
      </trkpt>
      <trkpt lat="43.62435" lon="5.34174">
        <ele>323</ele>
        <time>2020-06-03T09:22:01Z</time>
      </trkpt>
      <trkpt lat="43.62434" lon="5.34177">
        <ele>323</ele>
        <time>2020-06-03T09:22:05Z</time>
      </trkpt>
      <trkpt lat="43.62431" lon="5.34182">
        <ele>323</ele>
        <time>2020-06-03T09:22:09Z</time>
      </trkpt>
      <trkpt lat="43.62429" lon="5.34187">
        <ele>324</ele>
        <time>2020-06-03T09:22:14Z</time>
      </trkpt>
      <trkpt lat="43.62425" lon="5.34193">
        <ele>324</ele>
        <time>2020-06-03T09:22:18Z</time>
      </trkpt>
      <trkpt lat="43.62421" lon="5.34201">
        <ele>324</ele>
        <time>2020-06-03T09:22:23Z</time>
      </trkpt>
      <trkpt lat="43.6242" lon="5.34207">
        <ele>325</ele>
        <time>2020-06-03T09:22:27Z</time>
      </trkpt>
      <trkpt lat="43.62418" lon="5.34212">
        <ele>325</ele>
        <time>2020-06-03T09:22:31Z</time>
      </trkpt>
      <trkpt lat="43.62418" lon="5.34218">
        <ele>325</ele>
        <time>2020-06-03T09:22:36Z</time>
      </trkpt>
      <trkpt lat="43.62418" lon="5.34223">
        <ele>325</ele>
        <time>2020-06-03T09:22:40Z</time>
      </trkpt>
      <trkpt lat="43.62417" lon="5.34231">
        <ele>325</ele>
        <time>2020-06-03T09:22:45Z</time>
      </trkpt>
      <trkpt lat="43.62418" lon="5.3424">
        <ele>325</ele>
        <time>2020-06-03T09:22:50Z</time>
      </trkpt>
      <trkpt lat="43.6242" lon="5.3425">
        <ele>326</ele>
        <time>2020-06-03T09:22:55Z</time>
      </trkpt>
      <trkpt lat="43.62423" lon="5.34257">
        <ele>327</ele>
        <time>2020-06-03T09:22:59Z</time>
      </trkpt>
      <trkpt lat="43.62426" lon="5.34263">
        <ele>328</ele>
        <time>2020-06-03T09:23:04Z</time>
      </trkpt>
      <trkpt lat="43.62432" lon="5.34267">
        <ele>328</ele>
        <time>2020-06-03T09:23:09Z</time>
      </trkpt>
      <trkpt lat="43.62439" lon="5.34273">
        <ele>329</ele>
        <time>2020-06-03T09:23:14Z</time>
      </trkpt>
      <trkpt lat="43.62443" lon="5.34276">
        <ele>329</ele>
        <time>2020-06-03T09:23:18Z</time>
      </trkpt>
      <trkpt lat="43.62447" lon="5.34278">
        <ele>330</ele>
        <time>2020-06-03T09:23:22Z</time>
      </trkpt>
      <trkpt lat="43.62452" lon="5.34282">
        <ele>330</ele>
        <time>2020-06-03T09:23:26Z</time>
      </trkpt>
      <trkpt lat="43.62456" lon="5.34285">
        <ele>330</ele>
        <time>2020-06-03T09:23:30Z</time>
      </trkpt>
      <trkpt lat="43.62458" lon="5.34287">
        <ele>330</ele>
        <time>2020-06-03T09:23:34Z</time>
      </trkpt>
      <trkpt lat="43.6246" lon="5.34292">
        <ele>331</ele>
        <time>2020-06-03T09:23:38Z</time>
      </trkpt>
      <trkpt lat="43.6246" lon="5.34296">
        <ele>331</ele>
        <time>2020-06-03T09:23:42Z</time>
      </trkpt>
      <trkpt lat="43.6246" lon="5.343">
        <ele>331</ele>
        <time>2020-06-03T09:23:47Z</time>
      </trkpt>
      <trkpt lat="43.62459" lon="5.34299">
        <ele>331</ele>
        <time>2020-06-03T09:23:51Z</time>
      </trkpt>
      <trkpt lat="43.62459" lon="5.34299">
        <ele>331</ele>
        <time>2020-06-03T09:23:56Z</time>
      </trkpt>
      <trkpt lat="43.62456" lon="5.34307">
        <ele>331</ele>
        <time>2020-06-03T09:24:00Z</time>
      </trkpt>
      <trkpt lat="43.62455" lon="5.34314">
        <ele>331</ele>
        <time>2020-06-03T09:24:05Z</time>
      </trkpt>
      <trkpt lat="43.62452" lon="5.34317">
        <ele>331</ele>
        <time>2020-06-03T09:24:09Z</time>
      </trkpt>
      <trkpt lat="43.62447" lon="5.3432">
        <ele>330</ele>
        <time>2020-06-03T09:24:14Z</time>
      </trkpt>
      <trkpt lat="43.62442" lon="5.34321">
        <ele>330</ele>
        <time>2020-06-03T09:24:19Z</time>
      </trkpt>
      <trkpt lat="43.62439" lon="5.34322">
        <ele>330</ele>
        <time>2020-06-03T09:24:23Z</time>
      </trkpt>
      <trkpt lat="43.62433" lon="5.34321">
        <ele>330</ele>
        <time>2020-06-03T09:24:28Z</time>
      </trkpt>
      <trkpt lat="43.62426" lon="5.34319">
        <ele>330</ele>
        <time>2020-06-03T09:24:32Z</time>
      </trkpt>
      <trkpt lat="43.62421" lon="5.34319">
        <ele>330</ele>
        <time>2020-06-03T09:24:37Z</time>
      </trkpt>
      <trkpt lat="43.62416" lon="5.3432">
        <ele>326</ele>
        <time>2020-06-03T09:24:41Z</time>
      </trkpt>
      <trkpt lat="43.62408" lon="5.34321">
        <ele>326</ele>
        <time>2020-06-03T09:24:46Z</time>
      </trkpt>
      <trkpt lat="43.62403" lon="5.34321">
        <ele>325</ele>
        <time>2020-06-03T09:24:50Z</time>
      </trkpt>
      <trkpt lat="43.624" lon="5.3432">
        <ele>325</ele>
        <time>2020-06-03T09:24:54Z</time>
      </trkpt>
      <trkpt lat="43.62396" lon="5.34319">
        <ele>325</ele>
        <time>2020-06-03T09:24:59Z</time>
      </trkpt>
      <trkpt lat="43.62392" lon="5.34322">
        <ele>324</ele>
        <time>2020-06-03T09:25:03Z</time>
      </trkpt>
      <trkpt lat="43.62386" lon="5.34327">
        <ele>324</ele>
        <time>2020-06-03T09:25:08Z</time>
      </trkpt>
      <trkpt lat="43.62383" lon="5.34332">
        <ele>323</ele>
        <time>2020-06-03T09:25:13Z</time>
      </trkpt>
      <trkpt lat="43.62379" lon="5.34337">
        <ele>325</ele>
        <time>2020-06-03T09:25:17Z</time>
      </trkpt>
      <trkpt lat="43.62375" lon="5.3434">
        <ele>325</ele>
        <time>2020-06-03T09:25:22Z</time>
      </trkpt>
      <trkpt lat="43.62372" lon="5.34346">
        <ele>324</ele>
        <time>2020-06-03T09:25:26Z</time>
      </trkpt>
      <trkpt lat="43.62369" lon="5.34353">
        <ele>324</ele>
        <time>2020-06-03T09:25:31Z</time>
      </trkpt>
      <trkpt lat="43.62366" lon="5.34359">
        <ele>324</ele>
        <time>2020-06-03T09:25:35Z</time>
      </trkpt>
      <trkpt lat="43.62363" lon="5.34363">
        <ele>324</ele>
        <time>2020-06-03T09:25:39Z</time>
      </trkpt>
      <trkpt lat="43.62361" lon="5.34369">
        <ele>324</ele>
        <time>2020-06-03T09:25:43Z</time>
      </trkpt>
      <trkpt lat="43.62359" lon="5.34374">
        <ele>324</ele>
        <time>2020-06-03T09:25:47Z</time>
      </trkpt>
      <trkpt lat="43.62359" lon="5.34381">
        <ele>324</ele>
        <time>2020-06-03T09:25:52Z</time>
      </trkpt>
      <trkpt lat="43.62359" lon="5.34389">
        <ele>324</ele>
        <time>2020-06-03T09:25:56Z</time>
      </trkpt>
      <trkpt lat="43.6236" lon="5.34395">
        <ele>325</ele>
        <time>2020-06-03T09:26:00Z</time>
      </trkpt>
      <trkpt lat="43.62361" lon="5.344">
        <ele>325</ele>
        <time>2020-06-03T09:26:04Z</time>
      </trkpt>
      <trkpt lat="43.62365" lon="5.34408">
        <ele>325</ele>
        <time>2020-06-03T09:26:09Z</time>
      </trkpt>
      <trkpt lat="43.62368" lon="5.34412">
        <ele>325</ele>
        <time>2020-06-03T09:26:14Z</time>
      </trkpt>
      <trkpt lat="43.62371" lon="5.34416">
        <ele>326</ele>
        <time>2020-06-03T09:26:18Z</time>
      </trkpt>
      <trkpt lat="43.62376" lon="5.34423">
        <ele>329</ele>
        <time>2020-06-03T09:26:23Z</time>
      </trkpt>
      <trkpt lat="43.6238" lon="5.34428">
        <ele>329</ele>
        <time>2020-06-03T09:26:28Z</time>
      </trkpt>
      <trkpt lat="43.62383" lon="5.34433">
        <ele>329</ele>
        <time>2020-06-03T09:26:32Z</time>
      </trkpt>
      <trkpt lat="43.62385" lon="5.34438">
        <ele>329</ele>
        <time>2020-06-03T09:26:37Z</time>
      </trkpt>
      <trkpt lat="43.62386" lon="5.34443">
        <ele>329</ele>
        <time>2020-06-03T09:26:41Z</time>
      </trkpt>
      <trkpt lat="43.62388" lon="5.3445">
        <ele>330</ele>
        <time>2020-06-03T09:26:46Z</time>
      </trkpt>
      <trkpt lat="43.62389" lon="5.34457">
        <ele>330</ele>
        <time>2020-06-03T09:26:51Z</time>
      </trkpt>
      <trkpt lat="43.6239" lon="5.34462">
        <ele>330</ele>
        <time>2020-06-03T09:26:55Z</time>
      </trkpt>
      <trkpt lat="43.62391" lon="5.34467">
        <ele>330</ele>
        <time>2020-06-03T09:26:59Z</time>
      </trkpt>
      <trkpt lat="43.62392" lon="5.34474">
        <ele>330</ele>
        <time>2020-06-03T09:27:04Z</time>
      </trkpt>
      <trkpt lat="43.6239" lon="5.3448">
        <ele>330</ele>
        <time>2020-06-03T09:27:09Z</time>
      </trkpt>
      <trkpt lat="43.62387" lon="5.34484">
        <ele>330</ele>
        <time>2020-06-03T09:27:13Z</time>
      </trkpt>
      <trkpt lat="43.62383" lon="5.34488">
        <ele>330</ele>
        <time>2020-06-03T09:27:17Z</time>
      </trkpt>
      <trkpt lat="43.6238" lon="5.34491">
        <ele>330</ele>
        <time>2020-06-03T09:27:22Z</time>
      </trkpt>
      <trkpt lat="43.62377" lon="5.34493">
        <ele>330</ele>
        <time>2020-06-03T09:27:26Z</time>
      </trkpt>
      <trkpt lat="43.6237" lon="5.34496">
        <ele>330</ele>
        <time>2020-06-03T09:27:31Z</time>
      </trkpt>
      <trkpt lat="43.62364" lon="5.34493">
        <ele>330</ele>
        <time>2020-06-03T09:27:35Z</time>
      </trkpt>
      <trkpt lat="43.62361" lon="5.34491">
        <ele>330</ele>
        <time>2020-06-03T09:27:39Z</time>
      </trkpt>
      <trkpt lat="43.62358" lon="5.34489">
        <ele>330</ele>
        <time>2020-06-03T09:27:44Z</time>
      </trkpt>
      <trkpt lat="43.62353" lon="5.34485">
        <ele>329</ele>
        <time>2020-06-03T09:27:49Z</time>
      </trkpt>
      <trkpt lat="43.62349" lon="5.34482">
        <ele>329</ele>
        <time>2020-06-03T09:27:53Z</time>
      </trkpt>
      <trkpt lat="43.62346" lon="5.34478">
        <ele>329</ele>
        <time>2020-06-03T09:27:57Z</time>
      </trkpt>
      <trkpt lat="43.62341" lon="5.34474">
        <ele>329</ele>
        <time>2020-06-03T09:28:02Z</time>
      </trkpt>
      <trkpt lat="43.62336" lon="5.34471">
        <ele>329</ele>
        <time>2020-06-03T09:28:07Z</time>
      </trkpt>
      <trkpt lat="43.62333" lon="5.3447">
        <ele>326</ele>
        <time>2020-06-03T09:28:11Z</time>
      </trkpt>
      <trkpt lat="43.6233" lon="5.34469">
        <ele>326</ele>
        <time>2020-06-03T09:28:15Z</time>
      </trkpt>
      <trkpt lat="43.62326" lon="5.34466">
        <ele>326</ele>
        <time>2020-06-03T09:28:19Z</time>
      </trkpt>
      <trkpt lat="43.62324" lon="5.34464">
        <ele>326</ele>
        <time>2020-06-03T09:28:23Z</time>
      </trkpt>
      <trkpt lat="43.62318" lon="5.34462">
        <ele>326</ele>
        <time>2020-06-03T09:28:28Z</time>
      </trkpt>
      <trkpt lat="43.62315" lon="5.34462">
        <ele>326</ele>
        <time>2020-06-03T09:28:32Z</time>
      </trkpt>
      <trkpt lat="43.62312" lon="5.34463">
        <ele>326</ele>
        <time>2020-06-03T09:28:36Z</time>
      </trkpt>
      <trkpt lat="43.62304" lon="5.34468">
        <ele>326</ele>
        <time>2020-06-03T09:28:41Z</time>
      </trkpt>
      <trkpt lat="43.62299" lon="5.34469">
        <ele>326</ele>
        <time>2020-06-03T09:28:45Z</time>
      </trkpt>
      <trkpt lat="43.62295" lon="5.34471">
        <ele>326</ele>
        <time>2020-06-03T09:28:50Z</time>
      </trkpt>
      <trkpt lat="43.62291" lon="5.34472">
        <ele>326</ele>
        <time>2020-06-03T09:28:54Z</time>
      </trkpt>
      <trkpt lat="43.62285" lon="5.34474">
        <ele>326</ele>
        <time>2020-06-03T09:28:59Z</time>
      </trkpt>
      <trkpt lat="43.62281" lon="5.34476">
        <ele>326</ele>
        <time>2020-06-03T09:29:03Z</time>
      </trkpt>
      <trkpt lat="43.62279" lon="5.34477">
        <ele>326</ele>
        <time>2020-06-03T09:29:07Z</time>
      </trkpt>
      <trkpt lat="43.62275" lon="5.34478">
        <ele>326</ele>
        <time>2020-06-03T09:29:12Z</time>
      </trkpt>
      <trkpt lat="43.62274" lon="5.34478">
        <ele>326</ele>
        <time>2020-06-03T09:29:18Z</time>
      </trkpt>
      <trkpt lat="43.62274" lon="5.34477">
        <ele>326</ele>
        <time>2020-06-03T09:29:32Z</time>
      </trkpt>
      <trkpt lat="43.62274" lon="5.34476">
        <ele>326</ele>
        <time>2020-06-03T09:29:38Z</time>
      </trkpt>
      <trkpt lat="43.62274" lon="5.34477">
        <ele>326</ele>
        <time>2020-06-03T09:29:48Z</time>
      </trkpt>
      <trkpt lat="43.6227" lon="5.34479">
        <ele>326</ele>
        <time>2020-06-03T09:29:52Z</time>
      </trkpt>
      <trkpt lat="43.62266" lon="5.34482">
        <ele>326</ele>
        <time>2020-06-03T09:29:57Z</time>
      </trkpt>
      <trkpt lat="43.62262" lon="5.34483">
        <ele>326</ele>
        <time>2020-06-03T09:30:01Z</time>
      </trkpt>
      <trkpt lat="43.62259" lon="5.34484">
        <ele>327</ele>
        <time>2020-06-03T09:30:06Z</time>
      </trkpt>
      <trkpt lat="43.62256" lon="5.34486">
        <ele>327</ele>
        <time>2020-06-03T09:30:10Z</time>
      </trkpt>
      <trkpt lat="43.62253" lon="5.34488">
        <ele>327</ele>
        <time>2020-06-03T09:30:14Z</time>
      </trkpt>
      <trkpt lat="43.6225" lon="5.34491">
        <ele>327</ele>
        <time>2020-06-03T09:30:18Z</time>
      </trkpt>
      <trkpt lat="43.62243" lon="5.34496">
        <ele>327</ele>
        <time>2020-06-03T09:30:23Z</time>
      </trkpt>
      <trkpt lat="43.62239" lon="5.34499">
        <ele>327</ele>
        <time>2020-06-03T09:30:27Z</time>
      </trkpt>
      <trkpt lat="43.62237" lon="5.34499">
        <ele>327</ele>
        <time>2020-06-03T09:30:31Z</time>
      </trkpt>
      <trkpt lat="43.62232" lon="5.34502">
        <ele>329</ele>
        <time>2020-06-03T09:30:35Z</time>
      </trkpt>
      <trkpt lat="43.6223" lon="5.34503">
        <ele>329</ele>
        <time>2020-06-03T09:30:39Z</time>
      </trkpt>
      <trkpt lat="43.62224" lon="5.34505">
        <ele>329</ele>
        <time>2020-06-03T09:30:44Z</time>
      </trkpt>
      <trkpt lat="43.6222" lon="5.34506">
        <ele>329</ele>
        <time>2020-06-03T09:30:49Z</time>
      </trkpt>
      <trkpt lat="43.62215" lon="5.34506">
        <ele>329</ele>
        <time>2020-06-03T09:30:53Z</time>
      </trkpt>
      <trkpt lat="43.62211" lon="5.34504">
        <ele>329</ele>
        <time>2020-06-03T09:30:58Z</time>
      </trkpt>
      <trkpt lat="43.62208" lon="5.34502">
        <ele>329</ele>
        <time>2020-06-03T09:31:02Z</time>
      </trkpt>
      <trkpt lat="43.62203" lon="5.34498">
        <ele>326</ele>
        <time>2020-06-03T09:31:07Z</time>
      </trkpt>
      <trkpt lat="43.622" lon="5.34494">
        <ele>326</ele>
        <time>2020-06-03T09:31:11Z</time>
      </trkpt>
      <trkpt lat="43.62197" lon="5.34492">
        <ele>326</ele>
        <time>2020-06-03T09:31:16Z</time>
      </trkpt>
      <trkpt lat="43.62193" lon="5.34488">
        <ele>326</ele>
        <time>2020-06-03T09:31:20Z</time>
      </trkpt>
      <trkpt lat="43.6219" lon="5.34483">
        <ele>326</ele>
        <time>2020-06-03T09:31:24Z</time>
      </trkpt>
      <trkpt lat="43.62188" lon="5.3448">
        <ele>326</ele>
        <time>2020-06-03T09:31:28Z</time>
      </trkpt>
      <trkpt lat="43.62185" lon="5.34478">
        <ele>326</ele>
        <time>2020-06-03T09:31:33Z</time>
      </trkpt>
      <trkpt lat="43.6218" lon="5.34478">
        <ele>326</ele>
        <time>2020-06-03T09:31:37Z</time>
      </trkpt>
      <trkpt lat="43.62171" lon="5.34479">
        <ele>326</ele>
        <time>2020-06-03T09:31:42Z</time>
      </trkpt>
      <trkpt lat="43.62166" lon="5.34481">
        <ele>324</ele>
        <time>2020-06-03T09:31:47Z</time>
      </trkpt>
      <trkpt lat="43.62163" lon="5.34483">
        <ele>324</ele>
        <time>2020-06-03T09:31:51Z</time>
      </trkpt>
      <trkpt lat="43.6216" lon="5.34485">
        <ele>324</ele>
        <time>2020-06-03T09:31:55Z</time>
      </trkpt>
      <trkpt lat="43.62159" lon="5.34489">
        <ele>324</ele>
        <time>2020-06-03T09:31:59Z</time>
      </trkpt>
      <trkpt lat="43.62157" lon="5.34494">
        <ele>325</ele>
        <time>2020-06-03T09:32:03Z</time>
      </trkpt>
      <trkpt lat="43.62155" lon="5.34498">
        <ele>325</ele>
        <time>2020-06-03T09:32:07Z</time>
      </trkpt>
      <trkpt lat="43.62153" lon="5.34502">
        <ele>325</ele>
        <time>2020-06-03T09:32:11Z</time>
      </trkpt>
      <trkpt lat="43.62151" lon="5.34509">
        <ele>325</ele>
        <time>2020-06-03T09:32:16Z</time>
      </trkpt>
      <trkpt lat="43.6215" lon="5.34517">
        <ele>324</ele>
        <time>2020-06-03T09:32:20Z</time>
      </trkpt>
      <trkpt lat="43.62148" lon="5.34522">
        <ele>324</ele>
        <time>2020-06-03T09:32:24Z</time>
      </trkpt>
      <trkpt lat="43.62145" lon="5.34528">
        <ele>324</ele>
        <time>2020-06-03T09:32:28Z</time>
      </trkpt>
      <trkpt lat="43.62142" lon="5.34536">
        <ele>323</ele>
        <time>2020-06-03T09:32:33Z</time>
      </trkpt>
      <trkpt lat="43.6214" lon="5.3454">
        <ele>323</ele>
        <time>2020-06-03T09:32:37Z</time>
      </trkpt>
      <trkpt lat="43.62138" lon="5.34546">
        <ele>323</ele>
        <time>2020-06-03T09:32:41Z</time>
      </trkpt>
      <trkpt lat="43.62135" lon="5.34551">
        <ele>323</ele>
        <time>2020-06-03T09:32:46Z</time>
      </trkpt>
      <trkpt lat="43.62133" lon="5.34556">
        <ele>323</ele>
        <time>2020-06-03T09:32:50Z</time>
      </trkpt>
      <trkpt lat="43.62132" lon="5.34559">
        <ele>323</ele>
        <time>2020-06-03T09:32:54Z</time>
      </trkpt>
      <trkpt lat="43.62129" lon="5.34565">
        <ele>323</ele>
        <time>2020-06-03T09:32:59Z</time>
      </trkpt>
      <trkpt lat="43.62128" lon="5.34571">
        <ele>323</ele>
        <time>2020-06-03T09:33:03Z</time>
      </trkpt>
      <trkpt lat="43.62126" lon="5.34577">
        <ele>323</ele>
        <time>2020-06-03T09:33:08Z</time>
      </trkpt>
      <trkpt lat="43.62125" lon="5.34583">
        <ele>323</ele>
        <time>2020-06-03T09:33:12Z</time>
      </trkpt>
      <trkpt lat="43.62123" lon="5.34589">
        <ele>323</ele>
        <time>2020-06-03T09:33:16Z</time>
      </trkpt>
      <trkpt lat="43.62121" lon="5.34596">
        <ele>323</ele>
        <time>2020-06-03T09:33:21Z</time>
      </trkpt>
      <trkpt lat="43.62119" lon="5.34603">
        <ele>323</ele>
        <time>2020-06-03T09:33:25Z</time>
      </trkpt>
      <trkpt lat="43.62118" lon="5.34609">
        <ele>323</ele>
        <time>2020-06-03T09:33:29Z</time>
      </trkpt>
      <trkpt lat="43.62116" lon="5.34616">
        <ele>322</ele>
        <time>2020-06-03T09:33:34Z</time>
      </trkpt>
      <trkpt lat="43.62114" lon="5.34622">
        <ele>322</ele>
        <time>2020-06-03T09:33:39Z</time>
      </trkpt>
      <trkpt lat="43.62113" lon="5.34628">
        <ele>322</ele>
        <time>2020-06-03T09:33:43Z</time>
      </trkpt>
      <trkpt lat="43.62111" lon="5.34634">
        <ele>322</ele>
        <time>2020-06-03T09:33:48Z</time>
      </trkpt>
      <trkpt lat="43.62109" lon="5.34641">
        <ele>322</ele>
        <time>2020-06-03T09:33:52Z</time>
      </trkpt>
      <trkpt lat="43.62108" lon="5.34647">
        <ele>322</ele>
        <time>2020-06-03T09:33:56Z</time>
      </trkpt>
      <trkpt lat="43.62108" lon="5.34652">
        <ele>322</ele>
        <time>2020-06-03T09:34:00Z</time>
      </trkpt>
      <trkpt lat="43.62109" lon="5.34656">
        <ele>322</ele>
        <time>2020-06-03T09:34:04Z</time>
      </trkpt>
      <trkpt lat="43.62111" lon="5.34663">
        <ele>322</ele>
        <time>2020-06-03T09:34:09Z</time>
      </trkpt>
      <trkpt lat="43.62114" lon="5.34667">
        <ele>322</ele>
        <time>2020-06-03T09:34:14Z</time>
      </trkpt>
      <trkpt lat="43.62118" lon="5.34671">
        <ele>322</ele>
        <time>2020-06-03T09:34:18Z</time>
      </trkpt>
      <trkpt lat="43.62124" lon="5.34676">
        <ele>323</ele>
        <time>2020-06-03T09:34:23Z</time>
      </trkpt>
      <trkpt lat="43.62131" lon="5.34679">
        <ele>323</ele>
        <time>2020-06-03T09:34:27Z</time>
      </trkpt>
      <trkpt lat="43.62135" lon="5.34681">
        <ele>323</ele>
        <time>2020-06-03T09:34:31Z</time>
      </trkpt>
      <trkpt lat="43.62138" lon="5.34681">
        <ele>324</ele>
        <time>2020-06-03T09:34:36Z</time>
      </trkpt>
      <trkpt lat="43.62142" lon="5.34681">
        <ele>324</ele>
        <time>2020-06-03T09:34:40Z</time>
      </trkpt>
      <trkpt lat="43.62146" lon="5.34681">
        <ele>324</ele>
        <time>2020-06-03T09:34:44Z</time>
      </trkpt>
      <trkpt lat="43.62152" lon="5.34682">
        <ele>324</ele>
        <time>2020-06-03T09:34:49Z</time>
      </trkpt>
      <trkpt lat="43.62157" lon="5.34683">
        <ele>324</ele>
        <time>2020-06-03T09:34:53Z</time>
      </trkpt>
      <trkpt lat="43.62161" lon="5.34684">
        <ele>325</ele>
        <time>2020-06-03T09:34:57Z</time>
      </trkpt>
      <trkpt lat="43.62163" lon="5.34685">
        <ele>325</ele>
        <time>2020-06-03T09:35:01Z</time>
      </trkpt>
      <trkpt lat="43.62167" lon="5.34686">
        <ele>327</ele>
        <time>2020-06-03T09:35:06Z</time>
      </trkpt>
      <trkpt lat="43.62172" lon="5.34687">
        <ele>327</ele>
        <time>2020-06-03T09:35:10Z</time>
      </trkpt>
      <trkpt lat="43.62177" lon="5.34689">
        <ele>328</ele>
        <time>2020-06-03T09:35:15Z</time>
      </trkpt>
      <trkpt lat="43.62182" lon="5.34689">
        <ele>328</ele>
        <time>2020-06-03T09:35:19Z</time>
      </trkpt>
      <trkpt lat="43.62185" lon="5.3469">
        <ele>328</ele>
        <time>2020-06-03T09:35:23Z</time>
      </trkpt>
      <trkpt lat="43.62187" lon="5.34692">
        <ele>328</ele>
        <time>2020-06-03T09:35:27Z</time>
      </trkpt>
      <trkpt lat="43.62192" lon="5.34696">
        <ele>328</ele>
        <time>2020-06-03T09:35:32Z</time>
      </trkpt>
      <trkpt lat="43.62195" lon="5.34697">
        <ele>328</ele>
        <time>2020-06-03T09:35:36Z</time>
      </trkpt>
      <trkpt lat="43.62199" lon="5.347">
        <ele>328</ele>
        <time>2020-06-03T09:35:41Z</time>
      </trkpt>
      <trkpt lat="43.62205" lon="5.34701">
        <ele>328</ele>
        <time>2020-06-03T09:35:46Z</time>
      </trkpt>
      <trkpt lat="43.6221" lon="5.347">
        <ele>329</ele>
        <time>2020-06-03T09:35:50Z</time>
      </trkpt>
      <trkpt lat="43.62213" lon="5.34701">
        <ele>329</ele>
        <time>2020-06-03T09:35:54Z</time>
      </trkpt>
      <trkpt lat="43.6222" lon="5.34702">
        <ele>329</ele>
        <time>2020-06-03T09:35:58Z</time>
      </trkpt>
      <trkpt lat="43.62225" lon="5.34702">
        <ele>329</ele>
        <time>2020-06-03T09:36:02Z</time>
      </trkpt>
      <trkpt lat="43.62228" lon="5.34702">
        <ele>329</ele>
        <time>2020-06-03T09:36:06Z</time>
      </trkpt>
      <trkpt lat="43.62232" lon="5.34703">
        <ele>329</ele>
        <time>2020-06-03T09:36:10Z</time>
      </trkpt>
      <trkpt lat="43.62237" lon="5.34706">
        <ele>329</ele>
        <time>2020-06-03T09:36:14Z</time>
      </trkpt>
      <trkpt lat="43.62239" lon="5.34711">
        <ele>329</ele>
        <time>2020-06-03T09:36:19Z</time>
      </trkpt>
      <trkpt lat="43.62238" lon="5.34714">
        <ele>329</ele>
        <time>2020-06-03T09:36:23Z</time>
      </trkpt>
      <trkpt lat="43.62234" lon="5.34719">
        <ele>329</ele>
        <time>2020-06-03T09:36:28Z</time>
      </trkpt>
      <trkpt lat="43.62231" lon="5.34722">
        <ele>329</ele>
        <time>2020-06-03T09:36:32Z</time>
      </trkpt>
      <trkpt lat="43.62228" lon="5.34726">
        <ele>329</ele>
        <time>2020-06-03T09:36:36Z</time>
      </trkpt>
      <trkpt lat="43.62224" lon="5.34729">
        <ele>329</ele>
        <time>2020-06-03T09:36:41Z</time>
      </trkpt>
      <trkpt lat="43.62221" lon="5.34732">
        <ele>329</ele>
        <time>2020-06-03T09:36:46Z</time>
      </trkpt>
      <trkpt lat="43.62216" lon="5.34735">
        <ele>329</ele>
        <time>2020-06-03T09:36:50Z</time>
      </trkpt>
      <trkpt lat="43.62212" lon="5.34738">
        <ele>329</ele>
        <time>2020-06-03T09:36:54Z</time>
      </trkpt>
      <trkpt lat="43.62206" lon="5.34743">
        <ele>328</ele>
        <time>2020-06-03T09:36:59Z</time>
      </trkpt>
      <trkpt lat="43.62203" lon="5.34745">
        <ele>328</ele>
        <time>2020-06-03T09:37:03Z</time>
      </trkpt>
      <trkpt lat="43.62198" lon="5.34748">
        <ele>328</ele>
        <time>2020-06-03T09:37:08Z</time>
      </trkpt>
      <trkpt lat="43.62194" lon="5.34752">
        <ele>329</ele>
        <time>2020-06-03T09:37:13Z</time>
      </trkpt>
      <trkpt lat="43.62191" lon="5.34753">
        <ele>329</ele>
        <time>2020-06-03T09:37:17Z</time>
      </trkpt>
      <trkpt lat="43.62187" lon="5.34755">
        <ele>329</ele>
        <time>2020-06-03T09:37:22Z</time>
      </trkpt>
      <trkpt lat="43.62184" lon="5.34757">
        <ele>329</ele>
        <time>2020-06-03T09:37:26Z</time>
      </trkpt>
      <trkpt lat="43.62178" lon="5.34762">
        <ele>328</ele>
        <time>2020-06-03T09:37:31Z</time>
      </trkpt>
      <trkpt lat="43.62175" lon="5.34764">
        <ele>328</ele>
        <time>2020-06-03T09:37:35Z</time>
      </trkpt>
      <trkpt lat="43.62171" lon="5.34766">
        <ele>328</ele>
        <time>2020-06-03T09:37:39Z</time>
      </trkpt>
      <trkpt lat="43.62167" lon="5.34769">
        <ele>329</ele>
        <time>2020-06-03T09:37:43Z</time>
      </trkpt>
      <trkpt lat="43.62163" lon="5.34771">
        <ele>325</ele>
        <time>2020-06-03T09:37:47Z</time>
      </trkpt>
      <trkpt lat="43.62159" lon="5.34775">
        <ele>325</ele>
        <time>2020-06-03T09:37:51Z</time>
      </trkpt>
      <trkpt lat="43.62156" lon="5.34778">
        <ele>325</ele>
        <time>2020-06-03T09:37:55Z</time>
      </trkpt>
      <trkpt lat="43.62152" lon="5.34784">
        <ele>325</ele>
        <time>2020-06-03T09:38:00Z</time>
      </trkpt>
      <trkpt lat="43.6215" lon="5.34789">
        <ele>325</ele>
        <time>2020-06-03T09:38:04Z</time>
      </trkpt>
      <trkpt lat="43.62148" lon="5.34792">
        <ele>325</ele>
        <time>2020-06-03T09:38:08Z</time>
      </trkpt>
      <trkpt lat="43.62146" lon="5.34799">
        <ele>325</ele>
        <time>2020-06-03T09:38:13Z</time>
      </trkpt>
      <trkpt lat="43.62144" lon="5.34808">
        <ele>325</ele>
        <time>2020-06-03T09:38:18Z</time>
      </trkpt>
      <trkpt lat="43.62144" lon="5.34814">
        <ele>325</ele>
        <time>2020-06-03T09:38:22Z</time>
      </trkpt>
      <trkpt lat="43.62145" lon="5.34823">
        <ele>325</ele>
        <time>2020-06-03T09:38:27Z</time>
      </trkpt>
      <trkpt lat="43.62146" lon="5.34829">
        <ele>326</ele>
        <time>2020-06-03T09:38:31Z</time>
      </trkpt>
      <trkpt lat="43.62147" lon="5.34834">
        <ele>327</ele>
        <time>2020-06-03T09:38:36Z</time>
      </trkpt>
      <trkpt lat="43.62149" lon="5.34841">
        <ele>327</ele>
        <time>2020-06-03T09:38:40Z</time>
      </trkpt>
      <trkpt lat="43.62151" lon="5.34848">
        <ele>327</ele>
        <time>2020-06-03T09:38:44Z</time>
      </trkpt>
      <trkpt lat="43.62153" lon="5.34853">
        <ele>327</ele>
        <time>2020-06-03T09:38:48Z</time>
      </trkpt>
      <trkpt lat="43.62154" lon="5.34859">
        <ele>327</ele>
        <time>2020-06-03T09:38:53Z</time>
      </trkpt>
      <trkpt lat="43.62154" lon="5.34864">
        <ele>327</ele>
        <time>2020-06-03T09:38:57Z</time>
      </trkpt>
      <trkpt lat="43.62153" lon="5.3487">
        <ele>327</ele>
        <time>2020-06-03T09:39:02Z</time>
      </trkpt>
      <trkpt lat="43.62151" lon="5.34873">
        <ele>327</ele>
        <time>2020-06-03T09:39:07Z</time>
      </trkpt>
      <trkpt lat="43.62147" lon="5.34876">
        <ele>327</ele>
        <time>2020-06-03T09:39:11Z</time>
      </trkpt>
      <trkpt lat="43.62141" lon="5.3488">
        <ele>327</ele>
        <time>2020-06-03T09:39:16Z</time>
      </trkpt>
      <trkpt lat="43.62136" lon="5.3488">
        <ele>327</ele>
        <time>2020-06-03T09:39:21Z</time>
      </trkpt>
      <trkpt lat="43.62134" lon="5.34879">
        <ele>327</ele>
        <time>2020-06-03T09:39:25Z</time>
      </trkpt>
      <trkpt lat="43.6213" lon="5.34877">
        <ele>327</ele>
        <time>2020-06-03T09:39:30Z</time>
      </trkpt>
      <trkpt lat="43.62128" lon="5.34876">
        <ele>327</ele>
        <time>2020-06-03T09:39:35Z</time>
      </trkpt>
      <trkpt lat="43.62123" lon="5.34873">
        <ele>327</ele>
        <time>2020-06-03T09:39:40Z</time>
      </trkpt>
      <trkpt lat="43.62119" lon="5.3487">
        <ele>326</ele>
        <time>2020-06-03T09:39:44Z</time>
      </trkpt>
      <trkpt lat="43.62115" lon="5.34867">
        <ele>326</ele>
        <time>2020-06-03T09:39:48Z</time>
      </trkpt>
      <trkpt lat="43.62112" lon="5.34863">
        <ele>326</ele>
        <time>2020-06-03T09:39:52Z</time>
      </trkpt>
      <trkpt lat="43.62108" lon="5.34859">
        <ele>326</ele>
        <time>2020-06-03T09:39:57Z</time>
      </trkpt>
      <trkpt lat="43.62103" lon="5.34855">
        <ele>325</ele>
        <time>2020-06-03T09:40:02Z</time>
      </trkpt>
      <trkpt lat="43.62101" lon="5.34851">
        <ele>325</ele>
        <time>2020-06-03T09:40:06Z</time>
      </trkpt>
      <trkpt lat="43.62098" lon="5.34846">
        <ele>325</ele>
        <time>2020-06-03T09:40:10Z</time>
      </trkpt>
      <trkpt lat="43.62095" lon="5.34842">
        <ele>324</ele>
        <time>2020-06-03T09:40:15Z</time>
      </trkpt>
      <trkpt lat="43.62091" lon="5.34837">
        <ele>323</ele>
        <time>2020-06-03T09:40:19Z</time>
      </trkpt>
      <trkpt lat="43.62087" lon="5.34834">
        <ele>323</ele>
        <time>2020-06-03T09:40:23Z</time>
      </trkpt>
      <trkpt lat="43.62081" lon="5.34833">
        <ele>322</ele>
        <time>2020-06-03T09:40:28Z</time>
      </trkpt>
      <trkpt lat="43.62075" lon="5.34833">
        <ele>321</ele>
        <time>2020-06-03T09:40:32Z</time>
      </trkpt>
      <trkpt lat="43.62071" lon="5.34833">
        <ele>320</ele>
        <time>2020-06-03T09:40:36Z</time>
      </trkpt>
      <trkpt lat="43.62066" lon="5.34836">
        <ele>322</ele>
        <time>2020-06-03T09:40:40Z</time>
      </trkpt>
      <trkpt lat="43.62062" lon="5.34837">
        <ele>322</ele>
        <time>2020-06-03T09:40:45Z</time>
      </trkpt>
      <trkpt lat="43.62058" lon="5.3484">
        <ele>322</ele>
        <time>2020-06-03T09:40:49Z</time>
      </trkpt>
      <trkpt lat="43.62054" lon="5.34843">
        <ele>322</ele>
        <time>2020-06-03T09:40:54Z</time>
      </trkpt>
      <trkpt lat="43.6205" lon="5.34846">
        <ele>321</ele>
        <time>2020-06-03T09:40:59Z</time>
      </trkpt>
      <trkpt lat="43.62046" lon="5.3485">
        <ele>321</ele>
        <time>2020-06-03T09:41:04Z</time>
      </trkpt>
      <trkpt lat="43.62041" lon="5.34857">
        <ele>321</ele>
        <time>2020-06-03T09:41:09Z</time>
      </trkpt>
      <trkpt lat="43.62038" lon="5.34862">
        <ele>321</ele>
        <time>2020-06-03T09:41:13Z</time>
      </trkpt>
      <trkpt lat="43.62036" lon="5.34868">
        <ele>321</ele>
        <time>2020-06-03T09:41:17Z</time>
      </trkpt>
      <trkpt lat="43.62033" lon="5.34874">
        <ele>321</ele>
        <time>2020-06-03T09:41:21Z</time>
      </trkpt>
      <trkpt lat="43.62032" lon="5.34881">
        <ele>322</ele>
        <time>2020-06-03T09:41:25Z</time>
      </trkpt>
      <trkpt lat="43.6203" lon="5.34888">
        <ele>322</ele>
        <time>2020-06-03T09:41:30Z</time>
      </trkpt>
      <trkpt lat="43.6203" lon="5.34892">
        <ele>322</ele>
        <time>2020-06-03T09:41:34Z</time>
      </trkpt>
      <trkpt lat="43.62029" lon="5.34896">
        <ele>322</ele>
        <time>2020-06-03T09:41:38Z</time>
      </trkpt>
      <trkpt lat="43.62027" lon="5.34903">
        <ele>322</ele>
        <time>2020-06-03T09:41:43Z</time>
      </trkpt>
      <trkpt lat="43.62027" lon="5.34911">
        <ele>322</ele>
        <time>2020-06-03T09:41:47Z</time>
      </trkpt>
      <trkpt lat="43.62026" lon="5.3492">
        <ele>323</ele>
        <time>2020-06-03T09:41:52Z</time>
      </trkpt>
      <trkpt lat="43.62026" lon="5.34926">
        <ele>323</ele>
        <time>2020-06-03T09:41:57Z</time>
      </trkpt>
      <trkpt lat="43.62028" lon="5.34931">
        <ele>323</ele>
        <time>2020-06-03T09:42:01Z</time>
      </trkpt>
      <trkpt lat="43.62031" lon="5.34938">
        <ele>323</ele>
        <time>2020-06-03T09:42:06Z</time>
      </trkpt>
      <trkpt lat="43.62034" lon="5.34945">
        <ele>323</ele>
        <time>2020-06-03T09:42:11Z</time>
      </trkpt>
      <trkpt lat="43.62037" lon="5.34953">
        <ele>323</ele>
        <time>2020-06-03T09:42:15Z</time>
      </trkpt>
      <trkpt lat="43.62039" lon="5.34961">
        <ele>324</ele>
        <time>2020-06-03T09:42:20Z</time>
      </trkpt>
      <trkpt lat="43.62041" lon="5.34968">
        <ele>324</ele>
        <time>2020-06-03T09:42:25Z</time>
      </trkpt>
      <trkpt lat="43.62044" lon="5.34973">
        <ele>324</ele>
        <time>2020-06-03T09:42:29Z</time>
      </trkpt>
      <trkpt lat="43.62046" lon="5.34977">
        <ele>324</ele>
        <time>2020-06-03T09:42:33Z</time>
      </trkpt>
      <trkpt lat="43.62048" lon="5.34983">
        <ele>324</ele>
        <time>2020-06-03T09:42:37Z</time>
      </trkpt>
      <trkpt lat="43.6205" lon="5.34989">
        <ele>324</ele>
        <time>2020-06-03T09:42:42Z</time>
      </trkpt>
      <trkpt lat="43.6205" lon="5.34994">
        <ele>325</ele>
        <time>2020-06-03T09:42:47Z</time>
      </trkpt>
      <trkpt lat="43.6205" lon="5.34998">
        <ele>325</ele>
        <time>2020-06-03T09:42:51Z</time>
      </trkpt>
      <trkpt lat="43.62054" lon="5.35006">
        <ele>326</ele>
        <time>2020-06-03T09:42:56Z</time>
      </trkpt>
      <trkpt lat="43.62055" lon="5.35013">
        <ele>326</ele>
        <time>2020-06-03T09:43:01Z</time>
      </trkpt>
      <trkpt lat="43.62056" lon="5.35017">
        <ele>326</ele>
        <time>2020-06-03T09:43:05Z</time>
      </trkpt>
      <trkpt lat="43.62057" lon="5.35022">
        <ele>327</ele>
        <time>2020-06-03T09:43:09Z</time>
      </trkpt>
      <trkpt lat="43.62058" lon="5.35029">
        <ele>327</ele>
        <time>2020-06-03T09:43:14Z</time>
      </trkpt>
      <trkpt lat="43.62058" lon="5.35035">
        <ele>327</ele>
        <time>2020-06-03T09:43:19Z</time>
      </trkpt>
      <trkpt lat="43.62057" lon="5.35041">
        <ele>327</ele>
        <time>2020-06-03T09:43:23Z</time>
      </trkpt>
      <trkpt lat="43.62057" lon="5.35047">
        <ele>327</ele>
        <time>2020-06-03T09:43:27Z</time>
      </trkpt>
      <trkpt lat="43.62056" lon="5.35056">
        <ele>327</ele>
        <time>2020-06-03T09:43:32Z</time>
      </trkpt>
      <trkpt lat="43.62055" lon="5.35061">
        <ele>327</ele>
        <time>2020-06-03T09:43:36Z</time>
      </trkpt>
      <trkpt lat="43.62054" lon="5.35067">
        <ele>328</ele>
        <time>2020-06-03T09:43:40Z</time>
      </trkpt>
      <trkpt lat="43.62054" lon="5.35075">
        <ele>328</ele>
        <time>2020-06-03T09:43:45Z</time>
      </trkpt>
      <trkpt lat="43.62054" lon="5.35081">
        <ele>328</ele>
        <time>2020-06-03T09:43:50Z</time>
      </trkpt>
      <trkpt lat="43.62052" lon="5.35086">
        <ele>329</ele>
        <time>2020-06-03T09:43:54Z</time>
      </trkpt>
      <trkpt lat="43.62052" lon="5.35091">
        <ele>329</ele>
        <time>2020-06-03T09:43:59Z</time>
      </trkpt>
      <trkpt lat="43.62052" lon="5.35096">
        <ele>329</ele>
        <time>2020-06-03T09:44:03Z</time>
      </trkpt>
      <trkpt lat="43.6205" lon="5.35103">
        <ele>328</ele>
        <time>2020-06-03T09:44:07Z</time>
      </trkpt>
      <trkpt lat="43.62049" lon="5.35111">
        <ele>328</ele>
        <time>2020-06-03T09:44:11Z</time>
      </trkpt>
      <trkpt lat="43.62048" lon="5.35119">
        <ele>328</ele>
        <time>2020-06-03T09:44:16Z</time>
      </trkpt>
      <trkpt lat="43.62047" lon="5.35124">
        <ele>328</ele>
        <time>2020-06-03T09:44:20Z</time>
      </trkpt>
      <trkpt lat="43.62046" lon="5.35131">
        <ele>328</ele>
        <time>2020-06-03T09:44:25Z</time>
      </trkpt>
      <trkpt lat="43.62045" lon="5.35137">
        <ele>328</ele>
        <time>2020-06-03T09:44:29Z</time>
      </trkpt>
      <trkpt lat="43.62045" lon="5.35144">
        <ele>328</ele>
        <time>2020-06-03T09:44:34Z</time>
      </trkpt>
      <trkpt lat="43.62044" lon="5.35152">
        <ele>328</ele>
        <time>2020-06-03T09:44:38Z</time>
      </trkpt>
      <trkpt lat="43.62045" lon="5.35158">
        <ele>328</ele>
        <time>2020-06-03T09:44:43Z</time>
      </trkpt>
      <trkpt lat="43.62042" lon="5.35163">
        <ele>328</ele>
        <time>2020-06-03T09:44:47Z</time>
      </trkpt>
      <trkpt lat="43.6204" lon="5.35168">
        <ele>327</ele>
        <time>2020-06-03T09:44:52Z</time>
      </trkpt>
      <trkpt lat="43.62039" lon="5.35173">
        <ele>327</ele>
        <time>2020-06-03T09:44:57Z</time>
      </trkpt>
      <trkpt lat="43.62035" lon="5.35177">
        <ele>326</ele>
        <time>2020-06-03T09:45:02Z</time>
      </trkpt>
      <trkpt lat="43.62031" lon="5.35181">
        <ele>326</ele>
        <time>2020-06-03T09:45:07Z</time>
      </trkpt>
      <trkpt lat="43.62027" lon="5.35186">
        <ele>326</ele>
        <time>2020-06-03T09:45:12Z</time>
      </trkpt>
      <trkpt lat="43.62023" lon="5.35192">
        <ele>326</ele>
        <time>2020-06-03T09:45:16Z</time>
      </trkpt>
      <trkpt lat="43.62021" lon="5.35198">
        <ele>326</ele>
        <time>2020-06-03T09:45:20Z</time>
      </trkpt>
      <trkpt lat="43.62018" lon="5.35204">
        <ele>326</ele>
        <time>2020-06-03T09:45:24Z</time>
      </trkpt>
      <trkpt lat="43.62015" lon="5.35215">
        <ele>326</ele>
        <time>2020-06-03T09:45:29Z</time>
      </trkpt>
      <trkpt lat="43.62014" lon="5.35221">
        <ele>326</ele>
        <time>2020-06-03T09:45:33Z</time>
      </trkpt>
      <trkpt lat="43.62011" lon="5.35229">
        <ele>325</ele>
        <time>2020-06-03T09:45:38Z</time>
      </trkpt>
      <trkpt lat="43.6201" lon="5.35234">
        <ele>325</ele>
        <time>2020-06-03T09:45:42Z</time>
      </trkpt>
      <trkpt lat="43.62009" lon="5.3524">
        <ele>325</ele>
        <time>2020-06-03T09:45:46Z</time>
      </trkpt>
      <trkpt lat="43.62008" lon="5.35244">
        <ele>325</ele>
        <time>2020-06-03T09:45:50Z</time>
      </trkpt>
      <trkpt lat="43.62008" lon="5.35249">
        <ele>325</ele>
        <time>2020-06-03T09:45:54Z</time>
      </trkpt>
      <trkpt lat="43.62009" lon="5.35256">
        <ele>325</ele>
        <time>2020-06-03T09:45:59Z</time>
      </trkpt>
      <trkpt lat="43.62013" lon="5.35265">
        <ele>325</ele>
        <time>2020-06-03T09:46:04Z</time>
      </trkpt>
      <trkpt lat="43.62016" lon="5.35271">
        <ele>325</ele>
        <time>2020-06-03T09:46:08Z</time>
      </trkpt>
      <trkpt lat="43.62021" lon="5.35276">
        <ele>325</ele>
        <time>2020-06-03T09:46:13Z</time>
      </trkpt>
      <trkpt lat="43.62024" lon="5.35279">
        <ele>325</ele>
        <time>2020-06-03T09:46:18Z</time>
      </trkpt>
      <trkpt lat="43.62027" lon="5.35282">
        <ele>325</ele>
        <time>2020-06-03T09:46:22Z</time>
      </trkpt>
      <trkpt lat="43.62033" lon="5.35286">
        <ele>325</ele>
        <time>2020-06-03T09:46:26Z</time>
      </trkpt>
      <trkpt lat="43.62034" lon="5.35286">
        <ele>325</ele>
        <time>2020-06-03T09:46:30Z</time>
      </trkpt>
      <trkpt lat="43.62035" lon="5.35286">
        <ele>325</ele>
        <time>2020-06-03T09:46:37Z</time>
      </trkpt>
      <trkpt lat="43.62036" lon="5.35285">
        <ele>325</ele>
        <time>2020-06-03T09:46:43Z</time>
      </trkpt>
      <trkpt lat="43.62036" lon="5.35285">
        <ele>325</ele>
        <time>2020-06-03T09:46:48Z</time>
      </trkpt>
      <trkpt lat="43.6204" lon="5.35286">
        <ele>325</ele>
        <time>2020-06-03T09:46:53Z</time>
      </trkpt>
      <trkpt lat="43.62044" lon="5.3529">
        <ele>326</ele>
        <time>2020-06-03T09:46:57Z</time>
      </trkpt>
      <trkpt lat="43.62047" lon="5.35293">
        <ele>326</ele>
        <time>2020-06-03T09:47:01Z</time>
      </trkpt>
      <trkpt lat="43.6205" lon="5.35295">
        <ele>326</ele>
        <time>2020-06-03T09:47:05Z</time>
      </trkpt>
      <trkpt lat="43.62057" lon="5.35297">
        <ele>326</ele>
        <time>2020-06-03T09:47:10Z</time>
      </trkpt>
      <trkpt lat="43.62063" lon="5.35297">
        <ele>326</ele>
        <time>2020-06-03T09:47:15Z</time>
      </trkpt>
      <trkpt lat="43.62068" lon="5.35296">
        <ele>326</ele>
        <time>2020-06-03T09:47:20Z</time>
      </trkpt>
      <trkpt lat="43.62071" lon="5.35295">
        <ele>326</ele>
        <time>2020-06-03T09:47:24Z</time>
      </trkpt>
      <trkpt lat="43.62076" lon="5.35297">
        <ele>326</ele>
        <time>2020-06-03T09:47:29Z</time>
      </trkpt>
      <trkpt lat="43.62078" lon="5.35298">
        <ele>326</ele>
        <time>2020-06-03T09:47:33Z</time>
      </trkpt>
      <trkpt lat="43.62083" lon="5.353">
        <ele>326</ele>
        <time>2020-06-03T09:47:37Z</time>
      </trkpt>
      <trkpt lat="43.62089" lon="5.35301">
        <ele>330</ele>
        <time>2020-06-03T09:47:42Z</time>
      </trkpt>
      <trkpt lat="43.62094" lon="5.35302">
        <ele>330</ele>
        <time>2020-06-03T09:47:46Z</time>
      </trkpt>
      <trkpt lat="43.62097" lon="5.35305">
        <ele>330</ele>
        <time>2020-06-03T09:47:50Z</time>
      </trkpt>
      <trkpt lat="43.62097" lon="5.35302">
        <ele>330</ele>
        <time>2020-06-03T09:47:54Z</time>
      </trkpt>
      <trkpt lat="43.62098" lon="5.35304">
        <ele>330</ele>
        <time>2020-06-03T09:47:59Z</time>
      </trkpt>
      <trkpt lat="43.621" lon="5.35308">
        <ele>330</ele>
        <time>2020-06-03T09:48:04Z</time>
      </trkpt>
      <trkpt lat="43.62102" lon="5.35312">
        <ele>330</ele>
        <time>2020-06-03T09:48:08Z</time>
      </trkpt>
      <trkpt lat="43.62102" lon="5.35318">
        <ele>330</ele>
        <time>2020-06-03T09:48:12Z</time>
      </trkpt>
      <trkpt lat="43.62102" lon="5.35323">
        <ele>330</ele>
        <time>2020-06-03T09:48:16Z</time>
      </trkpt>
      <trkpt lat="43.62104" lon="5.35331">
        <ele>329</ele>
        <time>2020-06-03T09:48:21Z</time>
      </trkpt>
      <trkpt lat="43.62104" lon="5.35336">
        <ele>330</ele>
        <time>2020-06-03T09:48:25Z</time>
      </trkpt>
      <trkpt lat="43.62105" lon="5.35339">
        <ele>330</ele>
        <time>2020-06-03T09:48:29Z</time>
      </trkpt>
      <trkpt lat="43.62106" lon="5.35347">
        <ele>331</ele>
        <time>2020-06-03T09:48:34Z</time>
      </trkpt>
      <trkpt lat="43.62106" lon="5.35352">
        <ele>331</ele>
        <time>2020-06-03T09:48:38Z</time>
      </trkpt>
      <trkpt lat="43.62106" lon="5.35355">
        <ele>331</ele>
        <time>2020-06-03T09:48:42Z</time>
      </trkpt>
      <trkpt lat="43.62103" lon="5.35359">
        <ele>331</ele>
        <time>2020-06-03T09:48:47Z</time>
      </trkpt>
      <trkpt lat="43.62098" lon="5.3536">
        <ele>331</ele>
        <time>2020-06-03T09:48:52Z</time>
      </trkpt>
      <trkpt lat="43.62095" lon="5.35359">
        <ele>331</ele>
        <time>2020-06-03T09:48:56Z</time>
      </trkpt>
      <trkpt lat="43.62091" lon="5.35358">
        <ele>331</ele>
        <time>2020-06-03T09:49:01Z</time>
      </trkpt>
      <trkpt lat="43.62087" lon="5.35356">
        <ele>330</ele>
        <time>2020-06-03T09:49:05Z</time>
      </trkpt>
      <trkpt lat="43.62084" lon="5.35357">
        <ele>330</ele>
        <time>2020-06-03T09:49:09Z</time>
      </trkpt>
      <trkpt lat="43.62076" lon="5.35358">
        <ele>328</ele>
        <time>2020-06-03T09:49:14Z</time>
      </trkpt>
      <trkpt lat="43.62071" lon="5.35358">
        <ele>328</ele>
        <time>2020-06-03T09:49:18Z</time>
      </trkpt>
      <trkpt lat="43.62067" lon="5.35358">
        <ele>328</ele>
        <time>2020-06-03T09:49:23Z</time>
      </trkpt>
      <trkpt lat="43.62067" lon="5.3536">
        <ele>329</ele>
        <time>2020-06-03T09:49:28Z</time>
      </trkpt>
      <trkpt lat="43.62067" lon="5.35362">
        <ele>329</ele>
        <time>2020-06-03T09:49:32Z</time>
      </trkpt>
      <trkpt lat="43.62067" lon="5.35364">
        <ele>329</ele>
        <time>2020-06-03T09:49:37Z</time>
      </trkpt>
      <trkpt lat="43.62068" lon="5.35365">
        <ele>329</ele>
        <time>2020-06-03T09:49:41Z</time>
      </trkpt>
      <trkpt lat="43.62069" lon="5.35374">
        <ele>329</ele>
        <time>2020-06-03T09:49:45Z</time>
      </trkpt>
      <trkpt lat="43.6207" lon="5.35369">
        <ele>329</ele>
        <time>2020-06-03T09:49:49Z</time>
      </trkpt>
      <trkpt lat="43.62071" lon="5.35366">
        <ele>329</ele>
        <time>2020-06-03T09:49:54Z</time>
      </trkpt>
      <trkpt lat="43.62074" lon="5.35371">
        <ele>329</ele>
        <time>2020-06-03T09:49:58Z</time>
      </trkpt>
      <trkpt lat="43.62072" lon="5.35368">
        <ele>329</ele>
        <time>2020-06-03T09:50:03Z</time>
      </trkpt>
      <trkpt lat="43.62072" lon="5.35367">
        <ele>329</ele>
        <time>2020-06-03T09:50:09Z</time>
      </trkpt>
      <trkpt lat="43.62072" lon="5.35366">
        <ele>329</ele>
        <time>2020-06-03T09:50:16Z</time>
      </trkpt>
      <trkpt lat="43.62073" lon="5.35365">
        <ele>329</ele>
        <time>2020-06-03T09:50:47Z</time>
      </trkpt>
      <trkpt lat="43.62072" lon="5.35367">
        <ele>329</ele>
        <time>2020-06-03T09:50:51Z</time>
      </trkpt>
      <trkpt lat="43.62072" lon="5.35366">
        <ele>329</ele>
        <time>2020-06-03T09:51:11Z</time>
      </trkpt>
      <trkpt lat="43.62072" lon="5.35366">
        <ele>329</ele>
        <time>2020-06-03T09:51:15Z</time>
      </trkpt>
      <trkpt lat="43.62073" lon="5.35363">
        <ele>329</ele>
        <time>2020-06-03T09:51:19Z</time>
      </trkpt>
      <trkpt lat="43.62071" lon="5.35366">
        <ele>329</ele>
        <time>2020-06-03T09:51:23Z</time>
      </trkpt>
      <trkpt lat="43.62072" lon="5.35366">
        <ele>329</ele>
        <time>2020-06-03T09:52:57Z</time>
      </trkpt>
      <trkpt lat="43.62072" lon="5.35367">
        <ele>329</ele>
        <time>2020-06-03T09:53:45Z</time>
      </trkpt>
      <trkpt lat="43.62073" lon="5.35368">
        <ele>329</ele>
        <time>2020-06-03T09:53:49Z</time>
      </trkpt>
      <trkpt lat="43.62074" lon="5.35368">
        <ele>329</ele>
        <time>2020-06-03T09:54:01Z</time>
      </trkpt>
      <trkpt lat="43.62075" lon="5.35369">
        <ele>329</ele>
        <time>2020-06-03T09:54:44Z</time>
      </trkpt>
      <trkpt lat="43.62076" lon="5.35369">
        <ele>329</ele>
        <time>2020-06-03T09:54:50Z</time>
      </trkpt>
      <trkpt lat="43.62076" lon="5.3537">
        <ele>329</ele>
        <time>2020-06-03T09:55:10Z</time>
      </trkpt>
      <trkpt lat="43.62077" lon="5.3537">
        <ele>329</ele>
        <time>2020-06-03T09:55:26Z</time>
      </trkpt>
      <trkpt lat="43.62078" lon="5.3537">
        <ele>329</ele>
        <time>2020-06-03T09:55:47Z</time>
      </trkpt>
      <trkpt lat="43.62078" lon="5.35369">
        <ele>329</ele>
        <time>2020-06-03T09:56:01Z</time>
      </trkpt>
      <trkpt lat="43.62078" lon="5.35368">
        <ele>329</ele>
        <time>2020-06-03T09:56:36Z</time>
      </trkpt>
      <trkpt lat="43.62078" lon="5.35369">
        <ele>329</ele>
        <time>2020-06-03T09:56:44Z</time>
      </trkpt>
      <trkpt lat="43.62078" lon="5.3537">
        <ele>329</ele>
        <time>2020-06-03T09:56:49Z</time>
      </trkpt>
      <trkpt lat="43.62077" lon="5.35369">
        <ele>329</ele>
        <time>2020-06-03T09:57:13Z</time>
      </trkpt>
      <trkpt lat="43.62078" lon="5.35369">
        <ele>329</ele>
        <time>2020-06-03T09:57:28Z</time>
      </trkpt>
      <trkpt lat="43.62078" lon="5.35368">
        <ele>329</ele>
        <time>2020-06-03T09:57:35Z</time>
      </trkpt>
      <trkpt lat="43.62077" lon="5.35367">
        <ele>329</ele>
        <time>2020-06-03T09:58:08Z</time>
      </trkpt>
      <trkpt lat="43.62077" lon="5.35367">
        <ele>329</ele>
        <time>2020-06-03T09:58:12Z</time>
      </trkpt>
      <trkpt lat="43.62074" lon="5.35367">
        <ele>329</ele>
        <time>2020-06-03T09:58:16Z</time>
      </trkpt>
      <trkpt lat="43.62068" lon="5.35369">
        <ele>329</ele>
        <time>2020-06-03T09:58:20Z</time>
      </trkpt>
      <trkpt lat="43.6206" lon="5.35371">
        <ele>329</ele>
        <time>2020-06-03T09:58:25Z</time>
      </trkpt>
      <trkpt lat="43.62056" lon="5.35374">
        <ele>329</ele>
        <time>2020-06-03T09:58:29Z</time>
      </trkpt>
      <trkpt lat="43.62052" lon="5.35376">
        <ele>329</ele>
        <time>2020-06-03T09:58:34Z</time>
      </trkpt>
      <trkpt lat="43.62047" lon="5.35377">
        <ele>329</ele>
        <time>2020-06-03T09:58:38Z</time>
      </trkpt>
      <trkpt lat="43.62043" lon="5.35378">
        <ele>329</ele>
        <time>2020-06-03T09:58:42Z</time>
      </trkpt>
      <trkpt lat="43.62039" lon="5.35377">
        <ele>329</ele>
        <time>2020-06-03T09:58:47Z</time>
      </trkpt>
      <trkpt lat="43.62034" lon="5.35375">
        <ele>329</ele>
        <time>2020-06-03T09:58:52Z</time>
      </trkpt>
      <trkpt lat="43.6203" lon="5.35374">
        <ele>329</ele>
        <time>2020-06-03T09:58:57Z</time>
      </trkpt>
      <trkpt lat="43.62028" lon="5.35374">
        <ele>329</ele>
        <time>2020-06-03T09:59:01Z</time>
      </trkpt>
      <trkpt lat="43.6202" lon="5.35372">
        <ele>329</ele>
        <time>2020-06-03T09:59:06Z</time>
      </trkpt>
      <trkpt lat="43.62016" lon="5.35372">
        <ele>329</ele>
        <time>2020-06-03T09:59:11Z</time>
      </trkpt>
      <trkpt lat="43.6201" lon="5.35371">
        <ele>329</ele>
        <time>2020-06-03T09:59:16Z</time>
      </trkpt>
      <trkpt lat="43.62005" lon="5.3537">
        <ele>329</ele>
        <time>2020-06-03T09:59:20Z</time>
      </trkpt>
      <trkpt lat="43.62001" lon="5.3537">
        <ele>329</ele>
        <time>2020-06-03T09:59:24Z</time>
      </trkpt>
      <trkpt lat="43.61997" lon="5.3537">
        <ele>326</ele>
        <time>2020-06-03T09:59:29Z</time>
      </trkpt>
      <trkpt lat="43.61994" lon="5.3537">
        <ele>326</ele>
        <time>2020-06-03T09:59:33Z</time>
      </trkpt>
      <trkpt lat="43.61989" lon="5.35369">
        <ele>326</ele>
        <time>2020-06-03T09:59:38Z</time>
      </trkpt>
      <trkpt lat="43.61985" lon="5.35369">
        <ele>325</ele>
        <time>2020-06-03T09:59:42Z</time>
      </trkpt>
      <trkpt lat="43.61982" lon="5.35368">
        <ele>325</ele>
        <time>2020-06-03T09:59:46Z</time>
      </trkpt>
      <trkpt lat="43.61978" lon="5.35367">
        <ele>325</ele>
        <time>2020-06-03T09:59:50Z</time>
      </trkpt>
      <trkpt lat="43.61972" lon="5.35366">
        <ele>325</ele>
        <time>2020-06-03T09:59:55Z</time>
      </trkpt>
      <trkpt lat="43.61968" lon="5.35369">
        <ele>325</ele>
        <time>2020-06-03T10:00:00Z</time>
      </trkpt>
      <trkpt lat="43.61965" lon="5.3537">
        <ele>325</ele>
        <time>2020-06-03T10:00:04Z</time>
      </trkpt>
      <trkpt lat="43.61962" lon="5.35371">
        <ele>325</ele>
        <time>2020-06-03T10:00:08Z</time>
      </trkpt>
      <trkpt lat="43.61958" lon="5.35373">
        <ele>325</ele>
        <time>2020-06-03T10:00:12Z</time>
      </trkpt>
      <trkpt lat="43.61954" lon="5.35378">
        <ele>325</ele>
        <time>2020-06-03T10:00:17Z</time>
      </trkpt>
      <trkpt lat="43.6195" lon="5.35381">
        <ele>325</ele>
        <time>2020-06-03T10:00:21Z</time>
      </trkpt>
      <trkpt lat="43.61948" lon="5.35386">
        <ele>325</ele>
        <time>2020-06-03T10:00:25Z</time>
      </trkpt>
      <trkpt lat="43.61944" lon="5.35393">
        <ele>325</ele>
        <time>2020-06-03T10:00:29Z</time>
      </trkpt>
      <trkpt lat="43.61941" lon="5.35397">
        <ele>325</ele>
        <time>2020-06-03T10:00:34Z</time>
      </trkpt>
      <trkpt lat="43.61938" lon="5.35403">
        <ele>325</ele>
        <time>2020-06-03T10:00:39Z</time>
      </trkpt>
      <trkpt lat="43.61935" lon="5.35407">
        <ele>325</ele>
        <time>2020-06-03T10:00:44Z</time>
      </trkpt>
      <trkpt lat="43.61933" lon="5.35411">
        <ele>325</ele>
        <time>2020-06-03T10:00:48Z</time>
      </trkpt>
      <trkpt lat="43.6193" lon="5.35415">
        <ele>325</ele>
        <time>2020-06-03T10:00:52Z</time>
      </trkpt>
      <trkpt lat="43.61928" lon="5.3542">
        <ele>327</ele>
        <time>2020-06-03T10:00:56Z</time>
      </trkpt>
      <trkpt lat="43.61926" lon="5.35425">
        <ele>327</ele>
        <time>2020-06-03T10:01:00Z</time>
      </trkpt>
      <trkpt lat="43.61924" lon="5.35429">
        <ele>328</ele>
        <time>2020-06-03T10:01:04Z</time>
      </trkpt>
      <trkpt lat="43.61922" lon="5.35433">
        <ele>328</ele>
        <time>2020-06-03T10:01:08Z</time>
      </trkpt>
      <trkpt lat="43.61919" lon="5.3544">
        <ele>329</ele>
        <time>2020-06-03T10:01:13Z</time>
      </trkpt>
      <trkpt lat="43.61918" lon="5.35446">
        <ele>330</ele>
        <time>2020-06-03T10:01:17Z</time>
      </trkpt>
      <trkpt lat="43.61915" lon="5.35449">
        <ele>323</ele>
        <time>2020-06-03T10:01:21Z</time>
      </trkpt>
      <trkpt lat="43.61913" lon="5.35454">
        <ele>323</ele>
        <time>2020-06-03T10:01:25Z</time>
      </trkpt>
      <trkpt lat="43.61911" lon="5.35461">
        <ele>324</ele>
        <time>2020-06-03T10:01:29Z</time>
      </trkpt>
      <trkpt lat="43.61909" lon="5.35469">
        <ele>324</ele>
        <time>2020-06-03T10:01:34Z</time>
      </trkpt>
      <trkpt lat="43.61907" lon="5.35474">
        <ele>325</ele>
        <time>2020-06-03T10:01:38Z</time>
      </trkpt>
      <trkpt lat="43.61906" lon="5.35478">
        <ele>325</ele>
        <time>2020-06-03T10:01:42Z</time>
      </trkpt>
      <trkpt lat="43.61904" lon="5.35485">
        <ele>326</ele>
        <time>2020-06-03T10:01:47Z</time>
      </trkpt>
      <trkpt lat="43.61903" lon="5.35489">
        <ele>326</ele>
        <time>2020-06-03T10:01:51Z</time>
      </trkpt>
      <trkpt lat="43.61901" lon="5.35493">
        <ele>326</ele>
        <time>2020-06-03T10:01:55Z</time>
      </trkpt>
      <trkpt lat="43.61899" lon="5.35501">
        <ele>329</ele>
        <time>2020-06-03T10:01:59Z</time>
      </trkpt>
      <trkpt lat="43.61899" lon="5.35507">
        <ele>329</ele>
        <time>2020-06-03T10:02:03Z</time>
      </trkpt>
      <trkpt lat="43.61895" lon="5.35515">
        <ele>328</ele>
        <time>2020-06-03T10:02:07Z</time>
      </trkpt>
      <trkpt lat="43.61892" lon="5.35521">
        <ele>328</ele>
        <time>2020-06-03T10:02:11Z</time>
      </trkpt>
      <trkpt lat="43.61888" lon="5.35528">
        <ele>327</ele>
        <time>2020-06-03T10:02:16Z</time>
      </trkpt>
      <trkpt lat="43.61886" lon="5.35533">
        <ele>327</ele>
        <time>2020-06-03T10:02:21Z</time>
      </trkpt>
      <trkpt lat="43.61885" lon="5.35537">
        <ele>327</ele>
        <time>2020-06-03T10:02:25Z</time>
      </trkpt>
      <trkpt lat="43.61885" lon="5.35539">
        <ele>327</ele>
        <time>2020-06-03T10:02:30Z</time>
      </trkpt>
      <trkpt lat="43.61885" lon="5.35546">
        <ele>327</ele>
        <time>2020-06-03T10:02:35Z</time>
      </trkpt>
      <trkpt lat="43.61885" lon="5.35554">
        <ele>328</ele>
        <time>2020-06-03T10:02:40Z</time>
      </trkpt>
      <trkpt lat="43.61883" lon="5.35562">
        <ele>328</ele>
        <time>2020-06-03T10:02:45Z</time>
      </trkpt>
      <trkpt lat="43.6188" lon="5.35567">
        <ele>327</ele>
        <time>2020-06-03T10:02:49Z</time>
      </trkpt>
      <trkpt lat="43.61878" lon="5.35571">
        <ele>327</ele>
        <time>2020-06-03T10:02:54Z</time>
      </trkpt>
      <trkpt lat="43.61876" lon="5.35575">
        <ele>327</ele>
        <time>2020-06-03T10:02:58Z</time>
      </trkpt>
      <trkpt lat="43.61874" lon="5.35582">
        <ele>327</ele>
        <time>2020-06-03T10:03:03Z</time>
      </trkpt>
      <trkpt lat="43.61873" lon="5.35587">
        <ele>329</ele>
        <time>2020-06-03T10:03:08Z</time>
      </trkpt>
      <trkpt lat="43.6187" lon="5.35592">
        <ele>329</ele>
        <time>2020-06-03T10:03:12Z</time>
      </trkpt>
      <trkpt lat="43.61867" lon="5.35596">
        <ele>329</ele>
        <time>2020-06-03T10:03:17Z</time>
      </trkpt>
      <trkpt lat="43.61865" lon="5.35601">
        <ele>328</ele>
        <time>2020-06-03T10:03:22Z</time>
      </trkpt>
      <trkpt lat="43.61863" lon="5.35607">
        <ele>328</ele>
        <time>2020-06-03T10:03:26Z</time>
      </trkpt>
      <trkpt lat="43.61859" lon="5.35616">
        <ele>328</ele>
        <time>2020-06-03T10:03:31Z</time>
      </trkpt>
      <trkpt lat="43.61857" lon="5.35623">
        <ele>328</ele>
        <time>2020-06-03T10:03:36Z</time>
      </trkpt>
      <trkpt lat="43.61855" lon="5.35628">
        <ele>328</ele>
        <time>2020-06-03T10:03:40Z</time>
      </trkpt>
      <trkpt lat="43.61853" lon="5.35634">
        <ele>328</ele>
        <time>2020-06-03T10:03:44Z</time>
      </trkpt>
      <trkpt lat="43.6185" lon="5.35641">
        <ele>328</ele>
        <time>2020-06-03T10:03:48Z</time>
      </trkpt>
      <trkpt lat="43.61848" lon="5.35644">
        <ele>327</ele>
        <time>2020-06-03T10:03:52Z</time>
      </trkpt>
      <trkpt lat="43.61846" lon="5.35646">
        <ele>327</ele>
        <time>2020-06-03T10:03:56Z</time>
      </trkpt>
      <trkpt lat="43.61847" lon="5.3565">
        <ele>327</ele>
        <time>2020-06-03T10:04:00Z</time>
      </trkpt>
      <trkpt lat="43.61849" lon="5.35655">
        <ele>327</ele>
        <time>2020-06-03T10:04:04Z</time>
      </trkpt>
      <trkpt lat="43.61855" lon="5.35662">
        <ele>328</ele>
        <time>2020-06-03T10:04:09Z</time>
      </trkpt>
      <trkpt lat="43.61855" lon="5.35665">
        <ele>328</ele>
        <time>2020-06-03T10:04:13Z</time>
      </trkpt>
      <trkpt lat="43.61854" lon="5.35669">
        <ele>329</ele>
        <time>2020-06-03T10:04:17Z</time>
      </trkpt>
      <trkpt lat="43.61854" lon="5.3567">
        <ele>329</ele>
        <time>2020-06-03T10:04:21Z</time>
      </trkpt>
      <trkpt lat="43.61854" lon="5.35675">
        <ele>329</ele>
        <time>2020-06-03T10:04:25Z</time>
      </trkpt>
      <trkpt lat="43.61856" lon="5.35682">
        <ele>330</ele>
        <time>2020-06-03T10:04:29Z</time>
      </trkpt>
      <trkpt lat="43.61858" lon="5.35683">
        <ele>331</ele>
        <time>2020-06-03T10:04:34Z</time>
      </trkpt>
      <trkpt lat="43.61859" lon="5.35684">
        <ele>331</ele>
        <time>2020-06-03T10:04:39Z</time>
      </trkpt>
      <trkpt lat="43.6186" lon="5.35686">
        <ele>331</ele>
        <time>2020-06-03T10:04:43Z</time>
      </trkpt>
      <trkpt lat="43.61859" lon="5.35687">
        <ele>331</ele>
        <time>2020-06-03T10:04:47Z</time>
      </trkpt>
      <trkpt lat="43.61857" lon="5.35694">
        <ele>331</ele>
        <time>2020-06-03T10:04:51Z</time>
      </trkpt>
      <trkpt lat="43.61854" lon="5.35697">
        <ele>331</ele>
        <time>2020-06-03T10:04:55Z</time>
      </trkpt>
      <trkpt lat="43.61853" lon="5.35701">
        <ele>331</ele>
        <time>2020-06-03T10:04:59Z</time>
      </trkpt>
      <trkpt lat="43.6185" lon="5.35706">
        <ele>331</ele>
        <time>2020-06-03T10:05:03Z</time>
      </trkpt>
      <trkpt lat="43.61851" lon="5.35712">
        <ele>332</ele>
        <time>2020-06-03T10:05:08Z</time>
      </trkpt>
      <trkpt lat="43.61851" lon="5.35719">
        <ele>332</ele>
        <time>2020-06-03T10:05:12Z</time>
      </trkpt>
      <trkpt lat="43.61849" lon="5.35725">
        <ele>331</ele>
        <time>2020-06-03T10:05:16Z</time>
      </trkpt>
      <trkpt lat="43.61848" lon="5.35731">
        <ele>331</ele>
        <time>2020-06-03T10:05:21Z</time>
      </trkpt>
      <trkpt lat="43.61848" lon="5.35735">
        <ele>331</ele>
        <time>2020-06-03T10:05:25Z</time>
      </trkpt>
      <trkpt lat="43.61848" lon="5.35737">
        <ele>331</ele>
        <time>2020-06-03T10:05:30Z</time>
      </trkpt>
      <trkpt lat="43.61848" lon="5.35742">
        <ele>331</ele>
        <time>2020-06-03T10:05:35Z</time>
      </trkpt>
      <trkpt lat="43.61848" lon="5.35748">
        <ele>331</ele>
        <time>2020-06-03T10:05:39Z</time>
      </trkpt>
      <trkpt lat="43.61849" lon="5.35759">
        <ele>333</ele>
        <time>2020-06-03T10:05:44Z</time>
      </trkpt>
      <trkpt lat="43.61848" lon="5.35764">
        <ele>333</ele>
        <time>2020-06-03T10:05:48Z</time>
      </trkpt>
      <trkpt lat="43.61848" lon="5.35766">
        <ele>333</ele>
        <time>2020-06-03T10:05:52Z</time>
      </trkpt>
      <trkpt lat="43.61848" lon="5.35767">
        <ele>333</ele>
        <time>2020-06-03T10:06:02Z</time>
      </trkpt>
      <trkpt lat="43.61848" lon="5.35768">
        <ele>333</ele>
        <time>2020-06-03T10:06:14Z</time>
      </trkpt>
      <trkpt lat="43.61848" lon="5.35769">
        <ele>333</ele>
        <time>2020-06-03T10:06:36Z</time>
      </trkpt>
      <trkpt lat="43.61848" lon="5.35769">
        <ele>333</ele>
        <time>2020-06-03T10:06:46Z</time>
      </trkpt>
      <trkpt lat="43.61846" lon="5.35772">
        <ele>334</ele>
        <time>2020-06-03T10:06:50Z</time>
      </trkpt>
      <trkpt lat="43.61846" lon="5.35778">
        <ele>334</ele>
        <time>2020-06-03T10:06:55Z</time>
      </trkpt>
      <trkpt lat="43.61847" lon="5.35783">
        <ele>334</ele>
        <time>2020-06-03T10:07:00Z</time>
      </trkpt>
      <trkpt lat="43.61846" lon="5.35788">
        <ele>335</ele>
        <time>2020-06-03T10:07:04Z</time>
      </trkpt>
      <trkpt lat="43.61845" lon="5.35792">
        <ele>335</ele>
        <time>2020-06-03T10:07:08Z</time>
      </trkpt>
      <trkpt lat="43.61843" lon="5.35797">
        <ele>335</ele>
        <time>2020-06-03T10:07:13Z</time>
      </trkpt>
      <trkpt lat="43.6184" lon="5.35804">
        <ele>335</ele>
        <time>2020-06-03T10:07:17Z</time>
      </trkpt>
      <trkpt lat="43.61836" lon="5.3581">
        <ele>334</ele>
        <time>2020-06-03T10:07:22Z</time>
      </trkpt>
      <trkpt lat="43.61833" lon="5.35816">
        <ele>328</ele>
        <time>2020-06-03T10:07:27Z</time>
      </trkpt>
      <trkpt lat="43.6183" lon="5.3582">
        <ele>328</ele>
        <time>2020-06-03T10:07:31Z</time>
      </trkpt>
      <trkpt lat="43.61828" lon="5.35824">
        <ele>329</ele>
        <time>2020-06-03T10:07:36Z</time>
      </trkpt>
      <trkpt lat="43.61826" lon="5.3583">
        <ele>330</ele>
        <time>2020-06-03T10:07:41Z</time>
      </trkpt>
      <trkpt lat="43.61823" lon="5.35835">
        <ele>330</ele>
        <time>2020-06-03T10:07:45Z</time>
      </trkpt>
      <trkpt lat="43.61821" lon="5.35839">
        <ele>330</ele>
        <time>2020-06-03T10:07:49Z</time>
      </trkpt>
      <trkpt lat="43.61818" lon="5.35844">
        <ele>329</ele>
        <time>2020-06-03T10:07:54Z</time>
      </trkpt>
      <trkpt lat="43.61816" lon="5.3585">
        <ele>329</ele>
        <time>2020-06-03T10:07:58Z</time>
      </trkpt>
      <trkpt lat="43.61815" lon="5.35858">
        <ele>328</ele>
        <time>2020-06-03T10:08:03Z</time>
      </trkpt>
      <trkpt lat="43.61814" lon="5.35864">
        <ele>328</ele>
        <time>2020-06-03T10:08:07Z</time>
      </trkpt>
      <trkpt lat="43.61814" lon="5.35871">
        <ele>328</ele>
        <time>2020-06-03T10:08:12Z</time>
      </trkpt>
      <trkpt lat="43.61812" lon="5.35878">
        <ele>328</ele>
        <time>2020-06-03T10:08:17Z</time>
      </trkpt>
      <trkpt lat="43.61811" lon="5.35883">
        <ele>328</ele>
        <time>2020-06-03T10:08:21Z</time>
      </trkpt>
      <trkpt lat="43.61811" lon="5.35889">
        <ele>329</ele>
        <time>2020-06-03T10:08:26Z</time>
      </trkpt>
      <trkpt lat="43.6181" lon="5.35892">
        <ele>329</ele>
        <time>2020-06-03T10:08:30Z</time>
      </trkpt>
      <trkpt lat="43.61809" lon="5.35901">
        <ele>329</ele>
        <time>2020-06-03T10:08:35Z</time>
      </trkpt>
      <trkpt lat="43.61808" lon="5.35907">
        <ele>329</ele>
        <time>2020-06-03T10:08:39Z</time>
      </trkpt>
      <trkpt lat="43.61808" lon="5.35912">
        <ele>329</ele>
        <time>2020-06-03T10:08:44Z</time>
      </trkpt>
      <trkpt lat="43.61807" lon="5.3592">
        <ele>331</ele>
        <time>2020-06-03T10:08:49Z</time>
      </trkpt>
      <trkpt lat="43.61807" lon="5.35927">
        <ele>331</ele>
        <time>2020-06-03T10:08:53Z</time>
      </trkpt>
      <trkpt lat="43.61807" lon="5.35934">
        <ele>330</ele>
        <time>2020-06-03T10:08:58Z</time>
      </trkpt>
      <trkpt lat="43.61805" lon="5.35943">
        <ele>330</ele>
        <time>2020-06-03T10:09:03Z</time>
      </trkpt>
      <trkpt lat="43.61804" lon="5.35947">
        <ele>330</ele>
        <time>2020-06-03T10:09:08Z</time>
      </trkpt>
      <trkpt lat="43.61802" lon="5.35952">
        <ele>330</ele>
        <time>2020-06-03T10:09:12Z</time>
      </trkpt>
      <trkpt lat="43.61801" lon="5.3596">
        <ele>330</ele>
        <time>2020-06-03T10:09:17Z</time>
      </trkpt>
      <trkpt lat="43.61801" lon="5.35967">
        <ele>330</ele>
        <time>2020-06-03T10:09:21Z</time>
      </trkpt>
      <trkpt lat="43.618" lon="5.35971">
        <ele>330</ele>
        <time>2020-06-03T10:09:25Z</time>
      </trkpt>
      <trkpt lat="43.61801" lon="5.35978">
        <ele>330</ele>
        <time>2020-06-03T10:09:29Z</time>
      </trkpt>
      <trkpt lat="43.61801" lon="5.35983">
        <ele>330</ele>
        <time>2020-06-03T10:09:33Z</time>
      </trkpt>
      <trkpt lat="43.61801" lon="5.35989">
        <ele>330</ele>
        <time>2020-06-03T10:09:37Z</time>
      </trkpt>
      <trkpt lat="43.618" lon="5.35994">
        <ele>330</ele>
        <time>2020-06-03T10:09:41Z</time>
      </trkpt>
      <trkpt lat="43.618" lon="5.36">
        <ele>330</ele>
        <time>2020-06-03T10:09:45Z</time>
      </trkpt>
      <trkpt lat="43.61801" lon="5.36004">
        <ele>330</ele>
        <time>2020-06-03T10:09:49Z</time>
      </trkpt>
      <trkpt lat="43.61801" lon="5.3601">
        <ele>330</ele>
        <time>2020-06-03T10:09:53Z</time>
      </trkpt>
      <trkpt lat="43.61802" lon="5.36014">
        <ele>330</ele>
        <time>2020-06-03T10:09:57Z</time>
      </trkpt>
      <trkpt lat="43.61801" lon="5.36021">
        <ele>330</ele>
        <time>2020-06-03T10:10:02Z</time>
      </trkpt>
      <trkpt lat="43.61802" lon="5.36029">
        <ele>330</ele>
        <time>2020-06-03T10:10:07Z</time>
      </trkpt>
      <trkpt lat="43.61801" lon="5.36033">
        <ele>330</ele>
        <time>2020-06-03T10:10:11Z</time>
      </trkpt>
      <trkpt lat="43.61801" lon="5.3604">
        <ele>330</ele>
        <time>2020-06-03T10:10:15Z</time>
      </trkpt>
      <trkpt lat="43.61801" lon="5.36048">
        <ele>329</ele>
        <time>2020-06-03T10:10:20Z</time>
      </trkpt>
      <trkpt lat="43.61801" lon="5.36056">
        <ele>329</ele>
        <time>2020-06-03T10:10:25Z</time>
      </trkpt>
      <trkpt lat="43.61801" lon="5.36062">
        <ele>329</ele>
        <time>2020-06-03T10:10:30Z</time>
      </trkpt>
      <trkpt lat="43.61802" lon="5.36067">
        <ele>329</ele>
        <time>2020-06-03T10:10:34Z</time>
      </trkpt>
      <trkpt lat="43.61802" lon="5.36071">
        <ele>329</ele>
        <time>2020-06-03T10:10:38Z</time>
      </trkpt>
      <trkpt lat="43.61803" lon="5.36075">
        <ele>329</ele>
        <time>2020-06-03T10:10:42Z</time>
      </trkpt>
      <trkpt lat="43.61803" lon="5.3608">
        <ele>329</ele>
        <time>2020-06-03T10:10:47Z</time>
      </trkpt>
      <trkpt lat="43.61804" lon="5.36083">
        <ele>329</ele>
        <time>2020-06-03T10:10:52Z</time>
      </trkpt>
      <trkpt lat="43.61804" lon="5.36084">
        <ele>329</ele>
        <time>2020-06-03T10:11:02Z</time>
      </trkpt>
      <trkpt lat="43.61804" lon="5.36085">
        <ele>329</ele>
        <time>2020-06-03T10:11:06Z</time>
      </trkpt>
      <trkpt lat="43.61805" lon="5.36085">
        <ele>329</ele>
        <time>2020-06-03T10:11:18Z</time>
      </trkpt>
      <trkpt lat="43.61805" lon="5.36084">
        <ele>329</ele>
        <time>2020-06-03T10:11:37Z</time>
      </trkpt>
      <trkpt lat="43.61805" lon="5.36083">
        <ele>329</ele>
        <time>2020-06-03T10:11:43Z</time>
      </trkpt>
      <trkpt lat="43.61805" lon="5.36084">
        <ele>329</ele>
        <time>2020-06-03T10:11:50Z</time>
      </trkpt>
      <trkpt lat="43.61806" lon="5.36084">
        <ele>329</ele>
        <time>2020-06-03T10:11:55Z</time>
      </trkpt>
      <trkpt lat="43.61807" lon="5.36083">
        <ele>329</ele>
        <time>2020-06-03T10:11:59Z</time>
      </trkpt>
      <trkpt lat="43.61807" lon="5.36082">
        <ele>329</ele>
        <time>2020-06-03T10:12:03Z</time>
      </trkpt>
      <trkpt lat="43.61807" lon="5.36081">
        <ele>329</ele>
        <time>2020-06-03T10:12:07Z</time>
      </trkpt>
      <trkpt lat="43.61807" lon="5.36079">
        <ele>329</ele>
        <time>2020-06-03T10:12:12Z</time>
      </trkpt>
      <trkpt lat="43.61812" lon="5.36078">
        <ele>330</ele>
        <time>2020-06-03T10:12:17Z</time>
      </trkpt>
      <trkpt lat="43.61814" lon="5.36078">
        <ele>330</ele>
        <time>2020-06-03T10:12:21Z</time>
      </trkpt>
      <trkpt lat="43.61814" lon="5.36077">
        <ele>330</ele>
        <time>2020-06-03T10:12:26Z</time>
      </trkpt>
      <trkpt lat="43.61815" lon="5.36076">
        <ele>330</ele>
        <time>2020-06-03T10:12:32Z</time>
      </trkpt>
      <trkpt lat="43.61814" lon="5.36074">
        <ele>330</ele>
        <time>2020-06-03T10:12:36Z</time>
      </trkpt>
      <trkpt lat="43.61815" lon="5.36074">
        <ele>330</ele>
        <time>2020-06-03T10:12:45Z</time>
      </trkpt>
      <trkpt lat="43.61815" lon="5.36073">
        <ele>330</ele>
        <time>2020-06-03T10:13:01Z</time>
      </trkpt>
      <trkpt lat="43.61816" lon="5.36072">
        <ele>330</ele>
        <time>2020-06-03T10:13:05Z</time>
      </trkpt>
      <trkpt lat="43.61817" lon="5.36071">
        <ele>330</ele>
        <time>2020-06-03T10:13:13Z</time>
      </trkpt>
      <trkpt lat="43.61816" lon="5.3607">
        <ele>330</ele>
        <time>2020-06-03T10:13:23Z</time>
      </trkpt>
      <trkpt lat="43.61816" lon="5.3607">
        <ele>330</ele>
        <time>2020-06-03T10:13:28Z</time>
      </trkpt>
      <trkpt lat="43.61817" lon="5.3607">
        <ele>330</ele>
        <time>2020-06-03T10:13:36Z</time>
      </trkpt>
      <trkpt lat="43.61816" lon="5.3607">
        <ele>330</ele>
        <time>2020-06-03T10:13:45Z</time>
      </trkpt>
      <trkpt lat="43.61815" lon="5.3607">
        <ele>330</ele>
        <time>2020-06-03T10:13:50Z</time>
      </trkpt>
      <trkpt lat="43.61815" lon="5.36071">
        <ele>330</ele>
        <time>2020-06-03T10:13:54Z</time>
      </trkpt>
      <trkpt lat="43.61816" lon="5.36069">
        <ele>330</ele>
        <time>2020-06-03T10:13:58Z</time>
      </trkpt>
      <trkpt lat="43.61813" lon="5.36071">
        <ele>330</ele>
        <time>2020-06-03T10:14:03Z</time>
      </trkpt>
      <trkpt lat="43.61812" lon="5.36073">
        <ele>330</ele>
        <time>2020-06-03T10:14:08Z</time>
      </trkpt>
      <trkpt lat="43.61811" lon="5.36073">
        <ele>330</ele>
        <time>2020-06-03T10:14:12Z</time>
      </trkpt>
      <trkpt lat="43.61811" lon="5.36073">
        <ele>330</ele>
        <time>2020-06-03T10:14:17Z</time>
      </trkpt>
      <trkpt lat="43.61808" lon="5.36074">
        <ele>329</ele>
        <time>2020-06-03T10:14:22Z</time>
      </trkpt>
      <trkpt lat="43.61805" lon="5.3608">
        <ele>329</ele>
        <time>2020-06-03T10:14:27Z</time>
      </trkpt>
      <trkpt lat="43.61804" lon="5.36085">
        <ele>329</ele>
        <time>2020-06-03T10:14:31Z</time>
      </trkpt>
      <trkpt lat="43.61803" lon="5.36091">
        <ele>329</ele>
        <time>2020-06-03T10:14:36Z</time>
      </trkpt>
      <trkpt lat="43.61804" lon="5.36095">
        <ele>329</ele>
        <time>2020-06-03T10:14:41Z</time>
      </trkpt>
      <trkpt lat="43.61806" lon="5.36096">
        <ele>329</ele>
        <time>2020-06-03T10:14:45Z</time>
      </trkpt>
      <trkpt lat="43.61805" lon="5.36096">
        <ele>329</ele>
        <time>2020-06-03T10:14:50Z</time>
      </trkpt>
      <trkpt lat="43.61804" lon="5.36096">
        <ele>329</ele>
        <time>2020-06-03T10:14:56Z</time>
      </trkpt>
      <trkpt lat="43.61805" lon="5.36095">
        <ele>329</ele>
        <time>2020-06-03T10:15:02Z</time>
      </trkpt>
      <trkpt lat="43.61804" lon="5.36096">
        <ele>329</ele>
        <time>2020-06-03T10:15:13Z</time>
      </trkpt>
      <trkpt lat="43.61802" lon="5.36095">
        <ele>329</ele>
        <time>2020-06-03T10:15:17Z</time>
      </trkpt>
      <trkpt lat="43.61801" lon="5.36096">
        <ele>329</ele>
        <time>2020-06-03T10:15:22Z</time>
      </trkpt>
      <trkpt lat="43.618" lon="5.36095">
        <ele>329</ele>
        <time>2020-06-03T10:15:30Z</time>
      </trkpt>
      <trkpt lat="43.61801" lon="5.36096">
        <ele>329</ele>
        <time>2020-06-03T10:15:37Z</time>
      </trkpt>
      <trkpt lat="43.61799" lon="5.36098">
        <ele>329</ele>
        <time>2020-06-03T10:15:41Z</time>
      </trkpt>
      <trkpt lat="43.61798" lon="5.36099">
        <ele>329</ele>
        <time>2020-06-03T10:15:54Z</time>
      </trkpt>
      <trkpt lat="43.618" lon="5.36102">
        <ele>329</ele>
        <time>2020-06-03T10:15:58Z</time>
      </trkpt>
      <trkpt lat="43.618" lon="5.36103">
        <ele>329</ele>
        <time>2020-06-03T10:16:03Z</time>
      </trkpt>
      <trkpt lat="43.618" lon="5.36106">
        <ele>329</ele>
        <time>2020-06-03T10:16:08Z</time>
      </trkpt>
      <trkpt lat="43.61798" lon="5.36113">
        <ele>329</ele>
        <time>2020-06-03T10:16:13Z</time>
      </trkpt>
      <trkpt lat="43.61797" lon="5.36115">
        <ele>329</ele>
        <time>2020-06-03T10:16:17Z</time>
      </trkpt>
      <trkpt lat="43.61796" lon="5.36116">
        <ele>329</ele>
        <time>2020-06-03T10:16:22Z</time>
      </trkpt>
      <trkpt lat="43.61796" lon="5.36115">
        <ele>329</ele>
        <time>2020-06-03T10:16:46Z</time>
      </trkpt>
      <trkpt lat="43.61795" lon="5.36114">
        <ele>329</ele>
        <time>2020-06-03T10:16:50Z</time>
      </trkpt>
      <trkpt lat="43.61794" lon="5.36112">
        <ele>329</ele>
        <time>2020-06-03T10:16:55Z</time>
      </trkpt>
      <trkpt lat="43.61794" lon="5.36112">
        <ele>329</ele>
        <time>2020-06-03T10:17:02Z</time>
      </trkpt>
      <trkpt lat="43.61795" lon="5.36113">
        <ele>329</ele>
        <time>2020-06-03T10:17:06Z</time>
      </trkpt>
      <trkpt lat="43.61795" lon="5.36114">
        <ele>329</ele>
        <time>2020-06-03T10:17:11Z</time>
      </trkpt>
      <trkpt lat="43.61796" lon="5.36113">
        <ele>329</ele>
        <time>2020-06-03T10:17:15Z</time>
      </trkpt>
      <trkpt lat="43.61798" lon="5.36106">
        <ele>329</ele>
        <time>2020-06-03T10:17:20Z</time>
      </trkpt>
      <trkpt lat="43.618" lon="5.36102">
        <ele>329</ele>
        <time>2020-06-03T10:17:24Z</time>
      </trkpt>
      <trkpt lat="43.61804" lon="5.36103">
        <ele>329</ele>
        <time>2020-06-03T10:17:29Z</time>
      </trkpt>
      <trkpt lat="43.61803" lon="5.36102">
        <ele>329</ele>
        <time>2020-06-03T10:17:33Z</time>
      </trkpt>
      <trkpt lat="43.61802" lon="5.361">
        <ele>329</ele>
        <time>2020-06-03T10:17:38Z</time>
      </trkpt>
      <trkpt lat="43.61801" lon="5.36099">
        <ele>329</ele>
        <time>2020-06-03T10:17:50Z</time>
      </trkpt>
      <trkpt lat="43.61799" lon="5.36097">
        <ele>329</ele>
        <time>2020-06-03T10:17:55Z</time>
      </trkpt>
      <trkpt lat="43.61799" lon="5.36098">
        <ele>329</ele>
        <time>2020-06-03T10:17:59Z</time>
      </trkpt>
      <trkpt lat="43.61799" lon="5.36102">
        <ele>329</ele>
        <time>2020-06-03T10:18:03Z</time>
      </trkpt>
      <trkpt lat="43.618" lon="5.36101">
        <ele>329</ele>
        <time>2020-06-03T10:18:08Z</time>
      </trkpt>
      <trkpt lat="43.618" lon="5.36098">
        <ele>329</ele>
        <time>2020-06-03T10:18:12Z</time>
      </trkpt>
      <trkpt lat="43.61803" lon="5.36095">
        <ele>329</ele>
        <time>2020-06-03T10:18:17Z</time>
      </trkpt>
      <trkpt lat="43.61804" lon="5.36092">
        <ele>329</ele>
        <time>2020-06-03T10:18:21Z</time>
      </trkpt>
      <trkpt lat="43.61804" lon="5.36091">
        <ele>329</ele>
        <time>2020-06-03T10:18:30Z</time>
      </trkpt>
      <trkpt lat="43.61803" lon="5.3609">
        <ele>329</ele>
        <time>2020-06-03T10:18:35Z</time>
      </trkpt>
      <trkpt lat="43.61803" lon="5.36082">
        <ele>329</ele>
        <time>2020-06-03T10:18:40Z</time>
      </trkpt>
      <trkpt lat="43.61804" lon="5.36082">
        <ele>329</ele>
        <time>2020-06-03T10:18:54Z</time>
      </trkpt>
      <trkpt lat="43.61805" lon="5.36079">
        <ele>329</ele>
        <time>2020-06-03T10:18:59Z</time>
      </trkpt>
      <trkpt lat="43.61806" lon="5.36078">
        <ele>329</ele>
        <time>2020-06-03T10:19:03Z</time>
      </trkpt>
      <trkpt lat="43.61806" lon="5.36087">
        <ele>329</ele>
        <time>2020-06-03T10:19:08Z</time>
      </trkpt>
      <trkpt lat="43.61805" lon="5.36092">
        <ele>329</ele>
        <time>2020-06-03T10:19:12Z</time>
      </trkpt>
      <trkpt lat="43.61805" lon="5.36095">
        <ele>329</ele>
        <time>2020-06-03T10:19:16Z</time>
      </trkpt>
      <trkpt lat="43.61804" lon="5.36098">
        <ele>329</ele>
        <time>2020-06-03T10:19:20Z</time>
      </trkpt>
      <trkpt lat="43.61805" lon="5.36099">
        <ele>329</ele>
        <time>2020-06-03T10:19:25Z</time>
      </trkpt>
      <trkpt lat="43.61805" lon="5.361">
        <ele>329</ele>
        <time>2020-06-03T10:19:29Z</time>
      </trkpt>
      <trkpt lat="43.61806" lon="5.36102">
        <ele>329</ele>
        <time>2020-06-03T10:19:33Z</time>
      </trkpt>
      <trkpt lat="43.61805" lon="5.36104">
        <ele>329</ele>
        <time>2020-06-03T10:19:37Z</time>
      </trkpt>
      <trkpt lat="43.61803" lon="5.36104">
        <ele>329</ele>
        <time>2020-06-03T10:19:41Z</time>
      </trkpt>
      <trkpt lat="43.61802" lon="5.36104">
        <ele>329</ele>
        <time>2020-06-03T10:19:50Z</time>
      </trkpt>
      <trkpt lat="43.61802" lon="5.36103">
        <ele>329</ele>
        <time>2020-06-03T10:19:54Z</time>
      </trkpt>
      <trkpt lat="43.61802" lon="5.36101">
        <ele>329</ele>
        <time>2020-06-03T10:19:59Z</time>
      </trkpt>
      <trkpt lat="43.61802" lon="5.361">
        <ele>329</ele>
        <time>2020-06-03T10:20:03Z</time>
      </trkpt>
      <trkpt lat="43.61802" lon="5.36098">
        <ele>329</ele>
        <time>2020-06-03T10:20:07Z</time>
      </trkpt>
      <trkpt lat="43.61801" lon="5.36098">
        <ele>329</ele>
        <time>2020-06-03T10:20:13Z</time>
      </trkpt>
      <trkpt lat="43.61801" lon="5.36097">
        <ele>329</ele>
        <time>2020-06-03T10:20:18Z</time>
      </trkpt>
      <trkpt lat="43.61799" lon="5.36102">
        <ele>329</ele>
        <time>2020-06-03T10:20:23Z</time>
      </trkpt>
      <trkpt lat="43.61798" lon="5.36103">
        <ele>329</ele>
        <time>2020-06-03T10:20:27Z</time>
      </trkpt>
      <trkpt lat="43.61798" lon="5.36103">
        <ele>329</ele>
        <time>2020-06-03T10:20:35Z</time>
      </trkpt>
      <trkpt lat="43.61796" lon="5.36104">
        <ele>329</ele>
        <time>2020-06-03T10:20:40Z</time>
      </trkpt>
      <trkpt lat="43.61797" lon="5.36103">
        <ele>329</ele>
        <time>2020-06-03T10:20:45Z</time>
      </trkpt>
      <trkpt lat="43.61797" lon="5.36103">
        <ele>329</ele>
        <time>2020-06-03T10:20:54Z</time>
      </trkpt>
      <trkpt lat="43.61798" lon="5.36101">
        <ele>329</ele>
        <time>2020-06-03T10:20:59Z</time>
      </trkpt>
      <trkpt lat="43.61798" lon="5.361">
        <ele>329</ele>
        <time>2020-06-03T10:21:04Z</time>
      </trkpt>
      <trkpt lat="43.61798" lon="5.36099">
        <ele>329</ele>
        <time>2020-06-03T10:21:19Z</time>
      </trkpt>
      <trkpt lat="43.61799" lon="5.361">
        <ele>329</ele>
        <time>2020-06-03T10:21:26Z</time>
      </trkpt>
      <trkpt lat="43.61799" lon="5.36099">
        <ele>329</ele>
        <time>2020-06-03T10:21:30Z</time>
      </trkpt>
      <trkpt lat="43.61799" lon="5.36097">
        <ele>329</ele>
        <time>2020-06-03T10:21:35Z</time>
      </trkpt>
      <trkpt lat="43.61798" lon="5.36095">
        <ele>329</ele>
        <time>2020-06-03T10:21:40Z</time>
      </trkpt>
      <trkpt lat="43.61798" lon="5.36091">
        <ele>329</ele>
        <time>2020-06-03T10:21:44Z</time>
      </trkpt>
      <trkpt lat="43.61798" lon="5.36094">
        <ele>329</ele>
        <time>2020-06-03T10:21:49Z</time>
      </trkpt>
      <trkpt lat="43.61799" lon="5.36094">
        <ele>329</ele>
        <time>2020-06-03T10:21:54Z</time>
      </trkpt>
      <trkpt lat="43.61799" lon="5.36094">
        <ele>329</ele>
        <time>2020-06-03T10:22:00Z</time>
      </trkpt>
      <trkpt lat="43.61799" lon="5.36093">
        <ele>329</ele>
        <time>2020-06-03T10:22:04Z</time>
      </trkpt>
      <trkpt lat="43.61797" lon="5.36098">
        <ele>329</ele>
        <time>2020-06-03T10:22:09Z</time>
      </trkpt>
      <trkpt lat="43.61798" lon="5.36102">
        <ele>329</ele>
        <time>2020-06-03T10:22:13Z</time>
      </trkpt>
      <trkpt lat="43.61797" lon="5.36103">
        <ele>329</ele>
        <time>2020-06-03T10:22:17Z</time>
      </trkpt>
      <trkpt lat="43.61798" lon="5.36101">
        <ele>329</ele>
        <time>2020-06-03T10:22:22Z</time>
      </trkpt>
      <trkpt lat="43.61798" lon="5.361">
        <ele>329</ele>
        <time>2020-06-03T10:22:26Z</time>
      </trkpt>
      <trkpt lat="43.61799" lon="5.36102">
        <ele>329</ele>
        <time>2020-06-03T10:22:30Z</time>
      </trkpt>
      <trkpt lat="43.61799" lon="5.36101">
        <ele>329</ele>
        <time>2020-06-03T10:22:34Z</time>
      </trkpt>
      <trkpt lat="43.618" lon="5.36098">
        <ele>329</ele>
        <time>2020-06-03T10:22:38Z</time>
      </trkpt>
      <trkpt lat="43.618" lon="5.36098">
        <ele>329</ele>
        <time>2020-06-03T10:22:46Z</time>
      </trkpt>
      <trkpt lat="43.61799" lon="5.36097">
        <ele>329</ele>
        <time>2020-06-03T10:22:51Z</time>
      </trkpt>
      <trkpt lat="43.61797" lon="5.36096">
        <ele>329</ele>
        <time>2020-06-03T10:22:55Z</time>
      </trkpt>
      <trkpt lat="43.61795" lon="5.36098">
        <ele>329</ele>
        <time>2020-06-03T10:22:59Z</time>
      </trkpt>
      <trkpt lat="43.61794" lon="5.36099">
        <ele>329</ele>
        <time>2020-06-03T10:23:04Z</time>
      </trkpt>
      <trkpt lat="43.61794" lon="5.361">
        <ele>329</ele>
        <time>2020-06-03T10:23:20Z</time>
      </trkpt>
      <trkpt lat="43.61795" lon="5.36101">
        <ele>329</ele>
        <time>2020-06-03T10:23:25Z</time>
      </trkpt>
      <trkpt lat="43.61797" lon="5.36102">
        <ele>329</ele>
        <time>2020-06-03T10:23:29Z</time>
      </trkpt>
      <trkpt lat="43.61798" lon="5.36107">
        <ele>329</ele>
        <time>2020-06-03T10:23:34Z</time>
      </trkpt>
      <trkpt lat="43.61799" lon="5.36111">
        <ele>329</ele>
        <time>2020-06-03T10:23:38Z</time>
      </trkpt>
      <trkpt lat="43.61798" lon="5.36117">
        <ele>329</ele>
        <time>2020-06-03T10:23:43Z</time>
      </trkpt>
      <trkpt lat="43.61797" lon="5.36118">
        <ele>329</ele>
        <time>2020-06-03T10:23:47Z</time>
      </trkpt>
      <trkpt lat="43.61795" lon="5.36119">
        <ele>329</ele>
        <time>2020-06-03T10:23:52Z</time>
      </trkpt>
      <trkpt lat="43.61795" lon="5.36118">
        <ele>329</ele>
        <time>2020-06-03T10:23:57Z</time>
      </trkpt>
      <trkpt lat="43.61799" lon="5.36106">
        <ele>329</ele>
        <time>2020-06-03T10:24:02Z</time>
      </trkpt>
      <trkpt lat="43.61801" lon="5.361">
        <ele>329</ele>
        <time>2020-06-03T10:24:06Z</time>
      </trkpt>
      <trkpt lat="43.61803" lon="5.36094">
        <ele>329</ele>
        <time>2020-06-03T10:24:10Z</time>
      </trkpt>
      <trkpt lat="43.61805" lon="5.36089">
        <ele>329</ele>
        <time>2020-06-03T10:24:15Z</time>
      </trkpt>
      <trkpt lat="43.61805" lon="5.36085">
        <ele>329</ele>
        <time>2020-06-03T10:24:19Z</time>
      </trkpt>
      <trkpt lat="43.61805" lon="5.36083">
        <ele>329</ele>
        <time>2020-06-03T10:24:23Z</time>
      </trkpt>
      <trkpt lat="43.61805" lon="5.36081">
        <ele>329</ele>
        <time>2020-06-03T10:24:27Z</time>
      </trkpt>
      <trkpt lat="43.61805" lon="5.36079">
        <ele>329</ele>
        <time>2020-06-03T10:24:31Z</time>
      </trkpt>
      <trkpt lat="43.61805" lon="5.36079">
        <ele>329</ele>
        <time>2020-06-03T10:24:36Z</time>
      </trkpt>
      <trkpt lat="43.61806" lon="5.36079">
        <ele>329</ele>
        <time>2020-06-03T10:25:04Z</time>
      </trkpt>
      <trkpt lat="43.61805" lon="5.36084">
        <ele>329</ele>
        <time>2020-06-03T10:25:09Z</time>
      </trkpt>
      <trkpt lat="43.61804" lon="5.36088">
        <ele>329</ele>
        <time>2020-06-03T10:25:14Z</time>
      </trkpt>
      <trkpt lat="43.61802" lon="5.36091">
        <ele>329</ele>
        <time>2020-06-03T10:25:18Z</time>
      </trkpt>
      <trkpt lat="43.61802" lon="5.36093">
        <ele>329</ele>
        <time>2020-06-03T10:25:22Z</time>
      </trkpt>
      <trkpt lat="43.61802" lon="5.36094">
        <ele>329</ele>
        <time>2020-06-03T10:25:35Z</time>
      </trkpt>
      <trkpt lat="43.61802" lon="5.36095">
        <ele>329</ele>
        <time>2020-06-03T10:25:44Z</time>
      </trkpt>
      <trkpt lat="43.61802" lon="5.36094">
        <ele>329</ele>
        <time>2020-06-03T10:25:54Z</time>
      </trkpt>
      <trkpt lat="43.61802" lon="5.36094">
        <ele>329</ele>
        <time>2020-06-03T10:26:00Z</time>
      </trkpt>
      <trkpt lat="43.61803" lon="5.36095">
        <ele>329</ele>
        <time>2020-06-03T10:26:04Z</time>
      </trkpt>
      <trkpt lat="43.61802" lon="5.36094">
        <ele>329</ele>
        <time>2020-06-03T10:26:13Z</time>
      </trkpt>
      <trkpt lat="43.61802" lon="5.36092">
        <ele>329</ele>
        <time>2020-06-03T10:26:17Z</time>
      </trkpt>
      <trkpt lat="43.61802" lon="5.36091">
        <ele>329</ele>
        <time>2020-06-03T10:26:24Z</time>
      </trkpt>
      <trkpt lat="43.61802" lon="5.36091">
        <ele>329</ele>
        <time>2020-06-03T10:26:32Z</time>
      </trkpt>
      <trkpt lat="43.61802" lon="5.36091">
        <ele>329</ele>
        <time>2020-06-03T10:26:39Z</time>
      </trkpt>
      <trkpt lat="43.61801" lon="5.3609">
        <ele>329</ele>
        <time>2020-06-03T10:26:43Z</time>
      </trkpt>
      <trkpt lat="43.61802" lon="5.36093">
        <ele>329</ele>
        <time>2020-06-03T10:26:48Z</time>
      </trkpt>
      <trkpt lat="43.61803" lon="5.36094">
        <ele>329</ele>
        <time>2020-06-03T10:26:56Z</time>
      </trkpt>
      <trkpt lat="43.61803" lon="5.36095">
        <ele>329</ele>
        <time>2020-06-03T10:27:05Z</time>
      </trkpt>
      <trkpt lat="43.61802" lon="5.36096">
        <ele>329</ele>
        <time>2020-06-03T10:27:14Z</time>
      </trkpt>
      <trkpt lat="43.61802" lon="5.36097">
        <ele>329</ele>
        <time>2020-06-03T10:27:32Z</time>
      </trkpt>
      <trkpt lat="43.61801" lon="5.36097">
        <ele>329</ele>
        <time>2020-06-03T10:27:42Z</time>
      </trkpt>
      <trkpt lat="43.618" lon="5.36098">
        <ele>329</ele>
        <time>2020-06-03T10:27:52Z</time>
      </trkpt>
      <trkpt lat="43.618" lon="5.36097">
        <ele>329</ele>
        <time>2020-06-03T10:28:24Z</time>
      </trkpt>
      <trkpt lat="43.61799" lon="5.36096">
        <ele>329</ele>
        <time>2020-06-03T10:28:29Z</time>
      </trkpt>
      <trkpt lat="43.61799" lon="5.36096">
        <ele>329</ele>
        <time>2020-06-03T10:28:41Z</time>
      </trkpt>
      <trkpt lat="43.61801" lon="5.36097">
        <ele>329</ele>
        <time>2020-06-03T10:28:46Z</time>
      </trkpt>
      <trkpt lat="43.61801" lon="5.36098">
        <ele>329</ele>
        <time>2020-06-03T10:29:11Z</time>
      </trkpt>
      <trkpt lat="43.61802" lon="5.36099">
        <ele>329</ele>
        <time>2020-06-03T10:29:26Z</time>
      </trkpt>
      <trkpt lat="43.61801" lon="5.361">
        <ele>329</ele>
        <time>2020-06-03T10:29:31Z</time>
      </trkpt>
      <trkpt lat="43.61802" lon="5.36102">
        <ele>329</ele>
        <time>2020-06-03T10:29:35Z</time>
      </trkpt>
      <trkpt lat="43.61803" lon="5.36101">
        <ele>329</ele>
        <time>2020-06-03T10:29:47Z</time>
      </trkpt>
      <trkpt lat="43.61804" lon="5.36104">
        <ele>329</ele>
        <time>2020-06-03T10:29:52Z</time>
      </trkpt>
      <trkpt lat="43.61805" lon="5.36108">
        <ele>329</ele>
        <time>2020-06-03T10:29:56Z</time>
      </trkpt>
      <trkpt lat="43.61806" lon="5.36108">
        <ele>329</ele>
        <time>2020-06-03T10:30:11Z</time>
      </trkpt>
      <trkpt lat="43.61807" lon="5.36108">
        <ele>329</ele>
        <time>2020-06-03T10:30:15Z</time>
      </trkpt>
      <trkpt lat="43.61807" lon="5.36108">
        <ele>329</ele>
        <time>2020-06-03T10:30:27Z</time>
      </trkpt>
      <trkpt lat="43.61807" lon="5.36109">
        <ele>329</ele>
        <time>2020-06-03T10:30:33Z</time>
      </trkpt>
      <trkpt lat="43.61808" lon="5.36111">
        <ele>330</ele>
        <time>2020-06-03T10:30:38Z</time>
      </trkpt>
      <trkpt lat="43.61808" lon="5.36114">
        <ele>330</ele>
        <time>2020-06-03T10:30:42Z</time>
      </trkpt>
      <trkpt lat="43.61807" lon="5.36116">
        <ele>330</ele>
        <time>2020-06-03T10:30:46Z</time>
      </trkpt>
      <trkpt lat="43.61807" lon="5.36116">
        <ele>330</ele>
        <time>2020-06-03T10:30:52Z</time>
      </trkpt>
      <trkpt lat="43.61807" lon="5.36115">
        <ele>330</ele>
        <time>2020-06-03T10:30:57Z</time>
      </trkpt>
      <trkpt lat="43.61807" lon="5.36114">
        <ele>330</ele>
        <time>2020-06-03T10:31:03Z</time>
      </trkpt>
      <trkpt lat="43.61807" lon="5.36113">
        <ele>330</ele>
        <time>2020-06-03T10:31:08Z</time>
      </trkpt>
      <trkpt lat="43.61808" lon="5.36113">
        <ele>330</ele>
        <time>2020-06-03T10:31:13Z</time>
      </trkpt>
      <trkpt lat="43.61809" lon="5.36112">
        <ele>330</ele>
        <time>2020-06-03T10:31:18Z</time>
      </trkpt>
      <trkpt lat="43.61812" lon="5.36113">
        <ele>330</ele>
        <time>2020-06-03T10:31:22Z</time>
      </trkpt>
      <trkpt lat="43.61813" lon="5.36113">
        <ele>330</ele>
        <time>2020-06-03T10:31:32Z</time>
      </trkpt>
      <trkpt lat="43.61812" lon="5.36111">
        <ele>330</ele>
        <time>2020-06-03T10:31:36Z</time>
      </trkpt>
      <trkpt lat="43.61812" lon="5.36108">
        <ele>330</ele>
        <time>2020-06-03T10:31:41Z</time>
      </trkpt>
      <trkpt lat="43.61811" lon="5.36105">
        <ele>330</ele>
        <time>2020-06-03T10:31:46Z</time>
      </trkpt>
      <trkpt lat="43.61811" lon="5.36104">
        <ele>330</ele>
        <time>2020-06-03T10:31:56Z</time>
      </trkpt>
      <trkpt lat="43.61811" lon="5.36102">
        <ele>330</ele>
        <time>2020-06-03T10:32:00Z</time>
      </trkpt>
      <trkpt lat="43.61811" lon="5.36103">
        <ele>330</ele>
        <time>2020-06-03T10:32:04Z</time>
      </trkpt>
      <trkpt lat="43.61811" lon="5.36104">
        <ele>330</ele>
        <time>2020-06-03T10:32:10Z</time>
      </trkpt>
      <trkpt lat="43.6181" lon="5.36105">
        <ele>329</ele>
        <time>2020-06-03T10:32:14Z</time>
      </trkpt>
      <trkpt lat="43.61809" lon="5.36106">
        <ele>329</ele>
        <time>2020-06-03T10:32:20Z</time>
      </trkpt>
      <trkpt lat="43.61809" lon="5.36107">
        <ele>330</ele>
        <time>2020-06-03T10:32:25Z</time>
      </trkpt>
      <trkpt lat="43.61809" lon="5.36108">
        <ele>329</ele>
        <time>2020-06-03T10:32:30Z</time>
      </trkpt>
      <trkpt lat="43.61809" lon="5.36109">
        <ele>330</ele>
        <time>2020-06-03T10:32:40Z</time>
      </trkpt>
      <trkpt lat="43.61807" lon="5.36106">
        <ele>329</ele>
        <time>2020-06-03T10:32:45Z</time>
      </trkpt>
      <trkpt lat="43.61806" lon="5.36105">
        <ele>329</ele>
        <time>2020-06-03T10:32:50Z</time>
      </trkpt>
      <trkpt lat="43.61806" lon="5.36106">
        <ele>329</ele>
        <time>2020-06-03T10:32:54Z</time>
      </trkpt>
      <trkpt lat="43.61806" lon="5.36107">
        <ele>329</ele>
        <time>2020-06-03T10:32:58Z</time>
      </trkpt>
      <trkpt lat="43.61806" lon="5.36108">
        <ele>329</ele>
        <time>2020-06-03T10:33:08Z</time>
      </trkpt>
      <trkpt lat="43.61809" lon="5.361">
        <ele>329</ele>
        <time>2020-06-03T10:33:12Z</time>
      </trkpt>
      <trkpt lat="43.61811" lon="5.36102">
        <ele>330</ele>
        <time>2020-06-03T10:33:17Z</time>
      </trkpt>
      <trkpt lat="43.6181" lon="5.36104">
        <ele>330</ele>
        <time>2020-06-03T10:33:22Z</time>
      </trkpt>
      <trkpt lat="43.6181" lon="5.36105">
        <ele>330</ele>
        <time>2020-06-03T10:33:26Z</time>
      </trkpt>
      <trkpt lat="43.61809" lon="5.36106">
        <ele>329</ele>
        <time>2020-06-03T10:33:30Z</time>
      </trkpt>
      <trkpt lat="43.61808" lon="5.36106">
        <ele>329</ele>
        <time>2020-06-03T10:33:42Z</time>
      </trkpt>
      <trkpt lat="43.61808" lon="5.36108">
        <ele>329</ele>
        <time>2020-06-03T10:33:47Z</time>
      </trkpt>
      <trkpt lat="43.61805" lon="5.36104">
        <ele>329</ele>
        <time>2020-06-03T10:33:52Z</time>
      </trkpt>
      <trkpt lat="43.61804" lon="5.36108">
        <ele>329</ele>
        <time>2020-06-03T10:33:57Z</time>
      </trkpt>
      <trkpt lat="43.61805" lon="5.36107">
        <ele>329</ele>
        <time>2020-06-03T10:34:02Z</time>
      </trkpt>
      <trkpt lat="43.61807" lon="5.36106">
        <ele>329</ele>
        <time>2020-06-03T10:34:06Z</time>
      </trkpt>
      <trkpt lat="43.61808" lon="5.36104">
        <ele>329</ele>
        <time>2020-06-03T10:34:10Z</time>
      </trkpt>
      <trkpt lat="43.61808" lon="5.36105">
        <ele>329</ele>
        <time>2020-06-03T10:34:17Z</time>
      </trkpt>
      <trkpt lat="43.61808" lon="5.36106">
        <ele>329</ele>
        <time>2020-06-03T10:34:21Z</time>
      </trkpt>
      <trkpt lat="43.61808" lon="5.36105">
        <ele>329</ele>
        <time>2020-06-03T10:34:27Z</time>
      </trkpt>
      <trkpt lat="43.61809" lon="5.36103">
        <ele>329</ele>
        <time>2020-06-03T10:34:31Z</time>
      </trkpt>
      <trkpt lat="43.61809" lon="5.36104">
        <ele>329</ele>
        <time>2020-06-03T10:34:36Z</time>
      </trkpt>
      <trkpt lat="43.61808" lon="5.36103">
        <ele>329</ele>
        <time>2020-06-03T10:34:46Z</time>
      </trkpt>
      <trkpt lat="43.61806" lon="5.36101">
        <ele>329</ele>
        <time>2020-06-03T10:34:50Z</time>
      </trkpt>
      <trkpt lat="43.61806" lon="5.361">
        <ele>329</ele>
        <time>2020-06-03T10:34:54Z</time>
      </trkpt>
      <trkpt lat="43.61805" lon="5.36098">
        <ele>329</ele>
        <time>2020-06-03T10:34:58Z</time>
      </trkpt>
      <trkpt lat="43.61806" lon="5.36095">
        <ele>329</ele>
        <time>2020-06-03T10:35:03Z</time>
      </trkpt>
      <trkpt lat="43.61806" lon="5.36094">
        <ele>329</ele>
        <time>2020-06-03T10:35:10Z</time>
      </trkpt>
      <trkpt lat="43.61804" lon="5.36096">
        <ele>329</ele>
        <time>2020-06-03T10:35:15Z</time>
      </trkpt>
      <trkpt lat="43.61804" lon="5.36096">
        <ele>329</ele>
        <time>2020-06-03T10:35:24Z</time>
      </trkpt>
      <trkpt lat="43.61807" lon="5.36094">
        <ele>329</ele>
        <time>2020-06-03T10:35:29Z</time>
      </trkpt>
      <trkpt lat="43.61809" lon="5.36094">
        <ele>329</ele>
        <time>2020-06-03T10:35:34Z</time>
      </trkpt>
      <trkpt lat="43.6181" lon="5.36093">
        <ele>329</ele>
        <time>2020-06-03T10:35:38Z</time>
      </trkpt>
      <trkpt lat="43.61809" lon="5.36094">
        <ele>329</ele>
        <time>2020-06-03T10:35:45Z</time>
      </trkpt>
      <trkpt lat="43.6181" lon="5.36095">
        <ele>329</ele>
        <time>2020-06-03T10:35:51Z</time>
      </trkpt>
      <trkpt lat="43.61809" lon="5.36096">
        <ele>329</ele>
        <time>2020-06-03T10:36:00Z</time>
      </trkpt>
      <trkpt lat="43.61809" lon="5.36099">
        <ele>329</ele>
        <time>2020-06-03T10:36:04Z</time>
      </trkpt>
      <trkpt lat="43.61807" lon="5.36099">
        <ele>329</ele>
        <time>2020-06-03T10:36:09Z</time>
      </trkpt>
      <trkpt lat="43.61806" lon="5.36097">
        <ele>329</ele>
        <time>2020-06-03T10:36:13Z</time>
      </trkpt>
      <trkpt lat="43.61804" lon="5.36097">
        <ele>329</ele>
        <time>2020-06-03T10:36:17Z</time>
      </trkpt>
      <trkpt lat="43.61803" lon="5.36097">
        <ele>329</ele>
        <time>2020-06-03T10:36:22Z</time>
      </trkpt>
      <trkpt lat="43.61803" lon="5.36097">
        <ele>329</ele>
        <time>2020-06-03T10:36:28Z</time>
      </trkpt>
      <trkpt lat="43.61801" lon="5.36097">
        <ele>329</ele>
        <time>2020-06-03T10:36:32Z</time>
      </trkpt>
      <trkpt lat="43.618" lon="5.36096">
        <ele>329</ele>
        <time>2020-06-03T10:36:37Z</time>
      </trkpt>
      <trkpt lat="43.618" lon="5.36097">
        <ele>329</ele>
        <time>2020-06-03T10:36:42Z</time>
      </trkpt>
      <trkpt lat="43.61799" lon="5.36098">
        <ele>329</ele>
        <time>2020-06-03T10:36:46Z</time>
      </trkpt>
      <trkpt lat="43.61798" lon="5.36098">
        <ele>329</ele>
        <time>2020-06-03T10:36:57Z</time>
      </trkpt>
      <trkpt lat="43.61797" lon="5.36098">
        <ele>329</ele>
        <time>2020-06-03T10:37:01Z</time>
      </trkpt>
      <trkpt lat="43.61797" lon="5.361">
        <ele>329</ele>
        <time>2020-06-03T10:37:06Z</time>
      </trkpt>
      <trkpt lat="43.61798" lon="5.36102">
        <ele>329</ele>
        <time>2020-06-03T10:37:10Z</time>
      </trkpt>
      <trkpt lat="43.61798" lon="5.36103">
        <ele>329</ele>
        <time>2020-06-03T10:37:15Z</time>
      </trkpt>
      <trkpt lat="43.61798" lon="5.36103">
        <ele>329</ele>
        <time>2020-06-03T10:37:19Z</time>
      </trkpt>
      <trkpt lat="43.618" lon="5.36104">
        <ele>329</ele>
        <time>2020-06-03T10:37:23Z</time>
      </trkpt>
      <trkpt lat="43.61799" lon="5.36104">
        <ele>329</ele>
        <time>2020-06-03T10:37:47Z</time>
      </trkpt>
      <trkpt lat="43.61799" lon="5.36105">
        <ele>329</ele>
        <time>2020-06-03T10:37:56Z</time>
      </trkpt>
      <trkpt lat="43.61798" lon="5.36108">
        <ele>329</ele>
        <time>2020-06-03T10:38:00Z</time>
      </trkpt>
      <trkpt lat="43.61799" lon="5.36108">
        <ele>329</ele>
        <time>2020-06-03T10:38:05Z</time>
      </trkpt>
      <trkpt lat="43.61799" lon="5.36108">
        <ele>329</ele>
        <time>2020-06-03T10:38:11Z</time>
      </trkpt>
      <trkpt lat="43.61799" lon="5.36107">
        <ele>329</ele>
        <time>2020-06-03T10:38:16Z</time>
      </trkpt>
      <trkpt lat="43.61799" lon="5.36106">
        <ele>329</ele>
        <time>2020-06-03T10:38:22Z</time>
      </trkpt>
      <trkpt lat="43.61798" lon="5.36106">
        <ele>329</ele>
        <time>2020-06-03T10:38:26Z</time>
      </trkpt>
      <trkpt lat="43.61798" lon="5.36108">
        <ele>329</ele>
        <time>2020-06-03T10:38:33Z</time>
      </trkpt>
      <trkpt lat="43.61798" lon="5.36107">
        <ele>329</ele>
        <time>2020-06-03T10:38:41Z</time>
      </trkpt>
      <trkpt lat="43.61797" lon="5.36104">
        <ele>329</ele>
        <time>2020-06-03T10:38:46Z</time>
      </trkpt>
      <trkpt lat="43.61798" lon="5.36103">
        <ele>329</ele>
        <time>2020-06-03T10:38:58Z</time>
      </trkpt>
      <trkpt lat="43.61797" lon="5.36102">
        <ele>329</ele>
        <time>2020-06-03T10:39:03Z</time>
      </trkpt>
      <trkpt lat="43.61797" lon="5.361">
        <ele>329</ele>
        <time>2020-06-03T10:39:07Z</time>
      </trkpt>
      <trkpt lat="43.61797" lon="5.36098">
        <ele>329</ele>
        <time>2020-06-03T10:39:11Z</time>
      </trkpt>
      <trkpt lat="43.61795" lon="5.36096">
        <ele>329</ele>
        <time>2020-06-03T10:39:15Z</time>
      </trkpt>
      <trkpt lat="43.61795" lon="5.36095">
        <ele>329</ele>
        <time>2020-06-03T10:39:25Z</time>
      </trkpt>
      <trkpt lat="43.61794" lon="5.36096">
        <ele>329</ele>
        <time>2020-06-03T10:39:31Z</time>
      </trkpt>
      <trkpt lat="43.61794" lon="5.36096">
        <ele>329</ele>
        <time>2020-06-03T10:39:36Z</time>
      </trkpt>
      <trkpt lat="43.61795" lon="5.36098">
        <ele>329</ele>
        <time>2020-06-03T10:39:41Z</time>
      </trkpt>
      <trkpt lat="43.61795" lon="5.361">
        <ele>329</ele>
        <time>2020-06-03T10:39:46Z</time>
      </trkpt>
      <trkpt lat="43.61797" lon="5.36102">
        <ele>329</ele>
        <time>2020-06-03T10:39:50Z</time>
      </trkpt>
      <trkpt lat="43.61798" lon="5.36104">
        <ele>329</ele>
        <time>2020-06-03T10:39:54Z</time>
      </trkpt>
      <trkpt lat="43.61799" lon="5.36105">
        <ele>329</ele>
        <time>2020-06-03T10:39:58Z</time>
      </trkpt>
      <trkpt lat="43.61801" lon="5.36105">
        <ele>329</ele>
        <time>2020-06-03T10:40:02Z</time>
      </trkpt>
      <trkpt lat="43.61802" lon="5.36107">
        <ele>329</ele>
        <time>2020-06-03T10:40:06Z</time>
      </trkpt>
      <trkpt lat="43.61802" lon="5.36106">
        <ele>329</ele>
        <time>2020-06-03T10:40:14Z</time>
      </trkpt>
      <trkpt lat="43.61803" lon="5.36103">
        <ele>329</ele>
        <time>2020-06-03T10:40:18Z</time>
      </trkpt>
      <trkpt lat="43.61805" lon="5.36104">
        <ele>329</ele>
        <time>2020-06-03T10:40:23Z</time>
      </trkpt>
      <trkpt lat="43.61807" lon="5.36106">
        <ele>329</ele>
        <time>2020-06-03T10:40:28Z</time>
      </trkpt>
      <trkpt lat="43.61809" lon="5.36108">
        <ele>330</ele>
        <time>2020-06-03T10:40:32Z</time>
      </trkpt>
      <trkpt lat="43.61805" lon="5.36103">
        <ele>329</ele>
        <time>2020-06-03T10:40:37Z</time>
      </trkpt>
      <trkpt lat="43.61804" lon="5.36101">
        <ele>329</ele>
        <time>2020-06-03T10:40:41Z</time>
      </trkpt>
      <trkpt lat="43.61803" lon="5.36101">
        <ele>329</ele>
        <time>2020-06-03T10:40:46Z</time>
      </trkpt>
      <trkpt lat="43.61802" lon="5.361">
        <ele>329</ele>
        <time>2020-06-03T10:40:51Z</time>
      </trkpt>
      <trkpt lat="43.61801" lon="5.361">
        <ele>329</ele>
        <time>2020-06-03T10:41:00Z</time>
      </trkpt>
      <trkpt lat="43.61801" lon="5.36103">
        <ele>329</ele>
        <time>2020-06-03T10:41:05Z</time>
      </trkpt>
      <trkpt lat="43.618" lon="5.36105">
        <ele>329</ele>
        <time>2020-06-03T10:41:10Z</time>
      </trkpt>
      <trkpt lat="43.61799" lon="5.36106">
        <ele>329</ele>
        <time>2020-06-03T10:41:14Z</time>
      </trkpt>
      <trkpt lat="43.61799" lon="5.36107">
        <ele>329</ele>
        <time>2020-06-03T10:41:20Z</time>
      </trkpt>
      <trkpt lat="43.618" lon="5.36105">
        <ele>329</ele>
        <time>2020-06-03T10:41:24Z</time>
      </trkpt>
      <trkpt lat="43.61797" lon="5.36108">
        <ele>329</ele>
        <time>2020-06-03T10:41:29Z</time>
      </trkpt>
      <trkpt lat="43.61796" lon="5.36108">
        <ele>329</ele>
        <time>2020-06-03T10:41:33Z</time>
      </trkpt>
      <trkpt lat="43.61797" lon="5.36107">
        <ele>329</ele>
        <time>2020-06-03T10:41:38Z</time>
      </trkpt>
      <trkpt lat="43.618" lon="5.36106">
        <ele>329</ele>
        <time>2020-06-03T10:41:43Z</time>
      </trkpt>
      <trkpt lat="43.618" lon="5.36104">
        <ele>329</ele>
        <time>2020-06-03T10:41:47Z</time>
      </trkpt>
      <trkpt lat="43.61801" lon="5.36104">
        <ele>329</ele>
        <time>2020-06-03T10:41:51Z</time>
      </trkpt>
      <trkpt lat="43.61801" lon="5.36103">
        <ele>329</ele>
        <time>2020-06-03T10:42:10Z</time>
      </trkpt>
      <trkpt lat="43.61799" lon="5.361">
        <ele>329</ele>
        <time>2020-06-03T10:42:14Z</time>
      </trkpt>
      <trkpt lat="43.618" lon="5.361">
        <ele>329</ele>
        <time>2020-06-03T10:42:29Z</time>
      </trkpt>
      <trkpt lat="43.61799" lon="5.36102">
        <ele>329</ele>
        <time>2020-06-03T10:42:33Z</time>
      </trkpt>
      <trkpt lat="43.61799" lon="5.36102">
        <ele>329</ele>
        <time>2020-06-03T10:42:40Z</time>
      </trkpt>
      <trkpt lat="43.61797" lon="5.361">
        <ele>329</ele>
        <time>2020-06-03T10:42:44Z</time>
      </trkpt>
      <trkpt lat="43.61796" lon="5.36102">
        <ele>329</ele>
        <time>2020-06-03T10:42:49Z</time>
      </trkpt>
      <trkpt lat="43.61796" lon="5.36101">
        <ele>329</ele>
        <time>2020-06-03T10:42:58Z</time>
      </trkpt>
      <trkpt lat="43.61798" lon="5.36106">
        <ele>329</ele>
        <time>2020-06-03T10:43:02Z</time>
      </trkpt>
      <trkpt lat="43.61798" lon="5.36105">
        <ele>329</ele>
        <time>2020-06-03T10:43:07Z</time>
      </trkpt>
      <trkpt lat="43.61797" lon="5.36103">
        <ele>329</ele>
        <time>2020-06-03T10:43:11Z</time>
      </trkpt>
      <trkpt lat="43.61798" lon="5.36104">
        <ele>329</ele>
        <time>2020-06-03T10:43:29Z</time>
      </trkpt>
      <trkpt lat="43.61796" lon="5.36108">
        <ele>329</ele>
        <time>2020-06-03T10:43:34Z</time>
      </trkpt>
      <trkpt lat="43.61794" lon="5.36112">
        <ele>329</ele>
        <time>2020-06-03T10:43:38Z</time>
      </trkpt>
      <trkpt lat="43.61795" lon="5.36113">
        <ele>329</ele>
        <time>2020-06-03T10:43:44Z</time>
      </trkpt>
      <trkpt lat="43.61796" lon="5.36113">
        <ele>329</ele>
        <time>2020-06-03T10:43:49Z</time>
      </trkpt>
      <trkpt lat="43.61796" lon="5.36112">
        <ele>329</ele>
        <time>2020-06-03T10:43:58Z</time>
      </trkpt>
      <trkpt lat="43.61795" lon="5.36111">
        <ele>329</ele>
        <time>2020-06-03T10:44:03Z</time>
      </trkpt>
      <trkpt lat="43.61796" lon="5.3611">
        <ele>329</ele>
        <time>2020-06-03T10:44:09Z</time>
      </trkpt>
      <trkpt lat="43.61796" lon="5.36105">
        <ele>329</ele>
        <time>2020-06-03T10:44:13Z</time>
      </trkpt>
      <trkpt lat="43.61795" lon="5.36092">
        <ele>329</ele>
        <time>2020-06-03T10:44:18Z</time>
      </trkpt>
      <trkpt lat="43.61795" lon="5.3609">
        <ele>329</ele>
        <time>2020-06-03T10:44:22Z</time>
      </trkpt>
      <trkpt lat="43.61796" lon="5.36091">
        <ele>329</ele>
        <time>2020-06-03T10:44:29Z</time>
      </trkpt>
      <trkpt lat="43.61798" lon="5.36093">
        <ele>329</ele>
        <time>2020-06-03T10:44:34Z</time>
      </trkpt>
      <trkpt lat="43.61799" lon="5.36094">
        <ele>329</ele>
        <time>2020-06-03T10:44:41Z</time>
      </trkpt>
      <trkpt lat="43.618" lon="5.36096">
        <ele>329</ele>
        <time>2020-06-03T10:44:45Z</time>
      </trkpt>
      <trkpt lat="43.61801" lon="5.36098">
        <ele>329</ele>
        <time>2020-06-03T10:44:49Z</time>
      </trkpt>
      <trkpt lat="43.61802" lon="5.36099">
        <ele>329</ele>
        <time>2020-06-03T10:44:54Z</time>
      </trkpt>
      <trkpt lat="43.61801" lon="5.36098">
        <ele>329</ele>
        <time>2020-06-03T10:44:58Z</time>
      </trkpt>
      <trkpt lat="43.61802" lon="5.36099">
        <ele>329</ele>
        <time>2020-06-03T10:45:05Z</time>
      </trkpt>
      <trkpt lat="43.61802" lon="5.36103">
        <ele>329</ele>
        <time>2020-06-03T10:45:10Z</time>
      </trkpt>
      <trkpt lat="43.61803" lon="5.36104">
        <ele>329</ele>
        <time>2020-06-03T10:45:33Z</time>
      </trkpt>
      <trkpt lat="43.61803" lon="5.36105">
        <ele>329</ele>
        <time>2020-06-03T10:45:37Z</time>
      </trkpt>
      <trkpt lat="43.61803" lon="5.36106">
        <ele>329</ele>
        <time>2020-06-03T10:45:41Z</time>
      </trkpt>
      <trkpt lat="43.61804" lon="5.36107">
        <ele>329</ele>
        <time>2020-06-03T10:45:45Z</time>
      </trkpt>
      <trkpt lat="43.61804" lon="5.36107">
        <ele>329</ele>
        <time>2020-06-03T10:45:56Z</time>
      </trkpt>
      <trkpt lat="43.61804" lon="5.36104">
        <ele>329</ele>
        <time>2020-06-03T10:46:01Z</time>
      </trkpt>
      <trkpt lat="43.61804" lon="5.36104">
        <ele>329</ele>
        <time>2020-06-03T10:46:15Z</time>
      </trkpt>
      <trkpt lat="43.61804" lon="5.36105">
        <ele>329</ele>
        <time>2020-06-03T10:46:20Z</time>
      </trkpt>
      <trkpt lat="43.61804" lon="5.36105">
        <ele>329</ele>
        <time>2020-06-03T10:46:26Z</time>
      </trkpt>
      <trkpt lat="43.61805" lon="5.36107">
        <ele>329</ele>
        <time>2020-06-03T10:46:30Z</time>
      </trkpt>
      <trkpt lat="43.61806" lon="5.36109">
        <ele>329</ele>
        <time>2020-06-03T10:46:35Z</time>
      </trkpt>
      <trkpt lat="43.61808" lon="5.36108">
        <ele>329</ele>
        <time>2020-06-03T10:46:39Z</time>
      </trkpt>
      <trkpt lat="43.61808" lon="5.36107">
        <ele>329</ele>
        <time>2020-06-03T10:46:45Z</time>
      </trkpt>
      <trkpt lat="43.61808" lon="5.36105">
        <ele>329</ele>
        <time>2020-06-03T10:46:49Z</time>
      </trkpt>
      <trkpt lat="43.61808" lon="5.36105">
        <ele>329</ele>
        <time>2020-06-03T10:46:59Z</time>
      </trkpt>
      <trkpt lat="43.61808" lon="5.36103">
        <ele>329</ele>
        <time>2020-06-03T10:47:04Z</time>
      </trkpt>
      <trkpt lat="43.61808" lon="5.36102">
        <ele>329</ele>
        <time>2020-06-03T10:47:08Z</time>
      </trkpt>
      <trkpt lat="43.61807" lon="5.36102">
        <ele>329</ele>
        <time>2020-06-03T10:47:29Z</time>
      </trkpt>
      <trkpt lat="43.61807" lon="5.36102">
        <ele>329</ele>
        <time>2020-06-03T10:47:36Z</time>
      </trkpt>
      <trkpt lat="43.61806" lon="5.36103">
        <ele>329</ele>
        <time>2020-06-03T10:47:43Z</time>
      </trkpt>
      <trkpt lat="43.61805" lon="5.36103">
        <ele>329</ele>
        <time>2020-06-03T10:47:49Z</time>
      </trkpt>
      <trkpt lat="43.61806" lon="5.36104">
        <ele>329</ele>
        <time>2020-06-03T10:48:11Z</time>
      </trkpt>
      <trkpt lat="43.61805" lon="5.36103">
        <ele>329</ele>
        <time>2020-06-03T10:48:44Z</time>
      </trkpt>
      <trkpt lat="43.61805" lon="5.36104">
        <ele>329</ele>
        <time>2020-06-03T10:48:52Z</time>
      </trkpt>
      <trkpt lat="43.61806" lon="5.36106">
        <ele>329</ele>
        <time>2020-06-03T10:48:57Z</time>
      </trkpt>
      <trkpt lat="43.61806" lon="5.36105">
        <ele>329</ele>
        <time>2020-06-03T10:49:56Z</time>
      </trkpt>
      <trkpt lat="43.61804" lon="5.36104">
        <ele>329</ele>
        <time>2020-06-03T10:50:00Z</time>
      </trkpt>
      <trkpt lat="43.61805" lon="5.36104">
        <ele>329</ele>
        <time>2020-06-03T10:50:08Z</time>
      </trkpt>
      <trkpt lat="43.61805" lon="5.36103">
        <ele>329</ele>
        <time>2020-06-03T10:50:12Z</time>
      </trkpt>
      <trkpt lat="43.61804" lon="5.36103">
        <ele>329</ele>
        <time>2020-06-03T10:50:20Z</time>
      </trkpt>
      <trkpt lat="43.61804" lon="5.36106">
        <ele>329</ele>
        <time>2020-06-03T10:50:25Z</time>
      </trkpt>
      <trkpt lat="43.61804" lon="5.36106">
        <ele>329</ele>
        <time>2020-06-03T10:50:39Z</time>
      </trkpt>
      <trkpt lat="43.61803" lon="5.36105">
        <ele>329</ele>
        <time>2020-06-03T10:50:50Z</time>
      </trkpt>
      <trkpt lat="43.61804" lon="5.36106">
        <ele>329</ele>
        <time>2020-06-03T10:50:54Z</time>
      </trkpt>
      <trkpt lat="43.61803" lon="5.36108">
        <ele>329</ele>
        <time>2020-06-03T10:50:59Z</time>
      </trkpt>
      <trkpt lat="43.61802" lon="5.36108">
        <ele>329</ele>
        <time>2020-06-03T10:51:04Z</time>
      </trkpt>
      <trkpt lat="43.61802" lon="5.36107">
        <ele>329</ele>
        <time>2020-06-03T10:51:13Z</time>
      </trkpt>
      <trkpt lat="43.61801" lon="5.36104">
        <ele>329</ele>
        <time>2020-06-03T10:51:18Z</time>
      </trkpt>
      <trkpt lat="43.61802" lon="5.36105">
        <ele>329</ele>
        <time>2020-06-03T10:51:23Z</time>
      </trkpt>
      <trkpt lat="43.61802" lon="5.36104">
        <ele>329</ele>
        <time>2020-06-03T10:51:28Z</time>
      </trkpt>
      <trkpt lat="43.61801" lon="5.36102">
        <ele>329</ele>
        <time>2020-06-03T10:51:32Z</time>
      </trkpt>
      <trkpt lat="43.618" lon="5.36103">
        <ele>329</ele>
        <time>2020-06-03T10:51:41Z</time>
      </trkpt>
      <trkpt lat="43.618" lon="5.36103">
        <ele>329</ele>
        <time>2020-06-03T10:51:50Z</time>
      </trkpt>
      <trkpt lat="43.61799" lon="5.36099">
        <ele>329</ele>
        <time>2020-06-03T10:51:55Z</time>
      </trkpt>
      <trkpt lat="43.61798" lon="5.36097">
        <ele>329</ele>
        <time>2020-06-03T10:51:59Z</time>
      </trkpt>
      <trkpt lat="43.61797" lon="5.36098">
        <ele>329</ele>
        <time>2020-06-03T10:52:05Z</time>
      </trkpt>
      <trkpt lat="43.61797" lon="5.36099">
        <ele>329</ele>
        <time>2020-06-03T10:52:12Z</time>
      </trkpt>
      <trkpt lat="43.61797" lon="5.36099">
        <ele>329</ele>
        <time>2020-06-03T10:52:17Z</time>
      </trkpt>
      <trkpt lat="43.61795" lon="5.36099">
        <ele>329</ele>
        <time>2020-06-03T10:52:21Z</time>
      </trkpt>
      <trkpt lat="43.61795" lon="5.36098">
        <ele>329</ele>
        <time>2020-06-03T10:52:26Z</time>
      </trkpt>
      <trkpt lat="43.61797" lon="5.36099">
        <ele>329</ele>
        <time>2020-06-03T10:52:31Z</time>
      </trkpt>
      <trkpt lat="43.61798" lon="5.361">
        <ele>329</ele>
        <time>2020-06-03T10:52:35Z</time>
      </trkpt>
      <trkpt lat="43.61799" lon="5.361">
        <ele>329</ele>
        <time>2020-06-03T10:52:39Z</time>
      </trkpt>
      <trkpt lat="43.61802" lon="5.361">
        <ele>329</ele>
        <time>2020-06-03T10:52:43Z</time>
      </trkpt>
      <trkpt lat="43.61802" lon="5.36099">
        <ele>329</ele>
        <time>2020-06-03T10:52:50Z</time>
      </trkpt>
      <trkpt lat="43.61801" lon="5.36097">
        <ele>329</ele>
        <time>2020-06-03T10:52:54Z</time>
      </trkpt>
      <trkpt lat="43.61803" lon="5.36099">
        <ele>329</ele>
        <time>2020-06-03T10:52:59Z</time>
      </trkpt>
      <trkpt lat="43.61805" lon="5.361">
        <ele>329</ele>
        <time>2020-06-03T10:53:03Z</time>
      </trkpt>
      <trkpt lat="43.61805" lon="5.36101">
        <ele>329</ele>
        <time>2020-06-03T10:53:08Z</time>
      </trkpt>
      <trkpt lat="43.61804" lon="5.361">
        <ele>329</ele>
        <time>2020-06-03T10:53:29Z</time>
      </trkpt>
      <trkpt lat="43.61803" lon="5.36099">
        <ele>329</ele>
        <time>2020-06-03T10:53:34Z</time>
      </trkpt>
      <trkpt lat="43.61804" lon="5.36099">
        <ele>329</ele>
        <time>2020-06-03T10:53:59Z</time>
      </trkpt>
      <trkpt lat="43.61807" lon="5.36102">
        <ele>329</ele>
        <time>2020-06-03T10:54:04Z</time>
      </trkpt>
      <trkpt lat="43.61806" lon="5.36103">
        <ele>329</ele>
        <time>2020-06-03T10:54:08Z</time>
      </trkpt>
      <trkpt lat="43.61803" lon="5.36102">
        <ele>329</ele>
        <time>2020-06-03T10:54:12Z</time>
      </trkpt>
      <trkpt lat="43.61803" lon="5.36101">
        <ele>329</ele>
        <time>2020-06-03T10:54:16Z</time>
      </trkpt>
      <trkpt lat="43.61802" lon="5.361">
        <ele>329</ele>
        <time>2020-06-03T10:54:27Z</time>
      </trkpt>
      <trkpt lat="43.61804" lon="5.36101">
        <ele>329</ele>
        <time>2020-06-03T10:54:31Z</time>
      </trkpt>
      <trkpt lat="43.61803" lon="5.361">
        <ele>329</ele>
        <time>2020-06-03T10:54:41Z</time>
      </trkpt>
      <trkpt lat="43.61804" lon="5.36101">
        <ele>329</ele>
        <time>2020-06-03T10:54:53Z</time>
      </trkpt>
      <trkpt lat="43.61803" lon="5.36101">
        <ele>329</ele>
        <time>2020-06-03T10:55:01Z</time>
      </trkpt>
      <trkpt lat="43.61802" lon="5.36102">
        <ele>329</ele>
        <time>2020-06-03T10:55:08Z</time>
      </trkpt>
      <trkpt lat="43.61803" lon="5.36101">
        <ele>329</ele>
        <time>2020-06-03T10:55:16Z</time>
      </trkpt>
      <trkpt lat="43.61803" lon="5.361">
        <ele>329</ele>
        <time>2020-06-03T10:55:32Z</time>
      </trkpt>
      <trkpt lat="43.61802" lon="5.36101">
        <ele>329</ele>
        <time>2020-06-03T10:55:37Z</time>
      </trkpt>
      <trkpt lat="43.61802" lon="5.36102">
        <ele>329</ele>
        <time>2020-06-03T10:55:41Z</time>
      </trkpt>
      <trkpt lat="43.61801" lon="5.36102">
        <ele>329</ele>
        <time>2020-06-03T10:55:58Z</time>
      </trkpt>
      <trkpt lat="43.618" lon="5.36104">
        <ele>329</ele>
        <time>2020-06-03T10:56:02Z</time>
      </trkpt>
      <trkpt lat="43.61799" lon="5.36105">
        <ele>329</ele>
        <time>2020-06-03T10:56:06Z</time>
      </trkpt>
      <trkpt lat="43.61799" lon="5.36105">
        <ele>329</ele>
        <time>2020-06-03T10:56:10Z</time>
      </trkpt>
      <trkpt lat="43.61798" lon="5.36106">
        <ele>329</ele>
        <time>2020-06-03T10:56:15Z</time>
      </trkpt>
      <trkpt lat="43.61799" lon="5.36106">
        <ele>329</ele>
        <time>2020-06-03T10:56:20Z</time>
      </trkpt>
      <trkpt lat="43.618" lon="5.36105">
        <ele>329</ele>
        <time>2020-06-03T10:56:25Z</time>
      </trkpt>
      <trkpt lat="43.61801" lon="5.36105">
        <ele>329</ele>
        <time>2020-06-03T10:56:29Z</time>
      </trkpt>
      <trkpt lat="43.61802" lon="5.36104">
        <ele>329</ele>
        <time>2020-06-03T10:56:35Z</time>
      </trkpt>
      <trkpt lat="43.61801" lon="5.36105">
        <ele>329</ele>
        <time>2020-06-03T10:56:46Z</time>
      </trkpt>
      <trkpt lat="43.618" lon="5.36105">
        <ele>329</ele>
        <time>2020-06-03T10:56:51Z</time>
      </trkpt>
      <trkpt lat="43.618" lon="5.36105">
        <ele>329</ele>
        <time>2020-06-03T10:56:59Z</time>
      </trkpt>
      <trkpt lat="43.618" lon="5.36104">
        <ele>329</ele>
        <time>2020-06-03T10:57:22Z</time>
      </trkpt>
      <trkpt lat="43.61801" lon="5.36102">
        <ele>329</ele>
        <time>2020-06-03T10:57:26Z</time>
      </trkpt>
      <trkpt lat="43.61802" lon="5.361">
        <ele>329</ele>
        <time>2020-06-03T10:57:30Z</time>
      </trkpt>
      <trkpt lat="43.61801" lon="5.361">
        <ele>329</ele>
        <time>2020-06-03T10:57:44Z</time>
      </trkpt>
      <trkpt lat="43.618" lon="5.36099">
        <ele>329</ele>
        <time>2020-06-03T10:57:49Z</time>
      </trkpt>
      <trkpt lat="43.61801" lon="5.36099">
        <ele>329</ele>
        <time>2020-06-03T10:58:08Z</time>
      </trkpt>
      <trkpt lat="43.618" lon="5.36098">
        <ele>329</ele>
        <time>2020-06-03T10:58:15Z</time>
      </trkpt>
      <trkpt lat="43.61799" lon="5.36097">
        <ele>329</ele>
        <time>2020-06-03T10:58:19Z</time>
      </trkpt>
      <trkpt lat="43.618" lon="5.36098">
        <ele>329</ele>
        <time>2020-06-03T10:58:27Z</time>
      </trkpt>
      <trkpt lat="43.61801" lon="5.36098">
        <ele>329</ele>
        <time>2020-06-03T10:58:32Z</time>
      </trkpt>
      <trkpt lat="43.61802" lon="5.36098">
        <ele>329</ele>
        <time>2020-06-03T10:58:50Z</time>
      </trkpt>
      <trkpt lat="43.61801" lon="5.36099">
        <ele>329</ele>
        <time>2020-06-03T10:59:09Z</time>
      </trkpt>
      <trkpt lat="43.61802" lon="5.36099">
        <ele>329</ele>
        <time>2020-06-03T10:59:28Z</time>
      </trkpt>
      <trkpt lat="43.61801" lon="5.36098">
        <ele>329</ele>
        <time>2020-06-03T11:01:09Z</time>
      </trkpt>
      <trkpt lat="43.61801" lon="5.36098">
        <ele>329</ele>
        <time>2020-06-03T11:01:35Z</time>
      </trkpt>
      <trkpt lat="43.618" lon="5.36099">
        <ele>329</ele>
        <time>2020-06-03T11:02:13Z</time>
      </trkpt>
      <trkpt lat="43.61802" lon="5.361">
        <ele>329</ele>
        <time>2020-06-03T11:02:17Z</time>
      </trkpt>
      <trkpt lat="43.61803" lon="5.361">
        <ele>329</ele>
        <time>2020-06-03T11:02:22Z</time>
      </trkpt>
      <trkpt lat="43.61805" lon="5.36101">
        <ele>329</ele>
        <time>2020-06-03T11:02:26Z</time>
      </trkpt>
      <trkpt lat="43.61805" lon="5.36101">
        <ele>329</ele>
        <time>2020-06-03T11:02:32Z</time>
      </trkpt>
      <trkpt lat="43.61805" lon="5.361">
        <ele>329</ele>
        <time>2020-06-03T11:02:43Z</time>
      </trkpt>
      <trkpt lat="43.61805" lon="5.36099">
        <ele>329</ele>
        <time>2020-06-03T11:02:50Z</time>
      </trkpt>
      <trkpt lat="43.61805" lon="5.36098">
        <ele>329</ele>
        <time>2020-06-03T11:02:58Z</time>
      </trkpt>
      <trkpt lat="43.61804" lon="5.36097">
        <ele>329</ele>
        <time>2020-06-03T11:03:05Z</time>
      </trkpt>
      <trkpt lat="43.61804" lon="5.36096">
        <ele>329</ele>
        <time>2020-06-03T11:03:50Z</time>
      </trkpt>
      <trkpt lat="43.61804" lon="5.36095">
        <ele>329</ele>
        <time>2020-06-03T11:03:57Z</time>
      </trkpt>
      <trkpt lat="43.61804" lon="5.36096">
        <ele>329</ele>
        <time>2020-06-03T11:04:31Z</time>
      </trkpt>
      <trkpt lat="43.61803" lon="5.36097">
        <ele>329</ele>
        <time>2020-06-03T11:04:40Z</time>
      </trkpt>
      <trkpt lat="43.61802" lon="5.36097">
        <ele>329</ele>
        <time>2020-06-03T11:04:45Z</time>
      </trkpt>
      <trkpt lat="43.61801" lon="5.36097">
        <ele>329</ele>
        <time>2020-06-03T11:05:13Z</time>
      </trkpt>
      <trkpt lat="43.61801" lon="5.36097">
        <ele>329</ele>
        <time>2020-06-03T11:05:36Z</time>
      </trkpt>
      <trkpt lat="43.618" lon="5.36097">
        <ele>329</ele>
        <time>2020-06-03T11:05:48Z</time>
      </trkpt>
      <trkpt lat="43.618" lon="5.36096">
        <ele>329</ele>
        <time>2020-06-03T11:06:29Z</time>
      </trkpt>
      <trkpt lat="43.618" lon="5.36097">
        <ele>329</ele>
        <time>2020-06-03T11:06:45Z</time>
      </trkpt>
      <trkpt lat="43.618" lon="5.36096">
        <ele>329</ele>
        <time>2020-06-03T11:07:20Z</time>
      </trkpt>
      <trkpt lat="43.618" lon="5.36095">
        <ele>329</ele>
        <time>2020-06-03T11:07:25Z</time>
      </trkpt>
      <trkpt lat="43.61801" lon="5.36095">
        <ele>329</ele>
        <time>2020-06-03T11:07:38Z</time>
      </trkpt>
      <trkpt lat="43.61801" lon="5.36093">
        <ele>329</ele>
        <time>2020-06-03T11:07:42Z</time>
      </trkpt>
      <trkpt lat="43.61801" lon="5.36094">
        <ele>329</ele>
        <time>2020-06-03T11:07:52Z</time>
      </trkpt>
      <trkpt lat="43.61802" lon="5.36095">
        <ele>329</ele>
        <time>2020-06-03T11:08:23Z</time>
      </trkpt>
      <trkpt lat="43.61802" lon="5.36096">
        <ele>329</ele>
        <time>2020-06-03T11:08:33Z</time>
      </trkpt>
      <trkpt lat="43.61802" lon="5.36097">
        <ele>329</ele>
        <time>2020-06-03T11:08:41Z</time>
      </trkpt>
      <trkpt lat="43.61802" lon="5.36096">
        <ele>329</ele>
        <time>2020-06-03T11:09:03Z</time>
      </trkpt>
      <trkpt lat="43.61802" lon="5.36096">
        <ele>329</ele>
        <time>2020-06-03T11:09:10Z</time>
      </trkpt>
      <trkpt lat="43.61803" lon="5.36096">
        <ele>329</ele>
        <time>2020-06-03T11:09:42Z</time>
      </trkpt>
      <trkpt lat="43.61803" lon="5.36097">
        <ele>329</ele>
        <time>2020-06-03T11:10:21Z</time>
      </trkpt>
      <trkpt lat="43.61803" lon="5.36097">
        <ele>329</ele>
        <time>2020-06-03T11:10:49Z</time>
      </trkpt>
      <trkpt lat="43.61804" lon="5.36098">
        <ele>329</ele>
        <time>2020-06-03T11:11:48Z</time>
      </trkpt>
      <trkpt lat="43.61803" lon="5.36099">
        <ele>329</ele>
        <time>2020-06-03T11:11:57Z</time>
      </trkpt>
      <trkpt lat="43.61802" lon="5.36098">
        <ele>329</ele>
        <time>2020-06-03T11:12:02Z</time>
      </trkpt>
      <trkpt lat="43.61803" lon="5.36099">
        <ele>329</ele>
        <time>2020-06-03T11:12:06Z</time>
      </trkpt>
      <trkpt lat="43.61802" lon="5.36102">
        <ele>329</ele>
        <time>2020-06-03T11:12:10Z</time>
      </trkpt>
      <trkpt lat="43.61801" lon="5.36103">
        <ele>329</ele>
        <time>2020-06-03T11:12:15Z</time>
      </trkpt>
      <trkpt lat="43.61802" lon="5.36104">
        <ele>329</ele>
        <time>2020-06-03T11:12:47Z</time>
      </trkpt>
      <trkpt lat="43.61802" lon="5.36105">
        <ele>329</ele>
        <time>2020-06-03T11:13:13Z</time>
      </trkpt>
      <trkpt lat="43.61801" lon="5.36105">
        <ele>329</ele>
        <time>2020-06-03T11:13:18Z</time>
      </trkpt>
      <trkpt lat="43.61801" lon="5.36106">
        <ele>329</ele>
        <time>2020-06-03T11:13:36Z</time>
      </trkpt>
      <trkpt lat="43.618" lon="5.36107">
        <ele>329</ele>
        <time>2020-06-03T11:13:52Z</time>
      </trkpt>
      <trkpt lat="43.618" lon="5.36108">
        <ele>329</ele>
        <time>2020-06-03T11:14:00Z</time>
      </trkpt>
      <trkpt lat="43.61799" lon="5.36109">
        <ele>329</ele>
        <time>2020-06-03T11:14:06Z</time>
      </trkpt>
      <trkpt lat="43.61799" lon="5.3611">
        <ele>329</ele>
        <time>2020-06-03T11:14:15Z</time>
      </trkpt>
      <trkpt lat="43.61799" lon="5.36111">
        <ele>329</ele>
        <time>2020-06-03T11:14:27Z</time>
      </trkpt>
      <trkpt lat="43.61799" lon="5.36111">
        <ele>329</ele>
        <time>2020-06-03T11:14:53Z</time>
      </trkpt>
      <trkpt lat="43.61799" lon="5.36109">
        <ele>329</ele>
        <time>2020-06-03T11:14:58Z</time>
      </trkpt>
      <trkpt lat="43.618" lon="5.36109">
        <ele>329</ele>
        <time>2020-06-03T11:15:19Z</time>
      </trkpt>
      <trkpt lat="43.61802" lon="5.36109">
        <ele>329</ele>
        <time>2020-06-03T11:15:24Z</time>
      </trkpt>
      <trkpt lat="43.61802" lon="5.36109">
        <ele>329</ele>
        <time>2020-06-03T11:15:31Z</time>
      </trkpt>
      <trkpt lat="43.61803" lon="5.36108">
        <ele>329</ele>
        <time>2020-06-03T11:16:14Z</time>
      </trkpt>
      <trkpt lat="43.61805" lon="5.36107">
        <ele>329</ele>
        <time>2020-06-03T11:16:18Z</time>
      </trkpt>
      <trkpt lat="43.61805" lon="5.36106">
        <ele>329</ele>
        <time>2020-06-03T11:16:24Z</time>
      </trkpt>
      <trkpt lat="43.61804" lon="5.36105">
        <ele>329</ele>
        <time>2020-06-03T11:16:28Z</time>
      </trkpt>
      <trkpt lat="43.61802" lon="5.36104">
        <ele>329</ele>
        <time>2020-06-03T11:16:32Z</time>
      </trkpt>
      <trkpt lat="43.618" lon="5.36102">
        <ele>329</ele>
        <time>2020-06-03T11:16:37Z</time>
      </trkpt>
      <trkpt lat="43.61796" lon="5.361">
        <ele>329</ele>
        <time>2020-06-03T11:16:42Z</time>
      </trkpt>
      <trkpt lat="43.61795" lon="5.36098">
        <ele>329</ele>
        <time>2020-06-03T11:16:46Z</time>
      </trkpt>
      <trkpt lat="43.61794" lon="5.36096">
        <ele>329</ele>
        <time>2020-06-03T11:16:50Z</time>
      </trkpt>
      <trkpt lat="43.61795" lon="5.36095">
        <ele>329</ele>
        <time>2020-06-03T11:16:54Z</time>
      </trkpt>
      <trkpt lat="43.61795" lon="5.36094">
        <ele>329</ele>
        <time>2020-06-03T11:17:03Z</time>
      </trkpt>
      <trkpt lat="43.61794" lon="5.36094">
        <ele>329</ele>
        <time>2020-06-03T11:17:11Z</time>
      </trkpt>
      <trkpt lat="43.61797" lon="5.36096">
        <ele>329</ele>
        <time>2020-06-03T11:17:16Z</time>
      </trkpt>
      <trkpt lat="43.61798" lon="5.36093">
        <ele>329</ele>
        <time>2020-06-03T11:17:20Z</time>
      </trkpt>
      <trkpt lat="43.61798" lon="5.36093">
        <ele>329</ele>
        <time>2020-06-03T11:17:31Z</time>
      </trkpt>
      <trkpt lat="43.61799" lon="5.36094">
        <ele>329</ele>
        <time>2020-06-03T11:17:35Z</time>
      </trkpt>
      <trkpt lat="43.618" lon="5.36096">
        <ele>329</ele>
        <time>2020-06-03T11:17:40Z</time>
      </trkpt>
      <trkpt lat="43.61801" lon="5.36096">
        <ele>329</ele>
        <time>2020-06-03T11:17:46Z</time>
      </trkpt>
      <trkpt lat="43.61804" lon="5.36096">
        <ele>329</ele>
        <time>2020-06-03T11:17:51Z</time>
      </trkpt>
      <trkpt lat="43.61805" lon="5.36097">
        <ele>329</ele>
        <time>2020-06-03T11:17:56Z</time>
      </trkpt>
      <trkpt lat="43.61805" lon="5.36099">
        <ele>329</ele>
        <time>2020-06-03T11:18:00Z</time>
      </trkpt>
      <trkpt lat="43.61803" lon="5.36098">
        <ele>329</ele>
        <time>2020-06-03T11:18:04Z</time>
      </trkpt>
      <trkpt lat="43.61803" lon="5.36098">
        <ele>329</ele>
        <time>2020-06-03T11:18:09Z</time>
      </trkpt>
      <trkpt lat="43.61802" lon="5.36097">
        <ele>329</ele>
        <time>2020-06-03T11:18:13Z</time>
      </trkpt>
      <trkpt lat="43.61801" lon="5.36097">
        <ele>329</ele>
        <time>2020-06-03T11:18:18Z</time>
      </trkpt>
      <trkpt lat="43.618" lon="5.36097">
        <ele>329</ele>
        <time>2020-06-03T11:18:41Z</time>
      </trkpt>
      <trkpt lat="43.61799" lon="5.36098">
        <ele>329</ele>
        <time>2020-06-03T11:18:45Z</time>
      </trkpt>
      <trkpt lat="43.61799" lon="5.36099">
        <ele>329</ele>
        <time>2020-06-03T11:18:51Z</time>
      </trkpt>
      <trkpt lat="43.618" lon="5.361">
        <ele>329</ele>
        <time>2020-06-03T11:19:02Z</time>
      </trkpt>
      <trkpt lat="43.618" lon="5.36101">
        <ele>329</ele>
        <time>2020-06-03T11:19:07Z</time>
      </trkpt>
      <trkpt lat="43.61801" lon="5.36102">
        <ele>329</ele>
        <time>2020-06-03T11:19:24Z</time>
      </trkpt>
      <trkpt lat="43.61802" lon="5.36101">
        <ele>329</ele>
        <time>2020-06-03T11:19:28Z</time>
      </trkpt>
      <trkpt lat="43.61803" lon="5.36101">
        <ele>329</ele>
        <time>2020-06-03T11:19:32Z</time>
      </trkpt>
      <trkpt lat="43.61804" lon="5.36104">
        <ele>329</ele>
        <time>2020-06-03T11:19:37Z</time>
      </trkpt>
      <trkpt lat="43.61804" lon="5.36106">
        <ele>329</ele>
        <time>2020-06-03T11:19:41Z</time>
      </trkpt>
      <trkpt lat="43.61804" lon="5.36106">
        <ele>329</ele>
        <time>2020-06-03T11:19:49Z</time>
      </trkpt>
      <trkpt lat="43.61804" lon="5.36104">
        <ele>329</ele>
        <time>2020-06-03T11:19:54Z</time>
      </trkpt>
      <trkpt lat="43.61804" lon="5.36105">
        <ele>329</ele>
        <time>2020-06-03T11:19:58Z</time>
      </trkpt>
      <trkpt lat="43.61804" lon="5.36106">
        <ele>329</ele>
        <time>2020-06-03T11:20:09Z</time>
      </trkpt>
      <trkpt lat="43.61803" lon="5.36109">
        <ele>329</ele>
        <time>2020-06-03T11:20:13Z</time>
      </trkpt>
      <trkpt lat="43.61802" lon="5.36111">
        <ele>329</ele>
        <time>2020-06-03T11:20:17Z</time>
      </trkpt>
      <trkpt lat="43.61802" lon="5.36112">
        <ele>329</ele>
        <time>2020-06-03T11:20:22Z</time>
      </trkpt>
      <trkpt lat="43.61801" lon="5.36114">
        <ele>329</ele>
        <time>2020-06-03T11:20:27Z</time>
      </trkpt>
      <trkpt lat="43.61801" lon="5.36116">
        <ele>329</ele>
        <time>2020-06-03T11:20:32Z</time>
      </trkpt>
      <trkpt lat="43.618" lon="5.36116">
        <ele>329</ele>
        <time>2020-06-03T11:20:36Z</time>
      </trkpt>
      <trkpt lat="43.61799" lon="5.36116">
        <ele>329</ele>
        <time>2020-06-03T11:20:42Z</time>
      </trkpt>
      <trkpt lat="43.61797" lon="5.36121">
        <ele>329</ele>
        <time>2020-06-03T11:20:46Z</time>
      </trkpt>
      <trkpt lat="43.61792" lon="5.36125">
        <ele>329</ele>
        <time>2020-06-03T11:20:50Z</time>
      </trkpt>
      <trkpt lat="43.61789" lon="5.3613">
        <ele>329</ele>
        <time>2020-06-03T11:20:55Z</time>
      </trkpt>
      <trkpt lat="43.61785" lon="5.36135">
        <ele>329</ele>
        <time>2020-06-03T11:20:59Z</time>
      </trkpt>
      <trkpt lat="43.61784" lon="5.36137">
        <ele>329</ele>
        <time>2020-06-03T11:21:03Z</time>
      </trkpt>
      <trkpt lat="43.61781" lon="5.36142">
        <ele>329</ele>
        <time>2020-06-03T11:21:08Z</time>
      </trkpt>
      <trkpt lat="43.61778" lon="5.36146">
        <ele>329</ele>
        <time>2020-06-03T11:21:12Z</time>
      </trkpt>
      <trkpt lat="43.61775" lon="5.3615">
        <ele>329</ele>
        <time>2020-06-03T11:21:17Z</time>
      </trkpt>
      <trkpt lat="43.61773" lon="5.36155">
        <ele>329</ele>
        <time>2020-06-03T11:21:22Z</time>
      </trkpt>
      <trkpt lat="43.61769" lon="5.36161">
        <ele>328</ele>
        <time>2020-06-03T11:21:27Z</time>
      </trkpt>
      <trkpt lat="43.61768" lon="5.36165">
        <ele>328</ele>
        <time>2020-06-03T11:21:31Z</time>
      </trkpt>
      <trkpt lat="43.61767" lon="5.36168">
        <ele>329</ele>
        <time>2020-06-03T11:21:35Z</time>
      </trkpt>
      <trkpt lat="43.61765" lon="5.36173">
        <ele>329</ele>
        <time>2020-06-03T11:21:40Z</time>
      </trkpt>
      <trkpt lat="43.61762" lon="5.3618">
        <ele>329</ele>
        <time>2020-06-03T11:21:45Z</time>
      </trkpt>
      <trkpt lat="43.6176" lon="5.36187">
        <ele>329</ele>
        <time>2020-06-03T11:21:50Z</time>
      </trkpt>
      <trkpt lat="43.61758" lon="5.36191">
        <ele>329</ele>
        <time>2020-06-03T11:21:54Z</time>
      </trkpt>
      <trkpt lat="43.61756" lon="5.36197">
        <ele>329</ele>
        <time>2020-06-03T11:21:58Z</time>
      </trkpt>
      <trkpt lat="43.61755" lon="5.36201">
        <ele>329</ele>
        <time>2020-06-03T11:22:02Z</time>
      </trkpt>
      <trkpt lat="43.61754" lon="5.36207">
        <ele>329</ele>
        <time>2020-06-03T11:22:06Z</time>
      </trkpt>
      <trkpt lat="43.61753" lon="5.36214">
        <ele>329</ele>
        <time>2020-06-03T11:22:11Z</time>
      </trkpt>
      <trkpt lat="43.61753" lon="5.36217">
        <ele>329</ele>
        <time>2020-06-03T11:22:15Z</time>
      </trkpt>
      <trkpt lat="43.61752" lon="5.36222">
        <ele>329</ele>
        <time>2020-06-03T11:22:20Z</time>
      </trkpt>
      <trkpt lat="43.61752" lon="5.36222">
        <ele>329</ele>
        <time>2020-06-03T11:22:25Z</time>
      </trkpt>
      <trkpt lat="43.61753" lon="5.3622">
        <ele>329</ele>
        <time>2020-06-03T11:22:29Z</time>
      </trkpt>
      <trkpt lat="43.61754" lon="5.36222">
        <ele>329</ele>
        <time>2020-06-03T11:22:33Z</time>
      </trkpt>
      <trkpt lat="43.61756" lon="5.36224">
        <ele>329</ele>
        <time>2020-06-03T11:22:38Z</time>
      </trkpt>
      <trkpt lat="43.61757" lon="5.36233">
        <ele>329</ele>
        <time>2020-06-03T11:22:42Z</time>
      </trkpt>
      <trkpt lat="43.61756" lon="5.36243">
        <ele>328</ele>
        <time>2020-06-03T11:22:47Z</time>
      </trkpt>
      <trkpt lat="43.61758" lon="5.36251">
        <ele>328</ele>
        <time>2020-06-03T11:22:52Z</time>
      </trkpt>
      <trkpt lat="43.61758" lon="5.36256">
        <ele>328</ele>
        <time>2020-06-03T11:22:56Z</time>
      </trkpt>
      <trkpt lat="43.61759" lon="5.36262">
        <ele>328</ele>
        <time>2020-06-03T11:23:00Z</time>
      </trkpt>
      <trkpt lat="43.61759" lon="5.36267">
        <ele>329</ele>
        <time>2020-06-03T11:23:04Z</time>
      </trkpt>
      <trkpt lat="43.61761" lon="5.36273">
        <ele>329</ele>
        <time>2020-06-03T11:23:08Z</time>
      </trkpt>
      <trkpt lat="43.61763" lon="5.3628">
        <ele>329</ele>
        <time>2020-06-03T11:23:13Z</time>
      </trkpt>
      <trkpt lat="43.61764" lon="5.36285">
        <ele>329</ele>
        <time>2020-06-03T11:23:18Z</time>
      </trkpt>
      <trkpt lat="43.61764" lon="5.3629">
        <ele>329</ele>
        <time>2020-06-03T11:23:22Z</time>
      </trkpt>
      <trkpt lat="43.61765" lon="5.36296">
        <ele>329</ele>
        <time>2020-06-03T11:23:26Z</time>
      </trkpt>
      <trkpt lat="43.61766" lon="5.36306">
        <ele>329</ele>
        <time>2020-06-03T11:23:31Z</time>
      </trkpt>
      <trkpt lat="43.61765" lon="5.36312">
        <ele>329</ele>
        <time>2020-06-03T11:23:35Z</time>
      </trkpt>
      <trkpt lat="43.61764" lon="5.36319">
        <ele>328</ele>
        <time>2020-06-03T11:23:40Z</time>
      </trkpt>
      <trkpt lat="43.61766" lon="5.36325">
        <ele>328</ele>
        <time>2020-06-03T11:23:44Z</time>
      </trkpt>
      <trkpt lat="43.61767" lon="5.36331">
        <ele>328</ele>
        <time>2020-06-03T11:23:48Z</time>
      </trkpt>
      <trkpt lat="43.61769" lon="5.36336">
        <ele>328</ele>
        <time>2020-06-03T11:23:52Z</time>
      </trkpt>
      <trkpt lat="43.6177" lon="5.36341">
        <ele>329</ele>
        <time>2020-06-03T11:23:56Z</time>
      </trkpt>
      <trkpt lat="43.61769" lon="5.36347">
        <ele>329</ele>
        <time>2020-06-03T11:24:00Z</time>
      </trkpt>
      <trkpt lat="43.6177" lon="5.36354">
        <ele>329</ele>
        <time>2020-06-03T11:24:05Z</time>
      </trkpt>
      <trkpt lat="43.61771" lon="5.36361">
        <ele>329</ele>
        <time>2020-06-03T11:24:09Z</time>
      </trkpt>
      <trkpt lat="43.61773" lon="5.36368">
        <ele>330</ele>
        <time>2020-06-03T11:24:13Z</time>
      </trkpt>
      <trkpt lat="43.61773" lon="5.36373">
        <ele>330</ele>
        <time>2020-06-03T11:24:17Z</time>
      </trkpt>
      <trkpt lat="43.61774" lon="5.36376">
        <ele>330</ele>
        <time>2020-06-03T11:24:21Z</time>
      </trkpt>
      <trkpt lat="43.61774" lon="5.36382">
        <ele>330</ele>
        <time>2020-06-03T11:24:25Z</time>
      </trkpt>
      <trkpt lat="43.61775" lon="5.36387">
        <ele>330</ele>
        <time>2020-06-03T11:24:29Z</time>
      </trkpt>
      <trkpt lat="43.61775" lon="5.3639">
        <ele>330</ele>
        <time>2020-06-03T11:24:33Z</time>
      </trkpt>
      <trkpt lat="43.61774" lon="5.36393">
        <ele>330</ele>
        <time>2020-06-03T11:24:37Z</time>
      </trkpt>
      <trkpt lat="43.61771" lon="5.36398">
        <ele>330</ele>
        <time>2020-06-03T11:24:42Z</time>
      </trkpt>
      <trkpt lat="43.61767" lon="5.36401">
        <ele>330</ele>
        <time>2020-06-03T11:24:46Z</time>
      </trkpt>
      <trkpt lat="43.61763" lon="5.36407">
        <ele>330</ele>
        <time>2020-06-03T11:24:51Z</time>
      </trkpt>
      <trkpt lat="43.61759" lon="5.36411">
        <ele>329</ele>
        <time>2020-06-03T11:24:55Z</time>
      </trkpt>
      <trkpt lat="43.61756" lon="5.36415">
        <ele>329</ele>
        <time>2020-06-03T11:24:59Z</time>
      </trkpt>
      <trkpt lat="43.61752" lon="5.36418">
        <ele>329</ele>
        <time>2020-06-03T11:25:03Z</time>
      </trkpt>
      <trkpt lat="43.61749" lon="5.3642">
        <ele>329</ele>
        <time>2020-06-03T11:25:07Z</time>
      </trkpt>
      <trkpt lat="43.61745" lon="5.36424">
        <ele>328</ele>
        <time>2020-06-03T11:25:12Z</time>
      </trkpt>
      <trkpt lat="43.6174" lon="5.36429">
        <ele>328</ele>
        <time>2020-06-03T11:25:16Z</time>
      </trkpt>
      <trkpt lat="43.61735" lon="5.36433">
        <ele>328</ele>
        <time>2020-06-03T11:25:20Z</time>
      </trkpt>
      <trkpt lat="43.61729" lon="5.36439">
        <ele>328</ele>
        <time>2020-06-03T11:25:25Z</time>
      </trkpt>
      <trkpt lat="43.61726" lon="5.36443">
        <ele>327</ele>
        <time>2020-06-03T11:25:30Z</time>
      </trkpt>
      <trkpt lat="43.61725" lon="5.36444">
        <ele>327</ele>
        <time>2020-06-03T11:25:34Z</time>
      </trkpt>
      <trkpt lat="43.61723" lon="5.3645">
        <ele>327</ele>
        <time>2020-06-03T11:25:38Z</time>
      </trkpt>
      <trkpt lat="43.6172" lon="5.36455">
        <ele>327</ele>
        <time>2020-06-03T11:25:43Z</time>
      </trkpt>
      <trkpt lat="43.6172" lon="5.36456">
        <ele>327</ele>
        <time>2020-06-03T11:25:47Z</time>
      </trkpt>
      <trkpt lat="43.6172" lon="5.36457">
        <ele>327</ele>
        <time>2020-06-03T11:25:53Z</time>
      </trkpt>
      <trkpt lat="43.6172" lon="5.36467">
        <ele>327</ele>
        <time>2020-06-03T11:25:58Z</time>
      </trkpt>
      <trkpt lat="43.61719" lon="5.36471">
        <ele>328</ele>
        <time>2020-06-03T11:26:03Z</time>
      </trkpt>
      <trkpt lat="43.61721" lon="5.36476">
        <ele>328</ele>
        <time>2020-06-03T11:26:07Z</time>
      </trkpt>
      <trkpt lat="43.61721" lon="5.36482">
        <ele>328</ele>
        <time>2020-06-03T11:26:11Z</time>
      </trkpt>
      <trkpt lat="43.61721" lon="5.36488">
        <ele>328</ele>
        <time>2020-06-03T11:26:16Z</time>
      </trkpt>
      <trkpt lat="43.61721" lon="5.36493">
        <ele>328</ele>
        <time>2020-06-03T11:26:20Z</time>
      </trkpt>
      <trkpt lat="43.6172" lon="5.365">
        <ele>328</ele>
        <time>2020-06-03T11:26:25Z</time>
      </trkpt>
      <trkpt lat="43.61721" lon="5.36504">
        <ele>330</ele>
        <time>2020-06-03T11:26:29Z</time>
      </trkpt>
      <trkpt lat="43.61721" lon="5.36511">
        <ele>330</ele>
        <time>2020-06-03T11:26:33Z</time>
      </trkpt>
      <trkpt lat="43.61721" lon="5.36518">
        <ele>330</ele>
        <time>2020-06-03T11:26:38Z</time>
      </trkpt>
      <trkpt lat="43.61721" lon="5.36524">
        <ele>330</ele>
        <time>2020-06-03T11:26:43Z</time>
      </trkpt>
      <trkpt lat="43.6172" lon="5.36529">
        <ele>330</ele>
        <time>2020-06-03T11:26:47Z</time>
      </trkpt>
      <trkpt lat="43.61719" lon="5.36535">
        <ele>330</ele>
        <time>2020-06-03T11:26:51Z</time>
      </trkpt>
      <trkpt lat="43.61717" lon="5.36541">
        <ele>330</ele>
        <time>2020-06-03T11:26:56Z</time>
      </trkpt>
      <trkpt lat="43.61717" lon="5.36547">
        <ele>330</ele>
        <time>2020-06-03T11:27:00Z</time>
      </trkpt>
      <trkpt lat="43.61714" lon="5.36554">
        <ele>330</ele>
        <time>2020-06-03T11:27:05Z</time>
      </trkpt>
      <trkpt lat="43.61713" lon="5.36558">
        <ele>330</ele>
        <time>2020-06-03T11:27:09Z</time>
      </trkpt>
      <trkpt lat="43.61711" lon="5.36565">
        <ele>330</ele>
        <time>2020-06-03T11:27:13Z</time>
      </trkpt>
      <trkpt lat="43.61709" lon="5.3657">
        <ele>329</ele>
        <time>2020-06-03T11:27:18Z</time>
      </trkpt>
      <trkpt lat="43.61708" lon="5.36572">
        <ele>329</ele>
        <time>2020-06-03T11:27:22Z</time>
      </trkpt>
      <trkpt lat="43.61707" lon="5.36574">
        <ele>329</ele>
        <time>2020-06-03T11:27:26Z</time>
      </trkpt>
      <trkpt lat="43.61707" lon="5.36575">
        <ele>329</ele>
        <time>2020-06-03T11:27:55Z</time>
      </trkpt>
      <trkpt lat="43.61709" lon="5.3658">
        <ele>330</ele>
        <time>2020-06-03T11:28:00Z</time>
      </trkpt>
      <trkpt lat="43.61707" lon="5.36584">
        <ele>331</ele>
        <time>2020-06-03T11:28:04Z</time>
      </trkpt>
      <trkpt lat="43.61706" lon="5.36588">
        <ele>331</ele>
        <time>2020-06-03T11:28:08Z</time>
      </trkpt>
      <trkpt lat="43.61702" lon="5.36592">
        <ele>331</ele>
        <time>2020-06-03T11:28:13Z</time>
      </trkpt>
      <trkpt lat="43.61699" lon="5.36598">
        <ele>331</ele>
        <time>2020-06-03T11:28:17Z</time>
      </trkpt>
      <trkpt lat="43.61696" lon="5.36605">
        <ele>331</ele>
        <time>2020-06-03T11:28:21Z</time>
      </trkpt>
      <trkpt lat="43.61694" lon="5.36612">
        <ele>331</ele>
        <time>2020-06-03T11:28:26Z</time>
      </trkpt>
      <trkpt lat="43.6169" lon="5.36618">
        <ele>331</ele>
        <time>2020-06-03T11:28:30Z</time>
      </trkpt>
      <trkpt lat="43.61686" lon="5.36626">
        <ele>331</ele>
        <time>2020-06-03T11:28:35Z</time>
      </trkpt>
      <trkpt lat="43.61685" lon="5.36631">
        <ele>331</ele>
        <time>2020-06-03T11:28:39Z</time>
      </trkpt>
      <trkpt lat="43.61682" lon="5.36636">
        <ele>331</ele>
        <time>2020-06-03T11:28:44Z</time>
      </trkpt>
      <trkpt lat="43.6168" lon="5.36643">
        <ele>331</ele>
        <time>2020-06-03T11:28:49Z</time>
      </trkpt>
      <trkpt lat="43.61677" lon="5.36648">
        <ele>330</ele>
        <time>2020-06-03T11:28:53Z</time>
      </trkpt>
      <trkpt lat="43.61676" lon="5.36655">
        <ele>330</ele>
        <time>2020-06-03T11:28:57Z</time>
      </trkpt>
      <trkpt lat="43.61674" lon="5.36659">
        <ele>329</ele>
        <time>2020-06-03T11:29:01Z</time>
      </trkpt>
      <trkpt lat="43.61671" lon="5.36666">
        <ele>329</ele>
        <time>2020-06-03T11:29:06Z</time>
      </trkpt>
      <trkpt lat="43.61667" lon="5.3667">
        <ele>329</ele>
        <time>2020-06-03T11:29:10Z</time>
      </trkpt>
      <trkpt lat="43.61664" lon="5.36674">
        <ele>328</ele>
        <time>2020-06-03T11:29:14Z</time>
      </trkpt>
      <trkpt lat="43.61662" lon="5.3668">
        <ele>328</ele>
        <time>2020-06-03T11:29:19Z</time>
      </trkpt>
      <trkpt lat="43.6166" lon="5.36685">
        <ele>328</ele>
        <time>2020-06-03T11:29:23Z</time>
      </trkpt>
      <trkpt lat="43.61659" lon="5.3669">
        <ele>328</ele>
        <time>2020-06-03T11:29:27Z</time>
      </trkpt>
      <trkpt lat="43.61656" lon="5.36698">
        <ele>328</ele>
        <time>2020-06-03T11:29:32Z</time>
      </trkpt>
      <trkpt lat="43.61653" lon="5.36704">
        <ele>328</ele>
        <time>2020-06-03T11:29:36Z</time>
      </trkpt>
      <trkpt lat="43.6165" lon="5.3671">
        <ele>328</ele>
        <time>2020-06-03T11:29:41Z</time>
      </trkpt>
      <trkpt lat="43.61647" lon="5.36716">
        <ele>328</ele>
        <time>2020-06-03T11:29:46Z</time>
      </trkpt>
      <trkpt lat="43.61645" lon="5.36721">
        <ele>328</ele>
        <time>2020-06-03T11:29:50Z</time>
      </trkpt>
      <trkpt lat="43.61642" lon="5.36729">
        <ele>328</ele>
        <time>2020-06-03T11:29:55Z</time>
      </trkpt>
      <trkpt lat="43.61639" lon="5.36735">
        <ele>328</ele>
        <time>2020-06-03T11:30:00Z</time>
      </trkpt>
      <trkpt lat="43.61638" lon="5.3674">
        <ele>328</ele>
        <time>2020-06-03T11:30:04Z</time>
      </trkpt>
      <trkpt lat="43.61635" lon="5.36747">
        <ele>328</ele>
        <time>2020-06-03T11:30:09Z</time>
      </trkpt>
      <trkpt lat="43.61633" lon="5.36753">
        <ele>330</ele>
        <time>2020-06-03T11:30:13Z</time>
      </trkpt>
      <trkpt lat="43.61631" lon="5.36758">
        <ele>330</ele>
        <time>2020-06-03T11:30:17Z</time>
      </trkpt>
      <trkpt lat="43.61628" lon="5.36765">
        <ele>330</ele>
        <time>2020-06-03T11:30:22Z</time>
      </trkpt>
      <trkpt lat="43.61627" lon="5.36771">
        <ele>330</ele>
        <time>2020-06-03T11:30:26Z</time>
      </trkpt>
      <trkpt lat="43.61625" lon="5.36777">
        <ele>330</ele>
        <time>2020-06-03T11:30:31Z</time>
      </trkpt>
      <trkpt lat="43.61623" lon="5.36783">
        <ele>330</ele>
        <time>2020-06-03T11:30:36Z</time>
      </trkpt>
      <trkpt lat="43.61622" lon="5.36786">
        <ele>330</ele>
        <time>2020-06-03T11:30:40Z</time>
      </trkpt>
      <trkpt lat="43.6162" lon="5.3679">
        <ele>330</ele>
        <time>2020-06-03T11:30:44Z</time>
      </trkpt>
      <trkpt lat="43.61619" lon="5.36795">
        <ele>330</ele>
        <time>2020-06-03T11:30:48Z</time>
      </trkpt>
      <trkpt lat="43.61617" lon="5.36801">
        <ele>330</ele>
        <time>2020-06-03T11:30:53Z</time>
      </trkpt>
      <trkpt lat="43.61616" lon="5.36807">
        <ele>330</ele>
        <time>2020-06-03T11:30:57Z</time>
      </trkpt>
      <trkpt lat="43.61613" lon="5.36812">
        <ele>330</ele>
        <time>2020-06-03T11:31:01Z</time>
      </trkpt>
      <trkpt lat="43.6161" lon="5.36819">
        <ele>330</ele>
        <time>2020-06-03T11:31:06Z</time>
      </trkpt>
      <trkpt lat="43.61607" lon="5.36827">
        <ele>330</ele>
        <time>2020-06-03T11:31:10Z</time>
      </trkpt>
      <trkpt lat="43.61605" lon="5.36832">
        <ele>330</ele>
        <time>2020-06-03T11:31:14Z</time>
      </trkpt>
      <trkpt lat="43.61603" lon="5.3684">
        <ele>331</ele>
        <time>2020-06-03T11:31:19Z</time>
      </trkpt>
      <trkpt lat="43.61601" lon="5.36846">
        <ele>331</ele>
        <time>2020-06-03T11:31:23Z</time>
      </trkpt>
      <trkpt lat="43.61599" lon="5.36853">
        <ele>332</ele>
        <time>2020-06-03T11:31:28Z</time>
      </trkpt>
      <trkpt lat="43.61597" lon="5.36859">
        <ele>332</ele>
        <time>2020-06-03T11:31:32Z</time>
      </trkpt>
      <trkpt lat="43.61594" lon="5.36864">
        <ele>332</ele>
        <time>2020-06-03T11:31:37Z</time>
      </trkpt>
      <trkpt lat="43.61593" lon="5.3687">
        <ele>332</ele>
        <time>2020-06-03T11:31:41Z</time>
      </trkpt>
      <trkpt lat="43.6159" lon="5.36879">
        <ele>332</ele>
        <time>2020-06-03T11:31:46Z</time>
      </trkpt>
      <trkpt lat="43.61588" lon="5.36886">
        <ele>332</ele>
        <time>2020-06-03T11:31:50Z</time>
      </trkpt>
      <trkpt lat="43.61585" lon="5.36893">
        <ele>331</ele>
        <time>2020-06-03T11:31:55Z</time>
      </trkpt>
      <trkpt lat="43.6158" lon="5.36902">
        <ele>328</ele>
        <time>2020-06-03T11:32:00Z</time>
      </trkpt>
      <trkpt lat="43.61577" lon="5.36907">
        <ele>328</ele>
        <time>2020-06-03T11:32:04Z</time>
      </trkpt>
      <trkpt lat="43.61575" lon="5.36912">
        <ele>328</ele>
        <time>2020-06-03T11:32:08Z</time>
      </trkpt>
      <trkpt lat="43.61574" lon="5.36916">
        <ele>328</ele>
        <time>2020-06-03T11:32:12Z</time>
      </trkpt>
      <trkpt lat="43.61572" lon="5.36922">
        <ele>329</ele>
        <time>2020-06-03T11:32:17Z</time>
      </trkpt>
      <trkpt lat="43.6157" lon="5.36927">
        <ele>329</ele>
        <time>2020-06-03T11:32:21Z</time>
      </trkpt>
      <trkpt lat="43.61569" lon="5.36934">
        <ele>329</ele>
        <time>2020-06-03T11:32:25Z</time>
      </trkpt>
      <trkpt lat="43.61567" lon="5.36939">
        <ele>329</ele>
        <time>2020-06-03T11:32:29Z</time>
      </trkpt>
      <trkpt lat="43.61564" lon="5.36945">
        <ele>329</ele>
        <time>2020-06-03T11:32:34Z</time>
      </trkpt>
      <trkpt lat="43.61562" lon="5.36948">
        <ele>329</ele>
        <time>2020-06-03T11:32:38Z</time>
      </trkpt>
      <trkpt lat="43.61559" lon="5.36952">
        <ele>329</ele>
        <time>2020-06-03T11:32:42Z</time>
      </trkpt>
      <trkpt lat="43.61555" lon="5.36958">
        <ele>329</ele>
        <time>2020-06-03T11:32:46Z</time>
      </trkpt>
      <trkpt lat="43.61552" lon="5.36963">
        <ele>329</ele>
        <time>2020-06-03T11:32:50Z</time>
      </trkpt>
      <trkpt lat="43.61549" lon="5.36969">
        <ele>329</ele>
        <time>2020-06-03T11:32:54Z</time>
      </trkpt>
      <trkpt lat="43.61546" lon="5.36974">
        <ele>329</ele>
        <time>2020-06-03T11:32:58Z</time>
      </trkpt>
      <trkpt lat="43.61543" lon="5.3698">
        <ele>329</ele>
        <time>2020-06-03T11:33:03Z</time>
      </trkpt>
      <trkpt lat="43.6154" lon="5.36982">
        <ele>329</ele>
        <time>2020-06-03T11:33:07Z</time>
      </trkpt>
      <trkpt lat="43.61538" lon="5.36987">
        <ele>329</ele>
        <time>2020-06-03T11:33:11Z</time>
      </trkpt>
      <trkpt lat="43.61535" lon="5.36992">
        <ele>329</ele>
        <time>2020-06-03T11:33:15Z</time>
      </trkpt>
      <trkpt lat="43.61532" lon="5.36995">
        <ele>328</ele>
        <time>2020-06-03T11:33:20Z</time>
      </trkpt>
      <trkpt lat="43.6153" lon="5.36998">
        <ele>328</ele>
        <time>2020-06-03T11:33:24Z</time>
      </trkpt>
      <trkpt lat="43.61527" lon="5.37003">
        <ele>330</ele>
        <time>2020-06-03T11:33:29Z</time>
      </trkpt>
      <trkpt lat="43.61524" lon="5.37008">
        <ele>330</ele>
        <time>2020-06-03T11:33:33Z</time>
      </trkpt>
      <trkpt lat="43.6152" lon="5.37015">
        <ele>330</ele>
        <time>2020-06-03T11:33:38Z</time>
      </trkpt>
      <trkpt lat="43.61517" lon="5.37024">
        <ele>330</ele>
        <time>2020-06-03T11:33:42Z</time>
      </trkpt>
      <trkpt lat="43.61514" lon="5.3703">
        <ele>330</ele>
        <time>2020-06-03T11:33:46Z</time>
      </trkpt>
      <trkpt lat="43.6151" lon="5.37036">
        <ele>330</ele>
        <time>2020-06-03T11:33:51Z</time>
      </trkpt>
      <trkpt lat="43.61508" lon="5.37043">
        <ele>330</ele>
        <time>2020-06-03T11:33:55Z</time>
      </trkpt>
      <trkpt lat="43.61506" lon="5.37048">
        <ele>330</ele>
        <time>2020-06-03T11:33:59Z</time>
      </trkpt>
      <trkpt lat="43.61505" lon="5.37053">
        <ele>330</ele>
        <time>2020-06-03T11:34:03Z</time>
      </trkpt>
      <trkpt lat="43.61503" lon="5.37057">
        <ele>330</ele>
        <time>2020-06-03T11:34:07Z</time>
      </trkpt>
      <trkpt lat="43.61502" lon="5.37062">
        <ele>330</ele>
        <time>2020-06-03T11:34:11Z</time>
      </trkpt>
      <trkpt lat="43.615" lon="5.37071">
        <ele>328</ele>
        <time>2020-06-03T11:34:16Z</time>
      </trkpt>
      <trkpt lat="43.61497" lon="5.37077">
        <ele>328</ele>
        <time>2020-06-03T11:34:20Z</time>
      </trkpt>
      <trkpt lat="43.61494" lon="5.37086">
        <ele>329</ele>
        <time>2020-06-03T11:34:25Z</time>
      </trkpt>
      <trkpt lat="43.61492" lon="5.37093">
        <ele>329</ele>
        <time>2020-06-03T11:34:29Z</time>
      </trkpt>
      <trkpt lat="43.6149" lon="5.37098">
        <ele>328</ele>
        <time>2020-06-03T11:34:33Z</time>
      </trkpt>
      <trkpt lat="43.61488" lon="5.37106">
        <ele>328</ele>
        <time>2020-06-03T11:34:38Z</time>
      </trkpt>
      <trkpt lat="43.61485" lon="5.37113">
        <ele>328</ele>
        <time>2020-06-03T11:34:43Z</time>
      </trkpt>
      <trkpt lat="43.61483" lon="5.37118">
        <ele>328</ele>
        <time>2020-06-03T11:34:47Z</time>
      </trkpt>
      <trkpt lat="43.61479" lon="5.37125">
        <ele>328</ele>
        <time>2020-06-03T11:34:52Z</time>
      </trkpt>
      <trkpt lat="43.61476" lon="5.37133">
        <ele>328</ele>
        <time>2020-06-03T11:34:57Z</time>
      </trkpt>
      <trkpt lat="43.61473" lon="5.37138">
        <ele>328</ele>
        <time>2020-06-03T11:35:02Z</time>
      </trkpt>
      <trkpt lat="43.61471" lon="5.37143">
        <ele>328</ele>
        <time>2020-06-03T11:35:06Z</time>
      </trkpt>
      <trkpt lat="43.61469" lon="5.37149">
        <ele>328</ele>
        <time>2020-06-03T11:35:10Z</time>
      </trkpt>
      <trkpt lat="43.61467" lon="5.37154">
        <ele>328</ele>
        <time>2020-06-03T11:35:14Z</time>
      </trkpt>
      <trkpt lat="43.61465" lon="5.3716">
        <ele>328</ele>
        <time>2020-06-03T11:35:19Z</time>
      </trkpt>
      <trkpt lat="43.61464" lon="5.37164">
        <ele>328</ele>
        <time>2020-06-03T11:35:23Z</time>
      </trkpt>
      <trkpt lat="43.61462" lon="5.37172">
        <ele>329</ele>
        <time>2020-06-03T11:35:28Z</time>
      </trkpt>
      <trkpt lat="43.6146" lon="5.37174">
        <ele>329</ele>
        <time>2020-06-03T11:35:33Z</time>
      </trkpt>
      <trkpt lat="43.61461" lon="5.37174">
        <ele>329</ele>
        <time>2020-06-03T11:35:38Z</time>
      </trkpt>
      <trkpt lat="43.61462" lon="5.37174">
        <ele>329</ele>
        <time>2020-06-03T11:35:42Z</time>
      </trkpt>
      <trkpt lat="43.61461" lon="5.37174">
        <ele>329</ele>
        <time>2020-06-03T11:35:50Z</time>
      </trkpt>
      <trkpt lat="43.61461" lon="5.37175">
        <ele>329</ele>
        <time>2020-06-03T11:35:55Z</time>
      </trkpt>
      <trkpt lat="43.61461" lon="5.37175">
        <ele>329</ele>
        <time>2020-06-03T11:36:11Z</time>
      </trkpt>
      <trkpt lat="43.6146" lon="5.37174">
        <ele>329</ele>
        <time>2020-06-03T11:36:15Z</time>
      </trkpt>
      <trkpt lat="43.6146" lon="5.37173">
        <ele>329</ele>
        <time>2020-06-03T11:36:28Z</time>
      </trkpt>
      <trkpt lat="43.61459" lon="5.37173">
        <ele>329</ele>
        <time>2020-06-03T11:36:44Z</time>
      </trkpt>
      <trkpt lat="43.61458" lon="5.37178">
        <ele>329</ele>
        <time>2020-06-03T11:36:48Z</time>
      </trkpt>
      <trkpt lat="43.61459" lon="5.37182">
        <ele>329</ele>
        <time>2020-06-03T11:36:53Z</time>
      </trkpt>
      <trkpt lat="43.61458" lon="5.37187">
        <ele>329</ele>
        <time>2020-06-03T11:36:58Z</time>
      </trkpt>
      <trkpt lat="43.61458" lon="5.37193">
        <ele>330</ele>
        <time>2020-06-03T11:37:02Z</time>
      </trkpt>
      <trkpt lat="43.61457" lon="5.37196">
        <ele>330</ele>
        <time>2020-06-03T11:37:07Z</time>
      </trkpt>
      <trkpt lat="43.61455" lon="5.372">
        <ele>330</ele>
        <time>2020-06-03T11:37:11Z</time>
      </trkpt>
      <trkpt lat="43.61452" lon="5.37202">
        <ele>330</ele>
        <time>2020-06-03T11:37:16Z</time>
      </trkpt>
      <trkpt lat="43.6145" lon="5.37203">
        <ele>330</ele>
        <time>2020-06-03T11:37:20Z</time>
      </trkpt>
      <trkpt lat="43.61446" lon="5.37203">
        <ele>330</ele>
        <time>2020-06-03T11:37:25Z</time>
      </trkpt>
      <trkpt lat="43.61443" lon="5.37202">
        <ele>330</ele>
        <time>2020-06-03T11:37:29Z</time>
      </trkpt>
      <trkpt lat="43.61441" lon="5.37202">
        <ele>330</ele>
        <time>2020-06-03T11:37:33Z</time>
      </trkpt>
      <trkpt lat="43.6144" lon="5.37202">
        <ele>330</ele>
        <time>2020-06-03T11:37:37Z</time>
      </trkpt>
      <trkpt lat="43.61438" lon="5.37201">
        <ele>330</ele>
        <time>2020-06-03T11:37:41Z</time>
      </trkpt>
      <trkpt lat="43.61438" lon="5.37202">
        <ele>330</ele>
        <time>2020-06-03T11:37:46Z</time>
      </trkpt>
      <trkpt lat="43.61437" lon="5.37204">
        <ele>330</ele>
        <time>2020-06-03T11:37:50Z</time>
      </trkpt>
      <trkpt lat="43.61435" lon="5.37205">
        <ele>330</ele>
        <time>2020-06-03T11:37:54Z</time>
      </trkpt>
      <trkpt lat="43.61432" lon="5.37208">
        <ele>330</ele>
        <time>2020-06-03T11:37:59Z</time>
      </trkpt>
      <trkpt lat="43.6143" lon="5.37208">
        <ele>330</ele>
        <time>2020-06-03T11:38:03Z</time>
      </trkpt>
      <trkpt lat="43.61431" lon="5.37208">
        <ele>330</ele>
        <time>2020-06-03T11:38:16Z</time>
      </trkpt>
      <trkpt lat="43.61431" lon="5.37209">
        <ele>330</ele>
        <time>2020-06-03T11:38:26Z</time>
      </trkpt>
      <trkpt lat="43.6143" lon="5.3721">
        <ele>330</ele>
        <time>2020-06-03T11:39:05Z</time>
      </trkpt>
      <trkpt lat="43.6143" lon="5.37211">
        <ele>330</ele>
        <time>2020-06-03T11:39:41Z</time>
      </trkpt>
      <trkpt lat="43.61429" lon="5.37214">
        <ele>330</ele>
        <time>2020-06-03T11:39:45Z</time>
      </trkpt>
      <trkpt lat="43.61427" lon="5.37216">
        <ele>330</ele>
        <time>2020-06-03T11:39:49Z</time>
      </trkpt>
      <trkpt lat="43.61423" lon="5.37217">
        <ele>330</ele>
        <time>2020-06-03T11:39:54Z</time>
      </trkpt>
      <trkpt lat="43.61422" lon="5.37217">
        <ele>330</ele>
        <time>2020-06-03T11:39:59Z</time>
      </trkpt>
      <trkpt lat="43.61421" lon="5.37217">
        <ele>330</ele>
        <time>2020-06-03T11:40:03Z</time>
      </trkpt>
      <trkpt lat="43.61418" lon="5.37218">
        <ele>330</ele>
        <time>2020-06-03T11:40:08Z</time>
      </trkpt>
      <trkpt lat="43.61413" lon="5.37215">
        <ele>329</ele>
        <time>2020-06-03T11:40:13Z</time>
      </trkpt>
      <trkpt lat="43.6141" lon="5.37215">
        <ele>329</ele>
        <time>2020-06-03T11:40:17Z</time>
      </trkpt>
      <trkpt lat="43.61407" lon="5.37217">
        <ele>329</ele>
        <time>2020-06-03T11:40:21Z</time>
      </trkpt>
      <trkpt lat="43.61404" lon="5.37219">
        <ele>329</ele>
        <time>2020-06-03T11:40:25Z</time>
      </trkpt>
      <trkpt lat="43.614" lon="5.37221">
        <ele>329</ele>
        <time>2020-06-03T11:40:30Z</time>
      </trkpt>
      <trkpt lat="43.61397" lon="5.37222">
        <ele>328</ele>
        <time>2020-06-03T11:40:34Z</time>
      </trkpt>
      <trkpt lat="43.61392" lon="5.37222">
        <ele>328</ele>
        <time>2020-06-03T11:40:38Z</time>
      </trkpt>
      <trkpt lat="43.61389" lon="5.37222">
        <ele>328</ele>
        <time>2020-06-03T11:40:43Z</time>
      </trkpt>
      <trkpt lat="43.61383" lon="5.37221">
        <ele>328</ele>
        <time>2020-06-03T11:40:47Z</time>
      </trkpt>
      <trkpt lat="43.61379" lon="5.37225">
        <ele>328</ele>
        <time>2020-06-03T11:40:51Z</time>
      </trkpt>
      <trkpt lat="43.61377" lon="5.37226">
        <ele>328</ele>
        <time>2020-06-03T11:40:55Z</time>
      </trkpt>
      <trkpt lat="43.61376" lon="5.37225">
        <ele>328</ele>
        <time>2020-06-03T11:41:00Z</time>
      </trkpt>
      <trkpt lat="43.61374" lon="5.37224">
        <ele>328</ele>
        <time>2020-06-03T11:41:04Z</time>
      </trkpt>
      <trkpt lat="43.6137" lon="5.37221">
        <ele>328</ele>
        <time>2020-06-03T11:41:08Z</time>
      </trkpt>
      <trkpt lat="43.61367" lon="5.37219">
        <ele>328</ele>
        <time>2020-06-03T11:41:13Z</time>
      </trkpt>
      <trkpt lat="43.61366" lon="5.3722">
        <ele>328</ele>
        <time>2020-06-03T11:41:17Z</time>
      </trkpt>
      <trkpt lat="43.61367" lon="5.37218">
        <ele>328</ele>
        <time>2020-06-03T11:41:22Z</time>
      </trkpt>
      <trkpt lat="43.61366" lon="5.37219">
        <ele>328</ele>
        <time>2020-06-03T11:41:30Z</time>
      </trkpt>
      <trkpt lat="43.61364" lon="5.37216">
        <ele>328</ele>
        <time>2020-06-03T11:41:35Z</time>
      </trkpt>
      <trkpt lat="43.61367" lon="5.37218">
        <ele>328</ele>
        <time>2020-06-03T11:41:39Z</time>
      </trkpt>
      <trkpt lat="43.61366" lon="5.37219">
        <ele>328</ele>
        <time>2020-06-03T11:41:43Z</time>
      </trkpt>
      <trkpt lat="43.61365" lon="5.37217">
        <ele>328</ele>
        <time>2020-06-03T11:41:48Z</time>
      </trkpt>
      <trkpt lat="43.61364" lon="5.37217">
        <ele>328</ele>
        <time>2020-06-03T11:41:52Z</time>
      </trkpt>
      <trkpt lat="43.61364" lon="5.37219">
        <ele>328</ele>
        <time>2020-06-03T11:42:07Z</time>
      </trkpt>
      <trkpt lat="43.61364" lon="5.37219">
        <ele>328</ele>
        <time>2020-06-03T11:42:13Z</time>
      </trkpt>
      <trkpt lat="43.61364" lon="5.37219">
        <ele>328</ele>
        <time>2020-06-03T11:42:21Z</time>
      </trkpt>
      <trkpt lat="43.61358" lon="5.37218">
        <ele>327</ele>
        <time>2020-06-03T11:42:26Z</time>
      </trkpt>
      <trkpt lat="43.61355" lon="5.3722">
        <ele>327</ele>
        <time>2020-06-03T11:42:30Z</time>
      </trkpt>
      <trkpt lat="43.61354" lon="5.37221">
        <ele>327</ele>
        <time>2020-06-03T11:42:34Z</time>
      </trkpt>
      <trkpt lat="43.61349" lon="5.37219">
        <ele>327</ele>
        <time>2020-06-03T11:42:39Z</time>
      </trkpt>
      <trkpt lat="43.61345" lon="5.37218">
        <ele>327</ele>
        <time>2020-06-03T11:42:43Z</time>
      </trkpt>
      <trkpt lat="43.61342" lon="5.37217">
        <ele>327</ele>
        <time>2020-06-03T11:42:47Z</time>
      </trkpt>
      <trkpt lat="43.61337" lon="5.37217">
        <ele>327</ele>
        <time>2020-06-03T11:42:52Z</time>
      </trkpt>
      <trkpt lat="43.61334" lon="5.37215">
        <ele>327</ele>
        <time>2020-06-03T11:42:56Z</time>
      </trkpt>
      <trkpt lat="43.6133" lon="5.37214">
        <ele>326</ele>
        <time>2020-06-03T11:43:00Z</time>
      </trkpt>
      <trkpt lat="43.61323" lon="5.37213">
        <ele>326</ele>
        <time>2020-06-03T11:43:05Z</time>
      </trkpt>
      <trkpt lat="43.61318" lon="5.37212">
        <ele>326</ele>
        <time>2020-06-03T11:43:10Z</time>
      </trkpt>
      <trkpt lat="43.61314" lon="5.37211">
        <ele>326</ele>
        <time>2020-06-03T11:43:14Z</time>
      </trkpt>
      <trkpt lat="43.6131" lon="5.37213">
        <ele>326</ele>
        <time>2020-06-03T11:43:18Z</time>
      </trkpt>
      <trkpt lat="43.61306" lon="5.37214">
        <ele>326</ele>
        <time>2020-06-03T11:43:23Z</time>
      </trkpt>
      <trkpt lat="43.61302" lon="5.37215">
        <ele>326</ele>
        <time>2020-06-03T11:43:27Z</time>
      </trkpt>
      <trkpt lat="43.61298" lon="5.37215">
        <ele>326</ele>
        <time>2020-06-03T11:43:32Z</time>
      </trkpt>
      <trkpt lat="43.61294" lon="5.37218">
        <ele>326</ele>
        <time>2020-06-03T11:43:36Z</time>
      </trkpt>
      <trkpt lat="43.61288" lon="5.37221">
        <ele>326</ele>
        <time>2020-06-03T11:43:41Z</time>
      </trkpt>
      <trkpt lat="43.61284" lon="5.37222">
        <ele>326</ele>
        <time>2020-06-03T11:43:45Z</time>
      </trkpt>
      <trkpt lat="43.61279" lon="5.37223">
        <ele>326</ele>
        <time>2020-06-03T11:43:50Z</time>
      </trkpt>
      <trkpt lat="43.61273" lon="5.37222">
        <ele>326</ele>
        <time>2020-06-03T11:43:54Z</time>
      </trkpt>
      <trkpt lat="43.6127" lon="5.37223">
        <ele>326</ele>
        <time>2020-06-03T11:43:58Z</time>
      </trkpt>
      <trkpt lat="43.61265" lon="5.37223">
        <ele>326</ele>
        <time>2020-06-03T11:44:02Z</time>
      </trkpt>
      <trkpt lat="43.61262" lon="5.37222">
        <ele>326</ele>
        <time>2020-06-03T11:44:06Z</time>
      </trkpt>
      <trkpt lat="43.61257" lon="5.37224">
        <ele>326</ele>
        <time>2020-06-03T11:44:11Z</time>
      </trkpt>
      <trkpt lat="43.61255" lon="5.37223">
        <ele>326</ele>
        <time>2020-06-03T11:44:15Z</time>
      </trkpt>
      <trkpt lat="43.6125" lon="5.37226">
        <ele>326</ele>
        <time>2020-06-03T11:44:19Z</time>
      </trkpt>
      <trkpt lat="43.61245" lon="5.37226">
        <ele>326</ele>
        <time>2020-06-03T11:44:23Z</time>
      </trkpt>
      <trkpt lat="43.61244" lon="5.37228">
        <ele>326</ele>
        <time>2020-06-03T11:44:27Z</time>
      </trkpt>
      <trkpt lat="43.61239" lon="5.37227">
        <ele>326</ele>
        <time>2020-06-03T11:44:31Z</time>
      </trkpt>
      <trkpt lat="43.61234" lon="5.37227">
        <ele>326</ele>
        <time>2020-06-03T11:44:35Z</time>
      </trkpt>
      <trkpt lat="43.61231" lon="5.3723">
        <ele>326</ele>
        <time>2020-06-03T11:44:39Z</time>
      </trkpt>
      <trkpt lat="43.61223" lon="5.37229">
        <ele>326</ele>
        <time>2020-06-03T11:44:44Z</time>
      </trkpt>
      <trkpt lat="43.61214" lon="5.37229">
        <ele>326</ele>
        <time>2020-06-03T11:44:49Z</time>
      </trkpt>
      <trkpt lat="43.61209" lon="5.37228">
        <ele>326</ele>
        <time>2020-06-03T11:44:53Z</time>
      </trkpt>
      <trkpt lat="43.61204" lon="5.37226">
        <ele>326</ele>
        <time>2020-06-03T11:44:57Z</time>
      </trkpt>
      <trkpt lat="43.61199" lon="5.37224">
        <ele>326</ele>
        <time>2020-06-03T11:45:02Z</time>
      </trkpt>
      <trkpt lat="43.61194" lon="5.37223">
        <ele>326</ele>
        <time>2020-06-03T11:45:06Z</time>
      </trkpt>
      <trkpt lat="43.61191" lon="5.37223">
        <ele>326</ele>
        <time>2020-06-03T11:45:11Z</time>
      </trkpt>
      <trkpt lat="43.61189" lon="5.37223">
        <ele>326</ele>
        <time>2020-06-03T11:45:16Z</time>
      </trkpt>
      <trkpt lat="43.61187" lon="5.37224">
        <ele>326</ele>
        <time>2020-06-03T11:45:20Z</time>
      </trkpt>
      <trkpt lat="43.61183" lon="5.37227">
        <ele>326</ele>
        <time>2020-06-03T11:45:25Z</time>
      </trkpt>
      <trkpt lat="43.61179" lon="5.37228">
        <ele>326</ele>
        <time>2020-06-03T11:45:29Z</time>
      </trkpt>
      <trkpt lat="43.61176" lon="5.37231">
        <ele>326</ele>
        <time>2020-06-03T11:45:33Z</time>
      </trkpt>
      <trkpt lat="43.61172" lon="5.37235">
        <ele>327</ele>
        <time>2020-06-03T11:45:37Z</time>
      </trkpt>
      <trkpt lat="43.61168" lon="5.37237">
        <ele>327</ele>
        <time>2020-06-03T11:45:41Z</time>
      </trkpt>
      <trkpt lat="43.61165" lon="5.37239">
        <ele>326</ele>
        <time>2020-06-03T11:45:45Z</time>
      </trkpt>
      <trkpt lat="43.61161" lon="5.37241">
        <ele>326</ele>
        <time>2020-06-03T11:45:49Z</time>
      </trkpt>
      <trkpt lat="43.61154" lon="5.37245">
        <ele>326</ele>
        <time>2020-06-03T11:45:54Z</time>
      </trkpt>
      <trkpt lat="43.61151" lon="5.37247">
        <ele>326</ele>
        <time>2020-06-03T11:45:58Z</time>
      </trkpt>
      <trkpt lat="43.61147" lon="5.37247">
        <ele>326</ele>
        <time>2020-06-03T11:46:02Z</time>
      </trkpt>
      <trkpt lat="43.61143" lon="5.37247">
        <ele>326</ele>
        <time>2020-06-03T11:46:06Z</time>
      </trkpt>
      <trkpt lat="43.61138" lon="5.37248">
        <ele>326</ele>
        <time>2020-06-03T11:46:11Z</time>
      </trkpt>
      <trkpt lat="43.61131" lon="5.37249">
        <ele>326</ele>
        <time>2020-06-03T11:46:15Z</time>
      </trkpt>
      <trkpt lat="43.61128" lon="5.3725">
        <ele>326</ele>
        <time>2020-06-03T11:46:19Z</time>
      </trkpt>
      <trkpt lat="43.61123" lon="5.37253">
        <ele>328</ele>
        <time>2020-06-03T11:46:23Z</time>
      </trkpt>
      <trkpt lat="43.61118" lon="5.37254">
        <ele>328</ele>
        <time>2020-06-03T11:46:27Z</time>
      </trkpt>
      <trkpt lat="43.61114" lon="5.37253">
        <ele>328</ele>
        <time>2020-06-03T11:46:31Z</time>
      </trkpt>
      <trkpt lat="43.6111" lon="5.37255">
        <ele>328</ele>
        <time>2020-06-03T11:46:35Z</time>
      </trkpt>
      <trkpt lat="43.61103" lon="5.37258">
        <ele>328</ele>
        <time>2020-06-03T11:46:40Z</time>
      </trkpt>
      <trkpt lat="43.61099" lon="5.37259">
        <ele>328</ele>
        <time>2020-06-03T11:46:45Z</time>
      </trkpt>
      <trkpt lat="43.61095" lon="5.3726">
        <ele>328</ele>
        <time>2020-06-03T11:46:49Z</time>
      </trkpt>
      <trkpt lat="43.61094" lon="5.3726">
        <ele>328</ele>
        <time>2020-06-03T11:46:53Z</time>
      </trkpt>
      <trkpt lat="43.61091" lon="5.37261">
        <ele>328</ele>
        <time>2020-06-03T11:46:57Z</time>
      </trkpt>
      <trkpt lat="43.61088" lon="5.3726">
        <ele>327</ele>
        <time>2020-06-03T11:47:01Z</time>
      </trkpt>
      <trkpt lat="43.61083" lon="5.37261">
        <ele>327</ele>
        <time>2020-06-03T11:47:06Z</time>
      </trkpt>
      <trkpt lat="43.61079" lon="5.37262">
        <ele>327</ele>
        <time>2020-06-03T11:47:10Z</time>
      </trkpt>
      <trkpt lat="43.61075" lon="5.37264">
        <ele>327</ele>
        <time>2020-06-03T11:47:15Z</time>
      </trkpt>
      <trkpt lat="43.61071" lon="5.37265">
        <ele>327</ele>
        <time>2020-06-03T11:47:20Z</time>
      </trkpt>
      <trkpt lat="43.61067" lon="5.37265">
        <ele>327</ele>
        <time>2020-06-03T11:47:24Z</time>
      </trkpt>
      <trkpt lat="43.61064" lon="5.37267">
        <ele>327</ele>
        <time>2020-06-03T11:47:29Z</time>
      </trkpt>
      <trkpt lat="43.61059" lon="5.37268">
        <ele>327</ele>
        <time>2020-06-03T11:47:33Z</time>
      </trkpt>
      <trkpt lat="43.61055" lon="5.37269">
        <ele>327</ele>
        <time>2020-06-03T11:47:38Z</time>
      </trkpt>
      <trkpt lat="43.61052" lon="5.37269">
        <ele>327</ele>
        <time>2020-06-03T11:47:42Z</time>
      </trkpt>
      <trkpt lat="43.61048" lon="5.37271">
        <ele>327</ele>
        <time>2020-06-03T11:47:46Z</time>
      </trkpt>
      <trkpt lat="43.61042" lon="5.37272">
        <ele>327</ele>
        <time>2020-06-03T11:47:51Z</time>
      </trkpt>
      <trkpt lat="43.61037" lon="5.37275">
        <ele>327</ele>
        <time>2020-06-03T11:47:55Z</time>
      </trkpt>
      <trkpt lat="43.61032" lon="5.37276">
        <ele>327</ele>
        <time>2020-06-03T11:47:59Z</time>
      </trkpt>
      <trkpt lat="43.61029" lon="5.37278">
        <ele>326</ele>
        <time>2020-06-03T11:48:03Z</time>
      </trkpt>
      <trkpt lat="43.61023" lon="5.37282">
        <ele>326</ele>
        <time>2020-06-03T11:48:07Z</time>
      </trkpt>
      <trkpt lat="43.61018" lon="5.37284">
        <ele>326</ele>
        <time>2020-06-03T11:48:12Z</time>
      </trkpt>
      <trkpt lat="43.61012" lon="5.37286">
        <ele>326</ele>
        <time>2020-06-03T11:48:16Z</time>
      </trkpt>
      <trkpt lat="43.61008" lon="5.37287">
        <ele>326</ele>
        <time>2020-06-03T11:48:21Z</time>
      </trkpt>
      <trkpt lat="43.61003" lon="5.37288">
        <ele>326</ele>
        <time>2020-06-03T11:48:26Z</time>
      </trkpt>
      <trkpt lat="43.61" lon="5.37289">
        <ele>325</ele>
        <time>2020-06-03T11:48:30Z</time>
      </trkpt>
      <trkpt lat="43.60995" lon="5.37289">
        <ele>325</ele>
        <time>2020-06-03T11:48:34Z</time>
      </trkpt>
      <trkpt lat="43.60991" lon="5.37291">
        <ele>325</ele>
        <time>2020-06-03T11:48:38Z</time>
      </trkpt>
      <trkpt lat="43.60988" lon="5.37291">
        <ele>325</ele>
        <time>2020-06-03T11:48:42Z</time>
      </trkpt>
      <trkpt lat="43.60985" lon="5.37293">
        <ele>325</ele>
        <time>2020-06-03T11:48:47Z</time>
      </trkpt>
      <trkpt lat="43.60981" lon="5.37294">
        <ele>325</ele>
        <time>2020-06-03T11:48:51Z</time>
      </trkpt>
      <trkpt lat="43.60975" lon="5.37297">
        <ele>325</ele>
        <time>2020-06-03T11:48:56Z</time>
      </trkpt>
      <trkpt lat="43.6097" lon="5.37297">
        <ele>325</ele>
        <time>2020-06-03T11:49:00Z</time>
      </trkpt>
      <trkpt lat="43.60965" lon="5.37299">
        <ele>325</ele>
        <time>2020-06-03T11:49:05Z</time>
      </trkpt>
      <trkpt lat="43.60961" lon="5.373">
        <ele>325</ele>
        <time>2020-06-03T11:49:09Z</time>
      </trkpt>
      <trkpt lat="43.60956" lon="5.37302">
        <ele>325</ele>
        <time>2020-06-03T11:49:14Z</time>
      </trkpt>
      <trkpt lat="43.60953" lon="5.37302">
        <ele>325</ele>
        <time>2020-06-03T11:49:18Z</time>
      </trkpt>
      <trkpt lat="43.60946" lon="5.37301">
        <ele>325</ele>
        <time>2020-06-03T11:49:23Z</time>
      </trkpt>
      <trkpt lat="43.60942" lon="5.37301">
        <ele>324</ele>
        <time>2020-06-03T11:49:28Z</time>
      </trkpt>
      <trkpt lat="43.60938" lon="5.37301">
        <ele>324</ele>
        <time>2020-06-03T11:49:32Z</time>
      </trkpt>
      <trkpt lat="43.60933" lon="5.37302">
        <ele>324</ele>
        <time>2020-06-03T11:49:36Z</time>
      </trkpt>
      <trkpt lat="43.60928" lon="5.37302">
        <ele>324</ele>
        <time>2020-06-03T11:49:40Z</time>
      </trkpt>
      <trkpt lat="43.60922" lon="5.37303">
        <ele>324</ele>
        <time>2020-06-03T11:49:45Z</time>
      </trkpt>
      <trkpt lat="43.60916" lon="5.37305">
        <ele>323</ele>
        <time>2020-06-03T11:49:49Z</time>
      </trkpt>
      <trkpt lat="43.60912" lon="5.37306">
        <ele>323</ele>
        <time>2020-06-03T11:49:53Z</time>
      </trkpt>
      <trkpt lat="43.60907" lon="5.37308">
        <ele>323</ele>
        <time>2020-06-03T11:49:58Z</time>
      </trkpt>
      <trkpt lat="43.60902" lon="5.37309">
        <ele>323</ele>
        <time>2020-06-03T11:50:02Z</time>
      </trkpt>
      <trkpt lat="43.60898" lon="5.37308">
        <ele>323</ele>
        <time>2020-06-03T11:50:07Z</time>
      </trkpt>
      <trkpt lat="43.60894" lon="5.37308">
        <ele>323</ele>
        <time>2020-06-03T11:50:11Z</time>
      </trkpt>
      <trkpt lat="43.60889" lon="5.37306">
        <ele>323</ele>
        <time>2020-06-03T11:50:16Z</time>
      </trkpt>
      <trkpt lat="43.60884" lon="5.37305">
        <ele>323</ele>
        <time>2020-06-03T11:50:20Z</time>
      </trkpt>
      <trkpt lat="43.60882" lon="5.37306">
        <ele>323</ele>
        <time>2020-06-03T11:50:24Z</time>
      </trkpt>
      <trkpt lat="43.60877" lon="5.37307">
        <ele>323</ele>
        <time>2020-06-03T11:50:28Z</time>
      </trkpt>
      <trkpt lat="43.60875" lon="5.37306">
        <ele>323</ele>
        <time>2020-06-03T11:50:32Z</time>
      </trkpt>
      <trkpt lat="43.60871" lon="5.37307">
        <ele>323</ele>
        <time>2020-06-03T11:50:37Z</time>
      </trkpt>
      <trkpt lat="43.60866" lon="5.37306">
        <ele>323</ele>
        <time>2020-06-03T11:50:41Z</time>
      </trkpt>
      <trkpt lat="43.60861" lon="5.37306">
        <ele>323</ele>
        <time>2020-06-03T11:50:45Z</time>
      </trkpt>
      <trkpt lat="43.60857" lon="5.37309">
        <ele>323</ele>
        <time>2020-06-03T11:50:49Z</time>
      </trkpt>
      <trkpt lat="43.60854" lon="5.37311">
        <ele>323</ele>
        <time>2020-06-03T11:50:53Z</time>
      </trkpt>
      <trkpt lat="43.60849" lon="5.37314">
        <ele>323</ele>
        <time>2020-06-03T11:50:58Z</time>
      </trkpt>
      <trkpt lat="43.60844" lon="5.37316">
        <ele>323</ele>
        <time>2020-06-03T11:51:02Z</time>
      </trkpt>
      <trkpt lat="43.60841" lon="5.37318">
        <ele>323</ele>
        <time>2020-06-03T11:51:06Z</time>
      </trkpt>
      <trkpt lat="43.60837" lon="5.37319">
        <ele>323</ele>
        <time>2020-06-03T11:51:11Z</time>
      </trkpt>
      <trkpt lat="43.60832" lon="5.37321">
        <ele>322</ele>
        <time>2020-06-03T11:51:16Z</time>
      </trkpt>
      <trkpt lat="43.60829" lon="5.37322">
        <ele>322</ele>
        <time>2020-06-03T11:51:20Z</time>
      </trkpt>
      <trkpt lat="43.60822" lon="5.37323">
        <ele>322</ele>
        <time>2020-06-03T11:51:25Z</time>
      </trkpt>
      <trkpt lat="43.60818" lon="5.37324">
        <ele>321</ele>
        <time>2020-06-03T11:51:29Z</time>
      </trkpt>
      <trkpt lat="43.60814" lon="5.37326">
        <ele>321</ele>
        <time>2020-06-03T11:51:34Z</time>
      </trkpt>
      <trkpt lat="43.6081" lon="5.37325">
        <ele>321</ele>
        <time>2020-06-03T11:51:38Z</time>
      </trkpt>
      <trkpt lat="43.60804" lon="5.37325">
        <ele>321</ele>
        <time>2020-06-03T11:51:43Z</time>
      </trkpt>
      <trkpt lat="43.60799" lon="5.37324">
        <ele>321</ele>
        <time>2020-06-03T11:51:47Z</time>
      </trkpt>
      <trkpt lat="43.60796" lon="5.37324">
        <ele>320</ele>
        <time>2020-06-03T11:51:51Z</time>
      </trkpt>
      <trkpt lat="43.60793" lon="5.37324">
        <ele>320</ele>
        <time>2020-06-03T11:51:55Z</time>
      </trkpt>
      <trkpt lat="43.60789" lon="5.37324">
        <ele>320</ele>
        <time>2020-06-03T11:51:59Z</time>
      </trkpt>
      <trkpt lat="43.60785" lon="5.37326">
        <ele>320</ele>
        <time>2020-06-03T11:52:03Z</time>
      </trkpt>
      <trkpt lat="43.6078" lon="5.37325">
        <ele>320</ele>
        <time>2020-06-03T11:52:07Z</time>
      </trkpt>
      <trkpt lat="43.60773" lon="5.37323">
        <ele>320</ele>
        <time>2020-06-03T11:52:12Z</time>
      </trkpt>
      <trkpt lat="43.60769" lon="5.37323">
        <ele>320</ele>
        <time>2020-06-03T11:52:16Z</time>
      </trkpt>
      <trkpt lat="43.60765" lon="5.37322">
        <ele>320</ele>
        <time>2020-06-03T11:52:20Z</time>
      </trkpt>
      <trkpt lat="43.60759" lon="5.37321">
        <ele>319</ele>
        <time>2020-06-03T11:52:24Z</time>
      </trkpt>
      <trkpt lat="43.60755" lon="5.37321">
        <ele>319</ele>
        <time>2020-06-03T11:52:28Z</time>
      </trkpt>
      <trkpt lat="43.6075" lon="5.37319">
        <ele>319</ele>
        <time>2020-06-03T11:52:32Z</time>
      </trkpt>
      <trkpt lat="43.60745" lon="5.37319">
        <ele>318</ele>
        <time>2020-06-03T11:52:37Z</time>
      </trkpt>
      <trkpt lat="43.6074" lon="5.37318">
        <ele>318</ele>
        <time>2020-06-03T11:52:41Z</time>
      </trkpt>
      <trkpt lat="43.60735" lon="5.37317">
        <ele>318</ele>
        <time>2020-06-03T11:52:45Z</time>
      </trkpt>
      <trkpt lat="43.6073" lon="5.37316">
        <ele>318</ele>
        <time>2020-06-03T11:52:50Z</time>
      </trkpt>
      <trkpt lat="43.60728" lon="5.37317">
        <ele>318</ele>
        <time>2020-06-03T11:52:54Z</time>
      </trkpt>
      <trkpt lat="43.60724" lon="5.37318">
        <ele>318</ele>
        <time>2020-06-03T11:52:59Z</time>
      </trkpt>
      <trkpt lat="43.6072" lon="5.37318">
        <ele>317</ele>
        <time>2020-06-03T11:53:03Z</time>
      </trkpt>
      <trkpt lat="43.60716" lon="5.37317">
        <ele>317</ele>
        <time>2020-06-03T11:53:07Z</time>
      </trkpt>
      <trkpt lat="43.60711" lon="5.37315">
        <ele>317</ele>
        <time>2020-06-03T11:53:12Z</time>
      </trkpt>
      <trkpt lat="43.60707" lon="5.37314">
        <ele>317</ele>
        <time>2020-06-03T11:53:16Z</time>
      </trkpt>
      <trkpt lat="43.60706" lon="5.37314">
        <ele>317</ele>
        <time>2020-06-03T11:53:21Z</time>
      </trkpt>
      <trkpt lat="43.60704" lon="5.37315">
        <ele>317</ele>
        <time>2020-06-03T11:53:25Z</time>
      </trkpt>
      <trkpt lat="43.60701" lon="5.37316">
        <ele>317</ele>
        <time>2020-06-03T11:53:29Z</time>
      </trkpt>
      <trkpt lat="43.60694" lon="5.37315">
        <ele>317</ele>
        <time>2020-06-03T11:53:34Z</time>
      </trkpt>
      <trkpt lat="43.60687" lon="5.37312">
        <ele>317</ele>
        <time>2020-06-03T11:53:39Z</time>
      </trkpt>
      <trkpt lat="43.60683" lon="5.37312">
        <ele>317</ele>
        <time>2020-06-03T11:53:43Z</time>
      </trkpt>
      <trkpt lat="43.60679" lon="5.37314">
        <ele>317</ele>
        <time>2020-06-03T11:53:47Z</time>
      </trkpt>
      <trkpt lat="43.60673" lon="5.37315">
        <ele>317</ele>
        <time>2020-06-03T11:53:52Z</time>
      </trkpt>
      <trkpt lat="43.6067" lon="5.37316">
        <ele>317</ele>
        <time>2020-06-03T11:53:56Z</time>
      </trkpt>
      <trkpt lat="43.60666" lon="5.37317">
        <ele>316</ele>
        <time>2020-06-03T11:54:00Z</time>
      </trkpt>
      <trkpt lat="43.60662" lon="5.37317">
        <ele>316</ele>
        <time>2020-06-03T11:54:04Z</time>
      </trkpt>
      <trkpt lat="43.60657" lon="5.37317">
        <ele>316</ele>
        <time>2020-06-03T11:54:09Z</time>
      </trkpt>
      <trkpt lat="43.60653" lon="5.37317">
        <ele>316</ele>
        <time>2020-06-03T11:54:14Z</time>
      </trkpt>
      <trkpt lat="43.60649" lon="5.37319">
        <ele>316</ele>
        <time>2020-06-03T11:54:19Z</time>
      </trkpt>
      <trkpt lat="43.60645" lon="5.37318">
        <ele>315</ele>
        <time>2020-06-03T11:54:23Z</time>
      </trkpt>
      <trkpt lat="43.60642" lon="5.37319">
        <ele>315</ele>
        <time>2020-06-03T11:54:27Z</time>
      </trkpt>
      <trkpt lat="43.60636" lon="5.37321">
        <ele>315</ele>
        <time>2020-06-03T11:54:32Z</time>
      </trkpt>
      <trkpt lat="43.60633" lon="5.37322">
        <ele>315</ele>
        <time>2020-06-03T11:54:36Z</time>
      </trkpt>
      <trkpt lat="43.60629" lon="5.37324">
        <ele>315</ele>
        <time>2020-06-03T11:54:41Z</time>
      </trkpt>
      <trkpt lat="43.60624" lon="5.37325">
        <ele>315</ele>
        <time>2020-06-03T11:54:45Z</time>
      </trkpt>
      <trkpt lat="43.60617" lon="5.37324">
        <ele>315</ele>
        <time>2020-06-03T11:54:50Z</time>
      </trkpt>
      <trkpt lat="43.60613" lon="5.37324">
        <ele>315</ele>
        <time>2020-06-03T11:54:54Z</time>
      </trkpt>
      <trkpt lat="43.60604" lon="5.37328">
        <ele>314</ele>
        <time>2020-06-03T11:54:59Z</time>
      </trkpt>
      <trkpt lat="43.606" lon="5.37329">
        <ele>314</ele>
        <time>2020-06-03T11:55:04Z</time>
      </trkpt>
      <trkpt lat="43.60598" lon="5.37332">
        <ele>314</ele>
        <time>2020-06-03T11:55:08Z</time>
      </trkpt>
      <trkpt lat="43.60596" lon="5.37334">
        <ele>315</ele>
        <time>2020-06-03T11:55:12Z</time>
      </trkpt>
      <trkpt lat="43.60596" lon="5.37334">
        <ele>315</ele>
        <time>2020-06-03T11:55:18Z</time>
      </trkpt>
      <trkpt lat="43.6059" lon="5.37334">
        <ele>315</ele>
        <time>2020-06-03T11:55:23Z</time>
      </trkpt>
      <trkpt lat="43.60584" lon="5.37334">
        <ele>314</ele>
        <time>2020-06-03T11:55:28Z</time>
      </trkpt>
      <trkpt lat="43.60579" lon="5.37334">
        <ele>314</ele>
        <time>2020-06-03T11:55:33Z</time>
      </trkpt>
      <trkpt lat="43.60576" lon="5.37337">
        <ele>314</ele>
        <time>2020-06-03T11:55:38Z</time>
      </trkpt>
      <trkpt lat="43.60576" lon="5.37343">
        <ele>313</ele>
        <time>2020-06-03T11:55:42Z</time>
      </trkpt>
      <trkpt lat="43.60576" lon="5.37345">
        <ele>313</ele>
        <time>2020-06-03T11:55:44Z</time>
      </trkpt>
      <trkpt lat="43.60576" lon="5.37345">
        <ele>313</ele>
        <time>2020-06-03T11:55:44Z</time>
      </trkpt>
    </trkseg>
  </trk>
</gpx>